<?xml version="1.0" encoding="UTF-8" standalone="no" ?>
<gpx xmlns="http://www.topografix.com/GPX/1/1" xmlns:xsi="http://www.w3.org/2001/XMLSchema-instance" xsi:schemaLocation="http://www.topografix.com/GPX/1/1 http://www.topografix.com/GPX/1/1/gpx.xsd" version="1.1" creator="VisuGPX - https://www.visugpx.com">
  <metadata>
    <name>Tour des lacs de Néouvielle en 2 jours - J2</name>
    <desc><![CDATA[Seconde journée du tour des lacs de Néouvielle (65) en partant du pont de Gaubie - route du Tourmalet. 

Le chemin pour monter à la Hourquette Nère est bien tracé mais il faut faire attention à ne pas se tromper de lac pour se repérer. 

La descente de la hourquette est très longue : on croit que c\'est une belle route nationale en fait c\'est une mauvaise départementale usante jusqu\'à la piste.]]></desc>
  </metadata>
  <trk>
    <name><![CDATA[LAc de Néouvielle J1]]></name>
    <trkseg>
      <trkpt lat="42.83964" lon="0.19762">
        <ele>1822</ele>
        <time>2011-07-21T08:03:31Z</time>
      </trkpt>
      <trkpt lat="42.83983" lon="0.19788">
        <ele>1830</ele>
        <time>2011-07-21T08:04:33Z</time>
      </trkpt>
      <trkpt lat="42.83982" lon="0.19791">
        <ele>1830</ele>
        <time>2011-07-21T08:04:35Z</time>
      </trkpt>
      <trkpt lat="42.83981" lon="0.19793">
        <ele>1830</ele>
        <time>2011-07-21T08:04:37Z</time>
      </trkpt>
      <trkpt lat="42.83981" lon="0.19801">
        <ele>1830</ele>
        <time>2011-07-21T08:04:43Z</time>
      </trkpt>
      <trkpt lat="42.83981" lon="0.19804">
        <ele>1830</ele>
        <time>2011-07-21T08:04:45Z</time>
      </trkpt>
      <trkpt lat="42.83981" lon="0.19807">
        <ele>1830</ele>
        <time>2011-07-21T08:04:47Z</time>
      </trkpt>
      <trkpt lat="42.83984" lon="0.19813">
        <ele>1830</ele>
        <time>2011-07-21T08:04:52Z</time>
      </trkpt>
      <trkpt lat="42.83986" lon="0.19815">
        <ele>1830</ele>
        <time>2011-07-21T08:04:54Z</time>
      </trkpt>
      <trkpt lat="42.83987" lon="0.19816">
        <ele>1830</ele>
        <time>2011-07-21T08:04:56Z</time>
      </trkpt>
      <trkpt lat="42.8399" lon="0.19818">
        <ele>1830</ele>
        <time>2011-07-21T08:05:00Z</time>
      </trkpt>
      <trkpt lat="42.83992" lon="0.1982">
        <ele>1830</ele>
        <time>2011-07-21T08:05:02Z</time>
      </trkpt>
      <trkpt lat="42.83993" lon="0.19822">
        <ele>1830</ele>
        <time>2011-07-21T08:05:04Z</time>
      </trkpt>
      <trkpt lat="42.83993" lon="0.19828">
        <ele>1830</ele>
        <time>2011-07-21T08:05:08Z</time>
      </trkpt>
      <trkpt lat="42.83993" lon="0.19832">
        <ele>1830</ele>
        <time>2011-07-21T08:05:11Z</time>
      </trkpt>
      <trkpt lat="42.83994" lon="0.19837">
        <ele>1830</ele>
        <time>2011-07-21T08:05:14Z</time>
      </trkpt>
      <trkpt lat="42.83995" lon="0.19842">
        <ele>1830</ele>
        <time>2011-07-21T08:05:18Z</time>
      </trkpt>
      <trkpt lat="42.83996" lon="0.19844">
        <ele>1830</ele>
        <time>2011-07-21T08:05:20Z</time>
      </trkpt>
      <trkpt lat="42.83997" lon="0.19847">
        <ele>1830</ele>
        <time>2011-07-21T08:05:22Z</time>
      </trkpt>
      <trkpt lat="42.83999" lon="0.19853">
        <ele>1830</ele>
        <time>2011-07-21T08:05:26Z</time>
      </trkpt>
      <trkpt lat="42.84005" lon="0.19864">
        <ele>1830</ele>
        <time>2011-07-21T08:05:35Z</time>
      </trkpt>
      <trkpt lat="42.84006" lon="0.19869">
        <ele>1831</ele>
        <time>2011-07-21T08:05:38Z</time>
      </trkpt>
      <trkpt lat="42.84007" lon="0.19871">
        <ele>1831</ele>
        <time>2011-07-21T08:05:40Z</time>
      </trkpt>
      <trkpt lat="42.84006" lon="0.19878">
        <ele>1833</ele>
        <time>2011-07-21T08:05:45Z</time>
      </trkpt>
      <trkpt lat="42.84007" lon="0.1988">
        <ele>1834</ele>
        <time>2011-07-21T08:05:47Z</time>
      </trkpt>
      <trkpt lat="42.84007" lon="0.19882">
        <ele>1834</ele>
        <time>2011-07-21T08:05:49Z</time>
      </trkpt>
      <trkpt lat="42.84004" lon="0.1989">
        <ele>1836</ele>
        <time>2011-07-21T08:05:57Z</time>
      </trkpt>
      <trkpt lat="42.84003" lon="0.19894">
        <ele>1836</ele>
        <time>2011-07-21T08:06:00Z</time>
      </trkpt>
      <trkpt lat="42.84002" lon="0.199">
        <ele>1837</ele>
        <time>2011-07-21T08:06:04Z</time>
      </trkpt>
      <trkpt lat="42.84002" lon="0.19904">
        <ele>1838</ele>
        <time>2011-07-21T08:06:06Z</time>
      </trkpt>
      <trkpt lat="42.84003" lon="0.19907">
        <ele>1838</ele>
        <time>2011-07-21T08:06:08Z</time>
      </trkpt>
      <trkpt lat="42.84006" lon="0.19915">
        <ele>1839</ele>
        <time>2011-07-21T08:06:14Z</time>
      </trkpt>
      <trkpt lat="42.84009" lon="0.19921">
        <ele>1839</ele>
        <time>2011-07-21T08:06:20Z</time>
      </trkpt>
      <trkpt lat="42.8401" lon="0.19922">
        <ele>1840</ele>
        <time>2011-07-21T08:06:22Z</time>
      </trkpt>
      <trkpt lat="42.84012" lon="0.19923">
        <ele>1840</ele>
        <time>2011-07-21T08:06:24Z</time>
      </trkpt>
      <trkpt lat="42.84016" lon="0.19926">
        <ele>1840</ele>
        <time>2011-07-21T08:06:28Z</time>
      </trkpt>
      <trkpt lat="42.84018" lon="0.19927">
        <ele>1840</ele>
        <time>2011-07-21T08:06:30Z</time>
      </trkpt>
      <trkpt lat="42.84019" lon="0.19927">
        <ele>1840</ele>
        <time>2011-07-21T08:06:32Z</time>
      </trkpt>
      <trkpt lat="42.84022" lon="0.1993">
        <ele>1841</ele>
        <time>2011-07-21T08:06:36Z</time>
      </trkpt>
      <trkpt lat="42.84023" lon="0.1993">
        <ele>1842</ele>
        <time>2011-07-21T08:06:38Z</time>
      </trkpt>
      <trkpt lat="42.84024" lon="0.19931">
        <ele>1842</ele>
        <time>2011-07-21T08:06:40Z</time>
      </trkpt>
      <trkpt lat="42.84025" lon="0.19935">
        <ele>1844</ele>
        <time>2011-07-21T08:06:44Z</time>
      </trkpt>
      <trkpt lat="42.84025" lon="0.19937">
        <ele>1844</ele>
        <time>2011-07-21T08:06:46Z</time>
      </trkpt>
      <trkpt lat="42.84025" lon="0.19939">
        <ele>1845</ele>
        <time>2011-07-21T08:06:49Z</time>
      </trkpt>
      <trkpt lat="42.84026" lon="0.19941">
        <ele>1846</ele>
        <time>2011-07-21T08:06:53Z</time>
      </trkpt>
      <trkpt lat="42.84028" lon="0.19941">
        <ele>1846</ele>
        <time>2011-07-21T08:06:55Z</time>
      </trkpt>
      <trkpt lat="42.84029" lon="0.19943">
        <ele>1846</ele>
        <time>2011-07-21T08:06:58Z</time>
      </trkpt>
      <trkpt lat="42.84031" lon="0.19947">
        <ele>1846</ele>
        <time>2011-07-21T08:07:03Z</time>
      </trkpt>
      <trkpt lat="42.84031" lon="0.1995">
        <ele>1846</ele>
        <time>2011-07-21T08:07:05Z</time>
      </trkpt>
      <trkpt lat="42.84031" lon="0.19952">
        <ele>1847</ele>
        <time>2011-07-21T08:07:07Z</time>
      </trkpt>
      <trkpt lat="42.84033" lon="0.19956">
        <ele>1847</ele>
        <time>2011-07-21T08:07:12Z</time>
      </trkpt>
      <trkpt lat="42.84034" lon="0.19958">
        <ele>1847</ele>
        <time>2011-07-21T08:07:14Z</time>
      </trkpt>
      <trkpt lat="42.84039" lon="0.19963">
        <ele>1849</ele>
        <time>2011-07-21T08:07:22Z</time>
      </trkpt>
      <trkpt lat="42.8404" lon="0.19964">
        <ele>1849</ele>
        <time>2011-07-21T08:07:24Z</time>
      </trkpt>
      <trkpt lat="42.84041" lon="0.19966">
        <ele>1849</ele>
        <time>2011-07-21T08:07:26Z</time>
      </trkpt>
      <trkpt lat="42.84042" lon="0.1997">
        <ele>1850</ele>
        <time>2011-07-21T08:07:30Z</time>
      </trkpt>
      <trkpt lat="42.84043" lon="0.19972">
        <ele>1850</ele>
        <time>2011-07-21T08:07:32Z</time>
      </trkpt>
      <trkpt lat="42.84046" lon="0.19974">
        <ele>1850</ele>
        <time>2011-07-21T08:07:36Z</time>
      </trkpt>
      <trkpt lat="42.8405" lon="0.19977">
        <ele>1852</ele>
        <time>2011-07-21T08:07:42Z</time>
      </trkpt>
      <trkpt lat="42.84051" lon="0.19979">
        <ele>1853</ele>
        <time>2011-07-21T08:07:45Z</time>
      </trkpt>
      <trkpt lat="42.84054" lon="0.1998">
        <ele>1854</ele>
        <time>2011-07-21T08:07:49Z</time>
      </trkpt>
      <trkpt lat="42.84055" lon="0.19981">
        <ele>1854</ele>
        <time>2011-07-21T08:07:51Z</time>
      </trkpt>
      <trkpt lat="42.84056" lon="0.19982">
        <ele>1855</ele>
        <time>2011-07-21T08:07:53Z</time>
      </trkpt>
      <trkpt lat="42.84059" lon="0.19985">
        <ele>1856</ele>
        <time>2011-07-21T08:07:58Z</time>
      </trkpt>
      <trkpt lat="42.84061" lon="0.19986">
        <ele>1856</ele>
        <time>2011-07-21T08:08:01Z</time>
      </trkpt>
      <trkpt lat="42.84061" lon="0.19988">
        <ele>1856</ele>
        <time>2011-07-21T08:08:03Z</time>
      </trkpt>
      <trkpt lat="42.84061" lon="0.19992">
        <ele>1857</ele>
        <time>2011-07-21T08:08:07Z</time>
      </trkpt>
      <trkpt lat="42.84061" lon="0.19994">
        <ele>1858</ele>
        <time>2011-07-21T08:08:09Z</time>
      </trkpt>
      <trkpt lat="42.84061" lon="0.19995">
        <ele>1859</ele>
        <time>2011-07-21T08:08:11Z</time>
      </trkpt>
      <trkpt lat="42.84059" lon="0.19997">
        <ele>1860</ele>
        <time>2011-07-21T08:08:16Z</time>
      </trkpt>
      <trkpt lat="42.84056" lon="0.19997">
        <ele>1860</ele>
        <time>2011-07-21T08:08:20Z</time>
      </trkpt>
      <trkpt lat="42.84055" lon="0.19997">
        <ele>1860</ele>
        <time>2011-07-21T08:08:22Z</time>
      </trkpt>
      <trkpt lat="42.84055" lon="0.2">
        <ele>1861</ele>
        <time>2011-07-21T08:08:27Z</time>
      </trkpt>
      <trkpt lat="42.84055" lon="0.20002">
        <ele>1862</ele>
        <time>2011-07-21T08:08:29Z</time>
      </trkpt>
      <trkpt lat="42.84053" lon="0.20004">
        <ele>1863</ele>
        <time>2011-07-21T08:08:32Z</time>
      </trkpt>
      <trkpt lat="42.84051" lon="0.20006">
        <ele>1864</ele>
        <time>2011-07-21T08:08:37Z</time>
      </trkpt>
      <trkpt lat="42.84051" lon="0.20008">
        <ele>1865</ele>
        <time>2011-07-21T08:08:39Z</time>
      </trkpt>
      <trkpt lat="42.84049" lon="0.20009">
        <ele>1866</ele>
        <time>2011-07-21T08:08:42Z</time>
      </trkpt>
      <trkpt lat="42.84047" lon="0.20011">
        <ele>1868</ele>
        <time>2011-07-21T08:08:46Z</time>
      </trkpt>
      <trkpt lat="42.84045" lon="0.20013">
        <ele>1869</ele>
        <time>2011-07-21T08:08:50Z</time>
      </trkpt>
      <trkpt lat="42.84045" lon="0.20017">
        <ele>1870</ele>
        <time>2011-07-21T08:08:55Z</time>
      </trkpt>
      <trkpt lat="42.84045" lon="0.20019">
        <ele>1870</ele>
        <time>2011-07-21T08:08:57Z</time>
      </trkpt>
      <trkpt lat="42.84044" lon="0.20021">
        <ele>1871</ele>
        <time>2011-07-21T08:09:00Z</time>
      </trkpt>
      <trkpt lat="42.84044" lon="0.20024">
        <ele>1871</ele>
        <time>2011-07-21T08:09:05Z</time>
      </trkpt>
      <trkpt lat="42.84044" lon="0.20026">
        <ele>1872</ele>
        <time>2011-07-21T08:09:08Z</time>
      </trkpt>
      <trkpt lat="42.84043" lon="0.20028">
        <ele>1872</ele>
        <time>2011-07-21T08:09:10Z</time>
      </trkpt>
      <trkpt lat="42.84042" lon="0.20031">
        <ele>1873</ele>
        <time>2011-07-21T08:09:14Z</time>
      </trkpt>
      <trkpt lat="42.84042" lon="0.20033">
        <ele>1873</ele>
        <time>2011-07-21T08:09:16Z</time>
      </trkpt>
      <trkpt lat="42.84042" lon="0.20035">
        <ele>1873</ele>
        <time>2011-07-21T08:09:18Z</time>
      </trkpt>
      <trkpt lat="42.84039" lon="0.20039">
        <ele>1873</ele>
        <time>2011-07-21T08:09:24Z</time>
      </trkpt>
      <trkpt lat="42.84038" lon="0.20041">
        <ele>1874</ele>
        <time>2011-07-21T08:09:26Z</time>
      </trkpt>
      <trkpt lat="42.84037" lon="0.20043">
        <ele>1874</ele>
        <time>2011-07-21T08:09:28Z</time>
      </trkpt>
      <trkpt lat="42.84033" lon="0.20049">
        <ele>1874</ele>
        <time>2011-07-21T08:09:36Z</time>
      </trkpt>
      <trkpt lat="42.84031" lon="0.20051">
        <ele>1874</ele>
        <time>2011-07-21T08:09:40Z</time>
      </trkpt>
      <trkpt lat="42.84028" lon="0.20054">
        <ele>1874</ele>
        <time>2011-07-21T08:09:44Z</time>
      </trkpt>
      <trkpt lat="42.84027" lon="0.20055">
        <ele>1875</ele>
        <time>2011-07-21T08:09:46Z</time>
      </trkpt>
      <trkpt lat="42.84027" lon="0.20057">
        <ele>1875</ele>
        <time>2011-07-21T08:09:48Z</time>
      </trkpt>
      <trkpt lat="42.84027" lon="0.20061">
        <ele>1876</ele>
        <time>2011-07-21T08:09:52Z</time>
      </trkpt>
      <trkpt lat="42.84026" lon="0.20062">
        <ele>1876</ele>
        <time>2011-07-21T08:09:54Z</time>
      </trkpt>
      <trkpt lat="42.84026" lon="0.20064">
        <ele>1876</ele>
        <time>2011-07-21T08:09:56Z</time>
      </trkpt>
      <trkpt lat="42.84024" lon="0.20067">
        <ele>1877</ele>
        <time>2011-07-21T08:10:00Z</time>
      </trkpt>
      <trkpt lat="42.84024" lon="0.20069">
        <ele>1877</ele>
        <time>2011-07-21T08:10:02Z</time>
      </trkpt>
      <trkpt lat="42.84023" lon="0.20071">
        <ele>1878</ele>
        <time>2011-07-21T08:10:04Z</time>
      </trkpt>
      <trkpt lat="42.84021" lon="0.20073">
        <ele>1879</ele>
        <time>2011-07-21T08:10:08Z</time>
      </trkpt>
      <trkpt lat="42.8402" lon="0.20074">
        <ele>1879</ele>
        <time>2011-07-21T08:10:10Z</time>
      </trkpt>
      <trkpt lat="42.8402" lon="0.20076">
        <ele>1879</ele>
        <time>2011-07-21T08:10:12Z</time>
      </trkpt>
      <trkpt lat="42.84019" lon="0.20079">
        <ele>1880</ele>
        <time>2011-07-21T08:10:17Z</time>
      </trkpt>
      <trkpt lat="42.84019" lon="0.20081">
        <ele>1881</ele>
        <time>2011-07-21T08:10:19Z</time>
      </trkpt>
      <trkpt lat="42.84018" lon="0.20083">
        <ele>1882</ele>
        <time>2011-07-21T08:10:21Z</time>
      </trkpt>
      <trkpt lat="42.84016" lon="0.20084">
        <ele>1883</ele>
        <time>2011-07-21T08:10:26Z</time>
      </trkpt>
      <trkpt lat="42.84014" lon="0.20085">
        <ele>1884</ele>
        <time>2011-07-21T08:10:28Z</time>
      </trkpt>
      <trkpt lat="42.84013" lon="0.20085">
        <ele>1884</ele>
        <time>2011-07-21T08:10:30Z</time>
      </trkpt>
      <trkpt lat="42.8401" lon="0.20086">
        <ele>1886</ele>
        <time>2011-07-21T08:10:34Z</time>
      </trkpt>
      <trkpt lat="42.84008" lon="0.20086">
        <ele>1887</ele>
        <time>2011-07-21T08:10:36Z</time>
      </trkpt>
      <trkpt lat="42.84007" lon="0.20087">
        <ele>1887</ele>
        <time>2011-07-21T08:10:38Z</time>
      </trkpt>
      <trkpt lat="42.84003" lon="0.20087">
        <ele>1888</ele>
        <time>2011-07-21T08:10:42Z</time>
      </trkpt>
      <trkpt lat="42.84002" lon="0.20088">
        <ele>1888</ele>
        <time>2011-07-21T08:10:44Z</time>
      </trkpt>
      <trkpt lat="42.84" lon="0.20089">
        <ele>1889</ele>
        <time>2011-07-21T08:10:46Z</time>
      </trkpt>
      <trkpt lat="42.83997" lon="0.20092">
        <ele>1890</ele>
        <time>2011-07-21T08:10:52Z</time>
      </trkpt>
      <trkpt lat="42.83995" lon="0.20093">
        <ele>1890</ele>
        <time>2011-07-21T08:10:54Z</time>
      </trkpt>
      <trkpt lat="42.8399" lon="0.20096">
        <ele>1890</ele>
        <time>2011-07-21T08:11:00Z</time>
      </trkpt>
      <trkpt lat="42.83989" lon="0.20096">
        <ele>1890</ele>
        <time>2011-07-21T08:11:02Z</time>
      </trkpt>
      <trkpt lat="42.83987" lon="0.20097">
        <ele>1891</ele>
        <time>2011-07-21T08:11:04Z</time>
      </trkpt>
      <trkpt lat="42.83984" lon="0.201">
        <ele>1891</ele>
        <time>2011-07-21T08:11:08Z</time>
      </trkpt>
      <trkpt lat="42.83983" lon="0.20102">
        <ele>1891</ele>
        <time>2011-07-21T08:11:10Z</time>
      </trkpt>
      <trkpt lat="42.83982" lon="0.20104">
        <ele>1892</ele>
        <time>2011-07-21T08:11:12Z</time>
      </trkpt>
      <trkpt lat="42.83979" lon="0.2011">
        <ele>1893</ele>
        <time>2011-07-21T08:11:18Z</time>
      </trkpt>
      <trkpt lat="42.83978" lon="0.20112">
        <ele>1893</ele>
        <time>2011-07-21T08:11:20Z</time>
      </trkpt>
      <trkpt lat="42.83973" lon="0.20116">
        <ele>1894</ele>
        <time>2011-07-21T08:11:26Z</time>
      </trkpt>
      <trkpt lat="42.83971" lon="0.20117">
        <ele>1894</ele>
        <time>2011-07-21T08:11:28Z</time>
      </trkpt>
      <trkpt lat="42.83969" lon="0.20121">
        <ele>1894</ele>
        <time>2011-07-21T08:11:32Z</time>
      </trkpt>
      <trkpt lat="42.83967" lon="0.20122">
        <ele>1894</ele>
        <time>2011-07-21T08:11:34Z</time>
      </trkpt>
      <trkpt lat="42.83965" lon="0.20123">
        <ele>1894</ele>
        <time>2011-07-21T08:11:36Z</time>
      </trkpt>
      <trkpt lat="42.83961" lon="0.20128">
        <ele>1896</ele>
        <time>2011-07-21T08:11:42Z</time>
      </trkpt>
      <trkpt lat="42.8396" lon="0.2013">
        <ele>1896</ele>
        <time>2011-07-21T08:11:44Z</time>
      </trkpt>
      <trkpt lat="42.83957" lon="0.20132">
        <ele>1897</ele>
        <time>2011-07-21T08:11:52Z</time>
      </trkpt>
      <trkpt lat="42.83956" lon="0.20133">
        <ele>1897</ele>
        <time>2011-07-21T08:11:57Z</time>
      </trkpt>
      <trkpt lat="42.83954" lon="0.20133">
        <ele>1898</ele>
        <time>2011-07-21T08:12:02Z</time>
      </trkpt>
      <trkpt lat="42.83952" lon="0.20132">
        <ele>1900</ele>
        <time>2011-07-21T08:12:47Z</time>
      </trkpt>
      <trkpt lat="42.83953" lon="0.20132">
        <ele>1904</ele>
        <time>2011-07-21T08:13:24Z</time>
      </trkpt>
      <trkpt lat="42.83952" lon="0.20132">
        <ele>1904</ele>
        <time>2011-07-21T08:13:42Z</time>
      </trkpt>
      <trkpt lat="42.83948" lon="0.20134">
        <ele>1904</ele>
        <time>2011-07-21T08:13:51Z</time>
      </trkpt>
      <trkpt lat="42.83947" lon="0.20136">
        <ele>1904</ele>
        <time>2011-07-21T08:13:53Z</time>
      </trkpt>
      <trkpt lat="42.83943" lon="0.20138">
        <ele>1904</ele>
        <time>2011-07-21T08:13:57Z</time>
      </trkpt>
      <trkpt lat="42.83941" lon="0.20139">
        <ele>1904</ele>
        <time>2011-07-21T08:13:59Z</time>
      </trkpt>
      <trkpt lat="42.83938" lon="0.2014">
        <ele>1904</ele>
        <time>2011-07-21T08:14:02Z</time>
      </trkpt>
      <trkpt lat="42.83933" lon="0.20146">
        <ele>1904</ele>
        <time>2011-07-21T08:14:08Z</time>
      </trkpt>
      <trkpt lat="42.83932" lon="0.20148">
        <ele>1904</ele>
        <time>2011-07-21T08:14:10Z</time>
      </trkpt>
      <trkpt lat="42.83929" lon="0.20152">
        <ele>1905</ele>
        <time>2011-07-21T08:14:14Z</time>
      </trkpt>
      <trkpt lat="42.83927" lon="0.20153">
        <ele>1905</ele>
        <time>2011-07-21T08:14:16Z</time>
      </trkpt>
      <trkpt lat="42.83925" lon="0.20155">
        <ele>1905</ele>
        <time>2011-07-21T08:14:18Z</time>
      </trkpt>
      <trkpt lat="42.83923" lon="0.20162">
        <ele>1905</ele>
        <time>2011-07-21T08:14:23Z</time>
      </trkpt>
      <trkpt lat="42.83921" lon="0.20164">
        <ele>1905</ele>
        <time>2011-07-21T08:14:25Z</time>
      </trkpt>
      <trkpt lat="42.83921" lon="0.20166">
        <ele>1905</ele>
        <time>2011-07-21T08:14:27Z</time>
      </trkpt>
      <trkpt lat="42.83919" lon="0.20169">
        <ele>1906</ele>
        <time>2011-07-21T08:14:31Z</time>
      </trkpt>
      <trkpt lat="42.83918" lon="0.20171">
        <ele>1906</ele>
        <time>2011-07-21T08:14:33Z</time>
      </trkpt>
      <trkpt lat="42.83916" lon="0.20174">
        <ele>1906</ele>
        <time>2011-07-21T08:14:37Z</time>
      </trkpt>
      <trkpt lat="42.83912" lon="0.20176">
        <ele>1908</ele>
        <time>2011-07-21T08:14:41Z</time>
      </trkpt>
      <trkpt lat="42.83909" lon="0.20176">
        <ele>1908</ele>
        <time>2011-07-21T08:14:45Z</time>
      </trkpt>
      <trkpt lat="42.83906" lon="0.20178">
        <ele>1909</ele>
        <time>2011-07-21T08:14:49Z</time>
      </trkpt>
      <trkpt lat="42.83904" lon="0.20181">
        <ele>1910</ele>
        <time>2011-07-21T08:14:51Z</time>
      </trkpt>
      <trkpt lat="42.83903" lon="0.20183">
        <ele>1910</ele>
        <time>2011-07-21T08:14:53Z</time>
      </trkpt>
      <trkpt lat="42.83898" lon="0.20189">
        <ele>1912</ele>
        <time>2011-07-21T08:14:58Z</time>
      </trkpt>
      <trkpt lat="42.83897" lon="0.20191">
        <ele>1912</ele>
        <time>2011-07-21T08:15:00Z</time>
      </trkpt>
      <trkpt lat="42.83895" lon="0.20194">
        <ele>1912</ele>
        <time>2011-07-21T08:15:03Z</time>
      </trkpt>
      <trkpt lat="42.83893" lon="0.202">
        <ele>1912</ele>
        <time>2011-07-21T08:15:08Z</time>
      </trkpt>
      <trkpt lat="42.83892" lon="0.20202">
        <ele>1912</ele>
        <time>2011-07-21T08:15:10Z</time>
      </trkpt>
      <trkpt lat="42.83891" lon="0.20204">
        <ele>1912</ele>
        <time>2011-07-21T08:15:12Z</time>
      </trkpt>
      <trkpt lat="42.83887" lon="0.20209">
        <ele>1912</ele>
        <time>2011-07-21T08:15:19Z</time>
      </trkpt>
      <trkpt lat="42.83882" lon="0.20213">
        <ele>1912</ele>
        <time>2011-07-21T08:15:26Z</time>
      </trkpt>
      <trkpt lat="42.8388" lon="0.20213">
        <ele>1912</ele>
        <time>2011-07-21T08:15:28Z</time>
      </trkpt>
      <trkpt lat="42.83878" lon="0.20213">
        <ele>1912</ele>
        <time>2011-07-21T08:15:30Z</time>
      </trkpt>
      <trkpt lat="42.83873" lon="0.20216">
        <ele>1915</ele>
        <time>2011-07-21T08:15:34Z</time>
      </trkpt>
      <trkpt lat="42.83871" lon="0.20216">
        <ele>1917</ele>
        <time>2011-07-21T08:15:36Z</time>
      </trkpt>
      <trkpt lat="42.8387" lon="0.20217">
        <ele>1918</ele>
        <time>2011-07-21T08:15:39Z</time>
      </trkpt>
      <trkpt lat="42.83865" lon="0.20218">
        <ele>1921</ele>
        <time>2011-07-21T08:15:44Z</time>
      </trkpt>
      <trkpt lat="42.83863" lon="0.20219">
        <ele>1921</ele>
        <time>2011-07-21T08:15:46Z</time>
      </trkpt>
      <trkpt lat="42.83861" lon="0.20221">
        <ele>1922</ele>
        <time>2011-07-21T08:15:48Z</time>
      </trkpt>
      <trkpt lat="42.83855" lon="0.20219">
        <ele>1923</ele>
        <time>2011-07-21T08:15:53Z</time>
      </trkpt>
      <trkpt lat="42.83853" lon="0.20219">
        <ele>1924</ele>
        <time>2011-07-21T08:15:55Z</time>
      </trkpt>
      <trkpt lat="42.83851" lon="0.20221">
        <ele>1925</ele>
        <time>2011-07-21T08:15:57Z</time>
      </trkpt>
      <trkpt lat="42.83848" lon="0.20223">
        <ele>1927</ele>
        <time>2011-07-21T08:16:02Z</time>
      </trkpt>
      <trkpt lat="42.83849" lon="0.20225">
        <ele>1928</ele>
        <time>2011-07-21T08:16:04Z</time>
      </trkpt>
      <trkpt lat="42.83846" lon="0.20234">
        <ele>1929</ele>
        <time>2011-07-21T08:16:11Z</time>
      </trkpt>
      <trkpt lat="42.83844" lon="0.20235">
        <ele>1929</ele>
        <time>2011-07-21T08:16:13Z</time>
      </trkpt>
      <trkpt lat="42.83842" lon="0.20238">
        <ele>1929</ele>
        <time>2011-07-21T08:16:16Z</time>
      </trkpt>
      <trkpt lat="42.83839" lon="0.2024">
        <ele>1929</ele>
        <time>2011-07-21T08:16:21Z</time>
      </trkpt>
      <trkpt lat="42.83837" lon="0.20241">
        <ele>1929</ele>
        <time>2011-07-21T08:16:25Z</time>
      </trkpt>
      <trkpt lat="42.83835" lon="0.20243">
        <ele>1928</ele>
        <time>2011-07-21T08:16:27Z</time>
      </trkpt>
      <trkpt lat="42.8383" lon="0.20244">
        <ele>1928</ele>
        <time>2011-07-21T08:16:32Z</time>
      </trkpt>
      <trkpt lat="42.83828" lon="0.20249">
        <ele>1928</ele>
        <time>2011-07-21T08:16:36Z</time>
      </trkpt>
      <trkpt lat="42.83825" lon="0.20251">
        <ele>1928</ele>
        <time>2011-07-21T08:16:40Z</time>
      </trkpt>
      <trkpt lat="42.83824" lon="0.20252">
        <ele>1928</ele>
        <time>2011-07-21T08:16:42Z</time>
      </trkpt>
      <trkpt lat="42.83823" lon="0.20254">
        <ele>1928</ele>
        <time>2011-07-21T08:16:44Z</time>
      </trkpt>
      <trkpt lat="42.8382" lon="0.20257">
        <ele>1928</ele>
        <time>2011-07-21T08:16:48Z</time>
      </trkpt>
      <trkpt lat="42.83818" lon="0.20258">
        <ele>1928</ele>
        <time>2011-07-21T08:16:50Z</time>
      </trkpt>
      <trkpt lat="42.83816" lon="0.20261">
        <ele>1928</ele>
        <time>2011-07-21T08:16:52Z</time>
      </trkpt>
      <trkpt lat="42.83813" lon="0.20262">
        <ele>1928</ele>
        <time>2011-07-21T08:16:56Z</time>
      </trkpt>
      <trkpt lat="42.8381" lon="0.20264">
        <ele>1930</ele>
        <time>2011-07-21T08:16:59Z</time>
      </trkpt>
      <trkpt lat="42.83809" lon="0.20264">
        <ele>1933</ele>
        <time>2011-07-21T08:17:03Z</time>
      </trkpt>
      <trkpt lat="42.83805" lon="0.20265">
        <ele>1936</ele>
        <time>2011-07-21T08:17:07Z</time>
      </trkpt>
      <trkpt lat="42.83804" lon="0.20264">
        <ele>1939</ele>
        <time>2011-07-21T08:17:10Z</time>
      </trkpt>
      <trkpt lat="42.83803" lon="0.20265">
        <ele>1940</ele>
        <time>2011-07-21T08:17:12Z</time>
      </trkpt>
      <trkpt lat="42.838" lon="0.20268">
        <ele>1940</ele>
        <time>2011-07-21T08:17:16Z</time>
      </trkpt>
      <trkpt lat="42.83798" lon="0.20272">
        <ele>1940</ele>
        <time>2011-07-21T08:17:19Z</time>
      </trkpt>
      <trkpt lat="42.83794" lon="0.20277">
        <ele>1939</ele>
        <time>2011-07-21T08:17:25Z</time>
      </trkpt>
      <trkpt lat="42.83792" lon="0.20278">
        <ele>1938</ele>
        <time>2011-07-21T08:17:27Z</time>
      </trkpt>
      <trkpt lat="42.83791" lon="0.20279">
        <ele>1938</ele>
        <time>2011-07-21T08:17:29Z</time>
      </trkpt>
      <trkpt lat="42.83786" lon="0.20282">
        <ele>1937</ele>
        <time>2011-07-21T08:17:35Z</time>
      </trkpt>
      <trkpt lat="42.83783" lon="0.20285">
        <ele>1937</ele>
        <time>2011-07-21T08:17:39Z</time>
      </trkpt>
      <trkpt lat="42.83778" lon="0.20289">
        <ele>1937</ele>
        <time>2011-07-21T08:17:44Z</time>
      </trkpt>
      <trkpt lat="42.83776" lon="0.20291">
        <ele>1937</ele>
        <time>2011-07-21T08:17:46Z</time>
      </trkpt>
      <trkpt lat="42.83774" lon="0.20292">
        <ele>1937</ele>
        <time>2011-07-21T08:17:48Z</time>
      </trkpt>
      <trkpt lat="42.83772" lon="0.20295">
        <ele>1937</ele>
        <time>2011-07-21T08:17:53Z</time>
      </trkpt>
      <trkpt lat="42.8377" lon="0.20295">
        <ele>1937</ele>
        <time>2011-07-21T08:17:55Z</time>
      </trkpt>
      <trkpt lat="42.83769" lon="0.20296">
        <ele>1937</ele>
        <time>2011-07-21T08:17:57Z</time>
      </trkpt>
      <trkpt lat="42.83765" lon="0.20297">
        <ele>1937</ele>
        <time>2011-07-21T08:18:01Z</time>
      </trkpt>
      <trkpt lat="42.83764" lon="0.20299">
        <ele>1937</ele>
        <time>2011-07-21T08:18:04Z</time>
      </trkpt>
      <trkpt lat="42.83762" lon="0.20298">
        <ele>1937</ele>
        <time>2011-07-21T08:18:06Z</time>
      </trkpt>
      <trkpt lat="42.8376" lon="0.203">
        <ele>1937</ele>
        <time>2011-07-21T08:18:16Z</time>
      </trkpt>
      <trkpt lat="42.83758" lon="0.20302">
        <ele>1937</ele>
        <time>2011-07-21T08:18:20Z</time>
      </trkpt>
      <trkpt lat="42.83756" lon="0.20304">
        <ele>1937</ele>
        <time>2011-07-21T08:18:24Z</time>
      </trkpt>
      <trkpt lat="42.83755" lon="0.20305">
        <ele>1937</ele>
        <time>2011-07-21T08:18:26Z</time>
      </trkpt>
      <trkpt lat="42.83754" lon="0.20306">
        <ele>1937</ele>
        <time>2011-07-21T08:18:28Z</time>
      </trkpt>
      <trkpt lat="42.83749" lon="0.20309">
        <ele>1939</ele>
        <time>2011-07-21T08:18:34Z</time>
      </trkpt>
      <trkpt lat="42.83747" lon="0.2031">
        <ele>1939</ele>
        <time>2011-07-21T08:18:36Z</time>
      </trkpt>
      <trkpt lat="42.83744" lon="0.20312">
        <ele>1940</ele>
        <time>2011-07-21T08:18:40Z</time>
      </trkpt>
      <trkpt lat="42.83743" lon="0.20313">
        <ele>1940</ele>
        <time>2011-07-21T08:18:42Z</time>
      </trkpt>
      <trkpt lat="42.83742" lon="0.20313">
        <ele>1941</ele>
        <time>2011-07-21T08:18:44Z</time>
      </trkpt>
      <trkpt lat="42.8374" lon="0.20316">
        <ele>1942</ele>
        <time>2011-07-21T08:18:48Z</time>
      </trkpt>
      <trkpt lat="42.83739" lon="0.20318">
        <ele>1942</ele>
        <time>2011-07-21T08:18:50Z</time>
      </trkpt>
      <trkpt lat="42.83737" lon="0.20319">
        <ele>1943</ele>
        <time>2011-07-21T08:18:52Z</time>
      </trkpt>
      <trkpt lat="42.83732" lon="0.20318">
        <ele>1947</ele>
        <time>2011-07-21T08:18:57Z</time>
      </trkpt>
      <trkpt lat="42.83731" lon="0.2032">
        <ele>1948</ele>
        <time>2011-07-21T08:18:59Z</time>
      </trkpt>
      <trkpt lat="42.83729" lon="0.20321">
        <ele>1949</ele>
        <time>2011-07-21T08:19:01Z</time>
      </trkpt>
      <trkpt lat="42.83726" lon="0.20324">
        <ele>1949</ele>
        <time>2011-07-21T08:19:06Z</time>
      </trkpt>
      <trkpt lat="42.83724" lon="0.20325">
        <ele>1950</ele>
        <time>2011-07-21T08:19:08Z</time>
      </trkpt>
      <trkpt lat="42.83722" lon="0.20325">
        <ele>1951</ele>
        <time>2011-07-21T08:19:10Z</time>
      </trkpt>
      <trkpt lat="42.8372" lon="0.2033">
        <ele>1953</ele>
        <time>2011-07-21T08:19:14Z</time>
      </trkpt>
      <trkpt lat="42.83719" lon="0.20331">
        <ele>1954</ele>
        <time>2011-07-21T08:19:16Z</time>
      </trkpt>
      <trkpt lat="42.83717" lon="0.20332">
        <ele>1955</ele>
        <time>2011-07-21T08:19:18Z</time>
      </trkpt>
      <trkpt lat="42.83715" lon="0.20335">
        <ele>1956</ele>
        <time>2011-07-21T08:19:22Z</time>
      </trkpt>
      <trkpt lat="42.83714" lon="0.20336">
        <ele>1956</ele>
        <time>2011-07-21T08:19:24Z</time>
      </trkpt>
      <trkpt lat="42.83709" lon="0.20342">
        <ele>1956</ele>
        <time>2011-07-21T08:19:30Z</time>
      </trkpt>
      <trkpt lat="42.83707" lon="0.20344">
        <ele>1956</ele>
        <time>2011-07-21T08:19:32Z</time>
      </trkpt>
      <trkpt lat="42.83706" lon="0.20346">
        <ele>1956</ele>
        <time>2011-07-21T08:19:34Z</time>
      </trkpt>
      <trkpt lat="42.83702" lon="0.20348">
        <ele>1956</ele>
        <time>2011-07-21T08:19:38Z</time>
      </trkpt>
      <trkpt lat="42.83699" lon="0.20353">
        <ele>1956</ele>
        <time>2011-07-21T08:19:42Z</time>
      </trkpt>
      <trkpt lat="42.83694" lon="0.2036">
        <ele>1956</ele>
        <time>2011-07-21T08:19:48Z</time>
      </trkpt>
      <trkpt lat="42.8369" lon="0.20365">
        <ele>1956</ele>
        <time>2011-07-21T08:19:54Z</time>
      </trkpt>
      <trkpt lat="42.83687" lon="0.20369">
        <ele>1956</ele>
        <time>2011-07-21T08:19:58Z</time>
      </trkpt>
      <trkpt lat="42.83684" lon="0.2037">
        <ele>1956</ele>
        <time>2011-07-21T08:20:02Z</time>
      </trkpt>
      <trkpt lat="42.83682" lon="0.2037">
        <ele>1956</ele>
        <time>2011-07-21T08:20:04Z</time>
      </trkpt>
      <trkpt lat="42.83681" lon="0.20373">
        <ele>1956</ele>
        <time>2011-07-21T08:20:08Z</time>
      </trkpt>
      <trkpt lat="42.83678" lon="0.20376">
        <ele>1956</ele>
        <time>2011-07-21T08:20:12Z</time>
      </trkpt>
      <trkpt lat="42.83678" lon="0.20379">
        <ele>1956</ele>
        <time>2011-07-21T08:20:14Z</time>
      </trkpt>
      <trkpt lat="42.83677" lon="0.20381">
        <ele>1956</ele>
        <time>2011-07-21T08:20:16Z</time>
      </trkpt>
      <trkpt lat="42.83673" lon="0.20385">
        <ele>1956</ele>
        <time>2011-07-21T08:20:20Z</time>
      </trkpt>
      <trkpt lat="42.8367" lon="0.20389">
        <ele>1956</ele>
        <time>2011-07-21T08:20:22Z</time>
      </trkpt>
      <trkpt lat="42.83667" lon="0.20391">
        <ele>1957</ele>
        <time>2011-07-21T08:20:25Z</time>
      </trkpt>
      <trkpt lat="42.83662" lon="0.20396">
        <ele>1957</ele>
        <time>2011-07-21T08:20:30Z</time>
      </trkpt>
      <trkpt lat="42.8366" lon="0.204">
        <ele>1957</ele>
        <time>2011-07-21T08:20:32Z</time>
      </trkpt>
      <trkpt lat="42.83659" lon="0.20402">
        <ele>1958</ele>
        <time>2011-07-21T08:20:34Z</time>
      </trkpt>
      <trkpt lat="42.8366" lon="0.20407">
        <ele>1958</ele>
        <time>2011-07-21T08:20:39Z</time>
      </trkpt>
      <trkpt lat="42.83659" lon="0.20409">
        <ele>1958</ele>
        <time>2011-07-21T08:20:41Z</time>
      </trkpt>
      <trkpt lat="42.83659" lon="0.20411">
        <ele>1958</ele>
        <time>2011-07-21T08:20:44Z</time>
      </trkpt>
      <trkpt lat="42.83659" lon="0.20414">
        <ele>1958</ele>
        <time>2011-07-21T08:20:48Z</time>
      </trkpt>
      <trkpt lat="42.83659" lon="0.20415">
        <ele>1958</ele>
        <time>2011-07-21T08:20:50Z</time>
      </trkpt>
      <trkpt lat="42.83657" lon="0.20422">
        <ele>1960</ele>
        <time>2011-07-21T08:21:00Z</time>
      </trkpt>
      <trkpt lat="42.83658" lon="0.20423">
        <ele>1961</ele>
        <time>2011-07-21T08:21:03Z</time>
      </trkpt>
      <trkpt lat="42.83661" lon="0.20424">
        <ele>1961</ele>
        <time>2011-07-21T08:21:08Z</time>
      </trkpt>
      <trkpt lat="42.83662" lon="0.20424">
        <ele>1961</ele>
        <time>2011-07-21T08:21:10Z</time>
      </trkpt>
      <trkpt lat="42.83663" lon="0.20424">
        <ele>1961</ele>
        <time>2011-07-21T08:21:12Z</time>
      </trkpt>
      <trkpt lat="42.83665" lon="0.20424">
        <ele>1962</ele>
        <time>2011-07-21T08:21:16Z</time>
      </trkpt>
      <trkpt lat="42.83667" lon="0.20424">
        <ele>1962</ele>
        <time>2011-07-21T08:21:18Z</time>
      </trkpt>
      <trkpt lat="42.83668" lon="0.20424">
        <ele>1962</ele>
        <time>2011-07-21T08:21:21Z</time>
      </trkpt>
      <trkpt lat="42.8367" lon="0.20423">
        <ele>1962</ele>
        <time>2011-07-21T08:21:25Z</time>
      </trkpt>
      <trkpt lat="42.83672" lon="0.20424">
        <ele>1962</ele>
        <time>2011-07-21T08:21:28Z</time>
      </trkpt>
      <trkpt lat="42.83673" lon="0.20425">
        <ele>1962</ele>
        <time>2011-07-21T08:21:31Z</time>
      </trkpt>
      <trkpt lat="42.83675" lon="0.20424">
        <ele>1962</ele>
        <time>2011-07-21T08:21:39Z</time>
      </trkpt>
      <trkpt lat="42.83677" lon="0.20423">
        <ele>1962</ele>
        <time>2011-07-21T08:21:42Z</time>
      </trkpt>
      <trkpt lat="42.83678" lon="0.20422">
        <ele>1963</ele>
        <time>2011-07-21T08:21:45Z</time>
      </trkpt>
      <trkpt lat="42.83681" lon="0.20422">
        <ele>1964</ele>
        <time>2011-07-21T08:21:54Z</time>
      </trkpt>
      <trkpt lat="42.83682" lon="0.20422">
        <ele>1965</ele>
        <time>2011-07-21T08:21:56Z</time>
      </trkpt>
      <trkpt lat="42.83683" lon="0.20421">
        <ele>1965</ele>
        <time>2011-07-21T08:21:58Z</time>
      </trkpt>
      <trkpt lat="42.83683" lon="0.20421">
        <ele>1967</ele>
        <time>2011-07-21T08:22:10Z</time>
      </trkpt>
      <trkpt lat="42.83685" lon="0.20422">
        <ele>1967</ele>
        <time>2011-07-21T08:22:14Z</time>
      </trkpt>
      <trkpt lat="42.83685" lon="0.20424">
        <ele>1967</ele>
        <time>2011-07-21T08:22:29Z</time>
      </trkpt>
      <trkpt lat="42.83686" lon="0.20424">
        <ele>1967</ele>
        <time>2011-07-21T08:23:04Z</time>
      </trkpt>
      <trkpt lat="42.83684" lon="0.20423">
        <ele>1967</ele>
        <time>2011-07-21T08:23:23Z</time>
      </trkpt>
      <trkpt lat="42.83683" lon="0.20423">
        <ele>1967</ele>
        <time>2011-07-21T08:23:28Z</time>
      </trkpt>
      <trkpt lat="42.83683" lon="0.20423">
        <ele>1967</ele>
        <time>2011-07-21T08:23:44Z</time>
      </trkpt>
      <trkpt lat="42.83684" lon="0.20424">
        <ele>1967</ele>
        <time>2011-07-21T08:24:09Z</time>
      </trkpt>
      <trkpt lat="42.83686" lon="0.20424">
        <ele>1967</ele>
        <time>2011-07-21T08:24:13Z</time>
      </trkpt>
      <trkpt lat="42.83683" lon="0.20424">
        <ele>1967</ele>
        <time>2011-07-21T08:24:21Z</time>
      </trkpt>
      <trkpt lat="42.83685" lon="0.20424">
        <ele>1967</ele>
        <time>2011-07-21T08:24:24Z</time>
      </trkpt>
      <trkpt lat="42.83682" lon="0.20425">
        <ele>1969</ele>
        <time>2011-07-21T08:24:28Z</time>
      </trkpt>
      <trkpt lat="42.83685" lon="0.20424">
        <ele>1970</ele>
        <time>2011-07-21T08:24:35Z</time>
      </trkpt>
      <trkpt lat="42.83686" lon="0.20425">
        <ele>1970</ele>
        <time>2011-07-21T08:24:41Z</time>
      </trkpt>
      <trkpt lat="42.83687" lon="0.20425">
        <ele>1970</ele>
        <time>2011-07-21T08:24:52Z</time>
      </trkpt>
      <trkpt lat="42.83688" lon="0.20426">
        <ele>1970</ele>
        <time>2011-07-21T08:25:03Z</time>
      </trkpt>
      <trkpt lat="42.83686" lon="0.20425">
        <ele>1965</ele>
        <time>2011-07-21T08:25:33Z</time>
      </trkpt>
      <trkpt lat="42.83685" lon="0.20423">
        <ele>1965</ele>
        <time>2011-07-21T08:25:38Z</time>
      </trkpt>
      <trkpt lat="42.83688" lon="0.20422">
        <ele>1966</ele>
        <time>2011-07-21T08:26:19Z</time>
      </trkpt>
      <trkpt lat="42.83689" lon="0.20422">
        <ele>1966</ele>
        <time>2011-07-21T08:26:31Z</time>
      </trkpt>
      <trkpt lat="42.83688" lon="0.2042">
        <ele>1966</ele>
        <time>2011-07-21T08:26:36Z</time>
      </trkpt>
      <trkpt lat="42.83686" lon="0.20422">
        <ele>1966</ele>
        <time>2011-07-21T08:26:56Z</time>
      </trkpt>
      <trkpt lat="42.83685" lon="0.20423">
        <ele>1967</ele>
        <time>2011-07-21T08:27:03Z</time>
      </trkpt>
      <trkpt lat="42.83686" lon="0.20422">
        <ele>1968</ele>
        <time>2011-07-21T08:27:15Z</time>
      </trkpt>
      <trkpt lat="42.83685" lon="0.20419">
        <ele>1968</ele>
        <time>2011-07-21T08:27:29Z</time>
      </trkpt>
      <trkpt lat="42.83685" lon="0.20417">
        <ele>1968</ele>
        <time>2011-07-21T08:27:32Z</time>
      </trkpt>
      <trkpt lat="42.83687" lon="0.20418">
        <ele>1969</ele>
        <time>2011-07-21T08:27:37Z</time>
      </trkpt>
      <trkpt lat="42.83686" lon="0.20422">
        <ele>1969</ele>
        <time>2011-07-21T08:27:59Z</time>
      </trkpt>
      <trkpt lat="42.83687" lon="0.20422">
        <ele>1969</ele>
        <time>2011-07-21T08:28:07Z</time>
      </trkpt>
      <trkpt lat="42.83688" lon="0.20422">
        <ele>1969</ele>
        <time>2011-07-21T08:28:09Z</time>
      </trkpt>
      <trkpt lat="42.83691" lon="0.20421">
        <ele>1969</ele>
        <time>2011-07-21T08:28:13Z</time>
      </trkpt>
      <trkpt lat="42.83692" lon="0.20421">
        <ele>1969</ele>
        <time>2011-07-21T08:28:15Z</time>
      </trkpt>
      <trkpt lat="42.83694" lon="0.20419">
        <ele>1969</ele>
        <time>2011-07-21T08:28:17Z</time>
      </trkpt>
      <trkpt lat="42.83696" lon="0.20419">
        <ele>1969</ele>
        <time>2011-07-21T08:28:29Z</time>
      </trkpt>
      <trkpt lat="42.83698" lon="0.20419">
        <ele>1969</ele>
        <time>2011-07-21T08:28:31Z</time>
      </trkpt>
      <trkpt lat="42.83699" lon="0.20419">
        <ele>1969</ele>
        <time>2011-07-21T08:28:34Z</time>
      </trkpt>
      <trkpt lat="42.83702" lon="0.20417">
        <ele>1969</ele>
        <time>2011-07-21T08:28:38Z</time>
      </trkpt>
      <trkpt lat="42.83704" lon="0.20416">
        <ele>1969</ele>
        <time>2011-07-21T08:28:40Z</time>
      </trkpt>
      <trkpt lat="42.83705" lon="0.20416">
        <ele>1970</ele>
        <time>2011-07-21T08:28:42Z</time>
      </trkpt>
      <trkpt lat="42.83707" lon="0.20415">
        <ele>1971</ele>
        <time>2011-07-21T08:28:46Z</time>
      </trkpt>
      <trkpt lat="42.83709" lon="0.20415">
        <ele>1972</ele>
        <time>2011-07-21T08:28:49Z</time>
      </trkpt>
      <trkpt lat="42.8371" lon="0.20415">
        <ele>1973</ele>
        <time>2011-07-21T08:28:51Z</time>
      </trkpt>
      <trkpt lat="42.83712" lon="0.20417">
        <ele>1974</ele>
        <time>2011-07-21T08:28:56Z</time>
      </trkpt>
      <trkpt lat="42.83714" lon="0.20416">
        <ele>1974</ele>
        <time>2011-07-21T08:28:58Z</time>
      </trkpt>
      <trkpt lat="42.83715" lon="0.20415">
        <ele>1974</ele>
        <time>2011-07-21T08:29:02Z</time>
      </trkpt>
      <trkpt lat="42.83717" lon="0.20415">
        <ele>1977</ele>
        <time>2011-07-21T08:29:09Z</time>
      </trkpt>
      <trkpt lat="42.8372" lon="0.20414">
        <ele>1977</ele>
        <time>2011-07-21T08:29:12Z</time>
      </trkpt>
      <trkpt lat="42.83723" lon="0.20414">
        <ele>1977</ele>
        <time>2011-07-21T08:29:15Z</time>
      </trkpt>
      <trkpt lat="42.83726" lon="0.20412">
        <ele>1977</ele>
        <time>2011-07-21T08:29:20Z</time>
      </trkpt>
      <trkpt lat="42.83727" lon="0.20411">
        <ele>1977</ele>
        <time>2011-07-21T08:29:22Z</time>
      </trkpt>
      <trkpt lat="42.83728" lon="0.20411">
        <ele>1977</ele>
        <time>2011-07-21T08:29:24Z</time>
      </trkpt>
      <trkpt lat="42.83731" lon="0.2041">
        <ele>1977</ele>
        <time>2011-07-21T08:29:28Z</time>
      </trkpt>
      <trkpt lat="42.83734" lon="0.20409">
        <ele>1977</ele>
        <time>2011-07-21T08:29:32Z</time>
      </trkpt>
      <trkpt lat="42.83735" lon="0.20409">
        <ele>1977</ele>
        <time>2011-07-21T08:29:34Z</time>
      </trkpt>
      <trkpt lat="42.83738" lon="0.20409">
        <ele>1978</ele>
        <time>2011-07-21T08:29:38Z</time>
      </trkpt>
      <trkpt lat="42.83739" lon="0.20408">
        <ele>1978</ele>
        <time>2011-07-21T08:29:40Z</time>
      </trkpt>
      <trkpt lat="42.8374" lon="0.20407">
        <ele>1979</ele>
        <time>2011-07-21T08:29:42Z</time>
      </trkpt>
      <trkpt lat="42.83743" lon="0.20407">
        <ele>1979</ele>
        <time>2011-07-21T08:29:46Z</time>
      </trkpt>
      <trkpt lat="42.83744" lon="0.20407">
        <ele>1980</ele>
        <time>2011-07-21T08:29:48Z</time>
      </trkpt>
      <trkpt lat="42.83745" lon="0.20407">
        <ele>1980</ele>
        <time>2011-07-21T08:29:50Z</time>
      </trkpt>
      <trkpt lat="42.83748" lon="0.20407">
        <ele>1981</ele>
        <time>2011-07-21T08:29:54Z</time>
      </trkpt>
      <trkpt lat="42.83749" lon="0.20406">
        <ele>1982</ele>
        <time>2011-07-21T08:29:56Z</time>
      </trkpt>
      <trkpt lat="42.83751" lon="0.20407">
        <ele>1982</ele>
        <time>2011-07-21T08:29:58Z</time>
      </trkpt>
      <trkpt lat="42.83754" lon="0.20408">
        <ele>1982</ele>
        <time>2011-07-21T08:30:02Z</time>
      </trkpt>
      <trkpt lat="42.83756" lon="0.20407">
        <ele>1982</ele>
        <time>2011-07-21T08:30:04Z</time>
      </trkpt>
      <trkpt lat="42.83757" lon="0.20408">
        <ele>1982</ele>
        <time>2011-07-21T08:30:06Z</time>
      </trkpt>
      <trkpt lat="42.8376" lon="0.20409">
        <ele>1983</ele>
        <time>2011-07-21T08:30:10Z</time>
      </trkpt>
      <trkpt lat="42.83762" lon="0.20409">
        <ele>1983</ele>
        <time>2011-07-21T08:30:12Z</time>
      </trkpt>
      <trkpt lat="42.83763" lon="0.2041">
        <ele>1984</ele>
        <time>2011-07-21T08:30:14Z</time>
      </trkpt>
      <trkpt lat="42.83766" lon="0.20412">
        <ele>1984</ele>
        <time>2011-07-21T08:30:18Z</time>
      </trkpt>
      <trkpt lat="42.83768" lon="0.20413">
        <ele>1985</ele>
        <time>2011-07-21T08:30:20Z</time>
      </trkpt>
      <trkpt lat="42.8377" lon="0.20414">
        <ele>1985</ele>
        <time>2011-07-21T08:30:22Z</time>
      </trkpt>
      <trkpt lat="42.83774" lon="0.20417">
        <ele>1985</ele>
        <time>2011-07-21T08:30:26Z</time>
      </trkpt>
      <trkpt lat="42.83776" lon="0.20418">
        <ele>1985</ele>
        <time>2011-07-21T08:30:28Z</time>
      </trkpt>
      <trkpt lat="42.83778" lon="0.20419">
        <ele>1985</ele>
        <time>2011-07-21T08:30:30Z</time>
      </trkpt>
      <trkpt lat="42.83781" lon="0.20421">
        <ele>1986</ele>
        <time>2011-07-21T08:30:34Z</time>
      </trkpt>
      <trkpt lat="42.83783" lon="0.20421">
        <ele>1986</ele>
        <time>2011-07-21T08:30:36Z</time>
      </trkpt>
      <trkpt lat="42.83789" lon="0.20422">
        <ele>1986</ele>
        <time>2011-07-21T08:30:42Z</time>
      </trkpt>
      <trkpt lat="42.83791" lon="0.20422">
        <ele>1986</ele>
        <time>2011-07-21T08:30:44Z</time>
      </trkpt>
      <trkpt lat="42.83792" lon="0.20422">
        <ele>1987</ele>
        <time>2011-07-21T08:30:46Z</time>
      </trkpt>
      <trkpt lat="42.83799" lon="0.20422">
        <ele>1987</ele>
        <time>2011-07-21T08:30:52Z</time>
      </trkpt>
      <trkpt lat="42.83802" lon="0.20422">
        <ele>1987</ele>
        <time>2011-07-21T08:30:55Z</time>
      </trkpt>
      <trkpt lat="42.83807" lon="0.20423">
        <ele>1988</ele>
        <time>2011-07-21T08:31:03Z</time>
      </trkpt>
      <trkpt lat="42.83809" lon="0.20423">
        <ele>1988</ele>
        <time>2011-07-21T08:31:05Z</time>
      </trkpt>
      <trkpt lat="42.8381" lon="0.20422">
        <ele>1989</ele>
        <time>2011-07-21T08:31:07Z</time>
      </trkpt>
      <trkpt lat="42.83814" lon="0.20422">
        <ele>1989</ele>
        <time>2011-07-21T08:31:11Z</time>
      </trkpt>
      <trkpt lat="42.83817" lon="0.20423">
        <ele>1990</ele>
        <time>2011-07-21T08:31:17Z</time>
      </trkpt>
      <trkpt lat="42.8382" lon="0.20425">
        <ele>1991</ele>
        <time>2011-07-21T08:31:23Z</time>
      </trkpt>
      <trkpt lat="42.83821" lon="0.20425">
        <ele>1993</ele>
        <time>2011-07-21T08:31:30Z</time>
      </trkpt>
      <trkpt lat="42.83823" lon="0.20425">
        <ele>1993</ele>
        <time>2011-07-21T08:31:34Z</time>
      </trkpt>
      <trkpt lat="42.83824" lon="0.20427">
        <ele>1994</ele>
        <time>2011-07-21T08:31:38Z</time>
      </trkpt>
      <trkpt lat="42.83824" lon="0.20429">
        <ele>1995</ele>
        <time>2011-07-21T08:31:41Z</time>
      </trkpt>
      <trkpt lat="42.83825" lon="0.20431">
        <ele>1996</ele>
        <time>2011-07-21T08:31:45Z</time>
      </trkpt>
      <trkpt lat="42.83827" lon="0.20432">
        <ele>1997</ele>
        <time>2011-07-21T08:31:52Z</time>
      </trkpt>
      <trkpt lat="42.83828" lon="0.2043">
        <ele>1998</ele>
        <time>2011-07-21T08:31:54Z</time>
      </trkpt>
      <trkpt lat="42.83829" lon="0.20428">
        <ele>1998</ele>
        <time>2011-07-21T08:31:56Z</time>
      </trkpt>
      <trkpt lat="42.83833" lon="0.20425">
        <ele>1998</ele>
        <time>2011-07-21T08:32:00Z</time>
      </trkpt>
      <trkpt lat="42.83835" lon="0.20424">
        <ele>1998</ele>
        <time>2011-07-21T08:32:02Z</time>
      </trkpt>
      <trkpt lat="42.83837" lon="0.20424">
        <ele>1998</ele>
        <time>2011-07-21T08:32:04Z</time>
      </trkpt>
      <trkpt lat="42.83841" lon="0.20422">
        <ele>1999</ele>
        <time>2011-07-21T08:32:08Z</time>
      </trkpt>
      <trkpt lat="42.83842" lon="0.20421">
        <ele>2000</ele>
        <time>2011-07-21T08:32:10Z</time>
      </trkpt>
      <trkpt lat="42.83844" lon="0.2042">
        <ele>2000</ele>
        <time>2011-07-21T08:32:12Z</time>
      </trkpt>
      <trkpt lat="42.8385" lon="0.20418">
        <ele>2001</ele>
        <time>2011-07-21T08:32:18Z</time>
      </trkpt>
      <trkpt lat="42.83852" lon="0.20416">
        <ele>2002</ele>
        <time>2011-07-21T08:32:20Z</time>
      </trkpt>
      <trkpt lat="42.83855" lon="0.20416">
        <ele>2002</ele>
        <time>2011-07-21T08:32:24Z</time>
      </trkpt>
      <trkpt lat="42.83861" lon="0.20417">
        <ele>2003</ele>
        <time>2011-07-21T08:32:30Z</time>
      </trkpt>
      <trkpt lat="42.83862" lon="0.20418">
        <ele>2003</ele>
        <time>2011-07-21T08:32:32Z</time>
      </trkpt>
      <trkpt lat="42.83864" lon="0.20418">
        <ele>2003</ele>
        <time>2011-07-21T08:32:35Z</time>
      </trkpt>
      <trkpt lat="42.83867" lon="0.2042">
        <ele>2004</ele>
        <time>2011-07-21T08:32:45Z</time>
      </trkpt>
      <trkpt lat="42.83868" lon="0.20419">
        <ele>2004</ele>
        <time>2011-07-21T08:32:47Z</time>
      </trkpt>
      <trkpt lat="42.83871" lon="0.20418">
        <ele>2004</ele>
        <time>2011-07-21T08:32:51Z</time>
      </trkpt>
      <trkpt lat="42.83877" lon="0.20416">
        <ele>2004</ele>
        <time>2011-07-21T08:32:57Z</time>
      </trkpt>
      <trkpt lat="42.83879" lon="0.20417">
        <ele>2004</ele>
        <time>2011-07-21T08:33:07Z</time>
      </trkpt>
      <trkpt lat="42.83883" lon="0.20417">
        <ele>2004</ele>
        <time>2011-07-21T08:33:10Z</time>
      </trkpt>
      <trkpt lat="42.83887" lon="0.20417">
        <ele>2004</ele>
        <time>2011-07-21T08:33:16Z</time>
      </trkpt>
      <trkpt lat="42.83889" lon="0.20416">
        <ele>2004</ele>
        <time>2011-07-21T08:33:19Z</time>
      </trkpt>
      <trkpt lat="42.83891" lon="0.20415">
        <ele>2004</ele>
        <time>2011-07-21T08:33:21Z</time>
      </trkpt>
      <trkpt lat="42.83894" lon="0.20418">
        <ele>2005</ele>
        <time>2011-07-21T08:33:26Z</time>
      </trkpt>
      <trkpt lat="42.83895" lon="0.20418">
        <ele>2005</ele>
        <time>2011-07-21T08:33:28Z</time>
      </trkpt>
      <trkpt lat="42.83896" lon="0.20417">
        <ele>2005</ele>
        <time>2011-07-21T08:33:30Z</time>
      </trkpt>
      <trkpt lat="42.83899" lon="0.20417">
        <ele>2005</ele>
        <time>2011-07-21T08:33:34Z</time>
      </trkpt>
      <trkpt lat="42.83901" lon="0.20417">
        <ele>2006</ele>
        <time>2011-07-21T08:33:37Z</time>
      </trkpt>
      <trkpt lat="42.83904" lon="0.20415">
        <ele>2006</ele>
        <time>2011-07-21T08:33:40Z</time>
      </trkpt>
      <trkpt lat="42.83913" lon="0.20415">
        <ele>2008</ele>
        <time>2011-07-21T08:33:52Z</time>
      </trkpt>
      <trkpt lat="42.83917" lon="0.20415">
        <ele>2011</ele>
        <time>2011-07-21T08:34:00Z</time>
      </trkpt>
      <trkpt lat="42.83919" lon="0.20416">
        <ele>2011</ele>
        <time>2011-07-21T08:34:03Z</time>
      </trkpt>
      <trkpt lat="42.8392" lon="0.20416">
        <ele>2012</ele>
        <time>2011-07-21T08:34:06Z</time>
      </trkpt>
      <trkpt lat="42.83923" lon="0.20414">
        <ele>2014</ele>
        <time>2011-07-21T08:34:11Z</time>
      </trkpt>
      <trkpt lat="42.83926" lon="0.20414">
        <ele>2015</ele>
        <time>2011-07-21T08:34:15Z</time>
      </trkpt>
      <trkpt lat="42.83928" lon="0.20415">
        <ele>2017</ele>
        <time>2011-07-21T08:34:18Z</time>
      </trkpt>
      <trkpt lat="42.83934" lon="0.20417">
        <ele>2019</ele>
        <time>2011-07-21T08:34:30Z</time>
      </trkpt>
      <trkpt lat="42.83936" lon="0.20418">
        <ele>2020</ele>
        <time>2011-07-21T08:34:33Z</time>
      </trkpt>
      <trkpt lat="42.83937" lon="0.20421">
        <ele>2021</ele>
        <time>2011-07-21T08:34:38Z</time>
      </trkpt>
      <trkpt lat="42.83936" lon="0.20425">
        <ele>2021</ele>
        <time>2011-07-21T08:34:41Z</time>
      </trkpt>
      <trkpt lat="42.83937" lon="0.20426">
        <ele>2021</ele>
        <time>2011-07-21T08:34:45Z</time>
      </trkpt>
      <trkpt lat="42.83939" lon="0.20428">
        <ele>2021</ele>
        <time>2011-07-21T08:34:52Z</time>
      </trkpt>
      <trkpt lat="42.83942" lon="0.20429">
        <ele>2021</ele>
        <time>2011-07-21T08:34:57Z</time>
      </trkpt>
      <trkpt lat="42.83942" lon="0.20431">
        <ele>2021</ele>
        <time>2011-07-21T08:34:59Z</time>
      </trkpt>
      <trkpt lat="42.83946" lon="0.20431">
        <ele>2024</ele>
        <time>2011-07-21T08:35:10Z</time>
      </trkpt>
      <trkpt lat="42.83947" lon="0.20432">
        <ele>2024</ele>
        <time>2011-07-21T08:35:15Z</time>
      </trkpt>
      <trkpt lat="42.8395" lon="0.20433">
        <ele>2024</ele>
        <time>2011-07-21T08:35:18Z</time>
      </trkpt>
      <trkpt lat="42.83954" lon="0.20433">
        <ele>2025</ele>
        <time>2011-07-21T08:35:25Z</time>
      </trkpt>
      <trkpt lat="42.83955" lon="0.20433">
        <ele>2025</ele>
        <time>2011-07-21T08:35:27Z</time>
      </trkpt>
      <trkpt lat="42.83957" lon="0.20433">
        <ele>2026</ele>
        <time>2011-07-21T08:35:29Z</time>
      </trkpt>
      <trkpt lat="42.8396" lon="0.20433">
        <ele>2027</ele>
        <time>2011-07-21T08:35:35Z</time>
      </trkpt>
      <trkpt lat="42.83961" lon="0.20432">
        <ele>2028</ele>
        <time>2011-07-21T08:35:37Z</time>
      </trkpt>
      <trkpt lat="42.83963" lon="0.20433">
        <ele>2028</ele>
        <time>2011-07-21T08:35:40Z</time>
      </trkpt>
      <trkpt lat="42.83965" lon="0.20435">
        <ele>2029</ele>
        <time>2011-07-21T08:35:44Z</time>
      </trkpt>
      <trkpt lat="42.83966" lon="0.20436">
        <ele>2030</ele>
        <time>2011-07-21T08:35:47Z</time>
      </trkpt>
      <trkpt lat="42.83968" lon="0.20438">
        <ele>2030</ele>
        <time>2011-07-21T08:35:50Z</time>
      </trkpt>
      <trkpt lat="42.83972" lon="0.2044">
        <ele>2030</ele>
        <time>2011-07-21T08:35:54Z</time>
      </trkpt>
      <trkpt lat="42.83974" lon="0.2044">
        <ele>2030</ele>
        <time>2011-07-21T08:35:56Z</time>
      </trkpt>
      <trkpt lat="42.83975" lon="0.20441">
        <ele>2031</ele>
        <time>2011-07-21T08:35:58Z</time>
      </trkpt>
      <trkpt lat="42.83979" lon="0.2044">
        <ele>2032</ele>
        <time>2011-07-21T08:36:02Z</time>
      </trkpt>
      <trkpt lat="42.83981" lon="0.20439">
        <ele>2033</ele>
        <time>2011-07-21T08:36:05Z</time>
      </trkpt>
      <trkpt lat="42.83983" lon="0.20439">
        <ele>2033</ele>
        <time>2011-07-21T08:36:07Z</time>
      </trkpt>
      <trkpt lat="42.8399" lon="0.20441">
        <ele>2033</ele>
        <time>2011-07-21T08:36:12Z</time>
      </trkpt>
      <trkpt lat="42.83992" lon="0.20441">
        <ele>2033</ele>
        <time>2011-07-21T08:36:14Z</time>
      </trkpt>
      <trkpt lat="42.83994" lon="0.2044">
        <ele>2033</ele>
        <time>2011-07-21T08:36:17Z</time>
      </trkpt>
      <trkpt lat="42.84" lon="0.20439">
        <ele>2033</ele>
        <time>2011-07-21T08:36:21Z</time>
      </trkpt>
      <trkpt lat="42.84002" lon="0.2044">
        <ele>2033</ele>
        <time>2011-07-21T08:36:23Z</time>
      </trkpt>
      <trkpt lat="42.84004" lon="0.20441">
        <ele>2033</ele>
        <time>2011-07-21T08:36:25Z</time>
      </trkpt>
      <trkpt lat="42.8401" lon="0.2044">
        <ele>2033</ele>
        <time>2011-07-21T08:36:33Z</time>
      </trkpt>
      <trkpt lat="42.84011" lon="0.2044">
        <ele>2033</ele>
        <time>2011-07-21T08:36:35Z</time>
      </trkpt>
      <trkpt lat="42.84018" lon="0.20438">
        <ele>2033</ele>
        <time>2011-07-21T08:36:42Z</time>
      </trkpt>
      <trkpt lat="42.84022" lon="0.20434">
        <ele>2033</ele>
        <time>2011-07-21T08:36:48Z</time>
      </trkpt>
      <trkpt lat="42.84024" lon="0.20435">
        <ele>2033</ele>
        <time>2011-07-21T08:36:50Z</time>
      </trkpt>
      <trkpt lat="42.84025" lon="0.20436">
        <ele>2033</ele>
        <time>2011-07-21T08:36:52Z</time>
      </trkpt>
      <trkpt lat="42.84028" lon="0.20435">
        <ele>2033</ele>
        <time>2011-07-21T08:36:57Z</time>
      </trkpt>
      <trkpt lat="42.8403" lon="0.20434">
        <ele>2033</ele>
        <time>2011-07-21T08:36:59Z</time>
      </trkpt>
      <trkpt lat="42.84033" lon="0.20434">
        <ele>2033</ele>
        <time>2011-07-21T08:37:02Z</time>
      </trkpt>
      <trkpt lat="42.84036" lon="0.20435">
        <ele>2033</ele>
        <time>2011-07-21T08:37:06Z</time>
      </trkpt>
      <trkpt lat="42.84037" lon="0.20434">
        <ele>2033</ele>
        <time>2011-07-21T08:37:08Z</time>
      </trkpt>
      <trkpt lat="42.84039" lon="0.20435">
        <ele>2033</ele>
        <time>2011-07-21T08:37:10Z</time>
      </trkpt>
      <trkpt lat="42.84041" lon="0.2044">
        <ele>2034</ele>
        <time>2011-07-21T08:37:17Z</time>
      </trkpt>
      <trkpt lat="42.84041" lon="0.20442">
        <ele>2034</ele>
        <time>2011-07-21T08:37:19Z</time>
      </trkpt>
      <trkpt lat="42.84042" lon="0.20443">
        <ele>2034</ele>
        <time>2011-07-21T08:37:21Z</time>
      </trkpt>
      <trkpt lat="42.84048" lon="0.20446">
        <ele>2036</ele>
        <time>2011-07-21T08:37:28Z</time>
      </trkpt>
      <trkpt lat="42.8405" lon="0.20447">
        <ele>2036</ele>
        <time>2011-07-21T08:37:30Z</time>
      </trkpt>
      <trkpt lat="42.84051" lon="0.20451">
        <ele>2037</ele>
        <time>2011-07-21T08:37:34Z</time>
      </trkpt>
      <trkpt lat="42.84052" lon="0.20453">
        <ele>2037</ele>
        <time>2011-07-21T08:37:36Z</time>
      </trkpt>
      <trkpt lat="42.84053" lon="0.20455">
        <ele>2037</ele>
        <time>2011-07-21T08:37:38Z</time>
      </trkpt>
      <trkpt lat="42.84057" lon="0.20459">
        <ele>2037</ele>
        <time>2011-07-21T08:37:42Z</time>
      </trkpt>
      <trkpt lat="42.84059" lon="0.2046">
        <ele>2037</ele>
        <time>2011-07-21T08:37:44Z</time>
      </trkpt>
      <trkpt lat="42.84061" lon="0.20461">
        <ele>2037</ele>
        <time>2011-07-21T08:37:46Z</time>
      </trkpt>
      <trkpt lat="42.84065" lon="0.20464">
        <ele>2037</ele>
        <time>2011-07-21T08:37:50Z</time>
      </trkpt>
      <trkpt lat="42.84066" lon="0.20466">
        <ele>2038</ele>
        <time>2011-07-21T08:37:52Z</time>
      </trkpt>
      <trkpt lat="42.84076" lon="0.2047">
        <ele>2039</ele>
        <time>2011-07-21T08:38:01Z</time>
      </trkpt>
      <trkpt lat="42.84082" lon="0.20475">
        <ele>2039</ele>
        <time>2011-07-21T08:38:07Z</time>
      </trkpt>
      <trkpt lat="42.84083" lon="0.20477">
        <ele>2040</ele>
        <time>2011-07-21T08:38:09Z</time>
      </trkpt>
      <trkpt lat="42.84085" lon="0.20478">
        <ele>2040</ele>
        <time>2011-07-21T08:38:11Z</time>
      </trkpt>
      <trkpt lat="42.84087" lon="0.20481">
        <ele>2041</ele>
        <time>2011-07-21T08:38:15Z</time>
      </trkpt>
      <trkpt lat="42.84089" lon="0.20483">
        <ele>2041</ele>
        <time>2011-07-21T08:38:17Z</time>
      </trkpt>
      <trkpt lat="42.8409" lon="0.20484">
        <ele>2041</ele>
        <time>2011-07-21T08:38:19Z</time>
      </trkpt>
      <trkpt lat="42.84092" lon="0.20488">
        <ele>2042</ele>
        <time>2011-07-21T08:38:23Z</time>
      </trkpt>
      <trkpt lat="42.84094" lon="0.2049">
        <ele>2042</ele>
        <time>2011-07-21T08:38:25Z</time>
      </trkpt>
      <trkpt lat="42.84097" lon="0.20495">
        <ele>2043</ele>
        <time>2011-07-21T08:38:32Z</time>
      </trkpt>
      <trkpt lat="42.84098" lon="0.20497">
        <ele>2044</ele>
        <time>2011-07-21T08:38:34Z</time>
      </trkpt>
      <trkpt lat="42.84099" lon="0.20499">
        <ele>2044</ele>
        <time>2011-07-21T08:38:36Z</time>
      </trkpt>
      <trkpt lat="42.841" lon="0.20504">
        <ele>2045</ele>
        <time>2011-07-21T08:38:40Z</time>
      </trkpt>
      <trkpt lat="42.84102" lon="0.2051">
        <ele>2045</ele>
        <time>2011-07-21T08:38:46Z</time>
      </trkpt>
      <trkpt lat="42.84106" lon="0.20519">
        <ele>2047</ele>
        <time>2011-07-21T08:38:53Z</time>
      </trkpt>
      <trkpt lat="42.84107" lon="0.20521">
        <ele>2047</ele>
        <time>2011-07-21T08:38:55Z</time>
      </trkpt>
      <trkpt lat="42.84108" lon="0.20525">
        <ele>2047</ele>
        <time>2011-07-21T08:38:59Z</time>
      </trkpt>
      <trkpt lat="42.84109" lon="0.20527">
        <ele>2048</ele>
        <time>2011-07-21T08:39:02Z</time>
      </trkpt>
      <trkpt lat="42.84113" lon="0.20535">
        <ele>2049</ele>
        <time>2011-07-21T08:39:09Z</time>
      </trkpt>
      <trkpt lat="42.84113" lon="0.20538">
        <ele>2050</ele>
        <time>2011-07-21T08:39:11Z</time>
      </trkpt>
      <trkpt lat="42.84114" lon="0.2054">
        <ele>2050</ele>
        <time>2011-07-21T08:39:14Z</time>
      </trkpt>
      <trkpt lat="42.84118" lon="0.20553">
        <ele>2051</ele>
        <time>2011-07-21T08:39:23Z</time>
      </trkpt>
      <trkpt lat="42.84119" lon="0.20559">
        <ele>2051</ele>
        <time>2011-07-21T08:39:27Z</time>
      </trkpt>
      <trkpt lat="42.8412" lon="0.20562">
        <ele>2051</ele>
        <time>2011-07-21T08:39:29Z</time>
      </trkpt>
      <trkpt lat="42.84122" lon="0.20564">
        <ele>2051</ele>
        <time>2011-07-21T08:39:31Z</time>
      </trkpt>
      <trkpt lat="42.84128" lon="0.20579">
        <ele>2053</ele>
        <time>2011-07-21T08:39:43Z</time>
      </trkpt>
      <trkpt lat="42.84128" lon="0.20581">
        <ele>2053</ele>
        <time>2011-07-21T08:39:45Z</time>
      </trkpt>
      <trkpt lat="42.84128" lon="0.20583">
        <ele>2053</ele>
        <time>2011-07-21T08:39:47Z</time>
      </trkpt>
      <trkpt lat="42.8413" lon="0.20588">
        <ele>2053</ele>
        <time>2011-07-21T08:39:51Z</time>
      </trkpt>
      <trkpt lat="42.8413" lon="0.2059">
        <ele>2054</ele>
        <time>2011-07-21T08:39:53Z</time>
      </trkpt>
      <trkpt lat="42.84131" lon="0.20593">
        <ele>2054</ele>
        <time>2011-07-21T08:39:55Z</time>
      </trkpt>
      <trkpt lat="42.84132" lon="0.20597">
        <ele>2054</ele>
        <time>2011-07-21T08:39:59Z</time>
      </trkpt>
      <trkpt lat="42.84133" lon="0.206">
        <ele>2055</ele>
        <time>2011-07-21T08:40:01Z</time>
      </trkpt>
      <trkpt lat="42.84134" lon="0.20602">
        <ele>2055</ele>
        <time>2011-07-21T08:40:04Z</time>
      </trkpt>
      <trkpt lat="42.84138" lon="0.20607">
        <ele>2056</ele>
        <time>2011-07-21T08:40:09Z</time>
      </trkpt>
      <trkpt lat="42.84139" lon="0.20608">
        <ele>2056</ele>
        <time>2011-07-21T08:40:11Z</time>
      </trkpt>
      <trkpt lat="42.84141" lon="0.2061">
        <ele>2056</ele>
        <time>2011-07-21T08:40:13Z</time>
      </trkpt>
      <trkpt lat="42.84144" lon="0.20614">
        <ele>2056</ele>
        <time>2011-07-21T08:40:17Z</time>
      </trkpt>
      <trkpt lat="42.84145" lon="0.20617">
        <ele>2056</ele>
        <time>2011-07-21T08:40:21Z</time>
      </trkpt>
      <trkpt lat="42.84149" lon="0.20621">
        <ele>2058</ele>
        <time>2011-07-21T08:40:28Z</time>
      </trkpt>
      <trkpt lat="42.8415" lon="0.20622">
        <ele>2058</ele>
        <time>2011-07-21T08:40:30Z</time>
      </trkpt>
      <trkpt lat="42.84151" lon="0.20626">
        <ele>2059</ele>
        <time>2011-07-21T08:40:35Z</time>
      </trkpt>
      <trkpt lat="42.84152" lon="0.20627">
        <ele>2060</ele>
        <time>2011-07-21T08:40:37Z</time>
      </trkpt>
      <trkpt lat="42.84152" lon="0.20629">
        <ele>2060</ele>
        <time>2011-07-21T08:40:39Z</time>
      </trkpt>
      <trkpt lat="42.84155" lon="0.20632">
        <ele>2062</ele>
        <time>2011-07-21T08:40:45Z</time>
      </trkpt>
      <trkpt lat="42.84155" lon="0.20633">
        <ele>2062</ele>
        <time>2011-07-21T08:40:47Z</time>
      </trkpt>
      <trkpt lat="42.84156" lon="0.20635">
        <ele>2063</ele>
        <time>2011-07-21T08:40:50Z</time>
      </trkpt>
      <trkpt lat="42.84158" lon="0.20637">
        <ele>2064</ele>
        <time>2011-07-21T08:40:54Z</time>
      </trkpt>
      <trkpt lat="42.84158" lon="0.20639">
        <ele>2065</ele>
        <time>2011-07-21T08:40:57Z</time>
      </trkpt>
      <trkpt lat="42.8416" lon="0.20644">
        <ele>2067</ele>
        <time>2011-07-21T08:41:05Z</time>
      </trkpt>
      <trkpt lat="42.84161" lon="0.20645">
        <ele>2068</ele>
        <time>2011-07-21T08:41:09Z</time>
      </trkpt>
      <trkpt lat="42.84163" lon="0.20647">
        <ele>2068</ele>
        <time>2011-07-21T08:41:12Z</time>
      </trkpt>
      <trkpt lat="42.84166" lon="0.2065">
        <ele>2069</ele>
        <time>2011-07-21T08:41:18Z</time>
      </trkpt>
      <trkpt lat="42.84166" lon="0.20651">
        <ele>2070</ele>
        <time>2011-07-21T08:41:20Z</time>
      </trkpt>
      <trkpt lat="42.84167" lon="0.20653">
        <ele>2070</ele>
        <time>2011-07-21T08:41:22Z</time>
      </trkpt>
      <trkpt lat="42.84167" lon="0.20656">
        <ele>2071</ele>
        <time>2011-07-21T08:41:27Z</time>
      </trkpt>
      <trkpt lat="42.84167" lon="0.20658">
        <ele>2072</ele>
        <time>2011-07-21T08:41:29Z</time>
      </trkpt>
      <trkpt lat="42.84166" lon="0.20663">
        <ele>2073</ele>
        <time>2011-07-21T08:41:35Z</time>
      </trkpt>
      <trkpt lat="42.84168" lon="0.20665">
        <ele>2074</ele>
        <time>2011-07-21T08:41:38Z</time>
      </trkpt>
      <trkpt lat="42.84169" lon="0.20666">
        <ele>2074</ele>
        <time>2011-07-21T08:41:41Z</time>
      </trkpt>
      <trkpt lat="42.84171" lon="0.20669">
        <ele>2074</ele>
        <time>2011-07-21T08:41:46Z</time>
      </trkpt>
      <trkpt lat="42.84171" lon="0.20671">
        <ele>2074</ele>
        <time>2011-07-21T08:41:48Z</time>
      </trkpt>
      <trkpt lat="42.84171" lon="0.20673">
        <ele>2075</ele>
        <time>2011-07-21T08:41:50Z</time>
      </trkpt>
      <trkpt lat="42.8417" lon="0.20676">
        <ele>2075</ele>
        <time>2011-07-21T08:41:54Z</time>
      </trkpt>
      <trkpt lat="42.8417" lon="0.20678">
        <ele>2075</ele>
        <time>2011-07-21T08:41:56Z</time>
      </trkpt>
      <trkpt lat="42.8417" lon="0.2068">
        <ele>2076</ele>
        <time>2011-07-21T08:41:58Z</time>
      </trkpt>
      <trkpt lat="42.84169" lon="0.20683">
        <ele>2076</ele>
        <time>2011-07-21T08:42:02Z</time>
      </trkpt>
      <trkpt lat="42.8417" lon="0.20685">
        <ele>2076</ele>
        <time>2011-07-21T08:42:04Z</time>
      </trkpt>
      <trkpt lat="42.8417" lon="0.20686">
        <ele>2077</ele>
        <time>2011-07-21T08:42:06Z</time>
      </trkpt>
      <trkpt lat="42.84172" lon="0.20689">
        <ele>2078</ele>
        <time>2011-07-21T08:42:10Z</time>
      </trkpt>
      <trkpt lat="42.84173" lon="0.20691">
        <ele>2078</ele>
        <time>2011-07-21T08:42:12Z</time>
      </trkpt>
      <trkpt lat="42.84173" lon="0.20693">
        <ele>2078</ele>
        <time>2011-07-21T08:42:14Z</time>
      </trkpt>
      <trkpt lat="42.84175" lon="0.20696">
        <ele>2078</ele>
        <time>2011-07-21T08:42:18Z</time>
      </trkpt>
      <trkpt lat="42.84177" lon="0.20698">
        <ele>2079</ele>
        <time>2011-07-21T08:42:21Z</time>
      </trkpt>
      <trkpt lat="42.84178" lon="0.20699">
        <ele>2079</ele>
        <time>2011-07-21T08:42:23Z</time>
      </trkpt>
      <trkpt lat="42.84179" lon="0.20703">
        <ele>2080</ele>
        <time>2011-07-21T08:42:27Z</time>
      </trkpt>
      <trkpt lat="42.84179" lon="0.20704">
        <ele>2080</ele>
        <time>2011-07-21T08:42:29Z</time>
      </trkpt>
      <trkpt lat="42.8418" lon="0.20706">
        <ele>2080</ele>
        <time>2011-07-21T08:42:31Z</time>
      </trkpt>
      <trkpt lat="42.84181" lon="0.20709">
        <ele>2080</ele>
        <time>2011-07-21T08:42:35Z</time>
      </trkpt>
      <trkpt lat="42.84182" lon="0.20711">
        <ele>2080</ele>
        <time>2011-07-21T08:42:37Z</time>
      </trkpt>
      <trkpt lat="42.84182" lon="0.20712">
        <ele>2081</ele>
        <time>2011-07-21T08:42:39Z</time>
      </trkpt>
      <trkpt lat="42.84184" lon="0.20716">
        <ele>2081</ele>
        <time>2011-07-21T08:42:43Z</time>
      </trkpt>
      <trkpt lat="42.84186" lon="0.20718">
        <ele>2081</ele>
        <time>2011-07-21T08:42:47Z</time>
      </trkpt>
      <trkpt lat="42.84187" lon="0.20721">
        <ele>2082</ele>
        <time>2011-07-21T08:42:50Z</time>
      </trkpt>
      <trkpt lat="42.84189" lon="0.20725">
        <ele>2082</ele>
        <time>2011-07-21T08:42:55Z</time>
      </trkpt>
      <trkpt lat="42.8419" lon="0.20727">
        <ele>2083</ele>
        <time>2011-07-21T08:42:58Z</time>
      </trkpt>
      <trkpt lat="42.84191" lon="0.20728">
        <ele>2083</ele>
        <time>2011-07-21T08:43:01Z</time>
      </trkpt>
      <trkpt lat="42.84193" lon="0.20732">
        <ele>2084</ele>
        <time>2011-07-21T08:43:07Z</time>
      </trkpt>
      <trkpt lat="42.84194" lon="0.20733">
        <ele>2085</ele>
        <time>2011-07-21T08:43:10Z</time>
      </trkpt>
      <trkpt lat="42.84195" lon="0.20735">
        <ele>2085</ele>
        <time>2011-07-21T08:43:13Z</time>
      </trkpt>
      <trkpt lat="42.84197" lon="0.20739">
        <ele>2086</ele>
        <time>2011-07-21T08:43:19Z</time>
      </trkpt>
      <trkpt lat="42.84198" lon="0.2074">
        <ele>2087</ele>
        <time>2011-07-21T08:43:21Z</time>
      </trkpt>
      <trkpt lat="42.84198" lon="0.20742">
        <ele>2087</ele>
        <time>2011-07-21T08:43:23Z</time>
      </trkpt>
      <trkpt lat="42.842" lon="0.20747">
        <ele>2088</ele>
        <time>2011-07-21T08:43:29Z</time>
      </trkpt>
      <trkpt lat="42.84201" lon="0.20749">
        <ele>2088</ele>
        <time>2011-07-21T08:43:32Z</time>
      </trkpt>
      <trkpt lat="42.84202" lon="0.20752">
        <ele>2089</ele>
        <time>2011-07-21T08:43:36Z</time>
      </trkpt>
      <trkpt lat="42.84203" lon="0.20754">
        <ele>2089</ele>
        <time>2011-07-21T08:43:38Z</time>
      </trkpt>
      <trkpt lat="42.84203" lon="0.20755">
        <ele>2089</ele>
        <time>2011-07-21T08:43:40Z</time>
      </trkpt>
      <trkpt lat="42.84205" lon="0.20759">
        <ele>2090</ele>
        <time>2011-07-21T08:43:44Z</time>
      </trkpt>
      <trkpt lat="42.84206" lon="0.20761">
        <ele>2090</ele>
        <time>2011-07-21T08:43:47Z</time>
      </trkpt>
      <trkpt lat="42.84207" lon="0.20763">
        <ele>2091</ele>
        <time>2011-07-21T08:43:50Z</time>
      </trkpt>
      <trkpt lat="42.84209" lon="0.20766">
        <ele>2092</ele>
        <time>2011-07-21T08:43:56Z</time>
      </trkpt>
      <trkpt lat="42.8421" lon="0.20767">
        <ele>2092</ele>
        <time>2011-07-21T08:43:58Z</time>
      </trkpt>
      <trkpt lat="42.84211" lon="0.20769">
        <ele>2093</ele>
        <time>2011-07-21T08:44:01Z</time>
      </trkpt>
      <trkpt lat="42.84213" lon="0.20772">
        <ele>2094</ele>
        <time>2011-07-21T08:44:06Z</time>
      </trkpt>
      <trkpt lat="42.84214" lon="0.20775">
        <ele>2094</ele>
        <time>2011-07-21T08:44:10Z</time>
      </trkpt>
      <trkpt lat="42.84215" lon="0.20778">
        <ele>2095</ele>
        <time>2011-07-21T08:44:14Z</time>
      </trkpt>
      <trkpt lat="42.84216" lon="0.20779">
        <ele>2095</ele>
        <time>2011-07-21T08:44:16Z</time>
      </trkpt>
      <trkpt lat="42.84216" lon="0.20781">
        <ele>2096</ele>
        <time>2011-07-21T08:44:19Z</time>
      </trkpt>
      <trkpt lat="42.84218" lon="0.20785">
        <ele>2096</ele>
        <time>2011-07-21T08:44:24Z</time>
      </trkpt>
      <trkpt lat="42.84219" lon="0.20786">
        <ele>2097</ele>
        <time>2011-07-21T08:44:27Z</time>
      </trkpt>
      <trkpt lat="42.8422" lon="0.20788">
        <ele>2097</ele>
        <time>2011-07-21T08:44:30Z</time>
      </trkpt>
      <trkpt lat="42.84222" lon="0.20791">
        <ele>2098</ele>
        <time>2011-07-21T08:44:35Z</time>
      </trkpt>
      <trkpt lat="42.84224" lon="0.20793">
        <ele>2098</ele>
        <time>2011-07-21T08:44:37Z</time>
      </trkpt>
      <trkpt lat="42.84226" lon="0.20798">
        <ele>2100</ele>
        <time>2011-07-21T08:44:45Z</time>
      </trkpt>
      <trkpt lat="42.84227" lon="0.208">
        <ele>2101</ele>
        <time>2011-07-21T08:44:47Z</time>
      </trkpt>
      <trkpt lat="42.84227" lon="0.20801">
        <ele>2101</ele>
        <time>2011-07-21T08:44:50Z</time>
      </trkpt>
      <trkpt lat="42.84229" lon="0.20804">
        <ele>2103</ele>
        <time>2011-07-21T08:44:56Z</time>
      </trkpt>
      <trkpt lat="42.8423" lon="0.20806">
        <ele>2103</ele>
        <time>2011-07-21T08:44:59Z</time>
      </trkpt>
      <trkpt lat="42.84231" lon="0.20807">
        <ele>2104</ele>
        <time>2011-07-21T08:45:02Z</time>
      </trkpt>
      <trkpt lat="42.84233" lon="0.2081">
        <ele>2105</ele>
        <time>2011-07-21T08:45:07Z</time>
      </trkpt>
      <trkpt lat="42.84234" lon="0.20812">
        <ele>2106</ele>
        <time>2011-07-21T08:45:10Z</time>
      </trkpt>
      <trkpt lat="42.84235" lon="0.20813">
        <ele>2106</ele>
        <time>2011-07-21T08:45:13Z</time>
      </trkpt>
      <trkpt lat="42.84238" lon="0.20816">
        <ele>2108</ele>
        <time>2011-07-21T08:45:20Z</time>
      </trkpt>
      <trkpt lat="42.84239" lon="0.20818">
        <ele>2108</ele>
        <time>2011-07-21T08:45:23Z</time>
      </trkpt>
      <trkpt lat="42.8424" lon="0.20819">
        <ele>2109</ele>
        <time>2011-07-21T08:45:26Z</time>
      </trkpt>
      <trkpt lat="42.84243" lon="0.20821">
        <ele>2110</ele>
        <time>2011-07-21T08:45:32Z</time>
      </trkpt>
      <trkpt lat="42.84244" lon="0.20822">
        <ele>2111</ele>
        <time>2011-07-21T08:45:35Z</time>
      </trkpt>
      <trkpt lat="42.84245" lon="0.20823">
        <ele>2111</ele>
        <time>2011-07-21T08:45:38Z</time>
      </trkpt>
      <trkpt lat="42.8425" lon="0.20828">
        <ele>2113</ele>
        <time>2011-07-21T08:45:47Z</time>
      </trkpt>
      <trkpt lat="42.84251" lon="0.20829">
        <ele>2113</ele>
        <time>2011-07-21T08:45:49Z</time>
      </trkpt>
      <trkpt lat="42.84253" lon="0.20831">
        <ele>2113</ele>
        <time>2011-07-21T08:45:53Z</time>
      </trkpt>
      <trkpt lat="42.84255" lon="0.20831">
        <ele>2114</ele>
        <time>2011-07-21T08:45:55Z</time>
      </trkpt>
      <trkpt lat="42.84256" lon="0.20832">
        <ele>2114</ele>
        <time>2011-07-21T08:45:57Z</time>
      </trkpt>
      <trkpt lat="42.84258" lon="0.20835">
        <ele>2115</ele>
        <time>2011-07-21T08:46:01Z</time>
      </trkpt>
      <trkpt lat="42.8426" lon="0.20836">
        <ele>2115</ele>
        <time>2011-07-21T08:46:03Z</time>
      </trkpt>
      <trkpt lat="42.84261" lon="0.20838">
        <ele>2115</ele>
        <time>2011-07-21T08:46:05Z</time>
      </trkpt>
      <trkpt lat="42.84263" lon="0.2084">
        <ele>2115</ele>
        <time>2011-07-21T08:46:51Z</time>
      </trkpt>
      <trkpt lat="42.84264" lon="0.20841">
        <ele>2116</ele>
        <time>2011-07-21T08:47:01Z</time>
      </trkpt>
      <trkpt lat="42.84266" lon="0.20843">
        <ele>2116</ele>
        <time>2011-07-21T08:47:03Z</time>
      </trkpt>
      <trkpt lat="42.8427" lon="0.20845">
        <ele>2116</ele>
        <time>2011-07-21T08:47:07Z</time>
      </trkpt>
      <trkpt lat="42.84274" lon="0.20846">
        <ele>2116</ele>
        <time>2011-07-21T08:47:10Z</time>
      </trkpt>
      <trkpt lat="42.84277" lon="0.20847">
        <ele>2116</ele>
        <time>2011-07-21T08:47:12Z</time>
      </trkpt>
      <trkpt lat="42.84284" lon="0.20848">
        <ele>2116</ele>
        <time>2011-07-21T08:47:18Z</time>
      </trkpt>
      <trkpt lat="42.84292" lon="0.2085">
        <ele>2116</ele>
        <time>2011-07-21T08:47:25Z</time>
      </trkpt>
      <trkpt lat="42.84294" lon="0.20849">
        <ele>2116</ele>
        <time>2011-07-21T08:47:27Z</time>
      </trkpt>
      <trkpt lat="42.84301" lon="0.20851">
        <ele>2116</ele>
        <time>2011-07-21T08:47:33Z</time>
      </trkpt>
      <trkpt lat="42.84303" lon="0.20851">
        <ele>2116</ele>
        <time>2011-07-21T08:47:35Z</time>
      </trkpt>
      <trkpt lat="42.84305" lon="0.20852">
        <ele>2116</ele>
        <time>2011-07-21T08:47:37Z</time>
      </trkpt>
      <trkpt lat="42.84308" lon="0.20852">
        <ele>2116</ele>
        <time>2011-07-21T08:47:41Z</time>
      </trkpt>
      <trkpt lat="42.8431" lon="0.20851">
        <ele>2117</ele>
        <time>2011-07-21T08:47:43Z</time>
      </trkpt>
      <trkpt lat="42.84312" lon="0.20851">
        <ele>2117</ele>
        <time>2011-07-21T08:47:45Z</time>
      </trkpt>
      <trkpt lat="42.84315" lon="0.2085">
        <ele>2117</ele>
        <time>2011-07-21T08:47:49Z</time>
      </trkpt>
      <trkpt lat="42.84317" lon="0.2085">
        <ele>2118</ele>
        <time>2011-07-21T08:47:51Z</time>
      </trkpt>
      <trkpt lat="42.84319" lon="0.20849">
        <ele>2118</ele>
        <time>2011-07-21T08:47:54Z</time>
      </trkpt>
      <trkpt lat="42.84325" lon="0.20846">
        <ele>2118</ele>
        <time>2011-07-21T08:47:59Z</time>
      </trkpt>
      <trkpt lat="42.84326" lon="0.20846">
        <ele>2119</ele>
        <time>2011-07-21T08:48:01Z</time>
      </trkpt>
      <trkpt lat="42.84328" lon="0.20845">
        <ele>2119</ele>
        <time>2011-07-21T08:48:03Z</time>
      </trkpt>
      <trkpt lat="42.84331" lon="0.20844">
        <ele>2119</ele>
        <time>2011-07-21T08:48:07Z</time>
      </trkpt>
      <trkpt lat="42.84332" lon="0.20844">
        <ele>2119</ele>
        <time>2011-07-21T08:48:09Z</time>
      </trkpt>
      <trkpt lat="42.84333" lon="0.20843">
        <ele>2120</ele>
        <time>2011-07-21T08:48:11Z</time>
      </trkpt>
      <trkpt lat="42.84336" lon="0.20842">
        <ele>2120</ele>
        <time>2011-07-21T08:48:16Z</time>
      </trkpt>
      <trkpt lat="42.84338" lon="0.20841">
        <ele>2121</ele>
        <time>2011-07-21T08:48:19Z</time>
      </trkpt>
      <trkpt lat="42.8434" lon="0.2084">
        <ele>2122</ele>
        <time>2011-07-21T08:48:22Z</time>
      </trkpt>
      <trkpt lat="42.84342" lon="0.20839">
        <ele>2122</ele>
        <time>2011-07-21T08:48:26Z</time>
      </trkpt>
      <trkpt lat="42.84343" lon="0.20839">
        <ele>2123</ele>
        <time>2011-07-21T08:48:28Z</time>
      </trkpt>
      <trkpt lat="42.84344" lon="0.20838">
        <ele>2123</ele>
        <time>2011-07-21T08:48:31Z</time>
      </trkpt>
      <trkpt lat="42.84347" lon="0.20839">
        <ele>2124</ele>
        <time>2011-07-21T08:48:36Z</time>
      </trkpt>
      <trkpt lat="42.84348" lon="0.2084">
        <ele>2125</ele>
        <time>2011-07-21T08:48:39Z</time>
      </trkpt>
      <trkpt lat="42.8435" lon="0.20842">
        <ele>2125</ele>
        <time>2011-07-21T08:48:42Z</time>
      </trkpt>
      <trkpt lat="42.84352" lon="0.20842">
        <ele>2126</ele>
        <time>2011-07-21T08:48:47Z</time>
      </trkpt>
      <trkpt lat="42.84354" lon="0.20843">
        <ele>2126</ele>
        <time>2011-07-21T08:48:49Z</time>
      </trkpt>
      <trkpt lat="42.84355" lon="0.20843">
        <ele>2127</ele>
        <time>2011-07-21T08:48:51Z</time>
      </trkpt>
      <trkpt lat="42.84357" lon="0.20845">
        <ele>2127</ele>
        <time>2011-07-21T08:48:55Z</time>
      </trkpt>
      <trkpt lat="42.84359" lon="0.20846">
        <ele>2128</ele>
        <time>2011-07-21T08:48:57Z</time>
      </trkpt>
      <trkpt lat="42.8436" lon="0.20846">
        <ele>2128</ele>
        <time>2011-07-21T08:49:00Z</time>
      </trkpt>
      <trkpt lat="42.84363" lon="0.20847">
        <ele>2129</ele>
        <time>2011-07-21T08:49:05Z</time>
      </trkpt>
      <trkpt lat="42.84364" lon="0.20847">
        <ele>2129</ele>
        <time>2011-07-21T08:49:07Z</time>
      </trkpt>
      <trkpt lat="42.84366" lon="0.20847">
        <ele>2130</ele>
        <time>2011-07-21T08:49:10Z</time>
      </trkpt>
      <trkpt lat="42.84369" lon="0.20847">
        <ele>2131</ele>
        <time>2011-07-21T08:49:16Z</time>
      </trkpt>
      <trkpt lat="42.84371" lon="0.20846">
        <ele>2131</ele>
        <time>2011-07-21T08:49:20Z</time>
      </trkpt>
      <trkpt lat="42.84372" lon="0.20845">
        <ele>2132</ele>
        <time>2011-07-21T08:49:22Z</time>
      </trkpt>
      <trkpt lat="42.84375" lon="0.20846">
        <ele>2133</ele>
        <time>2011-07-21T08:49:26Z</time>
      </trkpt>
      <trkpt lat="42.84377" lon="0.20846">
        <ele>2133</ele>
        <time>2011-07-21T08:49:29Z</time>
      </trkpt>
      <trkpt lat="42.84378" lon="0.20846">
        <ele>2134</ele>
        <time>2011-07-21T08:49:31Z</time>
      </trkpt>
      <trkpt lat="42.8438" lon="0.20846">
        <ele>2135</ele>
        <time>2011-07-21T08:49:37Z</time>
      </trkpt>
      <trkpt lat="42.84382" lon="0.20846">
        <ele>2135</ele>
        <time>2011-07-21T08:49:40Z</time>
      </trkpt>
      <trkpt lat="42.84383" lon="0.20847">
        <ele>2135</ele>
        <time>2011-07-21T08:49:43Z</time>
      </trkpt>
      <trkpt lat="42.84386" lon="0.20847">
        <ele>2136</ele>
        <time>2011-07-21T08:49:50Z</time>
      </trkpt>
      <trkpt lat="42.84387" lon="0.20846">
        <ele>2137</ele>
        <time>2011-07-21T08:49:53Z</time>
      </trkpt>
      <trkpt lat="42.84388" lon="0.20846">
        <ele>2137</ele>
        <time>2011-07-21T08:49:56Z</time>
      </trkpt>
      <trkpt lat="42.84391" lon="0.20848">
        <ele>2138</ele>
        <time>2011-07-21T08:50:01Z</time>
      </trkpt>
      <trkpt lat="42.84392" lon="0.2085">
        <ele>2138</ele>
        <time>2011-07-21T08:50:03Z</time>
      </trkpt>
      <trkpt lat="42.84393" lon="0.20851">
        <ele>2138</ele>
        <time>2011-07-21T08:50:05Z</time>
      </trkpt>
      <trkpt lat="42.84396" lon="0.20851">
        <ele>2139</ele>
        <time>2011-07-21T08:50:09Z</time>
      </trkpt>
      <trkpt lat="42.84397" lon="0.2085">
        <ele>2139</ele>
        <time>2011-07-21T08:50:11Z</time>
      </trkpt>
      <trkpt lat="42.844" lon="0.20845">
        <ele>2140</ele>
        <time>2011-07-21T08:50:18Z</time>
      </trkpt>
      <trkpt lat="42.84401" lon="0.20844">
        <ele>2140</ele>
        <time>2011-07-21T08:50:20Z</time>
      </trkpt>
      <trkpt lat="42.84402" lon="0.20842">
        <ele>2140</ele>
        <time>2011-07-21T08:50:23Z</time>
      </trkpt>
      <trkpt lat="42.84405" lon="0.20839">
        <ele>2141</ele>
        <time>2011-07-21T08:50:28Z</time>
      </trkpt>
      <trkpt lat="42.84407" lon="0.20839">
        <ele>2141</ele>
        <time>2011-07-21T08:50:30Z</time>
      </trkpt>
      <trkpt lat="42.84408" lon="0.20838">
        <ele>2142</ele>
        <time>2011-07-21T08:50:32Z</time>
      </trkpt>
      <trkpt lat="42.84411" lon="0.20836">
        <ele>2142</ele>
        <time>2011-07-21T08:50:40Z</time>
      </trkpt>
      <trkpt lat="42.84412" lon="0.20834">
        <ele>2142</ele>
        <time>2011-07-21T08:50:42Z</time>
      </trkpt>
      <trkpt lat="42.84414" lon="0.20832">
        <ele>2143</ele>
        <time>2011-07-21T08:50:44Z</time>
      </trkpt>
      <trkpt lat="42.84418" lon="0.20828">
        <ele>2144</ele>
        <time>2011-07-21T08:50:48Z</time>
      </trkpt>
      <trkpt lat="42.8442" lon="0.20827">
        <ele>2144</ele>
        <time>2011-07-21T08:50:50Z</time>
      </trkpt>
      <trkpt lat="42.84421" lon="0.20824">
        <ele>2144</ele>
        <time>2011-07-21T08:50:52Z</time>
      </trkpt>
      <trkpt lat="42.84424" lon="0.20821">
        <ele>2144</ele>
        <time>2011-07-21T08:50:57Z</time>
      </trkpt>
      <trkpt lat="42.84426" lon="0.20818">
        <ele>2144</ele>
        <time>2011-07-21T08:51:02Z</time>
      </trkpt>
      <trkpt lat="42.84428" lon="0.20814">
        <ele>2146</ele>
        <time>2011-07-21T08:51:07Z</time>
      </trkpt>
      <trkpt lat="42.84429" lon="0.20813">
        <ele>2146</ele>
        <time>2011-07-21T08:51:09Z</time>
      </trkpt>
      <trkpt lat="42.84431" lon="0.20811">
        <ele>2147</ele>
        <time>2011-07-21T08:51:11Z</time>
      </trkpt>
      <trkpt lat="42.84434" lon="0.20809">
        <ele>2147</ele>
        <time>2011-07-21T08:51:15Z</time>
      </trkpt>
      <trkpt lat="42.84436" lon="0.20809">
        <ele>2147</ele>
        <time>2011-07-21T08:51:17Z</time>
      </trkpt>
      <trkpt lat="42.84437" lon="0.20808">
        <ele>2148</ele>
        <time>2011-07-21T08:51:19Z</time>
      </trkpt>
      <trkpt lat="42.84445" lon="0.20799">
        <ele>2148</ele>
        <time>2011-07-21T08:51:29Z</time>
      </trkpt>
      <trkpt lat="42.84449" lon="0.20796">
        <ele>2148</ele>
        <time>2011-07-21T08:51:33Z</time>
      </trkpt>
      <trkpt lat="42.8445" lon="0.20795">
        <ele>2148</ele>
        <time>2011-07-21T08:51:35Z</time>
      </trkpt>
      <trkpt lat="42.84451" lon="0.20793">
        <ele>2149</ele>
        <time>2011-07-21T08:51:37Z</time>
      </trkpt>
      <trkpt lat="42.84454" lon="0.2079">
        <ele>2149</ele>
        <time>2011-07-21T08:51:41Z</time>
      </trkpt>
      <trkpt lat="42.84455" lon="0.20789">
        <ele>2150</ele>
        <time>2011-07-21T08:51:43Z</time>
      </trkpt>
      <trkpt lat="42.8446" lon="0.20783">
        <ele>2151</ele>
        <time>2011-07-21T08:51:49Z</time>
      </trkpt>
      <trkpt lat="42.84462" lon="0.20782">
        <ele>2151</ele>
        <time>2011-07-21T08:51:51Z</time>
      </trkpt>
      <trkpt lat="42.84463" lon="0.20782">
        <ele>2151</ele>
        <time>2011-07-21T08:51:53Z</time>
      </trkpt>
      <trkpt lat="42.84463" lon="0.20782">
        <ele>2151</ele>
        <time>2011-07-21T08:52:24Z</time>
      </trkpt>
      <trkpt lat="42.84465" lon="0.2078">
        <ele>2151</ele>
        <time>2011-07-21T08:52:27Z</time>
      </trkpt>
      <trkpt lat="42.84467" lon="0.20778">
        <ele>2151</ele>
        <time>2011-07-21T08:52:29Z</time>
      </trkpt>
      <trkpt lat="42.84471" lon="0.2078">
        <ele>2151</ele>
        <time>2011-07-21T08:52:34Z</time>
      </trkpt>
      <trkpt lat="42.84473" lon="0.20781">
        <ele>2151</ele>
        <time>2011-07-21T08:52:36Z</time>
      </trkpt>
      <trkpt lat="42.84475" lon="0.2078">
        <ele>2151</ele>
        <time>2011-07-21T08:52:38Z</time>
      </trkpt>
      <trkpt lat="42.8448" lon="0.20778">
        <ele>2151</ele>
        <time>2011-07-21T08:52:43Z</time>
      </trkpt>
      <trkpt lat="42.84483" lon="0.20778">
        <ele>2151</ele>
        <time>2011-07-21T08:52:45Z</time>
      </trkpt>
      <trkpt lat="42.84485" lon="0.20777">
        <ele>2151</ele>
        <time>2011-07-21T08:52:47Z</time>
      </trkpt>
      <trkpt lat="42.8449" lon="0.20778">
        <ele>2151</ele>
        <time>2011-07-21T08:52:51Z</time>
      </trkpt>
      <trkpt lat="42.84495" lon="0.20777">
        <ele>2151</ele>
        <time>2011-07-21T08:52:55Z</time>
      </trkpt>
      <trkpt lat="42.845" lon="0.20777">
        <ele>2151</ele>
        <time>2011-07-21T08:52:59Z</time>
      </trkpt>
      <trkpt lat="42.84502" lon="0.20778">
        <ele>2151</ele>
        <time>2011-07-21T08:53:01Z</time>
      </trkpt>
      <trkpt lat="42.84506" lon="0.20779">
        <ele>2151</ele>
        <time>2011-07-21T08:53:04Z</time>
      </trkpt>
      <trkpt lat="42.84509" lon="0.20784">
        <ele>2151</ele>
        <time>2011-07-21T08:53:08Z</time>
      </trkpt>
      <trkpt lat="42.84512" lon="0.20787">
        <ele>2151</ele>
        <time>2011-07-21T08:53:12Z</time>
      </trkpt>
      <trkpt lat="42.84515" lon="0.2079">
        <ele>2151</ele>
        <time>2011-07-21T08:53:17Z</time>
      </trkpt>
      <trkpt lat="42.84515" lon="0.20791">
        <ele>2151</ele>
        <time>2011-07-21T08:53:19Z</time>
      </trkpt>
      <trkpt lat="42.84517" lon="0.20792">
        <ele>2150</ele>
        <time>2011-07-21T08:53:40Z</time>
      </trkpt>
      <trkpt lat="42.84521" lon="0.20793">
        <ele>2149</ele>
        <time>2011-07-21T08:53:44Z</time>
      </trkpt>
      <trkpt lat="42.84523" lon="0.20793">
        <ele>2149</ele>
        <time>2011-07-21T08:53:46Z</time>
      </trkpt>
      <trkpt lat="42.84525" lon="0.20794">
        <ele>2149</ele>
        <time>2011-07-21T08:53:48Z</time>
      </trkpt>
      <trkpt lat="42.84528" lon="0.20798">
        <ele>2149</ele>
        <time>2011-07-21T08:53:52Z</time>
      </trkpt>
      <trkpt lat="42.84529" lon="0.20798">
        <ele>2149</ele>
        <time>2011-07-21T08:53:54Z</time>
      </trkpt>
      <trkpt lat="42.84531" lon="0.20798">
        <ele>2149</ele>
        <time>2011-07-21T08:53:56Z</time>
      </trkpt>
      <trkpt lat="42.84536" lon="0.20799">
        <ele>2148</ele>
        <time>2011-07-21T08:54:01Z</time>
      </trkpt>
      <trkpt lat="42.84538" lon="0.20801">
        <ele>2148</ele>
        <time>2011-07-21T08:54:03Z</time>
      </trkpt>
      <trkpt lat="42.84541" lon="0.20811">
        <ele>2148</ele>
        <time>2011-07-21T08:54:11Z</time>
      </trkpt>
      <trkpt lat="42.84542" lon="0.20813">
        <ele>2148</ele>
        <time>2011-07-21T08:54:13Z</time>
      </trkpt>
      <trkpt lat="42.84543" lon="0.20816">
        <ele>2148</ele>
        <time>2011-07-21T08:54:15Z</time>
      </trkpt>
      <trkpt lat="42.84545" lon="0.20819">
        <ele>2147</ele>
        <time>2011-07-21T08:54:21Z</time>
      </trkpt>
      <trkpt lat="42.84546" lon="0.20819">
        <ele>2147</ele>
        <time>2011-07-21T08:54:46Z</time>
      </trkpt>
      <trkpt lat="42.84547" lon="0.2082">
        <ele>2147</ele>
        <time>2011-07-21T08:54:48Z</time>
      </trkpt>
      <trkpt lat="42.84549" lon="0.20824">
        <ele>2147</ele>
        <time>2011-07-21T08:54:52Z</time>
      </trkpt>
      <trkpt lat="42.84549" lon="0.20827">
        <ele>2147</ele>
        <time>2011-07-21T08:54:54Z</time>
      </trkpt>
      <trkpt lat="42.84549" lon="0.20831">
        <ele>2147</ele>
        <time>2011-07-21T08:54:57Z</time>
      </trkpt>
      <trkpt lat="42.84549" lon="0.20835">
        <ele>2147</ele>
        <time>2011-07-21T08:55:01Z</time>
      </trkpt>
      <trkpt lat="42.84548" lon="0.20839">
        <ele>2147</ele>
        <time>2011-07-21T08:55:09Z</time>
      </trkpt>
      <trkpt lat="42.84549" lon="0.20846">
        <ele>2147</ele>
        <time>2011-07-21T08:55:14Z</time>
      </trkpt>
      <trkpt lat="42.84548" lon="0.20853">
        <ele>2147</ele>
        <time>2011-07-21T08:55:19Z</time>
      </trkpt>
      <trkpt lat="42.84546" lon="0.20856">
        <ele>2147</ele>
        <time>2011-07-21T08:55:23Z</time>
      </trkpt>
      <trkpt lat="42.84545" lon="0.20857">
        <ele>2147</ele>
        <time>2011-07-21T08:55:25Z</time>
      </trkpt>
      <trkpt lat="42.84546" lon="0.20859">
        <ele>2147</ele>
        <time>2011-07-21T08:55:27Z</time>
      </trkpt>
      <trkpt lat="42.84546" lon="0.20864">
        <ele>2147</ele>
        <time>2011-07-21T08:55:31Z</time>
      </trkpt>
      <trkpt lat="42.84546" lon="0.20866">
        <ele>2147</ele>
        <time>2011-07-21T08:55:33Z</time>
      </trkpt>
      <trkpt lat="42.84547" lon="0.20868">
        <ele>2147</ele>
        <time>2011-07-21T08:55:35Z</time>
      </trkpt>
      <trkpt lat="42.8455" lon="0.20875">
        <ele>2147</ele>
        <time>2011-07-21T08:55:42Z</time>
      </trkpt>
      <trkpt lat="42.8455" lon="0.20879">
        <ele>2147</ele>
        <time>2011-07-21T08:55:45Z</time>
      </trkpt>
      <trkpt lat="42.84553" lon="0.20883">
        <ele>2147</ele>
        <time>2011-07-21T08:55:49Z</time>
      </trkpt>
      <trkpt lat="42.84557" lon="0.20884">
        <ele>2147</ele>
        <time>2011-07-21T08:55:52Z</time>
      </trkpt>
      <trkpt lat="42.84559" lon="0.20885">
        <ele>2147</ele>
        <time>2011-07-21T08:55:54Z</time>
      </trkpt>
      <trkpt lat="42.84563" lon="0.20887">
        <ele>2147</ele>
        <time>2011-07-21T08:55:58Z</time>
      </trkpt>
      <trkpt lat="42.84568" lon="0.20889">
        <ele>2147</ele>
        <time>2011-07-21T08:56:02Z</time>
      </trkpt>
      <trkpt lat="42.84569" lon="0.2089">
        <ele>2147</ele>
        <time>2011-07-21T08:56:34Z</time>
      </trkpt>
      <trkpt lat="42.84571" lon="0.20891">
        <ele>2147</ele>
        <time>2011-07-21T08:56:50Z</time>
      </trkpt>
      <trkpt lat="42.84573" lon="0.20892">
        <ele>2147</ele>
        <time>2011-07-21T08:56:52Z</time>
      </trkpt>
      <trkpt lat="42.8458" lon="0.20896">
        <ele>2147</ele>
        <time>2011-07-21T08:56:58Z</time>
      </trkpt>
      <trkpt lat="42.84588" lon="0.20903">
        <ele>2147</ele>
        <time>2011-07-21T08:57:06Z</time>
      </trkpt>
      <trkpt lat="42.84594" lon="0.20907">
        <ele>2147</ele>
        <time>2011-07-21T08:57:11Z</time>
      </trkpt>
      <trkpt lat="42.84597" lon="0.20912">
        <ele>2147</ele>
        <time>2011-07-21T08:57:15Z</time>
      </trkpt>
      <trkpt lat="42.84598" lon="0.20913">
        <ele>2147</ele>
        <time>2011-07-21T08:57:17Z</time>
      </trkpt>
      <trkpt lat="42.846" lon="0.20914">
        <ele>2147</ele>
        <time>2011-07-21T08:57:19Z</time>
      </trkpt>
      <trkpt lat="42.84604" lon="0.2092">
        <ele>2147</ele>
        <time>2011-07-21T08:57:24Z</time>
      </trkpt>
      <trkpt lat="42.84605" lon="0.20922">
        <ele>2147</ele>
        <time>2011-07-21T08:57:26Z</time>
      </trkpt>
      <trkpt lat="42.84607" lon="0.20922">
        <ele>2147</ele>
        <time>2011-07-21T08:57:28Z</time>
      </trkpt>
      <trkpt lat="42.84612" lon="0.20926">
        <ele>2147</ele>
        <time>2011-07-21T08:57:33Z</time>
      </trkpt>
      <trkpt lat="42.84615" lon="0.20927">
        <ele>2147</ele>
        <time>2011-07-21T08:57:35Z</time>
      </trkpt>
      <trkpt lat="42.84618" lon="0.20928">
        <ele>2147</ele>
        <time>2011-07-21T08:57:37Z</time>
      </trkpt>
      <trkpt lat="42.84622" lon="0.20933">
        <ele>2147</ele>
        <time>2011-07-21T08:57:43Z</time>
      </trkpt>
      <trkpt lat="42.84623" lon="0.20935">
        <ele>2148</ele>
        <time>2011-07-21T08:57:45Z</time>
      </trkpt>
      <trkpt lat="42.84629" lon="0.20936">
        <ele>2149</ele>
        <time>2011-07-21T08:57:50Z</time>
      </trkpt>
      <trkpt lat="42.84642" lon="0.20942">
        <ele>2149</ele>
        <time>2011-07-21T08:58:01Z</time>
      </trkpt>
      <trkpt lat="42.84645" lon="0.20943">
        <ele>2149</ele>
        <time>2011-07-21T08:58:04Z</time>
      </trkpt>
      <trkpt lat="42.84649" lon="0.20945">
        <ele>2149</ele>
        <time>2011-07-21T08:58:08Z</time>
      </trkpt>
      <trkpt lat="42.8465" lon="0.20946">
        <ele>2149</ele>
        <time>2011-07-21T08:58:10Z</time>
      </trkpt>
      <trkpt lat="42.84656" lon="0.20948">
        <ele>2149</ele>
        <time>2011-07-21T08:58:22Z</time>
      </trkpt>
      <trkpt lat="42.84659" lon="0.20949">
        <ele>2149</ele>
        <time>2011-07-21T08:58:24Z</time>
      </trkpt>
      <trkpt lat="42.84663" lon="0.20953">
        <ele>2149</ele>
        <time>2011-07-21T08:58:30Z</time>
      </trkpt>
      <trkpt lat="42.84664" lon="0.20955">
        <ele>2149</ele>
        <time>2011-07-21T08:58:32Z</time>
      </trkpt>
      <trkpt lat="42.84665" lon="0.20956">
        <ele>2149</ele>
        <time>2011-07-21T08:58:35Z</time>
      </trkpt>
      <trkpt lat="42.8467" lon="0.20959">
        <ele>2150</ele>
        <time>2011-07-21T08:58:42Z</time>
      </trkpt>
      <trkpt lat="42.84673" lon="0.20962">
        <ele>2150</ele>
        <time>2011-07-21T08:58:45Z</time>
      </trkpt>
      <trkpt lat="42.84676" lon="0.20964">
        <ele>2151</ele>
        <time>2011-07-21T08:58:49Z</time>
      </trkpt>
      <trkpt lat="42.84678" lon="0.20966">
        <ele>2151</ele>
        <time>2011-07-21T08:58:51Z</time>
      </trkpt>
      <trkpt lat="42.84679" lon="0.20968">
        <ele>2151</ele>
        <time>2011-07-21T08:58:53Z</time>
      </trkpt>
      <trkpt lat="42.8468" lon="0.20971">
        <ele>2152</ele>
        <time>2011-07-21T08:58:57Z</time>
      </trkpt>
      <trkpt lat="42.84681" lon="0.20973">
        <ele>2152</ele>
        <time>2011-07-21T08:58:59Z</time>
      </trkpt>
      <trkpt lat="42.84682" lon="0.20974">
        <ele>2152</ele>
        <time>2011-07-21T08:59:01Z</time>
      </trkpt>
      <trkpt lat="42.84684" lon="0.20978">
        <ele>2153</ele>
        <time>2011-07-21T08:59:06Z</time>
      </trkpt>
      <trkpt lat="42.84684" lon="0.20979">
        <ele>2154</ele>
        <time>2011-07-21T08:59:13Z</time>
      </trkpt>
      <trkpt lat="42.84686" lon="0.2098">
        <ele>2154</ele>
        <time>2011-07-21T08:59:41Z</time>
      </trkpt>
      <trkpt lat="42.84687" lon="0.20984">
        <ele>2154</ele>
        <time>2011-07-21T08:59:45Z</time>
      </trkpt>
      <trkpt lat="42.84688" lon="0.20986">
        <ele>2155</ele>
        <time>2011-07-21T08:59:47Z</time>
      </trkpt>
      <trkpt lat="42.84689" lon="0.20989">
        <ele>2155</ele>
        <time>2011-07-21T08:59:50Z</time>
      </trkpt>
      <trkpt lat="42.84691" lon="0.20993">
        <ele>2156</ele>
        <time>2011-07-21T08:59:54Z</time>
      </trkpt>
      <trkpt lat="42.84691" lon="0.20996">
        <ele>2156</ele>
        <time>2011-07-21T08:59:56Z</time>
      </trkpt>
      <trkpt lat="42.84691" lon="0.20998">
        <ele>2156</ele>
        <time>2011-07-21T08:59:58Z</time>
      </trkpt>
      <trkpt lat="42.84692" lon="0.21001">
        <ele>2157</ele>
        <time>2011-07-21T09:00:03Z</time>
      </trkpt>
      <trkpt lat="42.84694" lon="0.21005">
        <ele>2158</ele>
        <time>2011-07-21T09:00:06Z</time>
      </trkpt>
      <trkpt lat="42.84695" lon="0.21008">
        <ele>2158</ele>
        <time>2011-07-21T09:00:08Z</time>
      </trkpt>
      <trkpt lat="42.84697" lon="0.21012">
        <ele>2160</ele>
        <time>2011-07-21T09:00:27Z</time>
      </trkpt>
      <trkpt lat="42.84697" lon="0.21016">
        <ele>2160</ele>
        <time>2011-07-21T09:00:30Z</time>
      </trkpt>
      <trkpt lat="42.84699" lon="0.21019">
        <ele>2160</ele>
        <time>2011-07-21T09:00:32Z</time>
      </trkpt>
      <trkpt lat="42.84702" lon="0.21028">
        <ele>2160</ele>
        <time>2011-07-21T09:00:40Z</time>
      </trkpt>
      <trkpt lat="42.84703" lon="0.21033">
        <ele>2160</ele>
        <time>2011-07-21T09:00:44Z</time>
      </trkpt>
      <trkpt lat="42.84703" lon="0.21035">
        <ele>2160</ele>
        <time>2011-07-21T09:00:46Z</time>
      </trkpt>
      <trkpt lat="42.84704" lon="0.21037">
        <ele>2160</ele>
        <time>2011-07-21T09:00:48Z</time>
      </trkpt>
      <trkpt lat="42.84705" lon="0.21041">
        <ele>2160</ele>
        <time>2011-07-21T09:00:52Z</time>
      </trkpt>
      <trkpt lat="42.84706" lon="0.21042">
        <ele>2160</ele>
        <time>2011-07-21T09:00:54Z</time>
      </trkpt>
      <trkpt lat="42.84707" lon="0.21044">
        <ele>2160</ele>
        <time>2011-07-21T09:00:56Z</time>
      </trkpt>
      <trkpt lat="42.84708" lon="0.21047">
        <ele>2160</ele>
        <time>2011-07-21T09:01:00Z</time>
      </trkpt>
      <trkpt lat="42.84709" lon="0.21049">
        <ele>2160</ele>
        <time>2011-07-21T09:01:02Z</time>
      </trkpt>
      <trkpt lat="42.8471" lon="0.21051">
        <ele>2161</ele>
        <time>2011-07-21T09:01:04Z</time>
      </trkpt>
      <trkpt lat="42.84709" lon="0.21055">
        <ele>2161</ele>
        <time>2011-07-21T09:01:08Z</time>
      </trkpt>
      <trkpt lat="42.84708" lon="0.21056">
        <ele>2161</ele>
        <time>2011-07-21T09:01:10Z</time>
      </trkpt>
      <trkpt lat="42.84709" lon="0.21058">
        <ele>2161</ele>
        <time>2011-07-21T09:01:12Z</time>
      </trkpt>
      <trkpt lat="42.84711" lon="0.21063">
        <ele>2164</ele>
        <time>2011-07-21T09:01:19Z</time>
      </trkpt>
      <trkpt lat="42.84712" lon="0.21065">
        <ele>2164</ele>
        <time>2011-07-21T09:01:22Z</time>
      </trkpt>
      <trkpt lat="42.84713" lon="0.21068">
        <ele>2166</ele>
        <time>2011-07-21T09:01:27Z</time>
      </trkpt>
      <trkpt lat="42.84714" lon="0.2107">
        <ele>2166</ele>
        <time>2011-07-21T09:01:29Z</time>
      </trkpt>
      <trkpt lat="42.84715" lon="0.21071">
        <ele>2167</ele>
        <time>2011-07-21T09:01:31Z</time>
      </trkpt>
      <trkpt lat="42.84721" lon="0.21075">
        <ele>2168</ele>
        <time>2011-07-21T09:01:36Z</time>
      </trkpt>
      <trkpt lat="42.84722" lon="0.21076">
        <ele>2169</ele>
        <time>2011-07-21T09:01:38Z</time>
      </trkpt>
      <trkpt lat="42.84725" lon="0.21078">
        <ele>2170</ele>
        <time>2011-07-21T09:01:40Z</time>
      </trkpt>
      <trkpt lat="42.84727" lon="0.21081">
        <ele>2171</ele>
        <time>2011-07-21T09:01:44Z</time>
      </trkpt>
      <trkpt lat="42.84729" lon="0.21082">
        <ele>2171</ele>
        <time>2011-07-21T09:01:46Z</time>
      </trkpt>
      <trkpt lat="42.84729" lon="0.21084">
        <ele>2172</ele>
        <time>2011-07-21T09:01:48Z</time>
      </trkpt>
      <trkpt lat="42.84731" lon="0.21087">
        <ele>2172</ele>
        <time>2011-07-21T09:01:52Z</time>
      </trkpt>
      <trkpt lat="42.8473" lon="0.21089">
        <ele>2173</ele>
        <time>2011-07-21T09:01:54Z</time>
      </trkpt>
      <trkpt lat="42.84731" lon="0.21091">
        <ele>2173</ele>
        <time>2011-07-21T09:01:56Z</time>
      </trkpt>
      <trkpt lat="42.84735" lon="0.21098">
        <ele>2174</ele>
        <time>2011-07-21T09:02:03Z</time>
      </trkpt>
      <trkpt lat="42.84737" lon="0.211">
        <ele>2175</ele>
        <time>2011-07-21T09:02:05Z</time>
      </trkpt>
      <trkpt lat="42.84738" lon="0.21104">
        <ele>2175</ele>
        <time>2011-07-21T09:02:10Z</time>
      </trkpt>
      <trkpt lat="42.84737" lon="0.21106">
        <ele>2175</ele>
        <time>2011-07-21T09:02:12Z</time>
      </trkpt>
      <trkpt lat="42.84735" lon="0.21111">
        <ele>2175</ele>
        <time>2011-07-21T09:02:15Z</time>
      </trkpt>
      <trkpt lat="42.84732" lon="0.21113">
        <ele>2175</ele>
        <time>2011-07-21T09:02:20Z</time>
      </trkpt>
      <trkpt lat="42.84731" lon="0.21113">
        <ele>2175</ele>
        <time>2011-07-21T09:02:22Z</time>
      </trkpt>
      <trkpt lat="42.84729" lon="0.21113">
        <ele>2175</ele>
        <time>2011-07-21T09:02:25Z</time>
      </trkpt>
      <trkpt lat="42.84727" lon="0.21114">
        <ele>2175</ele>
        <time>2011-07-21T09:02:31Z</time>
      </trkpt>
      <trkpt lat="42.84726" lon="0.21114">
        <ele>2175</ele>
        <time>2011-07-21T09:02:34Z</time>
      </trkpt>
      <trkpt lat="42.84726" lon="0.21116">
        <ele>2175</ele>
        <time>2011-07-21T09:02:39Z</time>
      </trkpt>
      <trkpt lat="42.84724" lon="0.21127">
        <ele>2175</ele>
        <time>2011-07-21T09:02:51Z</time>
      </trkpt>
      <trkpt lat="42.84724" lon="0.21129">
        <ele>2175</ele>
        <time>2011-07-21T09:02:53Z</time>
      </trkpt>
      <trkpt lat="42.84724" lon="0.21131">
        <ele>2175</ele>
        <time>2011-07-21T09:02:56Z</time>
      </trkpt>
      <trkpt lat="42.84726" lon="0.21134">
        <ele>2176</ele>
        <time>2011-07-21T09:03:02Z</time>
      </trkpt>
      <trkpt lat="42.84726" lon="0.21136">
        <ele>2177</ele>
        <time>2011-07-21T09:03:04Z</time>
      </trkpt>
      <trkpt lat="42.84725" lon="0.21137">
        <ele>2177</ele>
        <time>2011-07-21T09:03:06Z</time>
      </trkpt>
      <trkpt lat="42.84724" lon="0.21141">
        <ele>2178</ele>
        <time>2011-07-21T09:03:10Z</time>
      </trkpt>
      <trkpt lat="42.84724" lon="0.21143">
        <ele>2178</ele>
        <time>2011-07-21T09:03:12Z</time>
      </trkpt>
      <trkpt lat="42.84724" lon="0.21144">
        <ele>2179</ele>
        <time>2011-07-21T09:03:14Z</time>
      </trkpt>
      <trkpt lat="42.84725" lon="0.21148">
        <ele>2179</ele>
        <time>2011-07-21T09:03:18Z</time>
      </trkpt>
      <trkpt lat="42.84726" lon="0.21149">
        <ele>2180</ele>
        <time>2011-07-21T09:03:20Z</time>
      </trkpt>
      <trkpt lat="42.84726" lon="0.21152">
        <ele>2180</ele>
        <time>2011-07-21T09:03:22Z</time>
      </trkpt>
      <trkpt lat="42.84726" lon="0.21157">
        <ele>2181</ele>
        <time>2011-07-21T09:03:26Z</time>
      </trkpt>
      <trkpt lat="42.84726" lon="0.21158">
        <ele>2181</ele>
        <time>2011-07-21T09:03:28Z</time>
      </trkpt>
      <trkpt lat="42.84725" lon="0.2116">
        <ele>2181</ele>
        <time>2011-07-21T09:03:30Z</time>
      </trkpt>
      <trkpt lat="42.84722" lon="0.21164">
        <ele>2181</ele>
        <time>2011-07-21T09:03:34Z</time>
      </trkpt>
      <trkpt lat="42.84721" lon="0.21166">
        <ele>2181</ele>
        <time>2011-07-21T09:03:36Z</time>
      </trkpt>
      <trkpt lat="42.8472" lon="0.21168">
        <ele>2182</ele>
        <time>2011-07-21T09:03:39Z</time>
      </trkpt>
      <trkpt lat="42.84719" lon="0.21171">
        <ele>2182</ele>
        <time>2011-07-21T09:03:43Z</time>
      </trkpt>
      <trkpt lat="42.84718" lon="0.21173">
        <ele>2182</ele>
        <time>2011-07-21T09:03:45Z</time>
      </trkpt>
      <trkpt lat="42.84718" lon="0.21175">
        <ele>2182</ele>
        <time>2011-07-21T09:03:47Z</time>
      </trkpt>
      <trkpt lat="42.84717" lon="0.21178">
        <ele>2183</ele>
        <time>2011-07-21T09:03:51Z</time>
      </trkpt>
      <trkpt lat="42.84716" lon="0.2118">
        <ele>2183</ele>
        <time>2011-07-21T09:03:53Z</time>
      </trkpt>
      <trkpt lat="42.84716" lon="0.21182">
        <ele>2183</ele>
        <time>2011-07-21T09:03:55Z</time>
      </trkpt>
      <trkpt lat="42.84713" lon="0.21185">
        <ele>2183</ele>
        <time>2011-07-21T09:03:59Z</time>
      </trkpt>
      <trkpt lat="42.84712" lon="0.21186">
        <ele>2183</ele>
        <time>2011-07-21T09:04:01Z</time>
      </trkpt>
      <trkpt lat="42.84711" lon="0.21187">
        <ele>2183</ele>
        <time>2011-07-21T09:04:03Z</time>
      </trkpt>
      <trkpt lat="42.8471" lon="0.21191">
        <ele>2183</ele>
        <time>2011-07-21T09:04:08Z</time>
      </trkpt>
      <trkpt lat="42.8471" lon="0.21193">
        <ele>2183</ele>
        <time>2011-07-21T09:04:10Z</time>
      </trkpt>
      <trkpt lat="42.8471" lon="0.21194">
        <ele>2183</ele>
        <time>2011-07-21T09:04:12Z</time>
      </trkpt>
      <trkpt lat="42.84709" lon="0.21199">
        <ele>2184</ele>
        <time>2011-07-21T09:04:16Z</time>
      </trkpt>
      <trkpt lat="42.84708" lon="0.21201">
        <ele>2184</ele>
        <time>2011-07-21T09:04:18Z</time>
      </trkpt>
      <trkpt lat="42.84706" lon="0.21202">
        <ele>2184</ele>
        <time>2011-07-21T09:04:21Z</time>
      </trkpt>
      <trkpt lat="42.84707" lon="0.21206">
        <ele>2185</ele>
        <time>2011-07-21T09:04:25Z</time>
      </trkpt>
      <trkpt lat="42.84706" lon="0.21211">
        <ele>2185</ele>
        <time>2011-07-21T09:04:28Z</time>
      </trkpt>
      <trkpt lat="42.84707" lon="0.21213">
        <ele>2185</ele>
        <time>2011-07-21T09:04:30Z</time>
      </trkpt>
      <trkpt lat="42.84706" lon="0.21219">
        <ele>2186</ele>
        <time>2011-07-21T09:04:35Z</time>
      </trkpt>
      <trkpt lat="42.84705" lon="0.21222">
        <ele>2186</ele>
        <time>2011-07-21T09:04:37Z</time>
      </trkpt>
      <trkpt lat="42.84705" lon="0.21224">
        <ele>2187</ele>
        <time>2011-07-21T09:04:39Z</time>
      </trkpt>
      <trkpt lat="42.84706" lon="0.21228">
        <ele>2188</ele>
        <time>2011-07-21T09:04:43Z</time>
      </trkpt>
      <trkpt lat="42.84708" lon="0.21232">
        <ele>2188</ele>
        <time>2011-07-21T09:04:47Z</time>
      </trkpt>
      <trkpt lat="42.84709" lon="0.21236">
        <ele>2189</ele>
        <time>2011-07-21T09:04:51Z</time>
      </trkpt>
      <trkpt lat="42.84709" lon="0.21238">
        <ele>2189</ele>
        <time>2011-07-21T09:04:53Z</time>
      </trkpt>
      <trkpt lat="42.8471" lon="0.21241">
        <ele>2189</ele>
        <time>2011-07-21T09:04:55Z</time>
      </trkpt>
      <trkpt lat="42.8471" lon="0.21246">
        <ele>2190</ele>
        <time>2011-07-21T09:04:59Z</time>
      </trkpt>
      <trkpt lat="42.8471" lon="0.21248">
        <ele>2190</ele>
        <time>2011-07-21T09:05:01Z</time>
      </trkpt>
      <trkpt lat="42.84711" lon="0.2125">
        <ele>2190</ele>
        <time>2011-07-21T09:05:03Z</time>
      </trkpt>
      <trkpt lat="42.84712" lon="0.21255">
        <ele>2191</ele>
        <time>2011-07-21T09:05:07Z</time>
      </trkpt>
      <trkpt lat="42.84713" lon="0.21257">
        <ele>2192</ele>
        <time>2011-07-21T09:05:09Z</time>
      </trkpt>
      <trkpt lat="42.84714" lon="0.21259">
        <ele>2192</ele>
        <time>2011-07-21T09:05:11Z</time>
      </trkpt>
      <trkpt lat="42.84716" lon="0.21262">
        <ele>2193</ele>
        <time>2011-07-21T09:05:15Z</time>
      </trkpt>
      <trkpt lat="42.84717" lon="0.21264">
        <ele>2194</ele>
        <time>2011-07-21T09:05:17Z</time>
      </trkpt>
      <trkpt lat="42.84718" lon="0.21265">
        <ele>2194</ele>
        <time>2011-07-21T09:05:19Z</time>
      </trkpt>
      <trkpt lat="42.84721" lon="0.21268">
        <ele>2195</ele>
        <time>2011-07-21T09:05:23Z</time>
      </trkpt>
      <trkpt lat="42.84721" lon="0.2127">
        <ele>2196</ele>
        <time>2011-07-21T09:05:25Z</time>
      </trkpt>
      <trkpt lat="42.84722" lon="0.21271">
        <ele>2197</ele>
        <time>2011-07-21T09:05:28Z</time>
      </trkpt>
      <trkpt lat="42.84724" lon="0.21273">
        <ele>2200</ele>
        <time>2011-07-21T09:05:37Z</time>
      </trkpt>
      <trkpt lat="42.84726" lon="0.21274">
        <ele>2201</ele>
        <time>2011-07-21T09:05:39Z</time>
      </trkpt>
      <trkpt lat="42.84727" lon="0.21276">
        <ele>2201</ele>
        <time>2011-07-21T09:05:41Z</time>
      </trkpt>
      <trkpt lat="42.84729" lon="0.21281">
        <ele>2202</ele>
        <time>2011-07-21T09:05:45Z</time>
      </trkpt>
      <trkpt lat="42.8473" lon="0.21283">
        <ele>2202</ele>
        <time>2011-07-21T09:05:47Z</time>
      </trkpt>
      <trkpt lat="42.8473" lon="0.21285">
        <ele>2202</ele>
        <time>2011-07-21T09:05:49Z</time>
      </trkpt>
      <trkpt lat="42.84732" lon="0.2129">
        <ele>2202</ele>
        <time>2011-07-21T09:05:53Z</time>
      </trkpt>
      <trkpt lat="42.84732" lon="0.21292">
        <ele>2202</ele>
        <time>2011-07-21T09:05:55Z</time>
      </trkpt>
      <trkpt lat="42.84734" lon="0.21294">
        <ele>2202</ele>
        <time>2011-07-21T09:05:58Z</time>
      </trkpt>
      <trkpt lat="42.84737" lon="0.21296">
        <ele>2202</ele>
        <time>2011-07-21T09:06:02Z</time>
      </trkpt>
      <trkpt lat="42.84739" lon="0.21297">
        <ele>2202</ele>
        <time>2011-07-21T09:06:04Z</time>
      </trkpt>
      <trkpt lat="42.84742" lon="0.21299">
        <ele>2202</ele>
        <time>2011-07-21T09:06:07Z</time>
      </trkpt>
      <trkpt lat="42.84744" lon="0.21303">
        <ele>2202</ele>
        <time>2011-07-21T09:06:11Z</time>
      </trkpt>
      <trkpt lat="42.84746" lon="0.21305">
        <ele>2202</ele>
        <time>2011-07-21T09:06:13Z</time>
      </trkpt>
      <trkpt lat="42.84747" lon="0.21306">
        <ele>2202</ele>
        <time>2011-07-21T09:06:16Z</time>
      </trkpt>
      <trkpt lat="42.8475" lon="0.2131">
        <ele>2202</ele>
        <time>2011-07-21T09:06:33Z</time>
      </trkpt>
      <trkpt lat="42.84752" lon="0.21312">
        <ele>2202</ele>
        <time>2011-07-21T09:06:35Z</time>
      </trkpt>
      <trkpt lat="42.8476" lon="0.21326">
        <ele>2202</ele>
        <time>2011-07-21T09:06:46Z</time>
      </trkpt>
      <trkpt lat="42.84762" lon="0.21331">
        <ele>2202</ele>
        <time>2011-07-21T09:06:50Z</time>
      </trkpt>
      <trkpt lat="42.84764" lon="0.21333">
        <ele>2202</ele>
        <time>2011-07-21T09:06:52Z</time>
      </trkpt>
      <trkpt lat="42.84766" lon="0.21335">
        <ele>2202</ele>
        <time>2011-07-21T09:06:54Z</time>
      </trkpt>
      <trkpt lat="42.84771" lon="0.21338">
        <ele>2202</ele>
        <time>2011-07-21T09:06:59Z</time>
      </trkpt>
      <trkpt lat="42.84774" lon="0.21339">
        <ele>2202</ele>
        <time>2011-07-21T09:07:01Z</time>
      </trkpt>
      <trkpt lat="42.84775" lon="0.21342">
        <ele>2202</ele>
        <time>2011-07-21T09:07:03Z</time>
      </trkpt>
      <trkpt lat="42.84778" lon="0.21346">
        <ele>2202</ele>
        <time>2011-07-21T09:07:07Z</time>
      </trkpt>
      <trkpt lat="42.84781" lon="0.21348">
        <ele>2202</ele>
        <time>2011-07-21T09:07:10Z</time>
      </trkpt>
      <trkpt lat="42.84784" lon="0.21349">
        <ele>2202</ele>
        <time>2011-07-21T09:07:12Z</time>
      </trkpt>
      <trkpt lat="42.84789" lon="0.21347">
        <ele>2202</ele>
        <time>2011-07-21T09:07:17Z</time>
      </trkpt>
      <trkpt lat="42.8479" lon="0.21346">
        <ele>2202</ele>
        <time>2011-07-21T09:07:19Z</time>
      </trkpt>
      <trkpt lat="42.84796" lon="0.21339">
        <ele>2202</ele>
        <time>2011-07-21T09:07:25Z</time>
      </trkpt>
      <trkpt lat="42.84798" lon="0.21337">
        <ele>2202</ele>
        <time>2011-07-21T09:07:27Z</time>
      </trkpt>
      <trkpt lat="42.848" lon="0.21336">
        <ele>2202</ele>
        <time>2011-07-21T09:07:29Z</time>
      </trkpt>
      <trkpt lat="42.84803" lon="0.21335">
        <ele>2202</ele>
        <time>2011-07-21T09:07:33Z</time>
      </trkpt>
      <trkpt lat="42.84804" lon="0.21333">
        <ele>2202</ele>
        <time>2011-07-21T09:07:36Z</time>
      </trkpt>
      <trkpt lat="42.84806" lon="0.21331">
        <ele>2202</ele>
        <time>2011-07-21T09:07:38Z</time>
      </trkpt>
      <trkpt lat="42.84809" lon="0.21327">
        <ele>2202</ele>
        <time>2011-07-21T09:07:42Z</time>
      </trkpt>
      <trkpt lat="42.84809" lon="0.21326">
        <ele>2202</ele>
        <time>2011-07-21T09:07:54Z</time>
      </trkpt>
      <trkpt lat="42.84811" lon="0.21324">
        <ele>2202</ele>
        <time>2011-07-21T09:08:04Z</time>
      </trkpt>
      <trkpt lat="42.84815" lon="0.21319">
        <ele>2202</ele>
        <time>2011-07-21T09:08:10Z</time>
      </trkpt>
      <trkpt lat="42.84825" lon="0.21309">
        <ele>2202</ele>
        <time>2011-07-21T09:08:20Z</time>
      </trkpt>
      <trkpt lat="42.84828" lon="0.21308">
        <ele>2202</ele>
        <time>2011-07-21T09:08:25Z</time>
      </trkpt>
      <trkpt lat="42.84827" lon="0.21306">
        <ele>2203</ele>
        <time>2011-07-21T09:08:32Z</time>
      </trkpt>
      <trkpt lat="42.84829" lon="0.21305">
        <ele>2203</ele>
        <time>2011-07-21T09:08:34Z</time>
      </trkpt>
      <trkpt lat="42.84835" lon="0.213">
        <ele>2203</ele>
        <time>2011-07-21T09:08:40Z</time>
      </trkpt>
      <trkpt lat="42.84837" lon="0.21298">
        <ele>2204</ele>
        <time>2011-07-21T09:08:42Z</time>
      </trkpt>
      <trkpt lat="42.84839" lon="0.21296">
        <ele>2204</ele>
        <time>2011-07-21T09:08:44Z</time>
      </trkpt>
      <trkpt lat="42.84845" lon="0.21293">
        <ele>2204</ele>
        <time>2011-07-21T09:08:49Z</time>
      </trkpt>
      <trkpt lat="42.84847" lon="0.21292">
        <ele>2204</ele>
        <time>2011-07-21T09:08:51Z</time>
      </trkpt>
      <trkpt lat="42.8485" lon="0.2129">
        <ele>2204</ele>
        <time>2011-07-21T09:08:54Z</time>
      </trkpt>
      <trkpt lat="42.84855" lon="0.21286">
        <ele>2205</ele>
        <time>2011-07-21T09:08:59Z</time>
      </trkpt>
      <trkpt lat="42.84857" lon="0.21285">
        <ele>2205</ele>
        <time>2011-07-21T09:09:01Z</time>
      </trkpt>
      <trkpt lat="42.84859" lon="0.21283">
        <ele>2205</ele>
        <time>2011-07-21T09:09:03Z</time>
      </trkpt>
      <trkpt lat="42.84865" lon="0.2128">
        <ele>2206</ele>
        <time>2011-07-21T09:09:09Z</time>
      </trkpt>
      <trkpt lat="42.84866" lon="0.21279">
        <ele>2207</ele>
        <time>2011-07-21T09:09:11Z</time>
      </trkpt>
      <trkpt lat="42.84868" lon="0.21277">
        <ele>2207</ele>
        <time>2011-07-21T09:09:13Z</time>
      </trkpt>
      <trkpt lat="42.84873" lon="0.21271">
        <ele>2208</ele>
        <time>2011-07-21T09:09:19Z</time>
      </trkpt>
      <trkpt lat="42.84876" lon="0.21268">
        <ele>2209</ele>
        <time>2011-07-21T09:09:23Z</time>
      </trkpt>
      <trkpt lat="42.84878" lon="0.21266">
        <ele>2209</ele>
        <time>2011-07-21T09:09:25Z</time>
      </trkpt>
      <trkpt lat="42.84884" lon="0.21263">
        <ele>2211</ele>
        <time>2011-07-21T09:09:33Z</time>
      </trkpt>
      <trkpt lat="42.84885" lon="0.21262">
        <ele>2211</ele>
        <time>2011-07-21T09:09:35Z</time>
      </trkpt>
      <trkpt lat="42.84893" lon="0.21256">
        <ele>2214</ele>
        <time>2011-07-21T09:09:45Z</time>
      </trkpt>
      <trkpt lat="42.84895" lon="0.21254">
        <ele>2214</ele>
        <time>2011-07-21T09:09:47Z</time>
      </trkpt>
      <trkpt lat="42.84899" lon="0.21252">
        <ele>2215</ele>
        <time>2011-07-21T09:09:51Z</time>
      </trkpt>
      <trkpt lat="42.84903" lon="0.21252">
        <ele>2216</ele>
        <time>2011-07-21T09:09:57Z</time>
      </trkpt>
      <trkpt lat="42.84904" lon="0.21252">
        <ele>2216</ele>
        <time>2011-07-21T09:09:59Z</time>
      </trkpt>
      <trkpt lat="42.84906" lon="0.21251">
        <ele>2217</ele>
        <time>2011-07-21T09:10:01Z</time>
      </trkpt>
      <trkpt lat="42.84914" lon="0.2125">
        <ele>2218</ele>
        <time>2011-07-21T09:10:09Z</time>
      </trkpt>
      <trkpt lat="42.84916" lon="0.2125">
        <ele>2218</ele>
        <time>2011-07-21T09:10:11Z</time>
      </trkpt>
      <trkpt lat="42.84918" lon="0.2125">
        <ele>2219</ele>
        <time>2011-07-21T09:10:13Z</time>
      </trkpt>
      <trkpt lat="42.84927" lon="0.21251">
        <ele>2219</ele>
        <time>2011-07-21T09:10:21Z</time>
      </trkpt>
      <trkpt lat="42.8493" lon="0.21252">
        <ele>2220</ele>
        <time>2011-07-21T09:10:23Z</time>
      </trkpt>
      <trkpt lat="42.84936" lon="0.21251">
        <ele>2220</ele>
        <time>2011-07-21T09:10:28Z</time>
      </trkpt>
      <trkpt lat="42.84939" lon="0.21251">
        <ele>2220</ele>
        <time>2011-07-21T09:10:31Z</time>
      </trkpt>
      <trkpt lat="42.84941" lon="0.21252">
        <ele>2220</ele>
        <time>2011-07-21T09:10:33Z</time>
      </trkpt>
      <trkpt lat="42.84947" lon="0.21254">
        <ele>2220</ele>
        <time>2011-07-21T09:10:39Z</time>
      </trkpt>
      <trkpt lat="42.84953" lon="0.21258">
        <ele>2221</ele>
        <time>2011-07-21T09:10:45Z</time>
      </trkpt>
      <trkpt lat="42.84957" lon="0.21262">
        <ele>2221</ele>
        <time>2011-07-21T09:10:51Z</time>
      </trkpt>
      <trkpt lat="42.84961" lon="0.21265">
        <ele>2221</ele>
        <time>2011-07-21T09:10:55Z</time>
      </trkpt>
      <trkpt lat="42.84962" lon="0.21267">
        <ele>2221</ele>
        <time>2011-07-21T09:10:57Z</time>
      </trkpt>
      <trkpt lat="42.84968" lon="0.21269">
        <ele>2221</ele>
        <time>2011-07-21T09:11:03Z</time>
      </trkpt>
      <trkpt lat="42.84972" lon="0.21269">
        <ele>2221</ele>
        <time>2011-07-21T09:11:06Z</time>
      </trkpt>
      <trkpt lat="42.84975" lon="0.21268">
        <ele>2221</ele>
        <time>2011-07-21T09:11:09Z</time>
      </trkpt>
      <trkpt lat="42.84981" lon="0.21262">
        <ele>2221</ele>
        <time>2011-07-21T09:11:15Z</time>
      </trkpt>
      <trkpt lat="42.84984" lon="0.21258">
        <ele>2221</ele>
        <time>2011-07-21T09:11:19Z</time>
      </trkpt>
      <trkpt lat="42.84994" lon="0.21248">
        <ele>2221</ele>
        <time>2011-07-21T09:11:29Z</time>
      </trkpt>
      <trkpt lat="42.85003" lon="0.21239">
        <ele>2221</ele>
        <time>2011-07-21T09:11:37Z</time>
      </trkpt>
      <trkpt lat="42.85006" lon="0.21237">
        <ele>2221</ele>
        <time>2011-07-21T09:11:40Z</time>
      </trkpt>
      <trkpt lat="42.85011" lon="0.21232">
        <ele>2221</ele>
        <time>2011-07-21T09:11:52Z</time>
      </trkpt>
      <trkpt lat="42.85012" lon="0.21231">
        <ele>2221</ele>
        <time>2011-07-21T09:12:02Z</time>
      </trkpt>
      <trkpt lat="42.85016" lon="0.21229">
        <ele>2221</ele>
        <time>2011-07-21T09:12:06Z</time>
      </trkpt>
      <trkpt lat="42.85024" lon="0.21223">
        <ele>2221</ele>
        <time>2011-07-21T09:12:14Z</time>
      </trkpt>
      <trkpt lat="42.85028" lon="0.21219">
        <ele>2221</ele>
        <time>2011-07-21T09:12:18Z</time>
      </trkpt>
      <trkpt lat="42.85034" lon="0.21217">
        <ele>2221</ele>
        <time>2011-07-21T09:12:23Z</time>
      </trkpt>
      <trkpt lat="42.85036" lon="0.21216">
        <ele>2221</ele>
        <time>2011-07-21T09:12:25Z</time>
      </trkpt>
      <trkpt lat="42.85038" lon="0.21215">
        <ele>2221</ele>
        <time>2011-07-21T09:12:27Z</time>
      </trkpt>
      <trkpt lat="42.85044" lon="0.21211">
        <ele>2221</ele>
        <time>2011-07-21T09:12:32Z</time>
      </trkpt>
      <trkpt lat="42.85046" lon="0.2121">
        <ele>2221</ele>
        <time>2011-07-21T09:12:34Z</time>
      </trkpt>
      <trkpt lat="42.85054" lon="0.21207">
        <ele>2221</ele>
        <time>2011-07-21T09:12:41Z</time>
      </trkpt>
      <trkpt lat="42.85057" lon="0.21206">
        <ele>2221</ele>
        <time>2011-07-21T09:12:44Z</time>
      </trkpt>
      <trkpt lat="42.85059" lon="0.21204">
        <ele>2221</ele>
        <time>2011-07-21T09:12:46Z</time>
      </trkpt>
      <trkpt lat="42.85065" lon="0.21201">
        <ele>2221</ele>
        <time>2011-07-21T09:12:51Z</time>
      </trkpt>
      <trkpt lat="42.85068" lon="0.212">
        <ele>2221</ele>
        <time>2011-07-21T09:12:54Z</time>
      </trkpt>
      <trkpt lat="42.8507" lon="0.212">
        <ele>2221</ele>
        <time>2011-07-21T09:13:05Z</time>
      </trkpt>
      <trkpt lat="42.85074" lon="0.21197">
        <ele>2221</ele>
        <time>2011-07-21T09:13:09Z</time>
      </trkpt>
      <trkpt lat="42.85077" lon="0.21197">
        <ele>2221</ele>
        <time>2011-07-21T09:13:11Z</time>
      </trkpt>
      <trkpt lat="42.8508" lon="0.21195">
        <ele>2221</ele>
        <time>2011-07-21T09:13:14Z</time>
      </trkpt>
      <trkpt lat="42.85084" lon="0.21193">
        <ele>2221</ele>
        <time>2011-07-21T09:13:18Z</time>
      </trkpt>
      <trkpt lat="42.85086" lon="0.21192">
        <ele>2221</ele>
        <time>2011-07-21T09:13:20Z</time>
      </trkpt>
      <trkpt lat="42.85088" lon="0.21192">
        <ele>2220</ele>
        <time>2011-07-21T09:13:22Z</time>
      </trkpt>
      <trkpt lat="42.85093" lon="0.21191">
        <ele>2220</ele>
        <time>2011-07-21T09:13:26Z</time>
      </trkpt>
      <trkpt lat="42.85097" lon="0.21191">
        <ele>2219</ele>
        <time>2011-07-21T09:13:29Z</time>
      </trkpt>
      <trkpt lat="42.85099" lon="0.21191">
        <ele>2219</ele>
        <time>2011-07-21T09:13:31Z</time>
      </trkpt>
      <trkpt lat="42.85106" lon="0.21191">
        <ele>2219</ele>
        <time>2011-07-21T09:13:37Z</time>
      </trkpt>
      <trkpt lat="42.85108" lon="0.21192">
        <ele>2219</ele>
        <time>2011-07-21T09:13:39Z</time>
      </trkpt>
      <trkpt lat="42.8511" lon="0.21191">
        <ele>2219</ele>
        <time>2011-07-21T09:13:41Z</time>
      </trkpt>
      <trkpt lat="42.85112" lon="0.21189">
        <ele>2219</ele>
        <time>2011-07-21T09:13:50Z</time>
      </trkpt>
      <trkpt lat="42.85112" lon="0.21186">
        <ele>2219</ele>
        <time>2011-07-21T09:13:59Z</time>
      </trkpt>
      <trkpt lat="42.85115" lon="0.21181">
        <ele>2218</ele>
        <time>2011-07-21T09:14:03Z</time>
      </trkpt>
      <trkpt lat="42.85117" lon="0.21175">
        <ele>2218</ele>
        <time>2011-07-21T09:14:08Z</time>
      </trkpt>
      <trkpt lat="42.85118" lon="0.21173">
        <ele>2218</ele>
        <time>2011-07-21T09:14:10Z</time>
      </trkpt>
      <trkpt lat="42.85118" lon="0.2117">
        <ele>2218</ele>
        <time>2011-07-21T09:14:12Z</time>
      </trkpt>
      <trkpt lat="42.85121" lon="0.21166">
        <ele>2218</ele>
        <time>2011-07-21T09:14:16Z</time>
      </trkpt>
      <trkpt lat="42.85124" lon="0.21161">
        <ele>2218</ele>
        <time>2011-07-21T09:14:20Z</time>
      </trkpt>
      <trkpt lat="42.85125" lon="0.21159">
        <ele>2218</ele>
        <time>2011-07-21T09:14:22Z</time>
      </trkpt>
      <trkpt lat="42.8513" lon="0.21153">
        <ele>2218</ele>
        <time>2011-07-21T09:14:28Z</time>
      </trkpt>
      <trkpt lat="42.85132" lon="0.21152">
        <ele>2218</ele>
        <time>2011-07-21T09:14:30Z</time>
      </trkpt>
      <trkpt lat="42.85134" lon="0.2115">
        <ele>2218</ele>
        <time>2011-07-21T09:14:32Z</time>
      </trkpt>
      <trkpt lat="42.85139" lon="0.21148">
        <ele>2218</ele>
        <time>2011-07-21T09:14:37Z</time>
      </trkpt>
      <trkpt lat="42.85142" lon="0.21147">
        <ele>2218</ele>
        <time>2011-07-21T09:14:39Z</time>
      </trkpt>
      <trkpt lat="42.85144" lon="0.21147">
        <ele>2218</ele>
        <time>2011-07-21T09:14:41Z</time>
      </trkpt>
      <trkpt lat="42.85153" lon="0.21146">
        <ele>2218</ele>
        <time>2011-07-21T09:14:48Z</time>
      </trkpt>
      <trkpt lat="42.85155" lon="0.21145">
        <ele>2218</ele>
        <time>2011-07-21T09:14:50Z</time>
      </trkpt>
      <trkpt lat="42.8516" lon="0.21145">
        <ele>2218</ele>
        <time>2011-07-21T09:14:54Z</time>
      </trkpt>
      <trkpt lat="42.85163" lon="0.21145">
        <ele>2218</ele>
        <time>2011-07-21T09:14:57Z</time>
      </trkpt>
      <trkpt lat="42.85166" lon="0.21144">
        <ele>2218</ele>
        <time>2011-07-21T09:15:00Z</time>
      </trkpt>
      <trkpt lat="42.8517" lon="0.21142">
        <ele>2218</ele>
        <time>2011-07-21T09:15:04Z</time>
      </trkpt>
      <trkpt lat="42.85172" lon="0.21141">
        <ele>2218</ele>
        <time>2011-07-21T09:15:06Z</time>
      </trkpt>
      <trkpt lat="42.85174" lon="0.21141">
        <ele>2218</ele>
        <time>2011-07-21T09:15:08Z</time>
      </trkpt>
      <trkpt lat="42.85179" lon="0.21138">
        <ele>2218</ele>
        <time>2011-07-21T09:15:14Z</time>
      </trkpt>
      <trkpt lat="42.8518" lon="0.21138">
        <ele>2218</ele>
        <time>2011-07-21T09:15:16Z</time>
      </trkpt>
      <trkpt lat="42.85181" lon="0.21137">
        <ele>2219</ele>
        <time>2011-07-21T09:15:18Z</time>
      </trkpt>
      <trkpt lat="42.85184" lon="0.21136">
        <ele>2219</ele>
        <time>2011-07-21T09:15:22Z</time>
      </trkpt>
      <trkpt lat="42.85186" lon="0.21136">
        <ele>2220</ele>
        <time>2011-07-21T09:15:24Z</time>
      </trkpt>
      <trkpt lat="42.85191" lon="0.21133">
        <ele>2220</ele>
        <time>2011-07-21T09:15:30Z</time>
      </trkpt>
      <trkpt lat="42.85191" lon="0.21131">
        <ele>2220</ele>
        <time>2011-07-21T09:15:32Z</time>
      </trkpt>
      <trkpt lat="42.85192" lon="0.21128">
        <ele>2221</ele>
        <time>2011-07-21T09:15:34Z</time>
      </trkpt>
      <trkpt lat="42.85194" lon="0.21122">
        <ele>2221</ele>
        <time>2011-07-21T09:15:39Z</time>
      </trkpt>
      <trkpt lat="42.85201" lon="0.21104">
        <ele>2221</ele>
        <time>2011-07-21T09:15:54Z</time>
      </trkpt>
      <trkpt lat="42.85201" lon="0.21102">
        <ele>2221</ele>
        <time>2011-07-21T09:16:04Z</time>
      </trkpt>
      <trkpt lat="42.85202" lon="0.21098">
        <ele>2221</ele>
        <time>2011-07-21T09:16:08Z</time>
      </trkpt>
      <trkpt lat="42.85205" lon="0.21091">
        <ele>2221</ele>
        <time>2011-07-21T09:16:13Z</time>
      </trkpt>
      <trkpt lat="42.85209" lon="0.21084">
        <ele>2221</ele>
        <time>2011-07-21T09:16:18Z</time>
      </trkpt>
      <trkpt lat="42.8521" lon="0.21082">
        <ele>2221</ele>
        <time>2011-07-21T09:16:20Z</time>
      </trkpt>
      <trkpt lat="42.85217" lon="0.21074">
        <ele>2222</ele>
        <time>2011-07-21T09:16:28Z</time>
      </trkpt>
      <trkpt lat="42.8522" lon="0.21071">
        <ele>2222</ele>
        <time>2011-07-21T09:16:31Z</time>
      </trkpt>
      <trkpt lat="42.85221" lon="0.21069">
        <ele>2222</ele>
        <time>2011-07-21T09:16:33Z</time>
      </trkpt>
      <trkpt lat="42.85223" lon="0.21064">
        <ele>2222</ele>
        <time>2011-07-21T09:16:37Z</time>
      </trkpt>
      <trkpt lat="42.85224" lon="0.21062">
        <ele>2222</ele>
        <time>2011-07-21T09:16:39Z</time>
      </trkpt>
      <trkpt lat="42.85225" lon="0.21061">
        <ele>2222</ele>
        <time>2011-07-21T09:16:41Z</time>
      </trkpt>
      <trkpt lat="42.85226" lon="0.21057">
        <ele>2222</ele>
        <time>2011-07-21T09:16:45Z</time>
      </trkpt>
      <trkpt lat="42.85227" lon="0.21055">
        <ele>2222</ele>
        <time>2011-07-21T09:16:47Z</time>
      </trkpt>
      <trkpt lat="42.85228" lon="0.21053">
        <ele>2222</ele>
        <time>2011-07-21T09:16:49Z</time>
      </trkpt>
      <trkpt lat="42.85228" lon="0.21054">
        <ele>2223</ele>
        <time>2011-07-21T09:17:21Z</time>
      </trkpt>
      <trkpt lat="42.85228" lon="0.2106">
        <ele>2223</ele>
        <time>2011-07-21T09:17:26Z</time>
      </trkpt>
      <trkpt lat="42.8523" lon="0.21065">
        <ele>2223</ele>
        <time>2011-07-21T09:17:30Z</time>
      </trkpt>
      <trkpt lat="42.85234" lon="0.21069">
        <ele>2223</ele>
        <time>2011-07-21T09:17:34Z</time>
      </trkpt>
      <trkpt lat="42.85237" lon="0.21072">
        <ele>2223</ele>
        <time>2011-07-21T09:17:38Z</time>
      </trkpt>
      <trkpt lat="42.8524" lon="0.21074">
        <ele>2223</ele>
        <time>2011-07-21T09:17:41Z</time>
      </trkpt>
      <trkpt lat="42.85244" lon="0.21078">
        <ele>2223</ele>
        <time>2011-07-21T09:17:47Z</time>
      </trkpt>
      <trkpt lat="42.85246" lon="0.21079">
        <ele>2223</ele>
        <time>2011-07-21T09:17:49Z</time>
      </trkpt>
      <trkpt lat="42.85247" lon="0.2108">
        <ele>2223</ele>
        <time>2011-07-21T09:17:51Z</time>
      </trkpt>
      <trkpt lat="42.85249" lon="0.21081">
        <ele>2225</ele>
        <time>2011-07-21T09:17:55Z</time>
      </trkpt>
      <trkpt lat="42.85251" lon="0.21082">
        <ele>2226</ele>
        <time>2011-07-21T09:17:58Z</time>
      </trkpt>
      <trkpt lat="42.85252" lon="0.21083">
        <ele>2226</ele>
        <time>2011-07-21T09:18:00Z</time>
      </trkpt>
      <trkpt lat="42.85254" lon="0.21086">
        <ele>2228</ele>
        <time>2011-07-21T09:18:06Z</time>
      </trkpt>
      <trkpt lat="42.85255" lon="0.21088">
        <ele>2229</ele>
        <time>2011-07-21T09:18:09Z</time>
      </trkpt>
      <trkpt lat="42.85257" lon="0.21087">
        <ele>2230</ele>
        <time>2011-07-21T09:18:17Z</time>
      </trkpt>
      <trkpt lat="42.85259" lon="0.21091">
        <ele>2231</ele>
        <time>2011-07-21T09:18:23Z</time>
      </trkpt>
      <trkpt lat="42.8526" lon="0.21093">
        <ele>2232</ele>
        <time>2011-07-21T09:18:26Z</time>
      </trkpt>
      <trkpt lat="42.8526" lon="0.21094">
        <ele>2232</ele>
        <time>2011-07-21T09:18:28Z</time>
      </trkpt>
      <trkpt lat="42.85263" lon="0.21095">
        <ele>2233</ele>
        <time>2011-07-21T09:18:35Z</time>
      </trkpt>
      <trkpt lat="42.85264" lon="0.21094">
        <ele>2234</ele>
        <time>2011-07-21T09:18:38Z</time>
      </trkpt>
      <trkpt lat="42.85265" lon="0.21093">
        <ele>2235</ele>
        <time>2011-07-21T09:18:42Z</time>
      </trkpt>
      <trkpt lat="42.85268" lon="0.21091">
        <ele>2236</ele>
        <time>2011-07-21T09:18:48Z</time>
      </trkpt>
      <trkpt lat="42.85268" lon="0.21093">
        <ele>2236</ele>
        <time>2011-07-21T09:18:51Z</time>
      </trkpt>
      <trkpt lat="42.8527" lon="0.21094">
        <ele>2237</ele>
        <time>2011-07-21T09:18:55Z</time>
      </trkpt>
      <trkpt lat="42.85272" lon="0.21095">
        <ele>2238</ele>
        <time>2011-07-21T09:19:02Z</time>
      </trkpt>
      <trkpt lat="42.85273" lon="0.21095">
        <ele>2238</ele>
        <time>2011-07-21T09:19:05Z</time>
      </trkpt>
      <trkpt lat="42.85275" lon="0.21094">
        <ele>2239</ele>
        <time>2011-07-21T09:19:09Z</time>
      </trkpt>
      <trkpt lat="42.85276" lon="0.21091">
        <ele>2240</ele>
        <time>2011-07-21T09:19:15Z</time>
      </trkpt>
      <trkpt lat="42.85277" lon="0.2109">
        <ele>2240</ele>
        <time>2011-07-21T09:19:18Z</time>
      </trkpt>
      <trkpt lat="42.85278" lon="0.21088">
        <ele>2240</ele>
        <time>2011-07-21T09:19:21Z</time>
      </trkpt>
      <trkpt lat="42.8528" lon="0.21086">
        <ele>2241</ele>
        <time>2011-07-21T09:19:28Z</time>
      </trkpt>
      <trkpt lat="42.8528" lon="0.21084">
        <ele>2242</ele>
        <time>2011-07-21T09:19:30Z</time>
      </trkpt>
      <trkpt lat="42.85281" lon="0.21082">
        <ele>2242</ele>
        <time>2011-07-21T09:19:33Z</time>
      </trkpt>
      <trkpt lat="42.85281" lon="0.2108">
        <ele>2242</ele>
        <time>2011-07-21T09:19:37Z</time>
      </trkpt>
      <trkpt lat="42.85281" lon="0.21078">
        <ele>2243</ele>
        <time>2011-07-21T09:19:39Z</time>
      </trkpt>
      <trkpt lat="42.85283" lon="0.21075">
        <ele>2243</ele>
        <time>2011-07-21T09:19:44Z</time>
      </trkpt>
      <trkpt lat="42.85286" lon="0.21073">
        <ele>2244</ele>
        <time>2011-07-21T09:19:50Z</time>
      </trkpt>
      <trkpt lat="42.85287" lon="0.21072">
        <ele>2244</ele>
        <time>2011-07-21T09:19:52Z</time>
      </trkpt>
      <trkpt lat="42.85289" lon="0.2107">
        <ele>2244</ele>
        <time>2011-07-21T09:19:55Z</time>
      </trkpt>
      <trkpt lat="42.85292" lon="0.21068">
        <ele>2245</ele>
        <time>2011-07-21T09:19:59Z</time>
      </trkpt>
      <trkpt lat="42.85293" lon="0.21066">
        <ele>2245</ele>
        <time>2011-07-21T09:20:02Z</time>
      </trkpt>
      <trkpt lat="42.85295" lon="0.21058">
        <ele>2247</ele>
        <time>2011-07-21T09:20:10Z</time>
      </trkpt>
      <trkpt lat="42.85297" lon="0.21057">
        <ele>2247</ele>
        <time>2011-07-21T09:20:12Z</time>
      </trkpt>
      <trkpt lat="42.85299" lon="0.21052">
        <ele>2248</ele>
        <time>2011-07-21T09:20:17Z</time>
      </trkpt>
      <trkpt lat="42.853" lon="0.2105">
        <ele>2248</ele>
        <time>2011-07-21T09:20:19Z</time>
      </trkpt>
      <trkpt lat="42.85301" lon="0.21048">
        <ele>2248</ele>
        <time>2011-07-21T09:20:21Z</time>
      </trkpt>
      <trkpt lat="42.85303" lon="0.21044">
        <ele>2249</ele>
        <time>2011-07-21T09:20:25Z</time>
      </trkpt>
      <trkpt lat="42.85305" lon="0.21041">
        <ele>2249</ele>
        <time>2011-07-21T09:20:27Z</time>
      </trkpt>
      <trkpt lat="42.85306" lon="0.21039">
        <ele>2249</ele>
        <time>2011-07-21T09:20:29Z</time>
      </trkpt>
      <trkpt lat="42.85307" lon="0.21035">
        <ele>2249</ele>
        <time>2011-07-21T09:20:33Z</time>
      </trkpt>
      <trkpt lat="42.85309" lon="0.21033">
        <ele>2249</ele>
        <time>2011-07-21T09:20:35Z</time>
      </trkpt>
      <trkpt lat="42.8531" lon="0.21032">
        <ele>2249</ele>
        <time>2011-07-21T09:20:37Z</time>
      </trkpt>
      <trkpt lat="42.85314" lon="0.21029">
        <ele>2249</ele>
        <time>2011-07-21T09:20:41Z</time>
      </trkpt>
      <trkpt lat="42.85315" lon="0.21027">
        <ele>2249</ele>
        <time>2011-07-21T09:20:43Z</time>
      </trkpt>
      <trkpt lat="42.85318" lon="0.21017">
        <ele>2249</ele>
        <time>2011-07-21T09:20:51Z</time>
      </trkpt>
      <trkpt lat="42.8532" lon="0.21014">
        <ele>2249</ele>
        <time>2011-07-21T09:20:54Z</time>
      </trkpt>
      <trkpt lat="42.85324" lon="0.21008">
        <ele>2249</ele>
        <time>2011-07-21T09:21:00Z</time>
      </trkpt>
      <trkpt lat="42.85329" lon="0.20989">
        <ele>2249</ele>
        <time>2011-07-21T09:21:13Z</time>
      </trkpt>
      <trkpt lat="42.85331" lon="0.20982">
        <ele>2249</ele>
        <time>2011-07-21T09:21:18Z</time>
      </trkpt>
      <trkpt lat="42.85333" lon="0.20979">
        <ele>2249</ele>
        <time>2011-07-21T09:21:20Z</time>
      </trkpt>
      <trkpt lat="42.85334" lon="0.20977">
        <ele>2249</ele>
        <time>2011-07-21T09:21:22Z</time>
      </trkpt>
      <trkpt lat="42.85336" lon="0.20974">
        <ele>2249</ele>
        <time>2011-07-21T09:21:28Z</time>
      </trkpt>
      <trkpt lat="42.85337" lon="0.20973">
        <ele>2249</ele>
        <time>2011-07-21T09:21:30Z</time>
      </trkpt>
      <trkpt lat="42.85338" lon="0.20967">
        <ele>2249</ele>
        <time>2011-07-21T09:21:38Z</time>
      </trkpt>
      <trkpt lat="42.8534" lon="0.20967">
        <ele>2249</ele>
        <time>2011-07-21T09:21:40Z</time>
      </trkpt>
      <trkpt lat="42.85343" lon="0.20967">
        <ele>2249</ele>
        <time>2011-07-21T09:21:43Z</time>
      </trkpt>
      <trkpt lat="42.85343" lon="0.20967">
        <ele>2249</ele>
        <time>2011-07-21T09:21:52Z</time>
      </trkpt>
      <trkpt lat="42.8534" lon="0.20967">
        <ele>2249</ele>
        <time>2011-07-21T09:21:55Z</time>
      </trkpt>
      <trkpt lat="42.85339" lon="0.20966">
        <ele>2249</ele>
        <time>2011-07-21T09:21:57Z</time>
      </trkpt>
      <trkpt lat="42.85336" lon="0.20964">
        <ele>2249</ele>
        <time>2011-07-21T09:22:01Z</time>
      </trkpt>
      <trkpt lat="42.85336" lon="0.20962">
        <ele>2249</ele>
        <time>2011-07-21T09:22:03Z</time>
      </trkpt>
      <trkpt lat="42.85334" lon="0.2096">
        <ele>2248</ele>
        <time>2011-07-21T09:22:05Z</time>
      </trkpt>
      <trkpt lat="42.85332" lon="0.20957">
        <ele>2248</ele>
        <time>2011-07-21T09:22:09Z</time>
      </trkpt>
      <trkpt lat="42.8533" lon="0.20957">
        <ele>2248</ele>
        <time>2011-07-21T09:22:11Z</time>
      </trkpt>
      <trkpt lat="42.85329" lon="0.20956">
        <ele>2248</ele>
        <time>2011-07-21T09:22:13Z</time>
      </trkpt>
      <trkpt lat="42.85326" lon="0.20954">
        <ele>2248</ele>
        <time>2011-07-21T09:22:17Z</time>
      </trkpt>
      <trkpt lat="42.85325" lon="0.20953">
        <ele>2248</ele>
        <time>2011-07-21T09:22:19Z</time>
      </trkpt>
      <trkpt lat="42.85323" lon="0.20953">
        <ele>2247</ele>
        <time>2011-07-21T09:22:25Z</time>
      </trkpt>
      <trkpt lat="42.85321" lon="0.20955">
        <ele>2246</ele>
        <time>2011-07-21T09:22:30Z</time>
      </trkpt>
      <trkpt lat="42.8532" lon="0.20956">
        <ele>2245</ele>
        <time>2011-07-21T09:22:35Z</time>
      </trkpt>
      <trkpt lat="42.8532" lon="0.20955">
        <ele>2245</ele>
        <time>2011-07-21T09:22:37Z</time>
      </trkpt>
      <trkpt lat="42.85318" lon="0.20952">
        <ele>2244</ele>
        <time>2011-07-21T09:22:54Z</time>
      </trkpt>
      <trkpt lat="42.85319" lon="0.20954">
        <ele>2244</ele>
        <time>2011-07-21T09:23:06Z</time>
      </trkpt>
      <trkpt lat="42.85319" lon="0.20955">
        <ele>2244</ele>
        <time>2011-07-21T09:23:13Z</time>
      </trkpt>
      <trkpt lat="42.85321" lon="0.20956">
        <ele>2245</ele>
        <time>2011-07-21T09:23:37Z</time>
      </trkpt>
      <trkpt lat="42.85323" lon="0.20956">
        <ele>2245</ele>
        <time>2011-07-21T09:23:39Z</time>
      </trkpt>
      <trkpt lat="42.85326" lon="0.20956">
        <ele>2245</ele>
        <time>2011-07-21T09:23:43Z</time>
      </trkpt>
      <trkpt lat="42.85328" lon="0.20959">
        <ele>2245</ele>
        <time>2011-07-21T09:23:47Z</time>
      </trkpt>
      <trkpt lat="42.85329" lon="0.2096">
        <ele>2245</ele>
        <time>2011-07-21T09:23:49Z</time>
      </trkpt>
      <trkpt lat="42.85331" lon="0.20961">
        <ele>2245</ele>
        <time>2011-07-21T09:23:51Z</time>
      </trkpt>
      <trkpt lat="42.85334" lon="0.20963">
        <ele>2245</ele>
        <time>2011-07-21T09:23:55Z</time>
      </trkpt>
      <trkpt lat="42.85336" lon="0.20965">
        <ele>2245</ele>
        <time>2011-07-21T09:23:57Z</time>
      </trkpt>
      <trkpt lat="42.85336" lon="0.20968">
        <ele>2245</ele>
        <time>2011-07-21T09:23:59Z</time>
      </trkpt>
      <trkpt lat="42.85336" lon="0.20972">
        <ele>2245</ele>
        <time>2011-07-21T09:24:04Z</time>
      </trkpt>
      <trkpt lat="42.85338" lon="0.20972">
        <ele>2245</ele>
        <time>2011-07-21T09:24:06Z</time>
      </trkpt>
      <trkpt lat="42.8534" lon="0.20971">
        <ele>2245</ele>
        <time>2011-07-21T09:24:08Z</time>
      </trkpt>
      <trkpt lat="42.85345" lon="0.2097">
        <ele>2245</ele>
        <time>2011-07-21T09:24:12Z</time>
      </trkpt>
      <trkpt lat="42.85347" lon="0.2097">
        <ele>2245</ele>
        <time>2011-07-21T09:24:14Z</time>
      </trkpt>
      <trkpt lat="42.8535" lon="0.2097">
        <ele>2245</ele>
        <time>2011-07-21T09:24:16Z</time>
      </trkpt>
      <trkpt lat="42.85356" lon="0.20968">
        <ele>2245</ele>
        <time>2011-07-21T09:24:21Z</time>
      </trkpt>
      <trkpt lat="42.85358" lon="0.20967">
        <ele>2245</ele>
        <time>2011-07-21T09:24:23Z</time>
      </trkpt>
      <trkpt lat="42.85361" lon="0.20965">
        <ele>2245</ele>
        <time>2011-07-21T09:24:26Z</time>
      </trkpt>
      <trkpt lat="42.85366" lon="0.20965">
        <ele>2245</ele>
        <time>2011-07-21T09:24:31Z</time>
      </trkpt>
      <trkpt lat="42.85367" lon="0.20967">
        <ele>2245</ele>
        <time>2011-07-21T09:24:34Z</time>
      </trkpt>
      <trkpt lat="42.85368" lon="0.20968">
        <ele>2245</ele>
        <time>2011-07-21T09:24:36Z</time>
      </trkpt>
      <trkpt lat="42.85371" lon="0.2097">
        <ele>2246</ele>
        <time>2011-07-21T09:24:40Z</time>
      </trkpt>
      <trkpt lat="42.85373" lon="0.2097">
        <ele>2246</ele>
        <time>2011-07-21T09:24:42Z</time>
      </trkpt>
      <trkpt lat="42.85374" lon="0.20971">
        <ele>2246</ele>
        <time>2011-07-21T09:24:44Z</time>
      </trkpt>
      <trkpt lat="42.85378" lon="0.20973">
        <ele>2247</ele>
        <time>2011-07-21T09:24:48Z</time>
      </trkpt>
      <trkpt lat="42.85379" lon="0.20973">
        <ele>2247</ele>
        <time>2011-07-21T09:24:50Z</time>
      </trkpt>
      <trkpt lat="42.85387" lon="0.20976">
        <ele>2247</ele>
        <time>2011-07-21T09:24:59Z</time>
      </trkpt>
      <trkpt lat="42.85389" lon="0.20976">
        <ele>2248</ele>
        <time>2011-07-21T09:25:55Z</time>
      </trkpt>
      <trkpt lat="42.85392" lon="0.20977">
        <ele>2248</ele>
        <time>2011-07-21T09:25:59Z</time>
      </trkpt>
      <trkpt lat="42.85394" lon="0.20977">
        <ele>2248</ele>
        <time>2011-07-21T09:26:01Z</time>
      </trkpt>
      <trkpt lat="42.85396" lon="0.20978">
        <ele>2248</ele>
        <time>2011-07-21T09:26:03Z</time>
      </trkpt>
      <trkpt lat="42.85403" lon="0.2098">
        <ele>2248</ele>
        <time>2011-07-21T09:26:10Z</time>
      </trkpt>
      <trkpt lat="42.85405" lon="0.2098">
        <ele>2248</ele>
        <time>2011-07-21T09:26:12Z</time>
      </trkpt>
      <trkpt lat="42.85408" lon="0.2098">
        <ele>2248</ele>
        <time>2011-07-21T09:26:23Z</time>
      </trkpt>
      <trkpt lat="42.8541" lon="0.20978">
        <ele>2248</ele>
        <time>2011-07-21T09:26:25Z</time>
      </trkpt>
      <trkpt lat="42.85411" lon="0.20976">
        <ele>2248</ele>
        <time>2011-07-21T09:26:27Z</time>
      </trkpt>
      <trkpt lat="42.85416" lon="0.20964">
        <ele>2248</ele>
        <time>2011-07-21T09:26:35Z</time>
      </trkpt>
      <trkpt lat="42.85421" lon="0.20955">
        <ele>2248</ele>
        <time>2011-07-21T09:26:42Z</time>
      </trkpt>
      <trkpt lat="42.85422" lon="0.20953">
        <ele>2248</ele>
        <time>2011-07-21T09:26:44Z</time>
      </trkpt>
      <trkpt lat="42.85428" lon="0.20946">
        <ele>2248</ele>
        <time>2011-07-21T09:26:53Z</time>
      </trkpt>
      <trkpt lat="42.85429" lon="0.20944">
        <ele>2248</ele>
        <time>2011-07-21T09:26:56Z</time>
      </trkpt>
      <trkpt lat="42.85432" lon="0.20943">
        <ele>2248</ele>
        <time>2011-07-21T09:27:00Z</time>
      </trkpt>
      <trkpt lat="42.85434" lon="0.20943">
        <ele>2248</ele>
        <time>2011-07-21T09:27:02Z</time>
      </trkpt>
      <trkpt lat="42.85435" lon="0.20942">
        <ele>2248</ele>
        <time>2011-07-21T09:27:04Z</time>
      </trkpt>
      <trkpt lat="42.8544" lon="0.20942">
        <ele>2247</ele>
        <time>2011-07-21T09:27:09Z</time>
      </trkpt>
      <trkpt lat="42.85441" lon="0.20942">
        <ele>2246</ele>
        <time>2011-07-21T09:27:11Z</time>
      </trkpt>
      <trkpt lat="42.85445" lon="0.20937">
        <ele>2246</ele>
        <time>2011-07-21T09:27:17Z</time>
      </trkpt>
      <trkpt lat="42.85446" lon="0.20935">
        <ele>2245</ele>
        <time>2011-07-21T09:27:20Z</time>
      </trkpt>
      <trkpt lat="42.85448" lon="0.2093">
        <ele>2244</ele>
        <time>2011-07-21T09:27:26Z</time>
      </trkpt>
      <trkpt lat="42.8545" lon="0.20928">
        <ele>2244</ele>
        <time>2011-07-21T09:27:29Z</time>
      </trkpt>
      <trkpt lat="42.85451" lon="0.20926">
        <ele>2243</ele>
        <time>2011-07-21T09:27:31Z</time>
      </trkpt>
      <trkpt lat="42.85453" lon="0.20922">
        <ele>2243</ele>
        <time>2011-07-21T09:27:35Z</time>
      </trkpt>
      <trkpt lat="42.85455" lon="0.20921">
        <ele>2243</ele>
        <time>2011-07-21T09:27:38Z</time>
      </trkpt>
      <trkpt lat="42.85456" lon="0.20916">
        <ele>2243</ele>
        <time>2011-07-21T09:27:54Z</time>
      </trkpt>
      <trkpt lat="42.85457" lon="0.20914">
        <ele>2243</ele>
        <time>2011-07-21T09:27:58Z</time>
      </trkpt>
      <trkpt lat="42.85456" lon="0.20912">
        <ele>2243</ele>
        <time>2011-07-21T09:28:00Z</time>
      </trkpt>
      <trkpt lat="42.85454" lon="0.20909">
        <ele>2243</ele>
        <time>2011-07-21T09:28:04Z</time>
      </trkpt>
      <trkpt lat="42.85453" lon="0.20906">
        <ele>2243</ele>
        <time>2011-07-21T09:28:06Z</time>
      </trkpt>
      <trkpt lat="42.85453" lon="0.20904">
        <ele>2243</ele>
        <time>2011-07-21T09:28:08Z</time>
      </trkpt>
      <trkpt lat="42.85452" lon="0.20901">
        <ele>2243</ele>
        <time>2011-07-21T09:28:23Z</time>
      </trkpt>
      <trkpt lat="42.85452" lon="0.209">
        <ele>2243</ele>
        <time>2011-07-21T09:28:25Z</time>
      </trkpt>
      <trkpt lat="42.85453" lon="0.20898">
        <ele>2243</ele>
        <time>2011-07-21T09:28:29Z</time>
      </trkpt>
      <trkpt lat="42.85452" lon="0.20893">
        <ele>2243</ele>
        <time>2011-07-21T09:28:36Z</time>
      </trkpt>
      <trkpt lat="42.85452" lon="0.20892">
        <ele>2244</ele>
        <time>2011-07-21T09:28:38Z</time>
      </trkpt>
      <trkpt lat="42.85454" lon="0.20888">
        <ele>2245</ele>
        <time>2011-07-21T09:28:43Z</time>
      </trkpt>
      <trkpt lat="42.85456" lon="0.20887">
        <ele>2245</ele>
        <time>2011-07-21T09:28:45Z</time>
      </trkpt>
      <trkpt lat="42.85458" lon="0.20886">
        <ele>2245</ele>
        <time>2011-07-21T09:28:47Z</time>
      </trkpt>
      <trkpt lat="42.85461" lon="0.20883">
        <ele>2245</ele>
        <time>2011-07-21T09:28:51Z</time>
      </trkpt>
      <trkpt lat="42.85463" lon="0.20881">
        <ele>2245</ele>
        <time>2011-07-21T09:28:53Z</time>
      </trkpt>
      <trkpt lat="42.85469" lon="0.20877">
        <ele>2245</ele>
        <time>2011-07-21T09:28:59Z</time>
      </trkpt>
      <trkpt lat="42.85471" lon="0.20876">
        <ele>2245</ele>
        <time>2011-07-21T09:29:02Z</time>
      </trkpt>
      <trkpt lat="42.85472" lon="0.20875">
        <ele>2245</ele>
        <time>2011-07-21T09:29:04Z</time>
      </trkpt>
      <trkpt lat="42.85475" lon="0.20874">
        <ele>2247</ele>
        <time>2011-07-21T09:29:10Z</time>
      </trkpt>
      <trkpt lat="42.85476" lon="0.20874">
        <ele>2248</ele>
        <time>2011-07-21T09:29:13Z</time>
      </trkpt>
      <trkpt lat="42.85478" lon="0.20874">
        <ele>2249</ele>
        <time>2011-07-21T09:29:29Z</time>
      </trkpt>
      <trkpt lat="42.8548" lon="0.20872">
        <ele>2249</ele>
        <time>2011-07-21T09:30:18Z</time>
      </trkpt>
      <trkpt lat="42.85482" lon="0.20872">
        <ele>2249</ele>
        <time>2011-07-21T09:30:20Z</time>
      </trkpt>
      <trkpt lat="42.85483" lon="0.20873">
        <ele>2250</ele>
        <time>2011-07-21T09:30:22Z</time>
      </trkpt>
      <trkpt lat="42.85487" lon="0.20872">
        <ele>2251</ele>
        <time>2011-07-21T09:30:29Z</time>
      </trkpt>
      <trkpt lat="42.85488" lon="0.20871">
        <ele>2252</ele>
        <time>2011-07-21T09:30:31Z</time>
      </trkpt>
      <trkpt lat="42.85489" lon="0.20869">
        <ele>2253</ele>
        <time>2011-07-21T09:30:34Z</time>
      </trkpt>
      <trkpt lat="42.85491" lon="0.20866">
        <ele>2254</ele>
        <time>2011-07-21T09:30:40Z</time>
      </trkpt>
      <trkpt lat="42.85492" lon="0.20865">
        <ele>2256</ele>
        <time>2011-07-21T09:30:44Z</time>
      </trkpt>
      <trkpt lat="42.85493" lon="0.20865">
        <ele>2257</ele>
        <time>2011-07-21T09:30:47Z</time>
      </trkpt>
      <trkpt lat="42.85495" lon="0.20866">
        <ele>2258</ele>
        <time>2011-07-21T09:30:52Z</time>
      </trkpt>
      <trkpt lat="42.85497" lon="0.20866">
        <ele>2259</ele>
        <time>2011-07-21T09:30:54Z</time>
      </trkpt>
      <trkpt lat="42.85498" lon="0.20866">
        <ele>2259</ele>
        <time>2011-07-21T09:30:56Z</time>
      </trkpt>
      <trkpt lat="42.85501" lon="0.20865">
        <ele>2260</ele>
        <time>2011-07-21T09:31:01Z</time>
      </trkpt>
      <trkpt lat="42.85501" lon="0.20863">
        <ele>2260</ele>
        <time>2011-07-21T09:31:03Z</time>
      </trkpt>
      <trkpt lat="42.85503" lon="0.20862">
        <ele>2260</ele>
        <time>2011-07-21T09:31:05Z</time>
      </trkpt>
      <trkpt lat="42.85506" lon="0.2086">
        <ele>2262</ele>
        <time>2011-07-21T09:31:12Z</time>
      </trkpt>
      <trkpt lat="42.85508" lon="0.2086">
        <ele>2262</ele>
        <time>2011-07-21T09:31:14Z</time>
      </trkpt>
      <trkpt lat="42.85511" lon="0.2086">
        <ele>2264</ele>
        <time>2011-07-21T09:31:20Z</time>
      </trkpt>
      <trkpt lat="42.85512" lon="0.20859">
        <ele>2264</ele>
        <time>2011-07-21T09:31:22Z</time>
      </trkpt>
      <trkpt lat="42.85513" lon="0.2086">
        <ele>2264</ele>
        <time>2011-07-21T09:31:24Z</time>
      </trkpt>
      <trkpt lat="42.85516" lon="0.20859">
        <ele>2265</ele>
        <time>2011-07-21T09:31:29Z</time>
      </trkpt>
      <trkpt lat="42.85519" lon="0.20856">
        <ele>2265</ele>
        <time>2011-07-21T09:31:34Z</time>
      </trkpt>
      <trkpt lat="42.85521" lon="0.20852">
        <ele>2266</ele>
        <time>2011-07-21T09:31:38Z</time>
      </trkpt>
      <trkpt lat="42.85522" lon="0.2085">
        <ele>2266</ele>
        <time>2011-07-21T09:31:40Z</time>
      </trkpt>
      <trkpt lat="42.85523" lon="0.20849">
        <ele>2266</ele>
        <time>2011-07-21T09:31:42Z</time>
      </trkpt>
      <trkpt lat="42.85528" lon="0.20845">
        <ele>2266</ele>
        <time>2011-07-21T09:31:48Z</time>
      </trkpt>
      <trkpt lat="42.85529" lon="0.20844">
        <ele>2266</ele>
        <time>2011-07-21T09:31:50Z</time>
      </trkpt>
      <trkpt lat="42.85531" lon="0.20843">
        <ele>2267</ele>
        <time>2011-07-21T09:31:52Z</time>
      </trkpt>
      <trkpt lat="42.85533" lon="0.20842">
        <ele>2267</ele>
        <time>2011-07-21T09:31:56Z</time>
      </trkpt>
      <trkpt lat="42.85535" lon="0.20841">
        <ele>2268</ele>
        <time>2011-07-21T09:32:00Z</time>
      </trkpt>
      <trkpt lat="42.85537" lon="0.20835">
        <ele>2269</ele>
        <time>2011-07-21T09:32:07Z</time>
      </trkpt>
      <trkpt lat="42.85537" lon="0.20833">
        <ele>2269</ele>
        <time>2011-07-21T09:32:09Z</time>
      </trkpt>
      <trkpt lat="42.85537" lon="0.20832">
        <ele>2270</ele>
        <time>2011-07-21T09:32:11Z</time>
      </trkpt>
      <trkpt lat="42.85539" lon="0.20831">
        <ele>2271</ele>
        <time>2011-07-21T09:32:15Z</time>
      </trkpt>
      <trkpt lat="42.8554" lon="0.20829">
        <ele>2271</ele>
        <time>2011-07-21T09:32:18Z</time>
      </trkpt>
      <trkpt lat="42.8554" lon="0.20827">
        <ele>2272</ele>
        <time>2011-07-21T09:32:21Z</time>
      </trkpt>
      <trkpt lat="42.85543" lon="0.20826">
        <ele>2273</ele>
        <time>2011-07-21T09:32:28Z</time>
      </trkpt>
      <trkpt lat="42.85544" lon="0.20827">
        <ele>2273</ele>
        <time>2011-07-21T09:32:30Z</time>
      </trkpt>
      <trkpt lat="42.85545" lon="0.20826">
        <ele>2274</ele>
        <time>2011-07-21T09:32:33Z</time>
      </trkpt>
      <trkpt lat="42.85548" lon="0.20824">
        <ele>2275</ele>
        <time>2011-07-21T09:32:38Z</time>
      </trkpt>
      <trkpt lat="42.85549" lon="0.20824">
        <ele>2275</ele>
        <time>2011-07-21T09:32:40Z</time>
      </trkpt>
      <trkpt lat="42.85553" lon="0.20824">
        <ele>2276</ele>
        <time>2011-07-21T09:32:47Z</time>
      </trkpt>
      <trkpt lat="42.85554" lon="0.20821">
        <ele>2276</ele>
        <time>2011-07-21T09:32:51Z</time>
      </trkpt>
      <trkpt lat="42.85558" lon="0.20815">
        <ele>2276</ele>
        <time>2011-07-21T09:33:03Z</time>
      </trkpt>
      <trkpt lat="42.85559" lon="0.20814">
        <ele>2276</ele>
        <time>2011-07-21T09:33:05Z</time>
      </trkpt>
      <trkpt lat="42.85562" lon="0.20806">
        <ele>2276</ele>
        <time>2011-07-21T09:33:11Z</time>
      </trkpt>
      <trkpt lat="42.85565" lon="0.20802">
        <ele>2276</ele>
        <time>2011-07-21T09:33:15Z</time>
      </trkpt>
      <trkpt lat="42.85569" lon="0.20799">
        <ele>2276</ele>
        <time>2011-07-21T09:33:19Z</time>
      </trkpt>
      <trkpt lat="42.85571" lon="0.20794">
        <ele>2276</ele>
        <time>2011-07-21T09:33:23Z</time>
      </trkpt>
      <trkpt lat="42.85573" lon="0.2079">
        <ele>2276</ele>
        <time>2011-07-21T09:33:27Z</time>
      </trkpt>
      <trkpt lat="42.85574" lon="0.20787">
        <ele>2276</ele>
        <time>2011-07-21T09:33:29Z</time>
      </trkpt>
      <trkpt lat="42.85574" lon="0.20785">
        <ele>2276</ele>
        <time>2011-07-21T09:33:31Z</time>
      </trkpt>
      <trkpt lat="42.85576" lon="0.20781">
        <ele>2276</ele>
        <time>2011-07-21T09:33:35Z</time>
      </trkpt>
      <trkpt lat="42.85577" lon="0.20779">
        <ele>2276</ele>
        <time>2011-07-21T09:33:37Z</time>
      </trkpt>
      <trkpt lat="42.85578" lon="0.20778">
        <ele>2276</ele>
        <time>2011-07-21T09:33:39Z</time>
      </trkpt>
      <trkpt lat="42.85581" lon="0.20776">
        <ele>2276</ele>
        <time>2011-07-21T09:33:43Z</time>
      </trkpt>
      <trkpt lat="42.85582" lon="0.20776">
        <ele>2276</ele>
        <time>2011-07-21T09:33:45Z</time>
      </trkpt>
      <trkpt lat="42.85583" lon="0.20774">
        <ele>2276</ele>
        <time>2011-07-21T09:33:47Z</time>
      </trkpt>
      <trkpt lat="42.85586" lon="0.20772">
        <ele>2276</ele>
        <time>2011-07-21T09:33:51Z</time>
      </trkpt>
      <trkpt lat="42.85589" lon="0.20768">
        <ele>2276</ele>
        <time>2011-07-21T09:33:55Z</time>
      </trkpt>
      <trkpt lat="42.85593" lon="0.20763">
        <ele>2276</ele>
        <time>2011-07-21T09:34:01Z</time>
      </trkpt>
      <trkpt lat="42.85595" lon="0.20762">
        <ele>2276</ele>
        <time>2011-07-21T09:34:03Z</time>
      </trkpt>
      <trkpt lat="42.85597" lon="0.20759">
        <ele>2276</ele>
        <time>2011-07-21T09:34:07Z</time>
      </trkpt>
      <trkpt lat="42.85598" lon="0.20757">
        <ele>2276</ele>
        <time>2011-07-21T09:34:09Z</time>
      </trkpt>
      <trkpt lat="42.85598" lon="0.20755">
        <ele>2276</ele>
        <time>2011-07-21T09:34:11Z</time>
      </trkpt>
      <trkpt lat="42.85602" lon="0.20754">
        <ele>2277</ele>
        <time>2011-07-21T09:34:16Z</time>
      </trkpt>
      <trkpt lat="42.85603" lon="0.20753">
        <ele>2277</ele>
        <time>2011-07-21T09:34:18Z</time>
      </trkpt>
      <trkpt lat="42.85608" lon="0.20748">
        <ele>2278</ele>
        <time>2011-07-21T09:34:25Z</time>
      </trkpt>
      <trkpt lat="42.85609" lon="0.20746">
        <ele>2278</ele>
        <time>2011-07-21T09:34:27Z</time>
      </trkpt>
      <trkpt lat="42.85611" lon="0.20744">
        <ele>2279</ele>
        <time>2011-07-21T09:34:29Z</time>
      </trkpt>
      <trkpt lat="42.85619" lon="0.20742">
        <ele>2279</ele>
        <time>2011-07-21T09:34:37Z</time>
      </trkpt>
      <trkpt lat="42.85623" lon="0.20741">
        <ele>2279</ele>
        <time>2011-07-21T09:34:40Z</time>
      </trkpt>
      <trkpt lat="42.85628" lon="0.20739">
        <ele>2279</ele>
        <time>2011-07-21T09:34:45Z</time>
      </trkpt>
      <trkpt lat="42.8563" lon="0.20739">
        <ele>2279</ele>
        <time>2011-07-21T09:34:47Z</time>
      </trkpt>
      <trkpt lat="42.85631" lon="0.20738">
        <ele>2279</ele>
        <time>2011-07-21T09:34:49Z</time>
      </trkpt>
      <trkpt lat="42.85634" lon="0.20737">
        <ele>2280</ele>
        <time>2011-07-21T09:34:53Z</time>
      </trkpt>
      <trkpt lat="42.85636" lon="0.20736">
        <ele>2280</ele>
        <time>2011-07-21T09:34:55Z</time>
      </trkpt>
      <trkpt lat="42.85638" lon="0.20735">
        <ele>2280</ele>
        <time>2011-07-21T09:34:57Z</time>
      </trkpt>
      <trkpt lat="42.8564" lon="0.20732">
        <ele>2280</ele>
        <time>2011-07-21T09:35:01Z</time>
      </trkpt>
      <trkpt lat="42.85642" lon="0.2073">
        <ele>2281</ele>
        <time>2011-07-21T09:35:04Z</time>
      </trkpt>
      <trkpt lat="42.85643" lon="0.20728">
        <ele>2281</ele>
        <time>2011-07-21T09:35:07Z</time>
      </trkpt>
      <trkpt lat="42.85646" lon="0.20725">
        <ele>2282</ele>
        <time>2011-07-21T09:35:11Z</time>
      </trkpt>
      <trkpt lat="42.85648" lon="0.20725">
        <ele>2282</ele>
        <time>2011-07-21T09:35:13Z</time>
      </trkpt>
      <trkpt lat="42.8565" lon="0.20724">
        <ele>2282</ele>
        <time>2011-07-21T09:35:15Z</time>
      </trkpt>
      <trkpt lat="42.85653" lon="0.20721">
        <ele>2282</ele>
        <time>2011-07-21T09:35:19Z</time>
      </trkpt>
      <trkpt lat="42.85654" lon="0.20719">
        <ele>2282</ele>
        <time>2011-07-21T09:35:21Z</time>
      </trkpt>
      <trkpt lat="42.85656" lon="0.20718">
        <ele>2283</ele>
        <time>2011-07-21T09:35:24Z</time>
      </trkpt>
      <trkpt lat="42.85659" lon="0.20717">
        <ele>2283</ele>
        <time>2011-07-21T09:35:28Z</time>
      </trkpt>
      <trkpt lat="42.85661" lon="0.20717">
        <ele>2283</ele>
        <time>2011-07-21T09:35:30Z</time>
      </trkpt>
      <trkpt lat="42.85662" lon="0.20716">
        <ele>2283</ele>
        <time>2011-07-21T09:35:32Z</time>
      </trkpt>
      <trkpt lat="42.85665" lon="0.20716">
        <ele>2284</ele>
        <time>2011-07-21T09:35:36Z</time>
      </trkpt>
      <trkpt lat="42.85667" lon="0.20716">
        <ele>2284</ele>
        <time>2011-07-21T09:35:38Z</time>
      </trkpt>
      <trkpt lat="42.85669" lon="0.20716">
        <ele>2284</ele>
        <time>2011-07-21T09:35:40Z</time>
      </trkpt>
      <trkpt lat="42.85671" lon="0.20715">
        <ele>2285</ele>
        <time>2011-07-21T09:35:50Z</time>
      </trkpt>
      <trkpt lat="42.85672" lon="0.20714">
        <ele>2285</ele>
        <time>2011-07-21T09:35:53Z</time>
      </trkpt>
      <trkpt lat="42.85673" lon="0.20712">
        <ele>2286</ele>
        <time>2011-07-21T09:35:56Z</time>
      </trkpt>
      <trkpt lat="42.85676" lon="0.20713">
        <ele>2288</ele>
        <time>2011-07-21T09:36:03Z</time>
      </trkpt>
      <trkpt lat="42.85677" lon="0.20714">
        <ele>2288</ele>
        <time>2011-07-21T09:36:05Z</time>
      </trkpt>
      <trkpt lat="42.85678" lon="0.20715">
        <ele>2288</ele>
        <time>2011-07-21T09:36:07Z</time>
      </trkpt>
      <trkpt lat="42.85679" lon="0.20719">
        <ele>2289</ele>
        <time>2011-07-21T09:36:12Z</time>
      </trkpt>
      <trkpt lat="42.8568" lon="0.20721">
        <ele>2290</ele>
        <time>2011-07-21T09:36:15Z</time>
      </trkpt>
      <trkpt lat="42.8568" lon="0.20722">
        <ele>2290</ele>
        <time>2011-07-21T09:36:17Z</time>
      </trkpt>
      <trkpt lat="42.85681" lon="0.20726">
        <ele>2290</ele>
        <time>2011-07-21T09:36:21Z</time>
      </trkpt>
      <trkpt lat="42.85682" lon="0.20727">
        <ele>2290</ele>
        <time>2011-07-21T09:36:24Z</time>
      </trkpt>
      <trkpt lat="42.85683" lon="0.20728">
        <ele>2290</ele>
        <time>2011-07-21T09:36:31Z</time>
      </trkpt>
      <trkpt lat="42.85686" lon="0.20729">
        <ele>2291</ele>
        <time>2011-07-21T09:36:35Z</time>
      </trkpt>
      <trkpt lat="42.85687" lon="0.2073">
        <ele>2291</ele>
        <time>2011-07-21T09:36:38Z</time>
      </trkpt>
      <trkpt lat="42.85688" lon="0.20732">
        <ele>2291</ele>
        <time>2011-07-21T09:36:40Z</time>
      </trkpt>
      <trkpt lat="42.8569" lon="0.20732">
        <ele>2292</ele>
        <time>2011-07-21T09:36:44Z</time>
      </trkpt>
      <trkpt lat="42.85692" lon="0.20732">
        <ele>2292</ele>
        <time>2011-07-21T09:36:46Z</time>
      </trkpt>
      <trkpt lat="42.85694" lon="0.20733">
        <ele>2293</ele>
        <time>2011-07-21T09:36:48Z</time>
      </trkpt>
      <trkpt lat="42.85696" lon="0.20737">
        <ele>2293</ele>
        <time>2011-07-21T09:36:53Z</time>
      </trkpt>
      <trkpt lat="42.85698" lon="0.20737">
        <ele>2293</ele>
        <time>2011-07-21T09:36:55Z</time>
      </trkpt>
      <trkpt lat="42.857" lon="0.20737">
        <ele>2293</ele>
        <time>2011-07-21T09:36:57Z</time>
      </trkpt>
      <trkpt lat="42.85704" lon="0.20739">
        <ele>2293</ele>
        <time>2011-07-21T09:37:01Z</time>
      </trkpt>
      <trkpt lat="42.85706" lon="0.20739">
        <ele>2293</ele>
        <time>2011-07-21T09:37:03Z</time>
      </trkpt>
      <trkpt lat="42.85708" lon="0.20739">
        <ele>2293</ele>
        <time>2011-07-21T09:37:05Z</time>
      </trkpt>
      <trkpt lat="42.85713" lon="0.20737">
        <ele>2293</ele>
        <time>2011-07-21T09:37:11Z</time>
      </trkpt>
      <trkpt lat="42.85714" lon="0.20735">
        <ele>2294</ele>
        <time>2011-07-21T09:37:13Z</time>
      </trkpt>
      <trkpt lat="42.85716" lon="0.20734">
        <ele>2294</ele>
        <time>2011-07-21T09:37:15Z</time>
      </trkpt>
      <trkpt lat="42.85718" lon="0.2073">
        <ele>2294</ele>
        <time>2011-07-21T09:37:19Z</time>
      </trkpt>
      <trkpt lat="42.85717" lon="0.20729">
        <ele>2294</ele>
        <time>2011-07-21T09:37:21Z</time>
      </trkpt>
      <trkpt lat="42.85717" lon="0.20726">
        <ele>2294</ele>
        <time>2011-07-21T09:37:23Z</time>
      </trkpt>
      <trkpt lat="42.85716" lon="0.20722">
        <ele>2295</ele>
        <time>2011-07-21T09:37:27Z</time>
      </trkpt>
      <trkpt lat="42.85716" lon="0.2072">
        <ele>2295</ele>
        <time>2011-07-21T09:37:29Z</time>
      </trkpt>
      <trkpt lat="42.85715" lon="0.20719">
        <ele>2296</ele>
        <time>2011-07-21T09:37:31Z</time>
      </trkpt>
      <trkpt lat="42.85714" lon="0.20714">
        <ele>2297</ele>
        <time>2011-07-21T09:37:35Z</time>
      </trkpt>
      <trkpt lat="42.85714" lon="0.20712">
        <ele>2297</ele>
        <time>2011-07-21T09:37:37Z</time>
      </trkpt>
      <trkpt lat="42.85714" lon="0.20709">
        <ele>2297</ele>
        <time>2011-07-21T09:37:39Z</time>
      </trkpt>
      <trkpt lat="42.85713" lon="0.20697">
        <ele>2298</ele>
        <time>2011-07-21T09:37:48Z</time>
      </trkpt>
      <trkpt lat="42.85712" lon="0.20692">
        <ele>2298</ele>
        <time>2011-07-21T09:37:52Z</time>
      </trkpt>
      <trkpt lat="42.85711" lon="0.20689">
        <ele>2298</ele>
        <time>2011-07-21T09:37:54Z</time>
      </trkpt>
      <trkpt lat="42.85711" lon="0.20685">
        <ele>2298</ele>
        <time>2011-07-21T09:37:57Z</time>
      </trkpt>
      <trkpt lat="42.85709" lon="0.20681">
        <ele>2298</ele>
        <time>2011-07-21T09:38:07Z</time>
      </trkpt>
      <trkpt lat="42.85708" lon="0.20681">
        <ele>2298</ele>
        <time>2011-07-21T09:38:09Z</time>
      </trkpt>
      <trkpt lat="42.85706" lon="0.20679">
        <ele>2299</ele>
        <time>2011-07-21T09:38:11Z</time>
      </trkpt>
      <trkpt lat="42.85704" lon="0.20676">
        <ele>2300</ele>
        <time>2011-07-21T09:38:15Z</time>
      </trkpt>
      <trkpt lat="42.85703" lon="0.20672">
        <ele>2301</ele>
        <time>2011-07-21T09:38:19Z</time>
      </trkpt>
      <trkpt lat="42.85703" lon="0.20668">
        <ele>2302</ele>
        <time>2011-07-21T09:38:23Z</time>
      </trkpt>
      <trkpt lat="42.85703" lon="0.20666">
        <ele>2302</ele>
        <time>2011-07-21T09:38:26Z</time>
      </trkpt>
      <trkpt lat="42.85702" lon="0.20664">
        <ele>2302</ele>
        <time>2011-07-21T09:38:28Z</time>
      </trkpt>
      <trkpt lat="42.857" lon="0.20661">
        <ele>2304</ele>
        <time>2011-07-21T09:38:33Z</time>
      </trkpt>
      <trkpt lat="42.857" lon="0.20659">
        <ele>2304</ele>
        <time>2011-07-21T09:38:35Z</time>
      </trkpt>
      <trkpt lat="42.857" lon="0.20656">
        <ele>2304</ele>
        <time>2011-07-21T09:38:38Z</time>
      </trkpt>
      <trkpt lat="42.85701" lon="0.20652">
        <ele>2305</ele>
        <time>2011-07-21T09:38:42Z</time>
      </trkpt>
      <trkpt lat="42.85701" lon="0.20651">
        <ele>2305</ele>
        <time>2011-07-21T09:38:44Z</time>
      </trkpt>
      <trkpt lat="42.85697" lon="0.20645">
        <ele>2306</ele>
        <time>2011-07-21T09:38:50Z</time>
      </trkpt>
      <trkpt lat="42.85696" lon="0.20635">
        <ele>2306</ele>
        <time>2011-07-21T09:38:58Z</time>
      </trkpt>
      <trkpt lat="42.85696" lon="0.20632">
        <ele>2307</ele>
        <time>2011-07-21T09:39:00Z</time>
      </trkpt>
      <trkpt lat="42.85697" lon="0.20628">
        <ele>2307</ele>
        <time>2011-07-21T09:39:03Z</time>
      </trkpt>
      <trkpt lat="42.857" lon="0.20624">
        <ele>2307</ele>
        <time>2011-07-21T09:39:07Z</time>
      </trkpt>
      <trkpt lat="42.85701" lon="0.20622">
        <ele>2307</ele>
        <time>2011-07-21T09:39:09Z</time>
      </trkpt>
      <trkpt lat="42.85704" lon="0.20622">
        <ele>2307</ele>
        <time>2011-07-21T09:39:11Z</time>
      </trkpt>
      <trkpt lat="42.85708" lon="0.20623">
        <ele>2307</ele>
        <time>2011-07-21T09:39:18Z</time>
      </trkpt>
      <trkpt lat="42.85709" lon="0.20622">
        <ele>2307</ele>
        <time>2011-07-21T09:39:21Z</time>
      </trkpt>
      <trkpt lat="42.85711" lon="0.20617">
        <ele>2307</ele>
        <time>2011-07-21T09:39:26Z</time>
      </trkpt>
      <trkpt lat="42.8571" lon="0.20615">
        <ele>2307</ele>
        <time>2011-07-21T09:39:28Z</time>
      </trkpt>
      <trkpt lat="42.8571" lon="0.20611">
        <ele>2307</ele>
        <time>2011-07-21T09:39:31Z</time>
      </trkpt>
      <trkpt lat="42.85709" lon="0.20607">
        <ele>2307</ele>
        <time>2011-07-21T09:39:35Z</time>
      </trkpt>
      <trkpt lat="42.85709" lon="0.20605">
        <ele>2307</ele>
        <time>2011-07-21T09:39:37Z</time>
      </trkpt>
      <trkpt lat="42.85708" lon="0.20604">
        <ele>2307</ele>
        <time>2011-07-21T09:39:39Z</time>
      </trkpt>
      <trkpt lat="42.85707" lon="0.20596">
        <ele>2307</ele>
        <time>2011-07-21T09:39:45Z</time>
      </trkpt>
      <trkpt lat="42.85707" lon="0.20592">
        <ele>2307</ele>
        <time>2011-07-21T09:39:48Z</time>
      </trkpt>
      <trkpt lat="42.85708" lon="0.20589">
        <ele>2307</ele>
        <time>2011-07-21T09:39:50Z</time>
      </trkpt>
      <trkpt lat="42.85708" lon="0.20581">
        <ele>2307</ele>
        <time>2011-07-21T09:39:56Z</time>
      </trkpt>
      <trkpt lat="42.85709" lon="0.20575">
        <ele>2307</ele>
        <time>2011-07-21T09:40:00Z</time>
      </trkpt>
      <trkpt lat="42.85711" lon="0.20567">
        <ele>2307</ele>
        <time>2011-07-21T09:40:07Z</time>
      </trkpt>
      <trkpt lat="42.85711" lon="0.20564">
        <ele>2307</ele>
        <time>2011-07-21T09:40:09Z</time>
      </trkpt>
      <trkpt lat="42.8571" lon="0.2056">
        <ele>2307</ele>
        <time>2011-07-21T09:40:13Z</time>
      </trkpt>
      <trkpt lat="42.8571" lon="0.20558">
        <ele>2307</ele>
        <time>2011-07-21T09:40:15Z</time>
      </trkpt>
      <trkpt lat="42.8571" lon="0.20556">
        <ele>2307</ele>
        <time>2011-07-21T09:40:17Z</time>
      </trkpt>
      <trkpt lat="42.85712" lon="0.20546">
        <ele>2307</ele>
        <time>2011-07-21T09:40:26Z</time>
      </trkpt>
      <trkpt lat="42.85714" lon="0.20542">
        <ele>2308</ele>
        <time>2011-07-21T09:40:30Z</time>
      </trkpt>
      <trkpt lat="42.85715" lon="0.20542">
        <ele>2308</ele>
        <time>2011-07-21T09:40:32Z</time>
      </trkpt>
      <trkpt lat="42.85715" lon="0.2054">
        <ele>2308</ele>
        <time>2011-07-21T09:40:34Z</time>
      </trkpt>
      <trkpt lat="42.85717" lon="0.20537">
        <ele>2309</ele>
        <time>2011-07-21T09:40:39Z</time>
      </trkpt>
      <trkpt lat="42.85718" lon="0.20529">
        <ele>2310</ele>
        <time>2011-07-21T09:40:47Z</time>
      </trkpt>
      <trkpt lat="42.8572" lon="0.20529">
        <ele>2310</ele>
        <time>2011-07-21T09:40:49Z</time>
      </trkpt>
      <trkpt lat="42.85721" lon="0.20528">
        <ele>2311</ele>
        <time>2011-07-21T09:40:52Z</time>
      </trkpt>
      <trkpt lat="42.85721" lon="0.20524">
        <ele>2312</ele>
        <time>2011-07-21T09:40:56Z</time>
      </trkpt>
      <trkpt lat="42.85722" lon="0.20523">
        <ele>2312</ele>
        <time>2011-07-21T09:40:58Z</time>
      </trkpt>
      <trkpt lat="42.85724" lon="0.20519">
        <ele>2312</ele>
        <time>2011-07-21T09:41:02Z</time>
      </trkpt>
      <trkpt lat="42.85725" lon="0.20514">
        <ele>2312</ele>
        <time>2011-07-21T09:41:06Z</time>
      </trkpt>
      <trkpt lat="42.85726" lon="0.20512">
        <ele>2312</ele>
        <time>2011-07-21T09:41:08Z</time>
      </trkpt>
      <trkpt lat="42.85727" lon="0.20511">
        <ele>2312</ele>
        <time>2011-07-21T09:41:10Z</time>
      </trkpt>
      <trkpt lat="42.8573" lon="0.20507">
        <ele>2313</ele>
        <time>2011-07-21T09:41:14Z</time>
      </trkpt>
      <trkpt lat="42.85731" lon="0.20505">
        <ele>2313</ele>
        <time>2011-07-21T09:41:16Z</time>
      </trkpt>
      <trkpt lat="42.85732" lon="0.20503">
        <ele>2313</ele>
        <time>2011-07-21T09:41:18Z</time>
      </trkpt>
      <trkpt lat="42.85733" lon="0.20499">
        <ele>2313</ele>
        <time>2011-07-21T09:41:22Z</time>
      </trkpt>
      <trkpt lat="42.85732" lon="0.20497">
        <ele>2314</ele>
        <time>2011-07-21T09:41:24Z</time>
      </trkpt>
      <trkpt lat="42.85732" lon="0.20495">
        <ele>2314</ele>
        <time>2011-07-21T09:41:26Z</time>
      </trkpt>
      <trkpt lat="42.85732" lon="0.20492">
        <ele>2315</ele>
        <time>2011-07-21T09:41:30Z</time>
      </trkpt>
      <trkpt lat="42.85733" lon="0.20491">
        <ele>2316</ele>
        <time>2011-07-21T09:41:33Z</time>
      </trkpt>
      <trkpt lat="42.85733" lon="0.20489">
        <ele>2316</ele>
        <time>2011-07-21T09:41:35Z</time>
      </trkpt>
      <trkpt lat="42.85733" lon="0.20485">
        <ele>2317</ele>
        <time>2011-07-21T09:41:39Z</time>
      </trkpt>
      <trkpt lat="42.85734" lon="0.20482">
        <ele>2317</ele>
        <time>2011-07-21T09:41:41Z</time>
      </trkpt>
      <trkpt lat="42.85734" lon="0.2048">
        <ele>2317</ele>
        <time>2011-07-21T09:41:43Z</time>
      </trkpt>
      <trkpt lat="42.85733" lon="0.20475">
        <ele>2317</ele>
        <time>2011-07-21T09:41:47Z</time>
      </trkpt>
      <trkpt lat="42.85732" lon="0.20473">
        <ele>2317</ele>
        <time>2011-07-21T09:41:49Z</time>
      </trkpt>
      <trkpt lat="42.8573" lon="0.20471">
        <ele>2317</ele>
        <time>2011-07-21T09:41:51Z</time>
      </trkpt>
      <trkpt lat="42.85729" lon="0.20468">
        <ele>2318</ele>
        <time>2011-07-21T09:42:03Z</time>
      </trkpt>
      <trkpt lat="42.85729" lon="0.20466">
        <ele>2318</ele>
        <time>2011-07-21T09:42:16Z</time>
      </trkpt>
      <trkpt lat="42.85728" lon="0.20466">
        <ele>2319</ele>
        <time>2011-07-21T09:42:57Z</time>
      </trkpt>
      <trkpt lat="42.85727" lon="0.20467">
        <ele>2319</ele>
        <time>2011-07-21T09:44:01Z</time>
      </trkpt>
      <trkpt lat="42.85728" lon="0.20468">
        <ele>2320</ele>
        <time>2011-07-21T09:45:15Z</time>
      </trkpt>
      <trkpt lat="42.85726" lon="0.20468">
        <ele>2320</ele>
        <time>2011-07-21T09:45:19Z</time>
      </trkpt>
      <trkpt lat="42.85723" lon="0.20466">
        <ele>2320</ele>
        <time>2011-07-21T09:45:23Z</time>
      </trkpt>
      <trkpt lat="42.85722" lon="0.20465">
        <ele>2320</ele>
        <time>2011-07-21T09:45:31Z</time>
      </trkpt>
      <trkpt lat="42.85721" lon="0.20464">
        <ele>2320</ele>
        <time>2011-07-21T09:45:33Z</time>
      </trkpt>
      <trkpt lat="42.85717" lon="0.20461">
        <ele>2320</ele>
        <time>2011-07-21T09:45:37Z</time>
      </trkpt>
      <trkpt lat="42.85716" lon="0.2046">
        <ele>2320</ele>
        <time>2011-07-21T09:45:39Z</time>
      </trkpt>
      <trkpt lat="42.85714" lon="0.20459">
        <ele>2320</ele>
        <time>2011-07-21T09:45:41Z</time>
      </trkpt>
      <trkpt lat="42.8571" lon="0.20456">
        <ele>2320</ele>
        <time>2011-07-21T09:45:45Z</time>
      </trkpt>
      <trkpt lat="42.85709" lon="0.20453">
        <ele>2320</ele>
        <time>2011-07-21T09:45:47Z</time>
      </trkpt>
      <trkpt lat="42.85708" lon="0.20451">
        <ele>2320</ele>
        <time>2011-07-21T09:45:49Z</time>
      </trkpt>
      <trkpt lat="42.85706" lon="0.20447">
        <ele>2320</ele>
        <time>2011-07-21T09:45:53Z</time>
      </trkpt>
      <trkpt lat="42.85705" lon="0.20446">
        <ele>2320</ele>
        <time>2011-07-21T09:45:55Z</time>
      </trkpt>
      <trkpt lat="42.85704" lon="0.20445">
        <ele>2320</ele>
        <time>2011-07-21T09:45:57Z</time>
      </trkpt>
      <trkpt lat="42.85701" lon="0.20445">
        <ele>2320</ele>
        <time>2011-07-21T09:46:09Z</time>
      </trkpt>
      <trkpt lat="42.85699" lon="0.20445">
        <ele>2320</ele>
        <time>2011-07-21T09:46:11Z</time>
      </trkpt>
      <trkpt lat="42.85697" lon="0.20445">
        <ele>2320</ele>
        <time>2011-07-21T09:46:13Z</time>
      </trkpt>
      <trkpt lat="42.85694" lon="0.20445">
        <ele>2320</ele>
        <time>2011-07-21T09:46:17Z</time>
      </trkpt>
      <trkpt lat="42.85693" lon="0.20445">
        <ele>2320</ele>
        <time>2011-07-21T09:46:19Z</time>
      </trkpt>
      <trkpt lat="42.85692" lon="0.20444">
        <ele>2321</ele>
        <time>2011-07-21T09:46:22Z</time>
      </trkpt>
      <trkpt lat="42.85689" lon="0.20445">
        <ele>2322</ele>
        <time>2011-07-21T09:46:26Z</time>
      </trkpt>
      <trkpt lat="42.85688" lon="0.20446">
        <ele>2322</ele>
        <time>2011-07-21T09:46:29Z</time>
      </trkpt>
      <trkpt lat="42.85686" lon="0.20446">
        <ele>2323</ele>
        <time>2011-07-21T09:46:31Z</time>
      </trkpt>
      <trkpt lat="42.85684" lon="0.20445">
        <ele>2324</ele>
        <time>2011-07-21T09:46:35Z</time>
      </trkpt>
      <trkpt lat="42.85682" lon="0.20445">
        <ele>2324</ele>
        <time>2011-07-21T09:46:38Z</time>
      </trkpt>
      <trkpt lat="42.85677" lon="0.20447">
        <ele>2326</ele>
        <time>2011-07-21T09:46:47Z</time>
      </trkpt>
      <trkpt lat="42.85676" lon="0.20448">
        <ele>2326</ele>
        <time>2011-07-21T09:46:52Z</time>
      </trkpt>
      <trkpt lat="42.85677" lon="0.20448">
        <ele>2326</ele>
        <time>2011-07-21T09:47:08Z</time>
      </trkpt>
      <trkpt lat="42.85679" lon="0.20447">
        <ele>2326</ele>
        <time>2011-07-21T09:47:10Z</time>
      </trkpt>
      <trkpt lat="42.8568" lon="0.20447">
        <ele>2326</ele>
        <time>2011-07-21T09:47:12Z</time>
      </trkpt>
      <trkpt lat="42.85683" lon="0.20446">
        <ele>2326</ele>
        <time>2011-07-21T09:47:16Z</time>
      </trkpt>
      <trkpt lat="42.85684" lon="0.20446">
        <ele>2326</ele>
        <time>2011-07-21T09:47:18Z</time>
      </trkpt>
      <trkpt lat="42.85686" lon="0.20446">
        <ele>2326</ele>
        <time>2011-07-21T09:47:20Z</time>
      </trkpt>
      <trkpt lat="42.85688" lon="0.20447">
        <ele>2326</ele>
        <time>2011-07-21T09:47:24Z</time>
      </trkpt>
      <trkpt lat="42.8569" lon="0.20448">
        <ele>2326</ele>
        <time>2011-07-21T09:47:26Z</time>
      </trkpt>
      <trkpt lat="42.85691" lon="0.20448">
        <ele>2326</ele>
        <time>2011-07-21T09:47:28Z</time>
      </trkpt>
      <trkpt lat="42.85692" lon="0.20446">
        <ele>2326</ele>
        <time>2011-07-21T09:48:12Z</time>
      </trkpt>
      <trkpt lat="42.85693" lon="0.20444">
        <ele>2326</ele>
        <time>2011-07-21T09:48:20Z</time>
      </trkpt>
      <trkpt lat="42.85694" lon="0.20443">
        <ele>2326</ele>
        <time>2011-07-21T09:48:25Z</time>
      </trkpt>
      <trkpt lat="42.85698" lon="0.20445">
        <ele>2325</ele>
        <time>2011-07-21T09:48:36Z</time>
      </trkpt>
      <trkpt lat="42.857" lon="0.20444">
        <ele>2325</ele>
        <time>2011-07-21T09:48:38Z</time>
      </trkpt>
      <trkpt lat="42.85701" lon="0.20444">
        <ele>2324</ele>
        <time>2011-07-21T09:48:40Z</time>
      </trkpt>
      <trkpt lat="42.85703" lon="0.2044">
        <ele>2323</ele>
        <time>2011-07-21T09:48:45Z</time>
      </trkpt>
      <trkpt lat="42.85704" lon="0.20438">
        <ele>2323</ele>
        <time>2011-07-21T09:48:48Z</time>
      </trkpt>
      <trkpt lat="42.85704" lon="0.20437">
        <ele>2322</ele>
        <time>2011-07-21T09:48:50Z</time>
      </trkpt>
      <trkpt lat="42.85706" lon="0.20433">
        <ele>2321</ele>
        <time>2011-07-21T09:48:56Z</time>
      </trkpt>
      <trkpt lat="42.85704" lon="0.2043">
        <ele>2321</ele>
        <time>2011-07-21T09:48:59Z</time>
      </trkpt>
      <trkpt lat="42.85704" lon="0.20429">
        <ele>2321</ele>
        <time>2011-07-21T09:49:01Z</time>
      </trkpt>
      <trkpt lat="42.85705" lon="0.20424">
        <ele>2318</ele>
        <time>2011-07-21T09:49:09Z</time>
      </trkpt>
      <trkpt lat="42.85706" lon="0.20423">
        <ele>2318</ele>
        <time>2011-07-21T09:49:12Z</time>
      </trkpt>
      <trkpt lat="42.85708" lon="0.20419">
        <ele>2317</ele>
        <time>2011-07-21T09:49:18Z</time>
      </trkpt>
      <trkpt lat="42.85708" lon="0.20417">
        <ele>2317</ele>
        <time>2011-07-21T09:49:20Z</time>
      </trkpt>
      <trkpt lat="42.85708" lon="0.20415">
        <ele>2317</ele>
        <time>2011-07-21T09:49:22Z</time>
      </trkpt>
      <trkpt lat="42.85707" lon="0.20412">
        <ele>2317</ele>
        <time>2011-07-21T09:49:27Z</time>
      </trkpt>
      <trkpt lat="42.85707" lon="0.2041">
        <ele>2316</ele>
        <time>2011-07-21T09:49:29Z</time>
      </trkpt>
      <trkpt lat="42.85708" lon="0.20408">
        <ele>2315</ele>
        <time>2011-07-21T09:49:31Z</time>
      </trkpt>
      <trkpt lat="42.8571" lon="0.20404">
        <ele>2314</ele>
        <time>2011-07-21T09:49:35Z</time>
      </trkpt>
      <trkpt lat="42.8571" lon="0.20402">
        <ele>2313</ele>
        <time>2011-07-21T09:49:37Z</time>
      </trkpt>
      <trkpt lat="42.85711" lon="0.20401">
        <ele>2313</ele>
        <time>2011-07-21T09:49:39Z</time>
      </trkpt>
      <trkpt lat="42.85711" lon="0.20397">
        <ele>2310</ele>
        <time>2011-07-21T09:49:44Z</time>
      </trkpt>
      <trkpt lat="42.8571" lon="0.20395">
        <ele>2310</ele>
        <time>2011-07-21T09:49:46Z</time>
      </trkpt>
      <trkpt lat="42.85709" lon="0.20393">
        <ele>2309</ele>
        <time>2011-07-21T09:49:48Z</time>
      </trkpt>
      <trkpt lat="42.85711" lon="0.20389">
        <ele>2305</ele>
        <time>2011-07-21T09:49:53Z</time>
      </trkpt>
      <trkpt lat="42.8571" lon="0.20387">
        <ele>2304</ele>
        <time>2011-07-21T09:49:55Z</time>
      </trkpt>
      <trkpt lat="42.85705" lon="0.20377">
        <ele>2302</ele>
        <time>2011-07-21T09:50:02Z</time>
      </trkpt>
      <trkpt lat="42.85701" lon="0.20372">
        <ele>2302</ele>
        <time>2011-07-21T09:50:05Z</time>
      </trkpt>
      <trkpt lat="42.857" lon="0.20369">
        <ele>2302</ele>
        <time>2011-07-21T09:50:07Z</time>
      </trkpt>
      <trkpt lat="42.85698" lon="0.20363">
        <ele>2302</ele>
        <time>2011-07-21T09:50:11Z</time>
      </trkpt>
      <trkpt lat="42.85697" lon="0.20359">
        <ele>2302</ele>
        <time>2011-07-21T09:50:13Z</time>
      </trkpt>
      <trkpt lat="42.85685" lon="0.2033">
        <ele>2301</ele>
        <time>2011-07-21T09:50:35Z</time>
      </trkpt>
      <trkpt lat="42.85682" lon="0.20325">
        <ele>2301</ele>
        <time>2011-07-21T09:50:41Z</time>
      </trkpt>
      <trkpt lat="42.85682" lon="0.20322">
        <ele>2300</ele>
        <time>2011-07-21T09:50:45Z</time>
      </trkpt>
      <trkpt lat="42.85679" lon="0.2032">
        <ele>2299</ele>
        <time>2011-07-21T09:50:49Z</time>
      </trkpt>
      <trkpt lat="42.85677" lon="0.20317">
        <ele>2298</ele>
        <time>2011-07-21T09:50:53Z</time>
      </trkpt>
      <trkpt lat="42.85674" lon="0.20315">
        <ele>2296</ele>
        <time>2011-07-21T09:50:58Z</time>
      </trkpt>
      <trkpt lat="42.85673" lon="0.20313">
        <ele>2296</ele>
        <time>2011-07-21T09:51:00Z</time>
      </trkpt>
      <trkpt lat="42.85668" lon="0.20307">
        <ele>2293</ele>
        <time>2011-07-21T09:51:09Z</time>
      </trkpt>
      <trkpt lat="42.85667" lon="0.20305">
        <ele>2292</ele>
        <time>2011-07-21T09:51:11Z</time>
      </trkpt>
      <trkpt lat="42.85666" lon="0.20302">
        <ele>2290</ele>
        <time>2011-07-21T09:51:16Z</time>
      </trkpt>
      <trkpt lat="42.85663" lon="0.20295">
        <ele>2288</ele>
        <time>2011-07-21T09:51:26Z</time>
      </trkpt>
      <trkpt lat="42.85661" lon="0.20294">
        <ele>2287</ele>
        <time>2011-07-21T09:51:29Z</time>
      </trkpt>
      <trkpt lat="42.85663" lon="0.20293">
        <ele>2286</ele>
        <time>2011-07-21T09:51:33Z</time>
      </trkpt>
      <trkpt lat="42.85659" lon="0.2029">
        <ele>2285</ele>
        <time>2011-07-21T09:51:39Z</time>
      </trkpt>
      <trkpt lat="42.85657" lon="0.20288">
        <ele>2285</ele>
        <time>2011-07-21T09:51:43Z</time>
      </trkpt>
      <trkpt lat="42.85656" lon="0.20287">
        <ele>2285</ele>
        <time>2011-07-21T09:51:45Z</time>
      </trkpt>
      <trkpt lat="42.85655" lon="0.20284">
        <ele>2284</ele>
        <time>2011-07-21T09:51:51Z</time>
      </trkpt>
      <trkpt lat="42.85654" lon="0.20283">
        <ele>2282</ele>
        <time>2011-07-21T09:51:56Z</time>
      </trkpt>
      <trkpt lat="42.85653" lon="0.20281">
        <ele>2282</ele>
        <time>2011-07-21T09:51:59Z</time>
      </trkpt>
      <trkpt lat="42.85655" lon="0.20279">
        <ele>2280</ele>
        <time>2011-07-21T09:52:07Z</time>
      </trkpt>
      <trkpt lat="42.85656" lon="0.20277">
        <ele>2279</ele>
        <time>2011-07-21T09:52:10Z</time>
      </trkpt>
      <trkpt lat="42.85657" lon="0.20276">
        <ele>2277</ele>
        <time>2011-07-21T09:52:14Z</time>
      </trkpt>
      <trkpt lat="42.85659" lon="0.20272">
        <ele>2275</ele>
        <time>2011-07-21T09:52:21Z</time>
      </trkpt>
      <trkpt lat="42.8566" lon="0.20271">
        <ele>2274</ele>
        <time>2011-07-21T09:52:23Z</time>
      </trkpt>
      <trkpt lat="42.85661" lon="0.20269">
        <ele>2274</ele>
        <time>2011-07-21T09:52:25Z</time>
      </trkpt>
      <trkpt lat="42.85658" lon="0.20269">
        <ele>2272</ele>
        <time>2011-07-21T09:52:37Z</time>
      </trkpt>
      <trkpt lat="42.85656" lon="0.20269">
        <ele>2272</ele>
        <time>2011-07-21T09:52:39Z</time>
      </trkpt>
      <trkpt lat="42.85655" lon="0.20268">
        <ele>2272</ele>
        <time>2011-07-21T09:52:41Z</time>
      </trkpt>
      <trkpt lat="42.85653" lon="0.20266">
        <ele>2270</ele>
        <time>2011-07-21T09:52:46Z</time>
      </trkpt>
      <trkpt lat="42.8565" lon="0.20263">
        <ele>2270</ele>
        <time>2011-07-21T09:52:57Z</time>
      </trkpt>
      <trkpt lat="42.85646" lon="0.20261">
        <ele>2270</ele>
        <time>2011-07-21T09:53:03Z</time>
      </trkpt>
      <trkpt lat="42.85645" lon="0.2026">
        <ele>2270</ele>
        <time>2011-07-21T09:53:06Z</time>
      </trkpt>
      <trkpt lat="42.8564" lon="0.20257">
        <ele>2270</ele>
        <time>2011-07-21T09:53:13Z</time>
      </trkpt>
      <trkpt lat="42.85639" lon="0.20258">
        <ele>2269</ele>
        <time>2011-07-21T09:53:16Z</time>
      </trkpt>
      <trkpt lat="42.85638" lon="0.20256">
        <ele>2268</ele>
        <time>2011-07-21T09:53:20Z</time>
      </trkpt>
      <trkpt lat="42.85638" lon="0.20253">
        <ele>2265</ele>
        <time>2011-07-21T09:53:29Z</time>
      </trkpt>
      <trkpt lat="42.85639" lon="0.20252">
        <ele>2263</ele>
        <time>2011-07-21T09:53:32Z</time>
      </trkpt>
      <trkpt lat="42.8564" lon="0.2025">
        <ele>2262</ele>
        <time>2011-07-21T09:53:36Z</time>
      </trkpt>
      <trkpt lat="42.85638" lon="0.20246">
        <ele>2261</ele>
        <time>2011-07-21T09:53:42Z</time>
      </trkpt>
      <trkpt lat="42.85638" lon="0.20245">
        <ele>2260</ele>
        <time>2011-07-21T09:53:44Z</time>
      </trkpt>
      <trkpt lat="42.85641" lon="0.20235">
        <ele>2258</ele>
        <time>2011-07-21T09:53:54Z</time>
      </trkpt>
      <trkpt lat="42.85643" lon="0.20234">
        <ele>2258</ele>
        <time>2011-07-21T09:53:56Z</time>
      </trkpt>
      <trkpt lat="42.85645" lon="0.20229">
        <ele>2255</ele>
        <time>2011-07-21T09:54:04Z</time>
      </trkpt>
      <trkpt lat="42.85647" lon="0.20227">
        <ele>2254</ele>
        <time>2011-07-21T09:54:06Z</time>
      </trkpt>
      <trkpt lat="42.85648" lon="0.20225">
        <ele>2254</ele>
        <time>2011-07-21T09:54:08Z</time>
      </trkpt>
      <trkpt lat="42.85649" lon="0.20221">
        <ele>2254</ele>
        <time>2011-07-21T09:54:12Z</time>
      </trkpt>
      <trkpt lat="42.85651" lon="0.2022">
        <ele>2253</ele>
        <time>2011-07-21T09:54:14Z</time>
      </trkpt>
      <trkpt lat="42.85651" lon="0.20218">
        <ele>2253</ele>
        <time>2011-07-21T09:54:16Z</time>
      </trkpt>
      <trkpt lat="42.85653" lon="0.20214">
        <ele>2251</ele>
        <time>2011-07-21T09:54:24Z</time>
      </trkpt>
      <trkpt lat="42.85653" lon="0.20211">
        <ele>2250</ele>
        <time>2011-07-21T09:54:26Z</time>
      </trkpt>
      <trkpt lat="42.85655" lon="0.20208">
        <ele>2250</ele>
        <time>2011-07-21T09:54:29Z</time>
      </trkpt>
      <trkpt lat="42.85657" lon="0.20204">
        <ele>2249</ele>
        <time>2011-07-21T09:54:33Z</time>
      </trkpt>
      <trkpt lat="42.85658" lon="0.20202">
        <ele>2248</ele>
        <time>2011-07-21T09:54:35Z</time>
      </trkpt>
      <trkpt lat="42.85659" lon="0.20199">
        <ele>2248</ele>
        <time>2011-07-21T09:54:37Z</time>
      </trkpt>
      <trkpt lat="42.85661" lon="0.20197">
        <ele>2247</ele>
        <time>2011-07-21T09:54:41Z</time>
      </trkpt>
      <trkpt lat="42.85662" lon="0.20195">
        <ele>2246</ele>
        <time>2011-07-21T09:55:00Z</time>
      </trkpt>
      <trkpt lat="42.85663" lon="0.20193">
        <ele>2246</ele>
        <time>2011-07-21T09:55:02Z</time>
      </trkpt>
      <trkpt lat="42.85664" lon="0.20189">
        <ele>2246</ele>
        <time>2011-07-21T09:55:06Z</time>
      </trkpt>
      <trkpt lat="42.85666" lon="0.20188">
        <ele>2246</ele>
        <time>2011-07-21T09:55:08Z</time>
      </trkpt>
      <trkpt lat="42.85668" lon="0.20184">
        <ele>2246</ele>
        <time>2011-07-21T09:55:11Z</time>
      </trkpt>
      <trkpt lat="42.8567" lon="0.2018">
        <ele>2246</ele>
        <time>2011-07-21T09:55:16Z</time>
      </trkpt>
      <trkpt lat="42.85671" lon="0.20182">
        <ele>2246</ele>
        <time>2011-07-21T09:55:28Z</time>
      </trkpt>
      <trkpt lat="42.85672" lon="0.20183">
        <ele>2246</ele>
        <time>2011-07-21T09:55:42Z</time>
      </trkpt>
      <trkpt lat="42.85675" lon="0.20181">
        <ele>2245</ele>
        <time>2011-07-21T09:55:46Z</time>
      </trkpt>
      <trkpt lat="42.85676" lon="0.20179">
        <ele>2245</ele>
        <time>2011-07-21T09:55:50Z</time>
      </trkpt>
      <trkpt lat="42.85677" lon="0.20177">
        <ele>2245</ele>
        <time>2011-07-21T09:55:52Z</time>
      </trkpt>
      <trkpt lat="42.85679" lon="0.20172">
        <ele>2243</ele>
        <time>2011-07-21T09:55:57Z</time>
      </trkpt>
      <trkpt lat="42.8568" lon="0.2017">
        <ele>2242</ele>
        <time>2011-07-21T09:55:59Z</time>
      </trkpt>
      <trkpt lat="42.85682" lon="0.20169">
        <ele>2242</ele>
        <time>2011-07-21T09:56:01Z</time>
      </trkpt>
      <trkpt lat="42.85682" lon="0.20164">
        <ele>2241</ele>
        <time>2011-07-21T09:56:05Z</time>
      </trkpt>
      <trkpt lat="42.85682" lon="0.20162">
        <ele>2240</ele>
        <time>2011-07-21T09:56:07Z</time>
      </trkpt>
      <trkpt lat="42.85683" lon="0.20158">
        <ele>2239</ele>
        <time>2011-07-21T09:56:10Z</time>
      </trkpt>
      <trkpt lat="42.85686" lon="0.20158">
        <ele>2238</ele>
        <time>2011-07-21T09:56:14Z</time>
      </trkpt>
      <trkpt lat="42.85688" lon="0.20158">
        <ele>2238</ele>
        <time>2011-07-21T09:56:16Z</time>
      </trkpt>
      <trkpt lat="42.85689" lon="0.20158">
        <ele>2237</ele>
        <time>2011-07-21T09:56:18Z</time>
      </trkpt>
      <trkpt lat="42.85692" lon="0.20157">
        <ele>2236</ele>
        <time>2011-07-21T09:56:22Z</time>
      </trkpt>
      <trkpt lat="42.85693" lon="0.20157">
        <ele>2235</ele>
        <time>2011-07-21T09:56:24Z</time>
      </trkpt>
      <trkpt lat="42.85695" lon="0.20157">
        <ele>2235</ele>
        <time>2011-07-21T09:56:26Z</time>
      </trkpt>
      <trkpt lat="42.85698" lon="0.20156">
        <ele>2234</ele>
        <time>2011-07-21T09:56:30Z</time>
      </trkpt>
      <trkpt lat="42.85702" lon="0.20157">
        <ele>2233</ele>
        <time>2011-07-21T09:56:34Z</time>
      </trkpt>
      <trkpt lat="42.85703" lon="0.20156">
        <ele>2232</ele>
        <time>2011-07-21T09:56:37Z</time>
      </trkpt>
      <trkpt lat="42.85708" lon="0.2015">
        <ele>2230</ele>
        <time>2011-07-21T09:56:45Z</time>
      </trkpt>
      <trkpt lat="42.8571" lon="0.20147">
        <ele>2229</ele>
        <time>2011-07-21T09:56:49Z</time>
      </trkpt>
      <trkpt lat="42.8571" lon="0.20146">
        <ele>2229</ele>
        <time>2011-07-21T09:56:51Z</time>
      </trkpt>
      <trkpt lat="42.85711" lon="0.20144">
        <ele>2228</ele>
        <time>2011-07-21T09:56:53Z</time>
      </trkpt>
      <trkpt lat="42.85712" lon="0.2014">
        <ele>2227</ele>
        <time>2011-07-21T09:56:57Z</time>
      </trkpt>
      <trkpt lat="42.85713" lon="0.20139">
        <ele>2227</ele>
        <time>2011-07-21T09:56:59Z</time>
      </trkpt>
      <trkpt lat="42.85714" lon="0.20138">
        <ele>2226</ele>
        <time>2011-07-21T09:57:01Z</time>
      </trkpt>
      <trkpt lat="42.85715" lon="0.20134">
        <ele>2225</ele>
        <time>2011-07-21T09:57:05Z</time>
      </trkpt>
      <trkpt lat="42.85715" lon="0.20132">
        <ele>2225</ele>
        <time>2011-07-21T09:57:07Z</time>
      </trkpt>
      <trkpt lat="42.85714" lon="0.20128">
        <ele>2224</ele>
        <time>2011-07-21T09:57:10Z</time>
      </trkpt>
      <trkpt lat="42.85712" lon="0.20124">
        <ele>2223</ele>
        <time>2011-07-21T09:57:14Z</time>
      </trkpt>
      <trkpt lat="42.85712" lon="0.20121">
        <ele>2223</ele>
        <time>2011-07-21T09:57:16Z</time>
      </trkpt>
      <trkpt lat="42.85712" lon="0.2012">
        <ele>2222</ele>
        <time>2011-07-21T09:57:18Z</time>
      </trkpt>
      <trkpt lat="42.85714" lon="0.20119">
        <ele>2222</ele>
        <time>2011-07-21T09:57:22Z</time>
      </trkpt>
      <trkpt lat="42.85715" lon="0.20118">
        <ele>2221</ele>
        <time>2011-07-21T09:57:24Z</time>
      </trkpt>
      <trkpt lat="42.85716" lon="0.20116">
        <ele>2220</ele>
        <time>2011-07-21T09:57:27Z</time>
      </trkpt>
      <trkpt lat="42.85718" lon="0.20112">
        <ele>2219</ele>
        <time>2011-07-21T09:57:31Z</time>
      </trkpt>
      <trkpt lat="42.85719" lon="0.20111">
        <ele>2219</ele>
        <time>2011-07-21T09:57:33Z</time>
      </trkpt>
      <trkpt lat="42.8572" lon="0.2011">
        <ele>2218</ele>
        <time>2011-07-21T09:57:35Z</time>
      </trkpt>
      <trkpt lat="42.85722" lon="0.20107">
        <ele>2217</ele>
        <time>2011-07-21T09:57:39Z</time>
      </trkpt>
      <trkpt lat="42.85722" lon="0.20105">
        <ele>2217</ele>
        <time>2011-07-21T09:57:41Z</time>
      </trkpt>
      <trkpt lat="42.85723" lon="0.20103">
        <ele>2217</ele>
        <time>2011-07-21T09:57:43Z</time>
      </trkpt>
      <trkpt lat="42.85727" lon="0.20101">
        <ele>2215</ele>
        <time>2011-07-21T09:57:47Z</time>
      </trkpt>
      <trkpt lat="42.85727" lon="0.20098">
        <ele>2215</ele>
        <time>2011-07-21T09:57:49Z</time>
      </trkpt>
      <trkpt lat="42.85728" lon="0.20094">
        <ele>2214</ele>
        <time>2011-07-21T09:57:52Z</time>
      </trkpt>
      <trkpt lat="42.8573" lon="0.2009">
        <ele>2213</ele>
        <time>2011-07-21T09:57:58Z</time>
      </trkpt>
      <trkpt lat="42.8573" lon="0.20092">
        <ele>2211</ele>
        <time>2011-07-21T09:58:11Z</time>
      </trkpt>
      <trkpt lat="42.85729" lon="0.20092">
        <ele>2211</ele>
        <time>2011-07-21T09:58:21Z</time>
      </trkpt>
      <trkpt lat="42.85728" lon="0.20091">
        <ele>2211</ele>
        <time>2011-07-21T09:58:56Z</time>
      </trkpt>
      <trkpt lat="42.85729" lon="0.20089">
        <ele>2211</ele>
        <time>2011-07-21T09:59:07Z</time>
      </trkpt>
      <trkpt lat="42.8573" lon="0.2009">
        <ele>2211</ele>
        <time>2011-07-21T09:59:15Z</time>
      </trkpt>
      <trkpt lat="42.85735" lon="0.20087">
        <ele>2211</ele>
        <time>2011-07-21T09:59:53Z</time>
      </trkpt>
      <trkpt lat="42.85734" lon="0.20087">
        <ele>2211</ele>
        <time>2011-07-21T10:00:01Z</time>
      </trkpt>
      <trkpt lat="42.8573" lon="0.20089">
        <ele>2210</ele>
        <time>2011-07-21T10:00:19Z</time>
      </trkpt>
      <trkpt lat="42.85728" lon="0.2009">
        <ele>2210</ele>
        <time>2011-07-21T10:00:39Z</time>
      </trkpt>
      <trkpt lat="42.85727" lon="0.20089">
        <ele>2210</ele>
        <time>2011-07-21T10:01:02Z</time>
      </trkpt>
      <trkpt lat="42.85727" lon="0.20086">
        <ele>2210</ele>
        <time>2011-07-21T10:01:04Z</time>
      </trkpt>
      <trkpt lat="42.85727" lon="0.20083">
        <ele>2210</ele>
        <time>2011-07-21T10:01:06Z</time>
      </trkpt>
      <trkpt lat="42.85728" lon="0.20076">
        <ele>2210</ele>
        <time>2011-07-21T10:01:10Z</time>
      </trkpt>
      <trkpt lat="42.85733" lon="0.20064">
        <ele>2210</ele>
        <time>2011-07-21T10:01:18Z</time>
      </trkpt>
      <trkpt lat="42.85735" lon="0.20056">
        <ele>2210</ele>
        <time>2011-07-21T10:01:22Z</time>
      </trkpt>
      <trkpt lat="42.85737" lon="0.2005">
        <ele>2210</ele>
        <time>2011-07-21T10:01:26Z</time>
      </trkpt>
      <trkpt lat="42.8574" lon="0.20046">
        <ele>2210</ele>
        <time>2011-07-21T10:01:29Z</time>
      </trkpt>
      <trkpt lat="42.8574" lon="0.20043">
        <ele>2210</ele>
        <time>2011-07-21T10:01:31Z</time>
      </trkpt>
      <trkpt lat="42.85741" lon="0.20037">
        <ele>2209</ele>
        <time>2011-07-21T10:01:35Z</time>
      </trkpt>
      <trkpt lat="42.85743" lon="0.2003">
        <ele>2209</ele>
        <time>2011-07-21T10:01:39Z</time>
      </trkpt>
      <trkpt lat="42.85745" lon="0.20023">
        <ele>2209</ele>
        <time>2011-07-21T10:01:43Z</time>
      </trkpt>
      <trkpt lat="42.85746" lon="0.20019">
        <ele>2208</ele>
        <time>2011-07-21T10:01:47Z</time>
      </trkpt>
      <trkpt lat="42.85748" lon="0.20016">
        <ele>2208</ele>
        <time>2011-07-21T10:01:49Z</time>
      </trkpt>
      <trkpt lat="42.85753" lon="0.20009">
        <ele>2208</ele>
        <time>2011-07-21T10:01:54Z</time>
      </trkpt>
      <trkpt lat="42.85755" lon="0.20008">
        <ele>2207</ele>
        <time>2011-07-21T10:01:56Z</time>
      </trkpt>
      <trkpt lat="42.85762" lon="0.2">
        <ele>2206</ele>
        <time>2011-07-21T10:02:03Z</time>
      </trkpt>
      <trkpt lat="42.85764" lon="0.19998">
        <ele>2205</ele>
        <time>2011-07-21T10:02:05Z</time>
      </trkpt>
      <trkpt lat="42.85766" lon="0.19996">
        <ele>2205</ele>
        <time>2011-07-21T10:02:07Z</time>
      </trkpt>
      <trkpt lat="42.85769" lon="0.19991">
        <ele>2205</ele>
        <time>2011-07-21T10:02:11Z</time>
      </trkpt>
      <trkpt lat="42.8577" lon="0.19987">
        <ele>2204</ele>
        <time>2011-07-21T10:02:13Z</time>
      </trkpt>
      <trkpt lat="42.85771" lon="0.19985">
        <ele>2204</ele>
        <time>2011-07-21T10:02:15Z</time>
      </trkpt>
      <trkpt lat="42.85773" lon="0.19981">
        <ele>2203</ele>
        <time>2011-07-21T10:02:19Z</time>
      </trkpt>
      <trkpt lat="42.85774" lon="0.19979">
        <ele>2203</ele>
        <time>2011-07-21T10:02:21Z</time>
      </trkpt>
      <trkpt lat="42.85775" lon="0.19978">
        <ele>2203</ele>
        <time>2011-07-21T10:02:23Z</time>
      </trkpt>
      <trkpt lat="42.85778" lon="0.19976">
        <ele>2203</ele>
        <time>2011-07-21T10:02:27Z</time>
      </trkpt>
      <trkpt lat="42.85785" lon="0.1997">
        <ele>2203</ele>
        <time>2011-07-21T10:02:35Z</time>
      </trkpt>
      <trkpt lat="42.85786" lon="0.19969">
        <ele>2203</ele>
        <time>2011-07-21T10:02:37Z</time>
      </trkpt>
      <trkpt lat="42.85788" lon="0.19967">
        <ele>2203</ele>
        <time>2011-07-21T10:02:39Z</time>
      </trkpt>
      <trkpt lat="42.85791" lon="0.19964">
        <ele>2203</ele>
        <time>2011-07-21T10:02:43Z</time>
      </trkpt>
      <trkpt lat="42.85795" lon="0.19963">
        <ele>2203</ele>
        <time>2011-07-21T10:02:47Z</time>
      </trkpt>
      <trkpt lat="42.85798" lon="0.1996">
        <ele>2203</ele>
        <time>2011-07-21T10:02:51Z</time>
      </trkpt>
      <trkpt lat="42.858" lon="0.19959">
        <ele>2204</ele>
        <time>2011-07-21T10:02:53Z</time>
      </trkpt>
      <trkpt lat="42.85806" lon="0.19956">
        <ele>2204</ele>
        <time>2011-07-21T10:02:59Z</time>
      </trkpt>
      <trkpt lat="42.85807" lon="0.19955">
        <ele>2204</ele>
        <time>2011-07-21T10:03:01Z</time>
      </trkpt>
      <trkpt lat="42.85809" lon="0.19954">
        <ele>2205</ele>
        <time>2011-07-21T10:03:03Z</time>
      </trkpt>
      <trkpt lat="42.85812" lon="0.19952">
        <ele>2205</ele>
        <time>2011-07-21T10:03:07Z</time>
      </trkpt>
      <trkpt lat="42.85814" lon="0.19951">
        <ele>2205</ele>
        <time>2011-07-21T10:03:09Z</time>
      </trkpt>
      <trkpt lat="42.85817" lon="0.19949">
        <ele>2206</ele>
        <time>2011-07-21T10:03:13Z</time>
      </trkpt>
      <trkpt lat="42.8582" lon="0.19947">
        <ele>2206</ele>
        <time>2011-07-21T10:03:17Z</time>
      </trkpt>
      <trkpt lat="42.85826" lon="0.19941">
        <ele>2207</ele>
        <time>2011-07-21T10:03:25Z</time>
      </trkpt>
      <trkpt lat="42.85828" lon="0.19941">
        <ele>2208</ele>
        <time>2011-07-21T10:03:27Z</time>
      </trkpt>
      <trkpt lat="42.85829" lon="0.1994">
        <ele>2208</ele>
        <time>2011-07-21T10:03:29Z</time>
      </trkpt>
      <trkpt lat="42.85832" lon="0.19937">
        <ele>2208</ele>
        <time>2011-07-21T10:03:33Z</time>
      </trkpt>
      <trkpt lat="42.85834" lon="0.19937">
        <ele>2209</ele>
        <time>2011-07-21T10:03:35Z</time>
      </trkpt>
      <trkpt lat="42.85835" lon="0.19935">
        <ele>2209</ele>
        <time>2011-07-21T10:03:37Z</time>
      </trkpt>
      <trkpt lat="42.85837" lon="0.19932">
        <ele>2210</ele>
        <time>2011-07-21T10:03:41Z</time>
      </trkpt>
      <trkpt lat="42.85838" lon="0.19931">
        <ele>2210</ele>
        <time>2011-07-21T10:03:43Z</time>
      </trkpt>
      <trkpt lat="42.8584" lon="0.19929">
        <ele>2210</ele>
        <time>2011-07-21T10:03:46Z</time>
      </trkpt>
      <trkpt lat="42.85841" lon="0.19926">
        <ele>2211</ele>
        <time>2011-07-21T10:03:50Z</time>
      </trkpt>
      <trkpt lat="42.85843" lon="0.19925">
        <ele>2211</ele>
        <time>2011-07-21T10:03:52Z</time>
      </trkpt>
      <trkpt lat="42.85844" lon="0.19924">
        <ele>2211</ele>
        <time>2011-07-21T10:03:54Z</time>
      </trkpt>
      <trkpt lat="42.85847" lon="0.19922">
        <ele>2212</ele>
        <time>2011-07-21T10:03:59Z</time>
      </trkpt>
      <trkpt lat="42.85848" lon="0.19922">
        <ele>2212</ele>
        <time>2011-07-21T10:04:01Z</time>
      </trkpt>
      <trkpt lat="42.85852" lon="0.1992">
        <ele>2214</ele>
        <time>2011-07-21T10:04:08Z</time>
      </trkpt>
      <trkpt lat="42.85853" lon="0.19918">
        <ele>2214</ele>
        <time>2011-07-21T10:04:11Z</time>
      </trkpt>
      <trkpt lat="42.85854" lon="0.19917">
        <ele>2215</ele>
        <time>2011-07-21T10:04:13Z</time>
      </trkpt>
      <trkpt lat="42.85857" lon="0.19917">
        <ele>2215</ele>
        <time>2011-07-21T10:04:17Z</time>
      </trkpt>
      <trkpt lat="42.85858" lon="0.19917">
        <ele>2216</ele>
        <time>2011-07-21T10:04:19Z</time>
      </trkpt>
      <trkpt lat="42.85864" lon="0.19917">
        <ele>2216</ele>
        <time>2011-07-21T10:04:28Z</time>
      </trkpt>
      <trkpt lat="42.85865" lon="0.19916">
        <ele>2217</ele>
        <time>2011-07-21T10:04:30Z</time>
      </trkpt>
      <trkpt lat="42.85867" lon="0.19915">
        <ele>2217</ele>
        <time>2011-07-21T10:04:33Z</time>
      </trkpt>
      <trkpt lat="42.8587" lon="0.19914">
        <ele>2217</ele>
        <time>2011-07-21T10:04:37Z</time>
      </trkpt>
      <trkpt lat="42.85871" lon="0.19912">
        <ele>2218</ele>
        <time>2011-07-21T10:04:40Z</time>
      </trkpt>
      <trkpt lat="42.85872" lon="0.1991">
        <ele>2218</ele>
        <time>2011-07-21T10:04:42Z</time>
      </trkpt>
      <trkpt lat="42.85874" lon="0.19907">
        <ele>2219</ele>
        <time>2011-07-21T10:04:47Z</time>
      </trkpt>
      <trkpt lat="42.85875" lon="0.19905">
        <ele>2219</ele>
        <time>2011-07-21T10:04:49Z</time>
      </trkpt>
      <trkpt lat="42.85876" lon="0.19903">
        <ele>2219</ele>
        <time>2011-07-21T10:04:51Z</time>
      </trkpt>
      <trkpt lat="42.85878" lon="0.199">
        <ele>2219</ele>
        <time>2011-07-21T10:04:55Z</time>
      </trkpt>
      <trkpt lat="42.8588" lon="0.19899">
        <ele>2219</ele>
        <time>2011-07-21T10:04:57Z</time>
      </trkpt>
      <trkpt lat="42.85881" lon="0.19899">
        <ele>2219</ele>
        <time>2011-07-21T10:04:59Z</time>
      </trkpt>
      <trkpt lat="42.85883" lon="0.19898">
        <ele>2219</ele>
        <time>2011-07-21T10:05:03Z</time>
      </trkpt>
      <trkpt lat="42.85885" lon="0.19896">
        <ele>2220</ele>
        <time>2011-07-21T10:05:06Z</time>
      </trkpt>
      <trkpt lat="42.85886" lon="0.19895">
        <ele>2220</ele>
        <time>2011-07-21T10:05:08Z</time>
      </trkpt>
      <trkpt lat="42.85889" lon="0.19892">
        <ele>2221</ele>
        <time>2011-07-21T10:05:13Z</time>
      </trkpt>
      <trkpt lat="42.85892" lon="0.1989">
        <ele>2221</ele>
        <time>2011-07-21T10:05:17Z</time>
      </trkpt>
      <trkpt lat="42.85894" lon="0.19889">
        <ele>2222</ele>
        <time>2011-07-21T10:05:21Z</time>
      </trkpt>
      <trkpt lat="42.85896" lon="0.19889">
        <ele>2222</ele>
        <time>2011-07-21T10:05:23Z</time>
      </trkpt>
      <trkpt lat="42.85897" lon="0.19888">
        <ele>2223</ele>
        <time>2011-07-21T10:05:26Z</time>
      </trkpt>
      <trkpt lat="42.859" lon="0.19881">
        <ele>2224</ele>
        <time>2011-07-21T10:05:33Z</time>
      </trkpt>
      <trkpt lat="42.85904" lon="0.19877">
        <ele>2224</ele>
        <time>2011-07-21T10:05:39Z</time>
      </trkpt>
      <trkpt lat="42.85907" lon="0.19874">
        <ele>2224</ele>
        <time>2011-07-21T10:05:43Z</time>
      </trkpt>
      <trkpt lat="42.85909" lon="0.19873">
        <ele>2225</ele>
        <time>2011-07-21T10:05:45Z</time>
      </trkpt>
      <trkpt lat="42.85912" lon="0.1987">
        <ele>2225</ele>
        <time>2011-07-21T10:05:49Z</time>
      </trkpt>
      <trkpt lat="42.85918" lon="0.19862">
        <ele>2225</ele>
        <time>2011-07-21T10:05:57Z</time>
      </trkpt>
      <trkpt lat="42.8592" lon="0.1986">
        <ele>2226</ele>
        <time>2011-07-21T10:05:59Z</time>
      </trkpt>
      <trkpt lat="42.85921" lon="0.19859">
        <ele>2226</ele>
        <time>2011-07-21T10:06:01Z</time>
      </trkpt>
      <trkpt lat="42.85924" lon="0.19856">
        <ele>2227</ele>
        <time>2011-07-21T10:06:05Z</time>
      </trkpt>
      <trkpt lat="42.85926" lon="0.19854">
        <ele>2227</ele>
        <time>2011-07-21T10:06:09Z</time>
      </trkpt>
      <trkpt lat="42.85929" lon="0.19852">
        <ele>2228</ele>
        <time>2011-07-21T10:06:13Z</time>
      </trkpt>
      <trkpt lat="42.8593" lon="0.19851">
        <ele>2228</ele>
        <time>2011-07-21T10:06:15Z</time>
      </trkpt>
      <trkpt lat="42.85932" lon="0.19852">
        <ele>2229</ele>
        <time>2011-07-21T10:06:17Z</time>
      </trkpt>
      <trkpt lat="42.85935" lon="0.19852">
        <ele>2229</ele>
        <time>2011-07-21T10:06:21Z</time>
      </trkpt>
      <trkpt lat="42.85936" lon="0.19852">
        <ele>2230</ele>
        <time>2011-07-21T10:06:24Z</time>
      </trkpt>
      <trkpt lat="42.85938" lon="0.19851">
        <ele>2230</ele>
        <time>2011-07-21T10:06:26Z</time>
      </trkpt>
      <trkpt lat="42.8594" lon="0.1985">
        <ele>2231</ele>
        <time>2011-07-21T10:06:30Z</time>
      </trkpt>
      <trkpt lat="42.85942" lon="0.19849">
        <ele>2231</ele>
        <time>2011-07-21T10:06:32Z</time>
      </trkpt>
      <trkpt lat="42.85943" lon="0.19848">
        <ele>2231</ele>
        <time>2011-07-21T10:06:34Z</time>
      </trkpt>
      <trkpt lat="42.85946" lon="0.19846">
        <ele>2232</ele>
        <time>2011-07-21T10:06:39Z</time>
      </trkpt>
      <trkpt lat="42.85947" lon="0.19846">
        <ele>2233</ele>
        <time>2011-07-21T10:06:41Z</time>
      </trkpt>
      <trkpt lat="42.85949" lon="0.19846">
        <ele>2233</ele>
        <time>2011-07-21T10:06:43Z</time>
      </trkpt>
      <trkpt lat="42.85951" lon="0.19844">
        <ele>2233</ele>
        <time>2011-07-21T10:06:47Z</time>
      </trkpt>
      <trkpt lat="42.85952" lon="0.19845">
        <ele>2234</ele>
        <time>2011-07-21T10:06:49Z</time>
      </trkpt>
      <trkpt lat="42.85954" lon="0.19844">
        <ele>2234</ele>
        <time>2011-07-21T10:06:51Z</time>
      </trkpt>
      <trkpt lat="42.85956" lon="0.19843">
        <ele>2234</ele>
        <time>2011-07-21T10:06:56Z</time>
      </trkpt>
      <trkpt lat="42.85958" lon="0.19842">
        <ele>2235</ele>
        <time>2011-07-21T10:06:59Z</time>
      </trkpt>
      <trkpt lat="42.85959" lon="0.1984">
        <ele>2235</ele>
        <time>2011-07-21T10:07:02Z</time>
      </trkpt>
      <trkpt lat="42.85962" lon="0.19839">
        <ele>2237</ele>
        <time>2011-07-21T10:07:08Z</time>
      </trkpt>
      <trkpt lat="42.85964" lon="0.19837">
        <ele>2237</ele>
        <time>2011-07-21T10:07:11Z</time>
      </trkpt>
      <trkpt lat="42.85965" lon="0.19836">
        <ele>2238</ele>
        <time>2011-07-21T10:07:14Z</time>
      </trkpt>
      <trkpt lat="42.85968" lon="0.19838">
        <ele>2239</ele>
        <time>2011-07-21T10:07:19Z</time>
      </trkpt>
      <trkpt lat="42.85969" lon="0.19838">
        <ele>2239</ele>
        <time>2011-07-21T10:07:21Z</time>
      </trkpt>
      <trkpt lat="42.85973" lon="0.19835">
        <ele>2240</ele>
        <time>2011-07-21T10:07:29Z</time>
      </trkpt>
      <trkpt lat="42.85975" lon="0.19835">
        <ele>2241</ele>
        <time>2011-07-21T10:07:32Z</time>
      </trkpt>
      <trkpt lat="42.85976" lon="0.19834">
        <ele>2242</ele>
        <time>2011-07-21T10:07:35Z</time>
      </trkpt>
      <trkpt lat="42.85978" lon="0.19833">
        <ele>2242</ele>
        <time>2011-07-21T10:07:40Z</time>
      </trkpt>
      <trkpt lat="42.85979" lon="0.19831">
        <ele>2243</ele>
        <time>2011-07-21T10:07:42Z</time>
      </trkpt>
      <trkpt lat="42.85979" lon="0.1983">
        <ele>2243</ele>
        <time>2011-07-21T10:07:45Z</time>
      </trkpt>
      <trkpt lat="42.85982" lon="0.19828">
        <ele>2244</ele>
        <time>2011-07-21T10:07:50Z</time>
      </trkpt>
      <trkpt lat="42.85983" lon="0.19827">
        <ele>2244</ele>
        <time>2011-07-21T10:07:52Z</time>
      </trkpt>
      <trkpt lat="42.85984" lon="0.19826">
        <ele>2244</ele>
        <time>2011-07-21T10:07:54Z</time>
      </trkpt>
      <trkpt lat="42.85987" lon="0.19824">
        <ele>2245</ele>
        <time>2011-07-21T10:07:59Z</time>
      </trkpt>
      <trkpt lat="42.85989" lon="0.19823">
        <ele>2245</ele>
        <time>2011-07-21T10:08:01Z</time>
      </trkpt>
      <trkpt lat="42.8599" lon="0.19822">
        <ele>2246</ele>
        <time>2011-07-21T10:08:03Z</time>
      </trkpt>
      <trkpt lat="42.85992" lon="0.19821">
        <ele>2247</ele>
        <time>2011-07-21T10:08:07Z</time>
      </trkpt>
      <trkpt lat="42.85994" lon="0.1982">
        <ele>2247</ele>
        <time>2011-07-21T10:08:09Z</time>
      </trkpt>
      <trkpt lat="42.85995" lon="0.19819">
        <ele>2247</ele>
        <time>2011-07-21T10:08:11Z</time>
      </trkpt>
      <trkpt lat="42.85997" lon="0.19816">
        <ele>2247</ele>
        <time>2011-07-21T10:08:15Z</time>
      </trkpt>
      <trkpt lat="42.86" lon="0.19814">
        <ele>2248</ele>
        <time>2011-07-21T10:08:19Z</time>
      </trkpt>
      <trkpt lat="42.86001" lon="0.19812">
        <ele>2248</ele>
        <time>2011-07-21T10:08:21Z</time>
      </trkpt>
      <trkpt lat="42.86005" lon="0.19807">
        <ele>2249</ele>
        <time>2011-07-21T10:08:28Z</time>
      </trkpt>
      <trkpt lat="42.86006" lon="0.19805">
        <ele>2249</ele>
        <time>2011-07-21T10:08:30Z</time>
      </trkpt>
      <trkpt lat="42.86008" lon="0.19801">
        <ele>2249</ele>
        <time>2011-07-21T10:08:34Z</time>
      </trkpt>
      <trkpt lat="42.8601" lon="0.19796">
        <ele>2249</ele>
        <time>2011-07-21T10:08:38Z</time>
      </trkpt>
      <trkpt lat="42.8601" lon="0.19792">
        <ele>2249</ele>
        <time>2011-07-21T10:08:42Z</time>
      </trkpt>
      <trkpt lat="42.8601" lon="0.1979">
        <ele>2249</ele>
        <time>2011-07-21T10:08:44Z</time>
      </trkpt>
      <trkpt lat="42.8601" lon="0.19788">
        <ele>2249</ele>
        <time>2011-07-21T10:08:46Z</time>
      </trkpt>
      <trkpt lat="42.8601" lon="0.19783">
        <ele>2250</ele>
        <time>2011-07-21T10:08:50Z</time>
      </trkpt>
      <trkpt lat="42.8601" lon="0.19781">
        <ele>2250</ele>
        <time>2011-07-21T10:08:52Z</time>
      </trkpt>
      <trkpt lat="42.86011" lon="0.1978">
        <ele>2250</ele>
        <time>2011-07-21T10:08:54Z</time>
      </trkpt>
      <trkpt lat="42.86012" lon="0.19776">
        <ele>2250</ele>
        <time>2011-07-21T10:08:58Z</time>
      </trkpt>
      <trkpt lat="42.86011" lon="0.19774">
        <ele>2250</ele>
        <time>2011-07-21T10:09:00Z</time>
      </trkpt>
      <trkpt lat="42.86012" lon="0.19772">
        <ele>2250</ele>
        <time>2011-07-21T10:09:02Z</time>
      </trkpt>
      <trkpt lat="42.86012" lon="0.19768">
        <ele>2250</ele>
        <time>2011-07-21T10:09:06Z</time>
      </trkpt>
      <trkpt lat="42.86013" lon="0.19765">
        <ele>2250</ele>
        <time>2011-07-21T10:09:08Z</time>
      </trkpt>
      <trkpt lat="42.86014" lon="0.19763">
        <ele>2250</ele>
        <time>2011-07-21T10:09:10Z</time>
      </trkpt>
      <trkpt lat="42.86015" lon="0.19758">
        <ele>2250</ele>
        <time>2011-07-21T10:09:14Z</time>
      </trkpt>
      <trkpt lat="42.86016" lon="0.19755">
        <ele>2250</ele>
        <time>2011-07-21T10:09:16Z</time>
      </trkpt>
      <trkpt lat="42.86015" lon="0.19752">
        <ele>2250</ele>
        <time>2011-07-21T10:09:18Z</time>
      </trkpt>
      <trkpt lat="42.86016" lon="0.19746">
        <ele>2250</ele>
        <time>2011-07-21T10:09:23Z</time>
      </trkpt>
      <trkpt lat="42.86016" lon="0.19743">
        <ele>2250</ele>
        <time>2011-07-21T10:09:25Z</time>
      </trkpt>
      <trkpt lat="42.86017" lon="0.1974">
        <ele>2250</ele>
        <time>2011-07-21T10:09:27Z</time>
      </trkpt>
      <trkpt lat="42.86018" lon="0.19736">
        <ele>2250</ele>
        <time>2011-07-21T10:09:31Z</time>
      </trkpt>
      <trkpt lat="42.86018" lon="0.19735">
        <ele>2250</ele>
        <time>2011-07-21T10:09:37Z</time>
      </trkpt>
      <trkpt lat="42.86018" lon="0.19732">
        <ele>2250</ele>
        <time>2011-07-21T10:09:39Z</time>
      </trkpt>
      <trkpt lat="42.86018" lon="0.19727">
        <ele>2250</ele>
        <time>2011-07-21T10:09:57Z</time>
      </trkpt>
      <trkpt lat="42.86016" lon="0.19728">
        <ele>2250</ele>
        <time>2011-07-21T10:10:16Z</time>
      </trkpt>
      <trkpt lat="42.86015" lon="0.19727">
        <ele>2250</ele>
        <time>2011-07-21T10:10:40Z</time>
      </trkpt>
      <trkpt lat="42.86016" lon="0.19723">
        <ele>2250</ele>
        <time>2011-07-21T10:11:04Z</time>
      </trkpt>
      <trkpt lat="42.86016" lon="0.1972">
        <ele>2250</ele>
        <time>2011-07-21T10:11:06Z</time>
      </trkpt>
      <trkpt lat="42.86016" lon="0.19717">
        <ele>2250</ele>
        <time>2011-07-21T10:11:08Z</time>
      </trkpt>
      <trkpt lat="42.86016" lon="0.1971">
        <ele>2250</ele>
        <time>2011-07-21T10:11:12Z</time>
      </trkpt>
      <trkpt lat="42.86017" lon="0.19707">
        <ele>2250</ele>
        <time>2011-07-21T10:11:14Z</time>
      </trkpt>
      <trkpt lat="42.86017" lon="0.19703">
        <ele>2250</ele>
        <time>2011-07-21T10:11:16Z</time>
      </trkpt>
      <trkpt lat="42.86018" lon="0.19697">
        <ele>2250</ele>
        <time>2011-07-21T10:11:20Z</time>
      </trkpt>
      <trkpt lat="42.86019" lon="0.19694">
        <ele>2250</ele>
        <time>2011-07-21T10:11:22Z</time>
      </trkpt>
      <trkpt lat="42.86021" lon="0.19681">
        <ele>2250</ele>
        <time>2011-07-21T10:11:30Z</time>
      </trkpt>
      <trkpt lat="42.86022" lon="0.19678">
        <ele>2250</ele>
        <time>2011-07-21T10:11:32Z</time>
      </trkpt>
      <trkpt lat="42.86026" lon="0.1967">
        <ele>2250</ele>
        <time>2011-07-21T10:11:37Z</time>
      </trkpt>
      <trkpt lat="42.8603" lon="0.19663">
        <ele>2250</ele>
        <time>2011-07-21T10:11:42Z</time>
      </trkpt>
      <trkpt lat="42.86032" lon="0.19658">
        <ele>2250</ele>
        <time>2011-07-21T10:11:46Z</time>
      </trkpt>
      <trkpt lat="42.86033" lon="0.19654">
        <ele>2250</ele>
        <time>2011-07-21T10:11:48Z</time>
      </trkpt>
      <trkpt lat="42.86038" lon="0.19643">
        <ele>2250</ele>
        <time>2011-07-21T10:11:56Z</time>
      </trkpt>
      <trkpt lat="42.86039" lon="0.19641">
        <ele>2250</ele>
        <time>2011-07-21T10:11:58Z</time>
      </trkpt>
      <trkpt lat="42.8604" lon="0.19639">
        <ele>2250</ele>
        <time>2011-07-21T10:12:00Z</time>
      </trkpt>
      <trkpt lat="42.86042" lon="0.19635">
        <ele>2250</ele>
        <time>2011-07-21T10:12:04Z</time>
      </trkpt>
      <trkpt lat="42.86044" lon="0.19632">
        <ele>2250</ele>
        <time>2011-07-21T10:12:17Z</time>
      </trkpt>
      <trkpt lat="42.86044" lon="0.19629">
        <ele>2250</ele>
        <time>2011-07-21T10:12:30Z</time>
      </trkpt>
      <trkpt lat="42.86045" lon="0.19627">
        <ele>2250</ele>
        <time>2011-07-21T10:12:33Z</time>
      </trkpt>
      <trkpt lat="42.86047" lon="0.19626">
        <ele>2250</ele>
        <time>2011-07-21T10:12:35Z</time>
      </trkpt>
      <trkpt lat="42.8605" lon="0.19623">
        <ele>2250</ele>
        <time>2011-07-21T10:12:39Z</time>
      </trkpt>
      <trkpt lat="42.86051" lon="0.19621">
        <ele>2250</ele>
        <time>2011-07-21T10:12:41Z</time>
      </trkpt>
      <trkpt lat="42.86052" lon="0.19618">
        <ele>2250</ele>
        <time>2011-07-21T10:12:43Z</time>
      </trkpt>
      <trkpt lat="42.86054" lon="0.19615">
        <ele>2250</ele>
        <time>2011-07-21T10:12:48Z</time>
      </trkpt>
      <trkpt lat="42.86055" lon="0.19614">
        <ele>2250</ele>
        <time>2011-07-21T10:12:50Z</time>
      </trkpt>
      <trkpt lat="42.86057" lon="0.19613">
        <ele>2250</ele>
        <time>2011-07-21T10:12:52Z</time>
      </trkpt>
      <trkpt lat="42.8606" lon="0.19609">
        <ele>2250</ele>
        <time>2011-07-21T10:12:56Z</time>
      </trkpt>
      <trkpt lat="42.86061" lon="0.19607">
        <ele>2250</ele>
        <time>2011-07-21T10:12:58Z</time>
      </trkpt>
      <trkpt lat="42.86063" lon="0.19605">
        <ele>2250</ele>
        <time>2011-07-21T10:13:00Z</time>
      </trkpt>
      <trkpt lat="42.86066" lon="0.19602">
        <ele>2250</ele>
        <time>2011-07-21T10:13:04Z</time>
      </trkpt>
      <trkpt lat="42.86067" lon="0.19599">
        <ele>2250</ele>
        <time>2011-07-21T10:13:06Z</time>
      </trkpt>
      <trkpt lat="42.86069" lon="0.19595">
        <ele>2250</ele>
        <time>2011-07-21T10:13:09Z</time>
      </trkpt>
      <trkpt lat="42.86072" lon="0.1959">
        <ele>2250</ele>
        <time>2011-07-21T10:13:13Z</time>
      </trkpt>
      <trkpt lat="42.86073" lon="0.19588">
        <ele>2250</ele>
        <time>2011-07-21T10:13:15Z</time>
      </trkpt>
      <trkpt lat="42.86075" lon="0.19584">
        <ele>2250</ele>
        <time>2011-07-21T10:13:18Z</time>
      </trkpt>
      <trkpt lat="42.86077" lon="0.19579">
        <ele>2250</ele>
        <time>2011-07-21T10:13:22Z</time>
      </trkpt>
      <trkpt lat="42.86077" lon="0.19576">
        <ele>2250</ele>
        <time>2011-07-21T10:13:24Z</time>
      </trkpt>
      <trkpt lat="42.86081" lon="0.19569">
        <ele>2250</ele>
        <time>2011-07-21T10:13:31Z</time>
      </trkpt>
      <trkpt lat="42.86083" lon="0.19567">
        <ele>2250</ele>
        <time>2011-07-21T10:13:33Z</time>
      </trkpt>
      <trkpt lat="42.86084" lon="0.19565">
        <ele>2250</ele>
        <time>2011-07-21T10:13:35Z</time>
      </trkpt>
      <trkpt lat="42.86085" lon="0.19561">
        <ele>2250</ele>
        <time>2011-07-21T10:13:39Z</time>
      </trkpt>
      <trkpt lat="42.86087" lon="0.19558">
        <ele>2250</ele>
        <time>2011-07-21T10:13:43Z</time>
      </trkpt>
      <trkpt lat="42.86092" lon="0.19548">
        <ele>2250</ele>
        <time>2011-07-21T10:13:52Z</time>
      </trkpt>
      <trkpt lat="42.86097" lon="0.19538">
        <ele>2250</ele>
        <time>2011-07-21T10:13:59Z</time>
      </trkpt>
      <trkpt lat="42.86103" lon="0.19528">
        <ele>2250</ele>
        <time>2011-07-21T10:14:07Z</time>
      </trkpt>
      <trkpt lat="42.86104" lon="0.19525">
        <ele>2250</ele>
        <time>2011-07-21T10:14:09Z</time>
      </trkpt>
      <trkpt lat="42.86105" lon="0.19522">
        <ele>2250</ele>
        <time>2011-07-21T10:14:11Z</time>
      </trkpt>
      <trkpt lat="42.86107" lon="0.19516">
        <ele>2250</ele>
        <time>2011-07-21T10:14:15Z</time>
      </trkpt>
      <trkpt lat="42.86108" lon="0.19513">
        <ele>2250</ele>
        <time>2011-07-21T10:14:17Z</time>
      </trkpt>
      <trkpt lat="42.86108" lon="0.1951">
        <ele>2250</ele>
        <time>2011-07-21T10:14:19Z</time>
      </trkpt>
      <trkpt lat="42.86108" lon="0.19503">
        <ele>2250</ele>
        <time>2011-07-21T10:14:23Z</time>
      </trkpt>
      <trkpt lat="42.86109" lon="0.195">
        <ele>2250</ele>
        <time>2011-07-21T10:14:25Z</time>
      </trkpt>
      <trkpt lat="42.8611" lon="0.19497">
        <ele>2250</ele>
        <time>2011-07-21T10:14:28Z</time>
      </trkpt>
      <trkpt lat="42.86111" lon="0.19497">
        <ele>2250</ele>
        <time>2011-07-21T10:14:56Z</time>
      </trkpt>
      <trkpt lat="42.86112" lon="0.19494">
        <ele>2250</ele>
        <time>2011-07-21T10:15:01Z</time>
      </trkpt>
      <trkpt lat="42.86113" lon="0.19491">
        <ele>2250</ele>
        <time>2011-07-21T10:15:03Z</time>
      </trkpt>
      <trkpt lat="42.86115" lon="0.19488">
        <ele>2250</ele>
        <time>2011-07-21T10:15:22Z</time>
      </trkpt>
      <trkpt lat="42.86116" lon="0.19485">
        <ele>2250</ele>
        <time>2011-07-21T10:15:24Z</time>
      </trkpt>
      <trkpt lat="42.86117" lon="0.19483">
        <ele>2250</ele>
        <time>2011-07-21T10:15:26Z</time>
      </trkpt>
      <trkpt lat="42.86121" lon="0.19479">
        <ele>2250</ele>
        <time>2011-07-21T10:15:30Z</time>
      </trkpt>
      <trkpt lat="42.86128" lon="0.19476">
        <ele>2250</ele>
        <time>2011-07-21T10:15:36Z</time>
      </trkpt>
      <trkpt lat="42.86133" lon="0.19473">
        <ele>2250</ele>
        <time>2011-07-21T10:15:41Z</time>
      </trkpt>
      <trkpt lat="42.86135" lon="0.19471">
        <ele>2250</ele>
        <time>2011-07-21T10:15:43Z</time>
      </trkpt>
      <trkpt lat="42.86137" lon="0.19469">
        <ele>2250</ele>
        <time>2011-07-21T10:15:45Z</time>
      </trkpt>
      <trkpt lat="42.86142" lon="0.19463">
        <ele>2250</ele>
        <time>2011-07-21T10:15:52Z</time>
      </trkpt>
      <trkpt lat="42.86143" lon="0.19461">
        <ele>2250</ele>
        <time>2011-07-21T10:15:54Z</time>
      </trkpt>
      <trkpt lat="42.86146" lon="0.19458">
        <ele>2250</ele>
        <time>2011-07-21T10:15:58Z</time>
      </trkpt>
      <trkpt lat="42.86147" lon="0.19455">
        <ele>2250</ele>
        <time>2011-07-21T10:16:02Z</time>
      </trkpt>
      <trkpt lat="42.8615" lon="0.19453">
        <ele>2251</ele>
        <time>2011-07-21T10:16:06Z</time>
      </trkpt>
      <trkpt lat="42.86151" lon="0.19452">
        <ele>2251</ele>
        <time>2011-07-21T10:16:08Z</time>
      </trkpt>
      <trkpt lat="42.86155" lon="0.19445">
        <ele>2252</ele>
        <time>2011-07-21T10:16:16Z</time>
      </trkpt>
      <trkpt lat="42.86156" lon="0.19444">
        <ele>2252</ele>
        <time>2011-07-21T10:16:18Z</time>
      </trkpt>
      <trkpt lat="42.86156" lon="0.19442">
        <ele>2253</ele>
        <time>2011-07-21T10:16:21Z</time>
      </trkpt>
      <trkpt lat="42.86158" lon="0.19439">
        <ele>2254</ele>
        <time>2011-07-21T10:16:27Z</time>
      </trkpt>
      <trkpt lat="42.86159" lon="0.19439">
        <ele>2254</ele>
        <time>2011-07-21T10:16:29Z</time>
      </trkpt>
      <trkpt lat="42.8616" lon="0.19439">
        <ele>2254</ele>
        <time>2011-07-21T10:16:31Z</time>
      </trkpt>
      <trkpt lat="42.86163" lon="0.19436">
        <ele>2256</ele>
        <time>2011-07-21T10:16:38Z</time>
      </trkpt>
      <trkpt lat="42.86164" lon="0.19435">
        <ele>2256</ele>
        <time>2011-07-21T10:16:40Z</time>
      </trkpt>
      <trkpt lat="42.86166" lon="0.19434">
        <ele>2257</ele>
        <time>2011-07-21T10:16:43Z</time>
      </trkpt>
      <trkpt lat="42.86168" lon="0.19433">
        <ele>2257</ele>
        <time>2011-07-21T10:16:47Z</time>
      </trkpt>
      <trkpt lat="42.8617" lon="0.19433">
        <ele>2258</ele>
        <time>2011-07-21T10:16:51Z</time>
      </trkpt>
      <trkpt lat="42.86171" lon="0.19431">
        <ele>2259</ele>
        <time>2011-07-21T10:16:55Z</time>
      </trkpt>
      <trkpt lat="42.86174" lon="0.19429">
        <ele>2261</ele>
        <time>2011-07-21T10:17:01Z</time>
      </trkpt>
      <trkpt lat="42.86175" lon="0.19428">
        <ele>2261</ele>
        <time>2011-07-21T10:17:04Z</time>
      </trkpt>
      <trkpt lat="42.86176" lon="0.19427">
        <ele>2262</ele>
        <time>2011-07-21T10:17:08Z</time>
      </trkpt>
      <trkpt lat="42.86179" lon="0.19425">
        <ele>2263</ele>
        <time>2011-07-21T10:17:14Z</time>
      </trkpt>
      <trkpt lat="42.8618" lon="0.19426">
        <ele>2264</ele>
        <time>2011-07-21T10:17:16Z</time>
      </trkpt>
      <trkpt lat="42.86181" lon="0.19425">
        <ele>2264</ele>
        <time>2011-07-21T10:17:19Z</time>
      </trkpt>
      <trkpt lat="42.86184" lon="0.19423">
        <ele>2265</ele>
        <time>2011-07-21T10:17:27Z</time>
      </trkpt>
      <trkpt lat="42.86185" lon="0.19423">
        <ele>2265</ele>
        <time>2011-07-21T10:17:30Z</time>
      </trkpt>
      <trkpt lat="42.86188" lon="0.19421">
        <ele>2267</ele>
        <time>2011-07-21T10:17:42Z</time>
      </trkpt>
      <trkpt lat="42.86188" lon="0.19419">
        <ele>2267</ele>
        <time>2011-07-21T10:17:44Z</time>
      </trkpt>
      <trkpt lat="42.86189" lon="0.19418">
        <ele>2268</ele>
        <time>2011-07-21T10:17:48Z</time>
      </trkpt>
      <trkpt lat="42.8619" lon="0.19414">
        <ele>2269</ele>
        <time>2011-07-21T10:17:55Z</time>
      </trkpt>
      <trkpt lat="42.86192" lon="0.19412">
        <ele>2269</ele>
        <time>2011-07-21T10:17:58Z</time>
      </trkpt>
      <trkpt lat="42.86193" lon="0.19412">
        <ele>2270</ele>
        <time>2011-07-21T10:18:01Z</time>
      </trkpt>
      <trkpt lat="42.86195" lon="0.19409">
        <ele>2271</ele>
        <time>2011-07-21T10:18:07Z</time>
      </trkpt>
      <trkpt lat="42.86196" lon="0.19407">
        <ele>2271</ele>
        <time>2011-07-21T10:18:09Z</time>
      </trkpt>
      <trkpt lat="42.86197" lon="0.19406">
        <ele>2271</ele>
        <time>2011-07-21T10:18:11Z</time>
      </trkpt>
      <trkpt lat="42.862" lon="0.19403">
        <ele>2271</ele>
        <time>2011-07-21T10:18:15Z</time>
      </trkpt>
      <trkpt lat="42.862" lon="0.19401">
        <ele>2272</ele>
        <time>2011-07-21T10:18:17Z</time>
      </trkpt>
      <trkpt lat="42.86201" lon="0.19399">
        <ele>2272</ele>
        <time>2011-07-21T10:18:19Z</time>
      </trkpt>
      <trkpt lat="42.86203" lon="0.19397">
        <ele>2273</ele>
        <time>2011-07-21T10:18:23Z</time>
      </trkpt>
      <trkpt lat="42.86205" lon="0.19395">
        <ele>2273</ele>
        <time>2011-07-21T10:18:25Z</time>
      </trkpt>
      <trkpt lat="42.86206" lon="0.19395">
        <ele>2274</ele>
        <time>2011-07-21T10:18:27Z</time>
      </trkpt>
      <trkpt lat="42.86209" lon="0.19392">
        <ele>2275</ele>
        <time>2011-07-21T10:18:32Z</time>
      </trkpt>
      <trkpt lat="42.8621" lon="0.19391">
        <ele>2275</ele>
        <time>2011-07-21T10:18:34Z</time>
      </trkpt>
      <trkpt lat="42.86211" lon="0.19389">
        <ele>2275</ele>
        <time>2011-07-21T10:18:36Z</time>
      </trkpt>
      <trkpt lat="42.86214" lon="0.19383">
        <ele>2275</ele>
        <time>2011-07-21T10:18:42Z</time>
      </trkpt>
      <trkpt lat="42.86216" lon="0.19382">
        <ele>2275</ele>
        <time>2011-07-21T10:18:44Z</time>
      </trkpt>
      <trkpt lat="42.86219" lon="0.19379">
        <ele>2275</ele>
        <time>2011-07-21T10:18:48Z</time>
      </trkpt>
      <trkpt lat="42.86221" lon="0.19378">
        <ele>2275</ele>
        <time>2011-07-21T10:18:51Z</time>
      </trkpt>
      <trkpt lat="42.86222" lon="0.19377">
        <ele>2275</ele>
        <time>2011-07-21T10:18:53Z</time>
      </trkpt>
      <trkpt lat="42.86227" lon="0.19376">
        <ele>2275</ele>
        <time>2011-07-21T10:19:13Z</time>
      </trkpt>
      <trkpt lat="42.86227" lon="0.19378">
        <ele>2275</ele>
        <time>2011-07-21T10:20:26Z</time>
      </trkpt>
      <trkpt lat="42.86226" lon="0.19377">
        <ele>2275</ele>
        <time>2011-07-21T10:21:43Z</time>
      </trkpt>
      <trkpt lat="42.86227" lon="0.19379">
        <ele>2275</ele>
        <time>2011-07-21T10:21:50Z</time>
      </trkpt>
      <trkpt lat="42.86226" lon="0.19377">
        <ele>2275</ele>
        <time>2011-07-21T10:21:56Z</time>
      </trkpt>
      <trkpt lat="42.86229" lon="0.19379">
        <ele>2275</ele>
        <time>2011-07-21T10:22:13Z</time>
      </trkpt>
      <trkpt lat="42.86227" lon="0.19377">
        <ele>2275</ele>
        <time>2011-07-21T10:22:34Z</time>
      </trkpt>
      <trkpt lat="42.86225" lon="0.19377">
        <ele>2275</ele>
        <time>2011-07-21T10:22:40Z</time>
      </trkpt>
      <trkpt lat="42.86224" lon="0.19376">
        <ele>2272</ele>
        <time>2011-07-21T10:22:54Z</time>
      </trkpt>
      <trkpt lat="42.86225" lon="0.19377">
        <ele>2272</ele>
        <time>2011-07-21T10:23:02Z</time>
      </trkpt>
      <trkpt lat="42.86227" lon="0.19376">
        <ele>2272</ele>
        <time>2011-07-21T10:23:07Z</time>
      </trkpt>
      <trkpt lat="42.8623" lon="0.19371">
        <ele>2272</ele>
        <time>2011-07-21T10:23:14Z</time>
      </trkpt>
      <trkpt lat="42.86232" lon="0.19368">
        <ele>2272</ele>
        <time>2011-07-21T10:23:21Z</time>
      </trkpt>
      <trkpt lat="42.86236" lon="0.19365">
        <ele>2272</ele>
        <time>2011-07-21T10:23:23Z</time>
      </trkpt>
      <trkpt lat="42.86237" lon="0.19358">
        <ele>2269</ele>
        <time>2011-07-21T10:23:34Z</time>
      </trkpt>
      <trkpt lat="42.86238" lon="0.19355">
        <ele>2268</ele>
        <time>2011-07-21T10:23:37Z</time>
      </trkpt>
      <trkpt lat="42.86241" lon="0.19353">
        <ele>2267</ele>
        <time>2011-07-21T10:23:43Z</time>
      </trkpt>
      <trkpt lat="42.86248" lon="0.19351">
        <ele>2265</ele>
        <time>2011-07-21T10:23:51Z</time>
      </trkpt>
      <trkpt lat="42.86249" lon="0.19349">
        <ele>2264</ele>
        <time>2011-07-21T10:23:56Z</time>
      </trkpt>
      <trkpt lat="42.86251" lon="0.19344">
        <ele>2263</ele>
        <time>2011-07-21T10:23:59Z</time>
      </trkpt>
      <trkpt lat="42.86257" lon="0.1934">
        <ele>2262</ele>
        <time>2011-07-21T10:24:06Z</time>
      </trkpt>
      <trkpt lat="42.86258" lon="0.19336">
        <ele>2261</ele>
        <time>2011-07-21T10:24:10Z</time>
      </trkpt>
      <trkpt lat="42.86264" lon="0.19329">
        <ele>2259</ele>
        <time>2011-07-21T10:24:46Z</time>
      </trkpt>
      <trkpt lat="42.86267" lon="0.19327">
        <ele>2259</ele>
        <time>2011-07-21T10:24:52Z</time>
      </trkpt>
      <trkpt lat="42.86274" lon="0.19325">
        <ele>2259</ele>
        <time>2011-07-21T10:24:54Z</time>
      </trkpt>
      <trkpt lat="42.86279" lon="0.19327">
        <ele>2259</ele>
        <time>2011-07-21T10:25:00Z</time>
      </trkpt>
      <trkpt lat="42.86283" lon="0.19325">
        <ele>2259</ele>
        <time>2011-07-21T10:25:06Z</time>
      </trkpt>
      <trkpt lat="42.86289" lon="0.19322">
        <ele>2259</ele>
        <time>2011-07-21T10:25:12Z</time>
      </trkpt>
      <trkpt lat="42.86294" lon="0.19322">
        <ele>2259</ele>
        <time>2011-07-21T10:25:18Z</time>
      </trkpt>
      <trkpt lat="42.86296" lon="0.19321">
        <ele>2259</ele>
        <time>2011-07-21T10:25:20Z</time>
      </trkpt>
      <trkpt lat="42.86302" lon="0.19316">
        <ele>2259</ele>
        <time>2011-07-21T10:25:26Z</time>
      </trkpt>
      <trkpt lat="42.86303" lon="0.19315">
        <ele>2259</ele>
        <time>2011-07-21T10:25:28Z</time>
      </trkpt>
      <trkpt lat="42.86305" lon="0.19313">
        <ele>2259</ele>
        <time>2011-07-21T10:25:30Z</time>
      </trkpt>
      <trkpt lat="42.86308" lon="0.19311">
        <ele>2259</ele>
        <time>2011-07-21T10:25:34Z</time>
      </trkpt>
      <trkpt lat="42.86309" lon="0.1931">
        <ele>2259</ele>
        <time>2011-07-21T10:25:36Z</time>
      </trkpt>
      <trkpt lat="42.86311" lon="0.1931">
        <ele>2259</ele>
        <time>2011-07-21T10:25:38Z</time>
      </trkpt>
      <trkpt lat="42.86314" lon="0.19307">
        <ele>2259</ele>
        <time>2011-07-21T10:25:42Z</time>
      </trkpt>
      <trkpt lat="42.86316" lon="0.19305">
        <ele>2259</ele>
        <time>2011-07-21T10:25:44Z</time>
      </trkpt>
      <trkpt lat="42.86324" lon="0.19298">
        <ele>2259</ele>
        <time>2011-07-21T10:25:52Z</time>
      </trkpt>
      <trkpt lat="42.86326" lon="0.19296">
        <ele>2259</ele>
        <time>2011-07-21T10:25:54Z</time>
      </trkpt>
      <trkpt lat="42.86329" lon="0.19296">
        <ele>2259</ele>
        <time>2011-07-21T10:25:58Z</time>
      </trkpt>
      <trkpt lat="42.8633" lon="0.19295">
        <ele>2260</ele>
        <time>2011-07-21T10:26:00Z</time>
      </trkpt>
      <trkpt lat="42.86332" lon="0.19293">
        <ele>2260</ele>
        <time>2011-07-21T10:26:02Z</time>
      </trkpt>
      <trkpt lat="42.86334" lon="0.1929">
        <ele>2261</ele>
        <time>2011-07-21T10:26:06Z</time>
      </trkpt>
      <trkpt lat="42.86336" lon="0.19289">
        <ele>2262</ele>
        <time>2011-07-21T10:26:08Z</time>
      </trkpt>
      <trkpt lat="42.86338" lon="0.19289">
        <ele>2262</ele>
        <time>2011-07-21T10:26:10Z</time>
      </trkpt>
      <trkpt lat="42.86343" lon="0.19285">
        <ele>2263</ele>
        <time>2011-07-21T10:26:16Z</time>
      </trkpt>
      <trkpt lat="42.86345" lon="0.19285">
        <ele>2263</ele>
        <time>2011-07-21T10:26:18Z</time>
      </trkpt>
      <trkpt lat="42.86348" lon="0.19282">
        <ele>2263</ele>
        <time>2011-07-21T10:26:22Z</time>
      </trkpt>
      <trkpt lat="42.86349" lon="0.19279">
        <ele>2263</ele>
        <time>2011-07-21T10:26:24Z</time>
      </trkpt>
      <trkpt lat="42.8635" lon="0.19275">
        <ele>2263</ele>
        <time>2011-07-21T10:26:27Z</time>
      </trkpt>
      <trkpt lat="42.86354" lon="0.19274">
        <ele>2263</ele>
        <time>2011-07-21T10:26:31Z</time>
      </trkpt>
      <trkpt lat="42.86357" lon="0.19273">
        <ele>2263</ele>
        <time>2011-07-21T10:26:34Z</time>
      </trkpt>
      <trkpt lat="42.86359" lon="0.19273">
        <ele>2263</ele>
        <time>2011-07-21T10:26:36Z</time>
      </trkpt>
      <trkpt lat="42.86363" lon="0.19271">
        <ele>2263</ele>
        <time>2011-07-21T10:26:40Z</time>
      </trkpt>
      <trkpt lat="42.86364" lon="0.19269">
        <ele>2263</ele>
        <time>2011-07-21T10:26:42Z</time>
      </trkpt>
      <trkpt lat="42.86366" lon="0.19267">
        <ele>2263</ele>
        <time>2011-07-21T10:26:44Z</time>
      </trkpt>
      <trkpt lat="42.86369" lon="0.19264">
        <ele>2263</ele>
        <time>2011-07-21T10:26:48Z</time>
      </trkpt>
      <trkpt lat="42.8637" lon="0.19263">
        <ele>2263</ele>
        <time>2011-07-21T10:26:50Z</time>
      </trkpt>
      <trkpt lat="42.86371" lon="0.19261">
        <ele>2263</ele>
        <time>2011-07-21T10:26:52Z</time>
      </trkpt>
      <trkpt lat="42.86372" lon="0.19255">
        <ele>2263</ele>
        <time>2011-07-21T10:26:56Z</time>
      </trkpt>
      <trkpt lat="42.86375" lon="0.19248">
        <ele>2263</ele>
        <time>2011-07-21T10:27:06Z</time>
      </trkpt>
      <trkpt lat="42.86378" lon="0.19245">
        <ele>2263</ele>
        <time>2011-07-21T10:27:10Z</time>
      </trkpt>
      <trkpt lat="42.8638" lon="0.19243">
        <ele>2263</ele>
        <time>2011-07-21T10:27:15Z</time>
      </trkpt>
      <trkpt lat="42.86382" lon="0.19243">
        <ele>2263</ele>
        <time>2011-07-21T10:27:17Z</time>
      </trkpt>
      <trkpt lat="42.86383" lon="0.19243">
        <ele>2263</ele>
        <time>2011-07-21T10:27:19Z</time>
      </trkpt>
      <trkpt lat="42.86386" lon="0.19242">
        <ele>2263</ele>
        <time>2011-07-21T10:27:23Z</time>
      </trkpt>
      <trkpt lat="42.86387" lon="0.1924">
        <ele>2263</ele>
        <time>2011-07-21T10:27:25Z</time>
      </trkpt>
      <trkpt lat="42.86388" lon="0.19237">
        <ele>2263</ele>
        <time>2011-07-21T10:27:27Z</time>
      </trkpt>
      <trkpt lat="42.8639" lon="0.19231">
        <ele>2263</ele>
        <time>2011-07-21T10:27:32Z</time>
      </trkpt>
      <trkpt lat="42.86391" lon="0.19229">
        <ele>2263</ele>
        <time>2011-07-21T10:27:34Z</time>
      </trkpt>
      <trkpt lat="42.86393" lon="0.19227">
        <ele>2262</ele>
        <time>2011-07-21T10:27:36Z</time>
      </trkpt>
      <trkpt lat="42.86396" lon="0.19226">
        <ele>2262</ele>
        <time>2011-07-21T10:27:40Z</time>
      </trkpt>
      <trkpt lat="42.86397" lon="0.19226">
        <ele>2262</ele>
        <time>2011-07-21T10:27:42Z</time>
      </trkpt>
      <trkpt lat="42.86399" lon="0.19225">
        <ele>2261</ele>
        <time>2011-07-21T10:27:44Z</time>
      </trkpt>
      <trkpt lat="42.86402" lon="0.19224">
        <ele>2260</ele>
        <time>2011-07-21T10:27:48Z</time>
      </trkpt>
      <trkpt lat="42.86404" lon="0.19224">
        <ele>2260</ele>
        <time>2011-07-21T10:27:50Z</time>
      </trkpt>
      <trkpt lat="42.86406" lon="0.19223">
        <ele>2259</ele>
        <time>2011-07-21T10:27:52Z</time>
      </trkpt>
      <trkpt lat="42.86411" lon="0.19218">
        <ele>2259</ele>
        <time>2011-07-21T10:27:57Z</time>
      </trkpt>
      <trkpt lat="42.86414" lon="0.19216">
        <ele>2259</ele>
        <time>2011-07-21T10:28:00Z</time>
      </trkpt>
      <trkpt lat="42.86416" lon="0.19214">
        <ele>2259</ele>
        <time>2011-07-21T10:28:02Z</time>
      </trkpt>
      <trkpt lat="42.86424" lon="0.19211">
        <ele>2258</ele>
        <time>2011-07-21T10:28:09Z</time>
      </trkpt>
      <trkpt lat="42.86426" lon="0.19209">
        <ele>2258</ele>
        <time>2011-07-21T10:28:11Z</time>
      </trkpt>
      <trkpt lat="42.86428" lon="0.19206">
        <ele>2258</ele>
        <time>2011-07-21T10:28:13Z</time>
      </trkpt>
      <trkpt lat="42.86433" lon="0.192">
        <ele>2257</ele>
        <time>2011-07-21T10:28:19Z</time>
      </trkpt>
      <trkpt lat="42.86434" lon="0.19197">
        <ele>2256</ele>
        <time>2011-07-21T10:28:21Z</time>
      </trkpt>
      <trkpt lat="42.86438" lon="0.19193">
        <ele>2256</ele>
        <time>2011-07-21T10:28:25Z</time>
      </trkpt>
      <trkpt lat="42.86442" lon="0.19189">
        <ele>2256</ele>
        <time>2011-07-21T10:28:30Z</time>
      </trkpt>
      <trkpt lat="42.86452" lon="0.19183">
        <ele>2255</ele>
        <time>2011-07-21T10:28:39Z</time>
      </trkpt>
      <trkpt lat="42.86454" lon="0.19182">
        <ele>2255</ele>
        <time>2011-07-21T10:28:41Z</time>
      </trkpt>
      <trkpt lat="42.86457" lon="0.19182">
        <ele>2255</ele>
        <time>2011-07-21T10:28:43Z</time>
      </trkpt>
      <trkpt lat="42.8646" lon="0.19176">
        <ele>2255</ele>
        <time>2011-07-21T10:28:49Z</time>
      </trkpt>
      <trkpt lat="42.86461" lon="0.19172">
        <ele>2255</ele>
        <time>2011-07-21T10:28:52Z</time>
      </trkpt>
      <trkpt lat="42.86462" lon="0.19169">
        <ele>2255</ele>
        <time>2011-07-21T10:28:54Z</time>
      </trkpt>
      <trkpt lat="42.86465" lon="0.19166">
        <ele>2254</ele>
        <time>2011-07-21T10:28:58Z</time>
      </trkpt>
      <trkpt lat="42.86467" lon="0.19167">
        <ele>2254</ele>
        <time>2011-07-21T10:29:00Z</time>
      </trkpt>
      <trkpt lat="42.86477" lon="0.19166">
        <ele>2253</ele>
        <time>2011-07-21T10:29:11Z</time>
      </trkpt>
      <trkpt lat="42.8648" lon="0.19169">
        <ele>2253</ele>
        <time>2011-07-21T10:29:14Z</time>
      </trkpt>
      <trkpt lat="42.86482" lon="0.1917">
        <ele>2253</ele>
        <time>2011-07-21T10:29:16Z</time>
      </trkpt>
      <trkpt lat="42.86486" lon="0.19169">
        <ele>2253</ele>
        <time>2011-07-21T10:29:21Z</time>
      </trkpt>
      <trkpt lat="42.86488" lon="0.19168">
        <ele>2253</ele>
        <time>2011-07-21T10:29:24Z</time>
      </trkpt>
      <trkpt lat="42.8649" lon="0.19168">
        <ele>2253</ele>
        <time>2011-07-21T10:29:26Z</time>
      </trkpt>
      <trkpt lat="42.86496" lon="0.19156">
        <ele>2253</ele>
        <time>2011-07-21T10:29:38Z</time>
      </trkpt>
      <trkpt lat="42.86497" lon="0.19153">
        <ele>2253</ele>
        <time>2011-07-21T10:30:22Z</time>
      </trkpt>
      <trkpt lat="42.86497" lon="0.19151">
        <ele>2253</ele>
        <time>2011-07-21T10:30:38Z</time>
      </trkpt>
      <trkpt lat="42.86498" lon="0.19151">
        <ele>2253</ele>
        <time>2011-07-21T10:31:13Z</time>
      </trkpt>
      <trkpt lat="42.86499" lon="0.19148">
        <ele>2253</ele>
        <time>2011-07-21T10:31:18Z</time>
      </trkpt>
      <trkpt lat="42.86499" lon="0.19146">
        <ele>2253</ele>
        <time>2011-07-21T10:31:27Z</time>
      </trkpt>
      <trkpt lat="42.865" lon="0.19145">
        <ele>2253</ele>
        <time>2011-07-21T10:31:43Z</time>
      </trkpt>
      <trkpt lat="42.86503" lon="0.19139">
        <ele>2253</ele>
        <time>2011-07-21T10:32:21Z</time>
      </trkpt>
      <trkpt lat="42.86504" lon="0.19138">
        <ele>2252</ele>
        <time>2011-07-21T10:32:23Z</time>
      </trkpt>
      <trkpt lat="42.86505" lon="0.19136">
        <ele>2252</ele>
        <time>2011-07-21T10:32:26Z</time>
      </trkpt>
      <trkpt lat="42.86509" lon="0.19135">
        <ele>2251</ele>
        <time>2011-07-21T10:32:35Z</time>
      </trkpt>
      <trkpt lat="42.8651" lon="0.19134">
        <ele>2250</ele>
        <time>2011-07-21T10:32:38Z</time>
      </trkpt>
      <trkpt lat="42.86512" lon="0.19134">
        <ele>2249</ele>
        <time>2011-07-21T10:32:42Z</time>
      </trkpt>
      <trkpt lat="42.86517" lon="0.19132">
        <ele>2249</ele>
        <time>2011-07-21T10:32:49Z</time>
      </trkpt>
      <trkpt lat="42.86517" lon="0.1913">
        <ele>2249</ele>
        <time>2011-07-21T10:32:51Z</time>
      </trkpt>
      <trkpt lat="42.8652" lon="0.19129">
        <ele>2248</ele>
        <time>2011-07-21T10:32:55Z</time>
      </trkpt>
      <trkpt lat="42.86525" lon="0.19128">
        <ele>2247</ele>
        <time>2011-07-21T10:33:01Z</time>
      </trkpt>
      <trkpt lat="42.86526" lon="0.19126">
        <ele>2246</ele>
        <time>2011-07-21T10:33:03Z</time>
      </trkpt>
      <trkpt lat="42.86527" lon="0.19123">
        <ele>2245</ele>
        <time>2011-07-21T10:33:07Z</time>
      </trkpt>
      <trkpt lat="42.86529" lon="0.19117">
        <ele>2245</ele>
        <time>2011-07-21T10:33:13Z</time>
      </trkpt>
      <trkpt lat="42.86531" lon="0.19114">
        <ele>2245</ele>
        <time>2011-07-21T10:33:15Z</time>
      </trkpt>
      <trkpt lat="42.86532" lon="0.19113">
        <ele>2245</ele>
        <time>2011-07-21T10:33:17Z</time>
      </trkpt>
      <trkpt lat="42.86534" lon="0.19109">
        <ele>2245</ele>
        <time>2011-07-21T10:33:21Z</time>
      </trkpt>
      <trkpt lat="42.86537" lon="0.19106">
        <ele>2245</ele>
        <time>2011-07-21T10:33:25Z</time>
      </trkpt>
      <trkpt lat="42.86541" lon="0.19103">
        <ele>2245</ele>
        <time>2011-07-21T10:33:33Z</time>
      </trkpt>
      <trkpt lat="42.86543" lon="0.19103">
        <ele>2245</ele>
        <time>2011-07-21T10:33:36Z</time>
      </trkpt>
      <trkpt lat="42.86544" lon="0.19102">
        <ele>2245</ele>
        <time>2011-07-21T10:33:39Z</time>
      </trkpt>
      <trkpt lat="42.86546" lon="0.19097">
        <ele>2245</ele>
        <time>2011-07-21T10:33:45Z</time>
      </trkpt>
      <trkpt lat="42.86548" lon="0.19096">
        <ele>2245</ele>
        <time>2011-07-21T10:33:47Z</time>
      </trkpt>
      <trkpt lat="42.86551" lon="0.19094">
        <ele>2244</ele>
        <time>2011-07-21T10:33:50Z</time>
      </trkpt>
      <trkpt lat="42.86558" lon="0.19092">
        <ele>2242</ele>
        <time>2011-07-21T10:33:57Z</time>
      </trkpt>
      <trkpt lat="42.8656" lon="0.1909">
        <ele>2242</ele>
        <time>2011-07-21T10:34:01Z</time>
      </trkpt>
      <trkpt lat="42.86566" lon="0.19088">
        <ele>2241</ele>
        <time>2011-07-21T10:34:12Z</time>
      </trkpt>
      <trkpt lat="42.8657" lon="0.19083">
        <ele>2239</ele>
        <time>2011-07-21T10:34:19Z</time>
      </trkpt>
      <trkpt lat="42.86571" lon="0.19081">
        <ele>2239</ele>
        <time>2011-07-21T10:34:21Z</time>
      </trkpt>
      <trkpt lat="42.86573" lon="0.1908">
        <ele>2238</ele>
        <time>2011-07-21T10:34:23Z</time>
      </trkpt>
      <trkpt lat="42.86578" lon="0.19076">
        <ele>2237</ele>
        <time>2011-07-21T10:34:29Z</time>
      </trkpt>
      <trkpt lat="42.8658" lon="0.19074">
        <ele>2236</ele>
        <time>2011-07-21T10:34:31Z</time>
      </trkpt>
      <trkpt lat="42.86584" lon="0.19072">
        <ele>2235</ele>
        <time>2011-07-21T10:34:35Z</time>
      </trkpt>
      <trkpt lat="42.86586" lon="0.19072">
        <ele>2234</ele>
        <time>2011-07-21T10:34:37Z</time>
      </trkpt>
      <trkpt lat="42.86588" lon="0.1907">
        <ele>2234</ele>
        <time>2011-07-21T10:34:39Z</time>
      </trkpt>
      <trkpt lat="42.86593" lon="0.19066">
        <ele>2232</ele>
        <time>2011-07-21T10:34:45Z</time>
      </trkpt>
      <trkpt lat="42.86595" lon="0.19065">
        <ele>2231</ele>
        <time>2011-07-21T10:34:47Z</time>
      </trkpt>
      <trkpt lat="42.86598" lon="0.19064">
        <ele>2230</ele>
        <time>2011-07-21T10:34:51Z</time>
      </trkpt>
      <trkpt lat="42.86602" lon="0.19064">
        <ele>2229</ele>
        <time>2011-07-21T10:34:54Z</time>
      </trkpt>
      <trkpt lat="42.86609" lon="0.19061">
        <ele>2228</ele>
        <time>2011-07-21T10:35:01Z</time>
      </trkpt>
      <trkpt lat="42.8661" lon="0.19061">
        <ele>2228</ele>
        <time>2011-07-21T10:35:03Z</time>
      </trkpt>
      <trkpt lat="42.86611" lon="0.19059">
        <ele>2228</ele>
        <time>2011-07-21T10:35:05Z</time>
      </trkpt>
      <trkpt lat="42.86614" lon="0.19057">
        <ele>2227</ele>
        <time>2011-07-21T10:35:09Z</time>
      </trkpt>
      <trkpt lat="42.86615" lon="0.19056">
        <ele>2226</ele>
        <time>2011-07-21T10:35:11Z</time>
      </trkpt>
      <trkpt lat="42.86617" lon="0.19053">
        <ele>2226</ele>
        <time>2011-07-21T10:35:13Z</time>
      </trkpt>
      <trkpt lat="42.8662" lon="0.1905">
        <ele>2225</ele>
        <time>2011-07-21T10:35:17Z</time>
      </trkpt>
      <trkpt lat="42.86628" lon="0.19041">
        <ele>2225</ele>
        <time>2011-07-21T10:35:27Z</time>
      </trkpt>
      <trkpt lat="42.86628" lon="0.19039">
        <ele>2225</ele>
        <time>2011-07-21T10:35:29Z</time>
      </trkpt>
      <trkpt lat="42.86629" lon="0.19036">
        <ele>2224</ele>
        <time>2011-07-21T10:35:32Z</time>
      </trkpt>
      <trkpt lat="42.86631" lon="0.19028">
        <ele>2224</ele>
        <time>2011-07-21T10:35:38Z</time>
      </trkpt>
      <trkpt lat="42.86633" lon="0.19024">
        <ele>2224</ele>
        <time>2011-07-21T10:35:41Z</time>
      </trkpt>
      <trkpt lat="42.86635" lon="0.19022">
        <ele>2224</ele>
        <time>2011-07-21T10:35:43Z</time>
      </trkpt>
      <trkpt lat="42.86638" lon="0.19016">
        <ele>2224</ele>
        <time>2011-07-21T10:35:47Z</time>
      </trkpt>
      <trkpt lat="42.8664" lon="0.1901">
        <ele>2224</ele>
        <time>2011-07-21T10:35:51Z</time>
      </trkpt>
      <trkpt lat="42.86642" lon="0.19003">
        <ele>2224</ele>
        <time>2011-07-21T10:35:56Z</time>
      </trkpt>
      <trkpt lat="42.86643" lon="0.19">
        <ele>2224</ele>
        <time>2011-07-21T10:35:58Z</time>
      </trkpt>
      <trkpt lat="42.86644" lon="0.18996">
        <ele>2224</ele>
        <time>2011-07-21T10:36:00Z</time>
      </trkpt>
      <trkpt lat="42.86643" lon="0.1899">
        <ele>2224</ele>
        <time>2011-07-21T10:36:05Z</time>
      </trkpt>
      <trkpt lat="42.86641" lon="0.18982">
        <ele>2223</ele>
        <time>2011-07-21T10:36:10Z</time>
      </trkpt>
      <trkpt lat="42.86641" lon="0.18976">
        <ele>2223</ele>
        <time>2011-07-21T10:36:14Z</time>
      </trkpt>
      <trkpt lat="42.86641" lon="0.18973">
        <ele>2223</ele>
        <time>2011-07-21T10:36:16Z</time>
      </trkpt>
      <trkpt lat="42.86643" lon="0.18969">
        <ele>2223</ele>
        <time>2011-07-21T10:36:19Z</time>
      </trkpt>
      <trkpt lat="42.86642" lon="0.18965">
        <ele>2222</ele>
        <time>2011-07-21T10:36:23Z</time>
      </trkpt>
      <trkpt lat="42.86643" lon="0.18962">
        <ele>2222</ele>
        <time>2011-07-21T10:36:26Z</time>
      </trkpt>
      <trkpt lat="42.86644" lon="0.1896">
        <ele>2222</ele>
        <time>2011-07-21T10:36:29Z</time>
      </trkpt>
      <trkpt lat="42.86646" lon="0.18955">
        <ele>2221</ele>
        <time>2011-07-21T10:36:34Z</time>
      </trkpt>
      <trkpt lat="42.86647" lon="0.18951">
        <ele>2221</ele>
        <time>2011-07-21T10:36:38Z</time>
      </trkpt>
      <trkpt lat="42.8665" lon="0.18946">
        <ele>2221</ele>
        <time>2011-07-21T10:36:43Z</time>
      </trkpt>
      <trkpt lat="42.86651" lon="0.18941">
        <ele>2221</ele>
        <time>2011-07-21T10:36:47Z</time>
      </trkpt>
      <trkpt lat="42.86653" lon="0.18937">
        <ele>2220</ele>
        <time>2011-07-21T10:36:53Z</time>
      </trkpt>
      <trkpt lat="42.86654" lon="0.18936">
        <ele>2219</ele>
        <time>2011-07-21T10:36:55Z</time>
      </trkpt>
      <trkpt lat="42.86654" lon="0.18934">
        <ele>2219</ele>
        <time>2011-07-21T10:36:57Z</time>
      </trkpt>
      <trkpt lat="42.86653" lon="0.18928">
        <ele>2218</ele>
        <time>2011-07-21T10:37:10Z</time>
      </trkpt>
      <trkpt lat="42.86652" lon="0.18926">
        <ele>2217</ele>
        <time>2011-07-21T10:37:13Z</time>
      </trkpt>
      <trkpt lat="42.86651" lon="0.1892">
        <ele>2217</ele>
        <time>2011-07-21T10:37:19Z</time>
      </trkpt>
      <trkpt lat="42.8665" lon="0.18918">
        <ele>2217</ele>
        <time>2011-07-21T10:37:21Z</time>
      </trkpt>
      <trkpt lat="42.86648" lon="0.18913">
        <ele>2217</ele>
        <time>2011-07-21T10:37:26Z</time>
      </trkpt>
      <trkpt lat="42.86647" lon="0.18911">
        <ele>2217</ele>
        <time>2011-07-21T10:37:28Z</time>
      </trkpt>
      <trkpt lat="42.86646" lon="0.18909">
        <ele>2217</ele>
        <time>2011-07-21T10:37:30Z</time>
      </trkpt>
      <trkpt lat="42.86643" lon="0.18903">
        <ele>2217</ele>
        <time>2011-07-21T10:37:34Z</time>
      </trkpt>
      <trkpt lat="42.8664" lon="0.18891">
        <ele>2217</ele>
        <time>2011-07-21T10:37:42Z</time>
      </trkpt>
      <trkpt lat="42.86639" lon="0.18888">
        <ele>2217</ele>
        <time>2011-07-21T10:37:44Z</time>
      </trkpt>
      <trkpt lat="42.86637" lon="0.18885">
        <ele>2217</ele>
        <time>2011-07-21T10:37:46Z</time>
      </trkpt>
      <trkpt lat="42.86635" lon="0.18881">
        <ele>2217</ele>
        <time>2011-07-21T10:38:00Z</time>
      </trkpt>
      <trkpt lat="42.86634" lon="0.18879">
        <ele>2217</ele>
        <time>2011-07-21T10:38:02Z</time>
      </trkpt>
      <trkpt lat="42.86629" lon="0.18873">
        <ele>2217</ele>
        <time>2011-07-21T10:38:08Z</time>
      </trkpt>
      <trkpt lat="42.86628" lon="0.18871">
        <ele>2217</ele>
        <time>2011-07-21T10:38:10Z</time>
      </trkpt>
      <trkpt lat="42.86624" lon="0.18866">
        <ele>2214</ele>
        <time>2011-07-21T10:38:17Z</time>
      </trkpt>
      <trkpt lat="42.86623" lon="0.18864">
        <ele>2214</ele>
        <time>2011-07-21T10:38:19Z</time>
      </trkpt>
      <trkpt lat="42.86619" lon="0.18857">
        <ele>2211</ele>
        <time>2011-07-21T10:38:27Z</time>
      </trkpt>
      <trkpt lat="42.86618" lon="0.18856">
        <ele>2211</ele>
        <time>2011-07-21T10:38:29Z</time>
      </trkpt>
      <trkpt lat="42.86615" lon="0.18853">
        <ele>2210</ele>
        <time>2011-07-21T10:38:33Z</time>
      </trkpt>
      <trkpt lat="42.86614" lon="0.1885">
        <ele>2210</ele>
        <time>2011-07-21T10:38:35Z</time>
      </trkpt>
      <trkpt lat="42.86615" lon="0.18846">
        <ele>2210</ele>
        <time>2011-07-21T10:38:38Z</time>
      </trkpt>
      <trkpt lat="42.86618" lon="0.18842">
        <ele>2210</ele>
        <time>2011-07-21T10:38:42Z</time>
      </trkpt>
      <trkpt lat="42.86621" lon="0.18835">
        <ele>2210</ele>
        <time>2011-07-21T10:38:47Z</time>
      </trkpt>
      <trkpt lat="42.86621" lon="0.18829">
        <ele>2210</ele>
        <time>2011-07-21T10:38:51Z</time>
      </trkpt>
      <trkpt lat="42.86621" lon="0.18826">
        <ele>2210</ele>
        <time>2011-07-21T10:38:53Z</time>
      </trkpt>
      <trkpt lat="42.86615" lon="0.18757">
        <ele>2202</ele>
        <time>2011-07-21T10:39:03Z</time>
      </trkpt>
      <trkpt lat="42.86616" lon="0.18755">
        <ele>2202</ele>
        <time>2011-07-21T10:39:09Z</time>
      </trkpt>
      <trkpt lat="42.86616" lon="0.18753">
        <ele>2202</ele>
        <time>2011-07-21T10:39:11Z</time>
      </trkpt>
      <trkpt lat="42.86615" lon="0.18749">
        <ele>2202</ele>
        <time>2011-07-21T10:39:15Z</time>
      </trkpt>
      <trkpt lat="42.86615" lon="0.18746">
        <ele>2202</ele>
        <time>2011-07-21T10:39:17Z</time>
      </trkpt>
      <trkpt lat="42.86615" lon="0.18744">
        <ele>2202</ele>
        <time>2011-07-21T10:39:31Z</time>
      </trkpt>
      <trkpt lat="42.86617" lon="0.18737">
        <ele>2202</ele>
        <time>2011-07-21T10:39:36Z</time>
      </trkpt>
      <trkpt lat="42.86617" lon="0.18734">
        <ele>2202</ele>
        <time>2011-07-21T10:39:38Z</time>
      </trkpt>
      <trkpt lat="42.86617" lon="0.18731">
        <ele>2202</ele>
        <time>2011-07-21T10:39:40Z</time>
      </trkpt>
      <trkpt lat="42.86618" lon="0.18724">
        <ele>2202</ele>
        <time>2011-07-21T10:39:45Z</time>
      </trkpt>
      <trkpt lat="42.86617" lon="0.18722">
        <ele>2202</ele>
        <time>2011-07-21T10:39:55Z</time>
      </trkpt>
      <trkpt lat="42.86616" lon="0.18721">
        <ele>2202</ele>
        <time>2011-07-21T10:39:57Z</time>
      </trkpt>
      <trkpt lat="42.8662" lon="0.18721">
        <ele>2202</ele>
        <time>2011-07-21T10:40:12Z</time>
      </trkpt>
      <trkpt lat="42.86623" lon="0.18722">
        <ele>2202</ele>
        <time>2011-07-21T10:40:14Z</time>
      </trkpt>
      <trkpt lat="42.86625" lon="0.18722">
        <ele>2202</ele>
        <time>2011-07-21T10:40:16Z</time>
      </trkpt>
      <trkpt lat="42.86631" lon="0.18724">
        <ele>2202</ele>
        <time>2011-07-21T10:40:21Z</time>
      </trkpt>
      <trkpt lat="42.86634" lon="0.18725">
        <ele>2202</ele>
        <time>2011-07-21T10:40:24Z</time>
      </trkpt>
      <trkpt lat="42.86636" lon="0.18726">
        <ele>2202</ele>
        <time>2011-07-21T10:40:26Z</time>
      </trkpt>
      <trkpt lat="42.86642" lon="0.18723">
        <ele>2202</ele>
        <time>2011-07-21T10:40:31Z</time>
      </trkpt>
      <trkpt lat="42.86645" lon="0.18722">
        <ele>2202</ele>
        <time>2011-07-21T10:40:34Z</time>
      </trkpt>
      <trkpt lat="42.86647" lon="0.18723">
        <ele>2202</ele>
        <time>2011-07-21T10:40:36Z</time>
      </trkpt>
      <trkpt lat="42.86652" lon="0.18725">
        <ele>2202</ele>
        <time>2011-07-21T10:40:40Z</time>
      </trkpt>
      <trkpt lat="42.86654" lon="0.18725">
        <ele>2202</ele>
        <time>2011-07-21T10:40:42Z</time>
      </trkpt>
      <trkpt lat="42.86667" lon="0.18727">
        <ele>2202</ele>
        <time>2011-07-21T10:40:52Z</time>
      </trkpt>
      <trkpt lat="42.86673" lon="0.18729">
        <ele>2202</ele>
        <time>2011-07-21T10:41:01Z</time>
      </trkpt>
      <trkpt lat="42.86678" lon="0.18726">
        <ele>2202</ele>
        <time>2011-07-21T10:41:05Z</time>
      </trkpt>
      <trkpt lat="42.86686" lon="0.18723">
        <ele>2202</ele>
        <time>2011-07-21T10:41:11Z</time>
      </trkpt>
      <trkpt lat="42.86688" lon="0.18723">
        <ele>2202</ele>
        <time>2011-07-21T10:41:13Z</time>
      </trkpt>
      <trkpt lat="42.86695" lon="0.1872">
        <ele>2202</ele>
        <time>2011-07-21T10:41:19Z</time>
      </trkpt>
      <trkpt lat="42.86697" lon="0.18719">
        <ele>2202</ele>
        <time>2011-07-21T10:41:21Z</time>
      </trkpt>
      <trkpt lat="42.86713" lon="0.18711">
        <ele>2203</ele>
        <time>2011-07-21T10:41:36Z</time>
      </trkpt>
      <trkpt lat="42.86716" lon="0.1871">
        <ele>2204</ele>
        <time>2011-07-21T10:41:39Z</time>
      </trkpt>
      <trkpt lat="42.86719" lon="0.18709">
        <ele>2204</ele>
        <time>2011-07-21T10:41:42Z</time>
      </trkpt>
      <trkpt lat="42.86723" lon="0.18708">
        <ele>2204</ele>
        <time>2011-07-21T10:41:46Z</time>
      </trkpt>
      <trkpt lat="42.86726" lon="0.18706">
        <ele>2205</ele>
        <time>2011-07-21T10:41:48Z</time>
      </trkpt>
      <trkpt lat="42.86727" lon="0.18704">
        <ele>2205</ele>
        <time>2011-07-21T10:41:50Z</time>
      </trkpt>
      <trkpt lat="42.86731" lon="0.18701">
        <ele>2205</ele>
        <time>2011-07-21T10:41:54Z</time>
      </trkpt>
      <trkpt lat="42.86733" lon="0.187">
        <ele>2206</ele>
        <time>2011-07-21T10:41:56Z</time>
      </trkpt>
      <trkpt lat="42.86735" lon="0.18699">
        <ele>2206</ele>
        <time>2011-07-21T10:41:58Z</time>
      </trkpt>
      <trkpt lat="42.86739" lon="0.18697">
        <ele>2207</ele>
        <time>2011-07-21T10:42:02Z</time>
      </trkpt>
      <trkpt lat="42.86742" lon="0.18694">
        <ele>2207</ele>
        <time>2011-07-21T10:42:06Z</time>
      </trkpt>
      <trkpt lat="42.86745" lon="0.18693">
        <ele>2207</ele>
        <time>2011-07-21T10:42:10Z</time>
      </trkpt>
      <trkpt lat="42.86747" lon="0.18692">
        <ele>2208</ele>
        <time>2011-07-21T10:42:12Z</time>
      </trkpt>
      <trkpt lat="42.8675" lon="0.18689">
        <ele>2209</ele>
        <time>2011-07-21T10:42:16Z</time>
      </trkpt>
      <trkpt lat="42.86754" lon="0.18688">
        <ele>2210</ele>
        <time>2011-07-21T10:42:20Z</time>
      </trkpt>
      <trkpt lat="42.86755" lon="0.18687">
        <ele>2210</ele>
        <time>2011-07-21T10:42:22Z</time>
      </trkpt>
      <trkpt lat="42.86757" lon="0.18686">
        <ele>2210</ele>
        <time>2011-07-21T10:42:24Z</time>
      </trkpt>
      <trkpt lat="42.8676" lon="0.18684">
        <ele>2211</ele>
        <time>2011-07-21T10:42:28Z</time>
      </trkpt>
      <trkpt lat="42.86761" lon="0.18683">
        <ele>2211</ele>
        <time>2011-07-21T10:42:30Z</time>
      </trkpt>
      <trkpt lat="42.86762" lon="0.18682">
        <ele>2212</ele>
        <time>2011-07-21T10:42:32Z</time>
      </trkpt>
      <trkpt lat="42.86765" lon="0.18679">
        <ele>2213</ele>
        <time>2011-07-21T10:42:36Z</time>
      </trkpt>
      <trkpt lat="42.86766" lon="0.18678">
        <ele>2213</ele>
        <time>2011-07-21T10:42:38Z</time>
      </trkpt>
      <trkpt lat="42.86768" lon="0.18678">
        <ele>2214</ele>
        <time>2011-07-21T10:42:40Z</time>
      </trkpt>
      <trkpt lat="42.86771" lon="0.18677">
        <ele>2214</ele>
        <time>2011-07-21T10:42:44Z</time>
      </trkpt>
      <trkpt lat="42.86772" lon="0.18677">
        <ele>2215</ele>
        <time>2011-07-21T10:42:46Z</time>
      </trkpt>
      <trkpt lat="42.86773" lon="0.18675">
        <ele>2215</ele>
        <time>2011-07-21T10:42:49Z</time>
      </trkpt>
      <trkpt lat="42.86775" lon="0.18672">
        <ele>2216</ele>
        <time>2011-07-21T10:42:53Z</time>
      </trkpt>
      <trkpt lat="42.86776" lon="0.1867">
        <ele>2216</ele>
        <time>2011-07-21T10:42:55Z</time>
      </trkpt>
      <trkpt lat="42.86778" lon="0.1867">
        <ele>2216</ele>
        <time>2011-07-21T10:42:57Z</time>
      </trkpt>
      <trkpt lat="42.86781" lon="0.1867">
        <ele>2217</ele>
        <time>2011-07-21T10:43:01Z</time>
      </trkpt>
      <trkpt lat="42.86782" lon="0.1867">
        <ele>2217</ele>
        <time>2011-07-21T10:43:03Z</time>
      </trkpt>
      <trkpt lat="42.86783" lon="0.18669">
        <ele>2218</ele>
        <time>2011-07-21T10:43:06Z</time>
      </trkpt>
      <trkpt lat="42.86786" lon="0.18666">
        <ele>2219</ele>
        <time>2011-07-21T10:43:11Z</time>
      </trkpt>
      <trkpt lat="42.86788" lon="0.18665">
        <ele>2219</ele>
        <time>2011-07-21T10:43:14Z</time>
      </trkpt>
      <trkpt lat="42.86792" lon="0.18662">
        <ele>2220</ele>
        <time>2011-07-21T10:43:20Z</time>
      </trkpt>
      <trkpt lat="42.86793" lon="0.18662">
        <ele>2220</ele>
        <time>2011-07-21T10:43:22Z</time>
      </trkpt>
      <trkpt lat="42.86794" lon="0.18663">
        <ele>2220</ele>
        <time>2011-07-21T10:43:24Z</time>
      </trkpt>
      <trkpt lat="42.86797" lon="0.18661">
        <ele>2221</ele>
        <time>2011-07-21T10:43:29Z</time>
      </trkpt>
      <trkpt lat="42.86798" lon="0.18659">
        <ele>2221</ele>
        <time>2011-07-21T10:43:32Z</time>
      </trkpt>
      <trkpt lat="42.868" lon="0.18658">
        <ele>2222</ele>
        <time>2011-07-21T10:43:34Z</time>
      </trkpt>
      <trkpt lat="42.86803" lon="0.18657">
        <ele>2223</ele>
        <time>2011-07-21T10:43:40Z</time>
      </trkpt>
      <trkpt lat="42.86805" lon="0.18657">
        <ele>2223</ele>
        <time>2011-07-21T10:43:42Z</time>
      </trkpt>
      <trkpt lat="42.86806" lon="0.18656">
        <ele>2224</ele>
        <time>2011-07-21T10:43:44Z</time>
      </trkpt>
      <trkpt lat="42.86808" lon="0.18654">
        <ele>2224</ele>
        <time>2011-07-21T10:43:49Z</time>
      </trkpt>
      <trkpt lat="42.86809" lon="0.18654">
        <ele>2225</ele>
        <time>2011-07-21T10:43:51Z</time>
      </trkpt>
      <trkpt lat="42.86811" lon="0.18653">
        <ele>2226</ele>
        <time>2011-07-21T10:43:54Z</time>
      </trkpt>
      <trkpt lat="42.86813" lon="0.18657">
        <ele>2226</ele>
        <time>2011-07-21T10:44:00Z</time>
      </trkpt>
      <trkpt lat="42.86815" lon="0.18657">
        <ele>2227</ele>
        <time>2011-07-21T10:44:08Z</time>
      </trkpt>
      <trkpt lat="42.86816" lon="0.18657">
        <ele>2227</ele>
        <time>2011-07-21T10:44:10Z</time>
      </trkpt>
      <trkpt lat="42.86819" lon="0.18657">
        <ele>2228</ele>
        <time>2011-07-21T10:44:14Z</time>
      </trkpt>
      <trkpt lat="42.86821" lon="0.18657">
        <ele>2228</ele>
        <time>2011-07-21T10:44:16Z</time>
      </trkpt>
      <trkpt lat="42.86822" lon="0.18657">
        <ele>2228</ele>
        <time>2011-07-21T10:44:18Z</time>
      </trkpt>
      <trkpt lat="42.86825" lon="0.18657">
        <ele>2229</ele>
        <time>2011-07-21T10:44:22Z</time>
      </trkpt>
      <trkpt lat="42.86826" lon="0.18657">
        <ele>2229</ele>
        <time>2011-07-21T10:44:24Z</time>
      </trkpt>
      <trkpt lat="42.86828" lon="0.18657">
        <ele>2230</ele>
        <time>2011-07-21T10:44:26Z</time>
      </trkpt>
      <trkpt lat="42.86831" lon="0.18657">
        <ele>2230</ele>
        <time>2011-07-21T10:44:30Z</time>
      </trkpt>
      <trkpt lat="42.86832" lon="0.18656">
        <ele>2230</ele>
        <time>2011-07-21T10:44:32Z</time>
      </trkpt>
      <trkpt lat="42.86834" lon="0.18656">
        <ele>2230</ele>
        <time>2011-07-21T10:44:34Z</time>
      </trkpt>
      <trkpt lat="42.86837" lon="0.18655">
        <ele>2231</ele>
        <time>2011-07-21T10:44:39Z</time>
      </trkpt>
      <trkpt lat="42.86838" lon="0.18655">
        <ele>2232</ele>
        <time>2011-07-21T10:44:41Z</time>
      </trkpt>
      <trkpt lat="42.86839" lon="0.18654">
        <ele>2232</ele>
        <time>2011-07-21T10:44:43Z</time>
      </trkpt>
      <trkpt lat="42.86842" lon="0.18654">
        <ele>2233</ele>
        <time>2011-07-21T10:44:47Z</time>
      </trkpt>
      <trkpt lat="42.86844" lon="0.18653">
        <ele>2233</ele>
        <time>2011-07-21T10:44:52Z</time>
      </trkpt>
      <trkpt lat="42.86847" lon="0.18652">
        <ele>2234</ele>
        <time>2011-07-21T10:44:56Z</time>
      </trkpt>
      <trkpt lat="42.86848" lon="0.18651">
        <ele>2234</ele>
        <time>2011-07-21T10:44:58Z</time>
      </trkpt>
      <trkpt lat="42.86851" lon="0.18651">
        <ele>2235</ele>
        <time>2011-07-21T10:45:02Z</time>
      </trkpt>
      <trkpt lat="42.86853" lon="0.18651">
        <ele>2236</ele>
        <time>2011-07-21T10:45:06Z</time>
      </trkpt>
      <trkpt lat="42.86855" lon="0.1865">
        <ele>2236</ele>
        <time>2011-07-21T10:45:10Z</time>
      </trkpt>
      <trkpt lat="42.86856" lon="0.18649">
        <ele>2237</ele>
        <time>2011-07-21T10:45:13Z</time>
      </trkpt>
      <trkpt lat="42.86859" lon="0.18649">
        <ele>2237</ele>
        <time>2011-07-21T10:45:17Z</time>
      </trkpt>
      <trkpt lat="42.8686" lon="0.18649">
        <ele>2238</ele>
        <time>2011-07-21T10:45:19Z</time>
      </trkpt>
      <trkpt lat="42.86862" lon="0.18649">
        <ele>2238</ele>
        <time>2011-07-21T10:45:21Z</time>
      </trkpt>
      <trkpt lat="42.86868" lon="0.18648">
        <ele>2239</ele>
        <time>2011-07-21T10:45:27Z</time>
      </trkpt>
      <trkpt lat="42.86871" lon="0.18647">
        <ele>2240</ele>
        <time>2011-07-21T10:45:33Z</time>
      </trkpt>
      <trkpt lat="42.86873" lon="0.18646">
        <ele>2240</ele>
        <time>2011-07-21T10:45:35Z</time>
      </trkpt>
      <trkpt lat="42.86874" lon="0.18646">
        <ele>2240</ele>
        <time>2011-07-21T10:45:37Z</time>
      </trkpt>
      <trkpt lat="42.86877" lon="0.18646">
        <ele>2241</ele>
        <time>2011-07-21T10:45:41Z</time>
      </trkpt>
      <trkpt lat="42.8688" lon="0.18646">
        <ele>2241</ele>
        <time>2011-07-21T10:45:43Z</time>
      </trkpt>
      <trkpt lat="42.86882" lon="0.18646">
        <ele>2241</ele>
        <time>2011-07-21T10:45:45Z</time>
      </trkpt>
      <trkpt lat="42.86885" lon="0.18645">
        <ele>2242</ele>
        <time>2011-07-21T10:45:49Z</time>
      </trkpt>
      <trkpt lat="42.86886" lon="0.18645">
        <ele>2242</ele>
        <time>2011-07-21T10:45:51Z</time>
      </trkpt>
      <trkpt lat="42.86887" lon="0.18644">
        <ele>2242</ele>
        <time>2011-07-21T10:45:53Z</time>
      </trkpt>
      <trkpt lat="42.8689" lon="0.18643">
        <ele>2244</ele>
        <time>2011-07-21T10:45:58Z</time>
      </trkpt>
      <trkpt lat="42.86891" lon="0.18643">
        <ele>2244</ele>
        <time>2011-07-21T10:46:00Z</time>
      </trkpt>
      <trkpt lat="42.86892" lon="0.18642">
        <ele>2244</ele>
        <time>2011-07-21T10:46:02Z</time>
      </trkpt>
      <trkpt lat="42.86895" lon="0.1864">
        <ele>2245</ele>
        <time>2011-07-21T10:46:08Z</time>
      </trkpt>
      <trkpt lat="42.86897" lon="0.18638">
        <ele>2246</ele>
        <time>2011-07-21T10:46:11Z</time>
      </trkpt>
      <trkpt lat="42.86898" lon="0.18637">
        <ele>2246</ele>
        <time>2011-07-21T10:46:14Z</time>
      </trkpt>
      <trkpt lat="42.86901" lon="0.18634">
        <ele>2248</ele>
        <time>2011-07-21T10:46:20Z</time>
      </trkpt>
      <trkpt lat="42.86902" lon="0.18633">
        <ele>2248</ele>
        <time>2011-07-21T10:46:23Z</time>
      </trkpt>
      <trkpt lat="42.86903" lon="0.18632">
        <ele>2249</ele>
        <time>2011-07-21T10:46:25Z</time>
      </trkpt>
      <trkpt lat="42.86906" lon="0.1863">
        <ele>2250</ele>
        <time>2011-07-21T10:46:29Z</time>
      </trkpt>
      <trkpt lat="42.86908" lon="0.18629">
        <ele>2250</ele>
        <time>2011-07-21T10:46:31Z</time>
      </trkpt>
      <trkpt lat="42.86909" lon="0.18628">
        <ele>2250</ele>
        <time>2011-07-21T10:46:33Z</time>
      </trkpt>
      <trkpt lat="42.86912" lon="0.18625">
        <ele>2251</ele>
        <time>2011-07-21T10:46:37Z</time>
      </trkpt>
      <trkpt lat="42.86914" lon="0.18624">
        <ele>2251</ele>
        <time>2011-07-21T10:46:39Z</time>
      </trkpt>
      <trkpt lat="42.86917" lon="0.18622">
        <ele>2251</ele>
        <time>2011-07-21T10:46:42Z</time>
      </trkpt>
      <trkpt lat="42.86921" lon="0.18619">
        <ele>2251</ele>
        <time>2011-07-21T10:46:46Z</time>
      </trkpt>
      <trkpt lat="42.86922" lon="0.18617">
        <ele>2251</ele>
        <time>2011-07-21T10:46:48Z</time>
      </trkpt>
      <trkpt lat="42.86927" lon="0.18613">
        <ele>2251</ele>
        <time>2011-07-21T10:46:54Z</time>
      </trkpt>
      <trkpt lat="42.86928" lon="0.18613">
        <ele>2251</ele>
        <time>2011-07-21T10:46:57Z</time>
      </trkpt>
      <trkpt lat="42.8693" lon="0.18611">
        <ele>2251</ele>
        <time>2011-07-21T10:46:59Z</time>
      </trkpt>
      <trkpt lat="42.86931" lon="0.18608">
        <ele>2251</ele>
        <time>2011-07-21T10:47:04Z</time>
      </trkpt>
      <trkpt lat="42.86933" lon="0.18607">
        <ele>2251</ele>
        <time>2011-07-21T10:47:07Z</time>
      </trkpt>
      <trkpt lat="42.86935" lon="0.18605">
        <ele>2252</ele>
        <time>2011-07-21T10:47:09Z</time>
      </trkpt>
      <trkpt lat="42.86938" lon="0.18605">
        <ele>2252</ele>
        <time>2011-07-21T10:47:13Z</time>
      </trkpt>
      <trkpt lat="42.8694" lon="0.18604">
        <ele>2252</ele>
        <time>2011-07-21T10:47:15Z</time>
      </trkpt>
      <trkpt lat="42.86941" lon="0.18602">
        <ele>2252</ele>
        <time>2011-07-21T10:47:18Z</time>
      </trkpt>
      <trkpt lat="42.86944" lon="0.186">
        <ele>2253</ele>
        <time>2011-07-21T10:47:22Z</time>
      </trkpt>
      <trkpt lat="42.86945" lon="0.186">
        <ele>2253</ele>
        <time>2011-07-21T10:47:24Z</time>
      </trkpt>
      <trkpt lat="42.86946" lon="0.186">
        <ele>2253</ele>
        <time>2011-07-21T10:47:26Z</time>
      </trkpt>
      <trkpt lat="42.86949" lon="0.18599">
        <ele>2254</ele>
        <time>2011-07-21T10:47:30Z</time>
      </trkpt>
      <trkpt lat="42.86951" lon="0.18598">
        <ele>2255</ele>
        <time>2011-07-21T10:47:33Z</time>
      </trkpt>
      <trkpt lat="42.86952" lon="0.18597">
        <ele>2255</ele>
        <time>2011-07-21T10:47:36Z</time>
      </trkpt>
      <trkpt lat="42.86953" lon="0.18593">
        <ele>2258</ele>
        <time>2011-07-21T10:47:43Z</time>
      </trkpt>
      <trkpt lat="42.86954" lon="0.18593">
        <ele>2258</ele>
        <time>2011-07-21T10:47:45Z</time>
      </trkpt>
      <trkpt lat="42.86956" lon="0.18592">
        <ele>2259</ele>
        <time>2011-07-21T10:47:47Z</time>
      </trkpt>
      <trkpt lat="42.86959" lon="0.18591">
        <ele>2259</ele>
        <time>2011-07-21T10:47:51Z</time>
      </trkpt>
      <trkpt lat="42.8696" lon="0.1859">
        <ele>2259</ele>
        <time>2011-07-21T10:47:53Z</time>
      </trkpt>
      <trkpt lat="42.86962" lon="0.1859">
        <ele>2259</ele>
        <time>2011-07-21T10:47:55Z</time>
      </trkpt>
      <trkpt lat="42.86965" lon="0.18589">
        <ele>2260</ele>
        <time>2011-07-21T10:47:59Z</time>
      </trkpt>
      <trkpt lat="42.86966" lon="0.18589">
        <ele>2260</ele>
        <time>2011-07-21T10:48:01Z</time>
      </trkpt>
      <trkpt lat="42.86968" lon="0.18588">
        <ele>2260</ele>
        <time>2011-07-21T10:48:04Z</time>
      </trkpt>
      <trkpt lat="42.8697" lon="0.18587">
        <ele>2261</ele>
        <time>2011-07-21T10:48:08Z</time>
      </trkpt>
      <trkpt lat="42.86972" lon="0.18586">
        <ele>2261</ele>
        <time>2011-07-21T10:48:10Z</time>
      </trkpt>
      <trkpt lat="42.86973" lon="0.18585">
        <ele>2261</ele>
        <time>2011-07-21T10:48:13Z</time>
      </trkpt>
      <trkpt lat="42.86977" lon="0.18584">
        <ele>2261</ele>
        <time>2011-07-21T10:48:17Z</time>
      </trkpt>
      <trkpt lat="42.86979" lon="0.18583">
        <ele>2261</ele>
        <time>2011-07-21T10:48:19Z</time>
      </trkpt>
      <trkpt lat="42.86982" lon="0.18582">
        <ele>2261</ele>
        <time>2011-07-21T10:48:22Z</time>
      </trkpt>
      <trkpt lat="42.86985" lon="0.1858">
        <ele>2262</ele>
        <time>2011-07-21T10:48:26Z</time>
      </trkpt>
      <trkpt lat="42.86987" lon="0.18579">
        <ele>2262</ele>
        <time>2011-07-21T10:48:28Z</time>
      </trkpt>
      <trkpt lat="42.86989" lon="0.18578">
        <ele>2262</ele>
        <time>2011-07-21T10:48:30Z</time>
      </trkpt>
      <trkpt lat="42.86995" lon="0.18579">
        <ele>2263</ele>
        <time>2011-07-21T10:48:36Z</time>
      </trkpt>
      <trkpt lat="42.86998" lon="0.18579">
        <ele>2263</ele>
        <time>2011-07-21T10:48:39Z</time>
      </trkpt>
      <trkpt lat="42.87003" lon="0.18578">
        <ele>2263</ele>
        <time>2011-07-21T10:48:43Z</time>
      </trkpt>
      <trkpt lat="42.87004" lon="0.18578">
        <ele>2263</ele>
        <time>2011-07-21T10:48:45Z</time>
      </trkpt>
      <trkpt lat="42.87008" lon="0.18576">
        <ele>2263</ele>
        <time>2011-07-21T10:48:48Z</time>
      </trkpt>
      <trkpt lat="42.87011" lon="0.18573">
        <ele>2263</ele>
        <time>2011-07-21T10:48:52Z</time>
      </trkpt>
      <trkpt lat="42.87014" lon="0.18572">
        <ele>2263</ele>
        <time>2011-07-21T10:48:54Z</time>
      </trkpt>
      <trkpt lat="42.87016" lon="0.18571">
        <ele>2263</ele>
        <time>2011-07-21T10:48:56Z</time>
      </trkpt>
      <trkpt lat="42.87024" lon="0.18567">
        <ele>2263</ele>
        <time>2011-07-21T10:49:04Z</time>
      </trkpt>
      <trkpt lat="42.87026" lon="0.18565">
        <ele>2263</ele>
        <time>2011-07-21T10:49:06Z</time>
      </trkpt>
      <trkpt lat="42.87031" lon="0.18563">
        <ele>2263</ele>
        <time>2011-07-21T10:49:11Z</time>
      </trkpt>
      <trkpt lat="42.87032" lon="0.18564">
        <ele>2263</ele>
        <time>2011-07-21T10:49:13Z</time>
      </trkpt>
      <trkpt lat="42.87033" lon="0.18564">
        <ele>2264</ele>
        <time>2011-07-21T10:49:16Z</time>
      </trkpt>
      <trkpt lat="42.87036" lon="0.18565">
        <ele>2265</ele>
        <time>2011-07-21T10:49:20Z</time>
      </trkpt>
      <trkpt lat="42.87037" lon="0.18566">
        <ele>2266</ele>
        <time>2011-07-21T10:49:22Z</time>
      </trkpt>
      <trkpt lat="42.87038" lon="0.18566">
        <ele>2266</ele>
        <time>2011-07-21T10:49:24Z</time>
      </trkpt>
      <trkpt lat="42.87041" lon="0.18567">
        <ele>2267</ele>
        <time>2011-07-21T10:49:29Z</time>
      </trkpt>
      <trkpt lat="42.87042" lon="0.18568">
        <ele>2268</ele>
        <time>2011-07-21T10:49:31Z</time>
      </trkpt>
      <trkpt lat="42.87043" lon="0.18568">
        <ele>2268</ele>
        <time>2011-07-21T10:49:33Z</time>
      </trkpt>
      <trkpt lat="42.87048" lon="0.18572">
        <ele>2269</ele>
        <time>2011-07-21T10:49:39Z</time>
      </trkpt>
      <trkpt lat="42.87049" lon="0.18573">
        <ele>2270</ele>
        <time>2011-07-21T10:49:41Z</time>
      </trkpt>
      <trkpt lat="42.87054" lon="0.18575">
        <ele>2270</ele>
        <time>2011-07-21T10:49:47Z</time>
      </trkpt>
      <trkpt lat="42.87055" lon="0.18576">
        <ele>2270</ele>
        <time>2011-07-21T10:49:49Z</time>
      </trkpt>
      <trkpt lat="42.87056" lon="0.1858">
        <ele>2271</ele>
        <time>2011-07-21T10:49:55Z</time>
      </trkpt>
      <trkpt lat="42.87058" lon="0.18581">
        <ele>2271</ele>
        <time>2011-07-21T10:49:57Z</time>
      </trkpt>
      <trkpt lat="42.87059" lon="0.18582">
        <ele>2271</ele>
        <time>2011-07-21T10:49:59Z</time>
      </trkpt>
      <trkpt lat="42.87064" lon="0.18584">
        <ele>2272</ele>
        <time>2011-07-21T10:50:05Z</time>
      </trkpt>
      <trkpt lat="42.87065" lon="0.18585">
        <ele>2272</ele>
        <time>2011-07-21T10:50:07Z</time>
      </trkpt>
      <trkpt lat="42.87068" lon="0.18589">
        <ele>2273</ele>
        <time>2011-07-21T10:50:13Z</time>
      </trkpt>
      <trkpt lat="42.87069" lon="0.18591">
        <ele>2274</ele>
        <time>2011-07-21T10:50:15Z</time>
      </trkpt>
      <trkpt lat="42.8707" lon="0.18593">
        <ele>2274</ele>
        <time>2011-07-21T10:50:17Z</time>
      </trkpt>
      <trkpt lat="42.87071" lon="0.18597">
        <ele>2275</ele>
        <time>2011-07-21T10:50:23Z</time>
      </trkpt>
      <trkpt lat="42.87073" lon="0.18598">
        <ele>2275</ele>
        <time>2011-07-21T10:50:26Z</time>
      </trkpt>
      <trkpt lat="42.87074" lon="0.18599">
        <ele>2275</ele>
        <time>2011-07-21T10:50:28Z</time>
      </trkpt>
      <trkpt lat="42.87076" lon="0.186">
        <ele>2276</ele>
        <time>2011-07-21T10:50:32Z</time>
      </trkpt>
      <trkpt lat="42.87078" lon="0.186">
        <ele>2277</ele>
        <time>2011-07-21T10:50:36Z</time>
      </trkpt>
      <trkpt lat="42.87079" lon="0.18601">
        <ele>2277</ele>
        <time>2011-07-21T10:50:39Z</time>
      </trkpt>
      <trkpt lat="42.87082" lon="0.18604">
        <ele>2277</ele>
        <time>2011-07-21T10:50:44Z</time>
      </trkpt>
      <trkpt lat="42.87083" lon="0.18606">
        <ele>2278</ele>
        <time>2011-07-21T10:50:46Z</time>
      </trkpt>
      <trkpt lat="42.87085" lon="0.18607">
        <ele>2278</ele>
        <time>2011-07-21T10:50:48Z</time>
      </trkpt>
      <trkpt lat="42.87088" lon="0.1861">
        <ele>2278</ele>
        <time>2011-07-21T10:50:52Z</time>
      </trkpt>
      <trkpt lat="42.8709" lon="0.18612">
        <ele>2278</ele>
        <time>2011-07-21T10:50:54Z</time>
      </trkpt>
      <trkpt lat="42.87091" lon="0.18614">
        <ele>2278</ele>
        <time>2011-07-21T10:50:56Z</time>
      </trkpt>
      <trkpt lat="42.87096" lon="0.18617">
        <ele>2279</ele>
        <time>2011-07-21T10:51:02Z</time>
      </trkpt>
      <trkpt lat="42.87097" lon="0.18619">
        <ele>2279</ele>
        <time>2011-07-21T10:51:04Z</time>
      </trkpt>
      <trkpt lat="42.87101" lon="0.18621">
        <ele>2279</ele>
        <time>2011-07-21T10:51:08Z</time>
      </trkpt>
      <trkpt lat="42.87102" lon="0.18623">
        <ele>2279</ele>
        <time>2011-07-21T10:51:10Z</time>
      </trkpt>
      <trkpt lat="42.87104" lon="0.18624">
        <ele>2280</ele>
        <time>2011-07-21T10:51:12Z</time>
      </trkpt>
      <trkpt lat="42.87109" lon="0.18627">
        <ele>2280</ele>
        <time>2011-07-21T10:51:21Z</time>
      </trkpt>
      <trkpt lat="42.87111" lon="0.18627">
        <ele>2280</ele>
        <time>2011-07-21T10:51:23Z</time>
      </trkpt>
      <trkpt lat="42.87111" lon="0.18629">
        <ele>2281</ele>
        <time>2011-07-21T10:52:10Z</time>
      </trkpt>
      <trkpt lat="42.87112" lon="0.1863">
        <ele>2281</ele>
        <time>2011-07-21T10:52:40Z</time>
      </trkpt>
      <trkpt lat="42.87114" lon="0.1863">
        <ele>2281</ele>
        <time>2011-07-21T10:52:42Z</time>
      </trkpt>
      <trkpt lat="42.87117" lon="0.18631">
        <ele>2281</ele>
        <time>2011-07-21T10:52:46Z</time>
      </trkpt>
      <trkpt lat="42.87121" lon="0.18631">
        <ele>2281</ele>
        <time>2011-07-21T10:52:49Z</time>
      </trkpt>
      <trkpt lat="42.87123" lon="0.1863">
        <ele>2281</ele>
        <time>2011-07-21T10:52:51Z</time>
      </trkpt>
      <trkpt lat="42.87128" lon="0.18627">
        <ele>2281</ele>
        <time>2011-07-21T10:52:55Z</time>
      </trkpt>
      <trkpt lat="42.87135" lon="0.18625">
        <ele>2281</ele>
        <time>2011-07-21T10:53:00Z</time>
      </trkpt>
      <trkpt lat="42.87141" lon="0.18621">
        <ele>2281</ele>
        <time>2011-07-21T10:53:06Z</time>
      </trkpt>
      <trkpt lat="42.87143" lon="0.18619">
        <ele>2281</ele>
        <time>2011-07-21T10:53:08Z</time>
      </trkpt>
      <trkpt lat="42.87146" lon="0.18616">
        <ele>2281</ele>
        <time>2011-07-21T10:53:12Z</time>
      </trkpt>
      <trkpt lat="42.87148" lon="0.18616">
        <ele>2281</ele>
        <time>2011-07-21T10:53:14Z</time>
      </trkpt>
      <trkpt lat="42.87149" lon="0.18616">
        <ele>2281</ele>
        <time>2011-07-21T10:53:16Z</time>
      </trkpt>
      <trkpt lat="42.87152" lon="0.18616">
        <ele>2281</ele>
        <time>2011-07-21T10:53:22Z</time>
      </trkpt>
      <trkpt lat="42.87154" lon="0.18613">
        <ele>2281</ele>
        <time>2011-07-21T10:53:31Z</time>
      </trkpt>
      <trkpt lat="42.87156" lon="0.18611">
        <ele>2282</ele>
        <time>2011-07-21T10:53:37Z</time>
      </trkpt>
      <trkpt lat="42.87158" lon="0.1861">
        <ele>2283</ele>
        <time>2011-07-21T10:53:39Z</time>
      </trkpt>
      <trkpt lat="42.87159" lon="0.18609">
        <ele>2283</ele>
        <time>2011-07-21T10:53:41Z</time>
      </trkpt>
      <trkpt lat="42.87162" lon="0.18606">
        <ele>2284</ele>
        <time>2011-07-21T10:53:46Z</time>
      </trkpt>
      <trkpt lat="42.87164" lon="0.18604">
        <ele>2284</ele>
        <time>2011-07-21T10:53:50Z</time>
      </trkpt>
      <trkpt lat="42.87165" lon="0.18602">
        <ele>2284</ele>
        <time>2011-07-21T10:53:52Z</time>
      </trkpt>
      <trkpt lat="42.87164" lon="0.18598">
        <ele>2284</ele>
        <time>2011-07-21T10:53:56Z</time>
      </trkpt>
      <trkpt lat="42.87163" lon="0.18595">
        <ele>2284</ele>
        <time>2011-07-21T10:53:58Z</time>
      </trkpt>
      <trkpt lat="42.87162" lon="0.18593">
        <ele>2284</ele>
        <time>2011-07-21T10:54:00Z</time>
      </trkpt>
      <trkpt lat="42.8716" lon="0.1859">
        <ele>2284</ele>
        <time>2011-07-21T10:54:05Z</time>
      </trkpt>
      <trkpt lat="42.8716" lon="0.18588">
        <ele>2284</ele>
        <time>2011-07-21T10:54:07Z</time>
      </trkpt>
      <trkpt lat="42.8716" lon="0.18586">
        <ele>2284</ele>
        <time>2011-07-21T10:54:09Z</time>
      </trkpt>
      <trkpt lat="42.8716" lon="0.18582">
        <ele>2284</ele>
        <time>2011-07-21T10:54:13Z</time>
      </trkpt>
      <trkpt lat="42.87159" lon="0.1858">
        <ele>2284</ele>
        <time>2011-07-21T10:54:15Z</time>
      </trkpt>
      <trkpt lat="42.87159" lon="0.18578">
        <ele>2284</ele>
        <time>2011-07-21T10:54:17Z</time>
      </trkpt>
      <trkpt lat="42.8716" lon="0.18573">
        <ele>2284</ele>
        <time>2011-07-21T10:54:23Z</time>
      </trkpt>
      <trkpt lat="42.87159" lon="0.18571">
        <ele>2284</ele>
        <time>2011-07-21T10:54:26Z</time>
      </trkpt>
      <trkpt lat="42.87158" lon="0.18569">
        <ele>2284</ele>
        <time>2011-07-21T10:54:29Z</time>
      </trkpt>
      <trkpt lat="42.87158" lon="0.18565">
        <ele>2284</ele>
        <time>2011-07-21T10:54:33Z</time>
      </trkpt>
      <trkpt lat="42.87159" lon="0.18563">
        <ele>2284</ele>
        <time>2011-07-21T10:54:35Z</time>
      </trkpt>
      <trkpt lat="42.87159" lon="0.1856">
        <ele>2284</ele>
        <time>2011-07-21T10:54:37Z</time>
      </trkpt>
      <trkpt lat="42.8716" lon="0.18554">
        <ele>2284</ele>
        <time>2011-07-21T10:54:41Z</time>
      </trkpt>
      <trkpt lat="42.87162" lon="0.18542">
        <ele>2284</ele>
        <time>2011-07-21T10:54:50Z</time>
      </trkpt>
      <trkpt lat="42.87161" lon="0.18541">
        <ele>2284</ele>
        <time>2011-07-21T10:54:52Z</time>
      </trkpt>
      <trkpt lat="42.87161" lon="0.18539">
        <ele>2284</ele>
        <time>2011-07-21T10:54:54Z</time>
      </trkpt>
      <trkpt lat="42.87161" lon="0.18535">
        <ele>2284</ele>
        <time>2011-07-21T10:54:58Z</time>
      </trkpt>
      <trkpt lat="42.87162" lon="0.18532">
        <ele>2284</ele>
        <time>2011-07-21T10:55:02Z</time>
      </trkpt>
      <trkpt lat="42.87164" lon="0.18529">
        <ele>2284</ele>
        <time>2011-07-21T10:55:07Z</time>
      </trkpt>
      <trkpt lat="42.87164" lon="0.18525">
        <ele>2284</ele>
        <time>2011-07-21T10:55:13Z</time>
      </trkpt>
      <trkpt lat="42.87165" lon="0.18522">
        <ele>2284</ele>
        <time>2011-07-21T10:55:20Z</time>
      </trkpt>
      <trkpt lat="42.87166" lon="0.18518">
        <ele>2284</ele>
        <time>2011-07-21T10:55:25Z</time>
      </trkpt>
      <trkpt lat="42.87169" lon="0.18516">
        <ele>2284</ele>
        <time>2011-07-21T10:55:31Z</time>
      </trkpt>
      <trkpt lat="42.87171" lon="0.18514">
        <ele>2284</ele>
        <time>2011-07-21T10:55:33Z</time>
      </trkpt>
      <trkpt lat="42.87172" lon="0.18511">
        <ele>2284</ele>
        <time>2011-07-21T10:55:35Z</time>
      </trkpt>
      <trkpt lat="42.87178" lon="0.18505">
        <ele>2284</ele>
        <time>2011-07-21T10:55:41Z</time>
      </trkpt>
      <trkpt lat="42.87179" lon="0.18502">
        <ele>2284</ele>
        <time>2011-07-21T10:55:43Z</time>
      </trkpt>
      <trkpt lat="42.87182" lon="0.18498">
        <ele>2284</ele>
        <time>2011-07-21T10:55:46Z</time>
      </trkpt>
      <trkpt lat="42.87186" lon="0.18496">
        <ele>2284</ele>
        <time>2011-07-21T10:55:50Z</time>
      </trkpt>
      <trkpt lat="42.87193" lon="0.18486">
        <ele>2284</ele>
        <time>2011-07-21T10:55:58Z</time>
      </trkpt>
      <trkpt lat="42.87194" lon="0.18484">
        <ele>2284</ele>
        <time>2011-07-21T10:56:00Z</time>
      </trkpt>
      <trkpt lat="42.87196" lon="0.18482">
        <ele>2284</ele>
        <time>2011-07-21T10:56:02Z</time>
      </trkpt>
      <trkpt lat="42.87199" lon="0.18477">
        <ele>2284</ele>
        <time>2011-07-21T10:56:06Z</time>
      </trkpt>
      <trkpt lat="42.872" lon="0.18474">
        <ele>2284</ele>
        <time>2011-07-21T10:56:08Z</time>
      </trkpt>
      <trkpt lat="42.87201" lon="0.18471">
        <ele>2284</ele>
        <time>2011-07-21T10:56:10Z</time>
      </trkpt>
      <trkpt lat="42.87204" lon="0.18466">
        <ele>2284</ele>
        <time>2011-07-21T10:56:14Z</time>
      </trkpt>
      <trkpt lat="42.87205" lon="0.18464">
        <ele>2284</ele>
        <time>2011-07-21T10:56:16Z</time>
      </trkpt>
      <trkpt lat="42.87205" lon="0.18462">
        <ele>2284</ele>
        <time>2011-07-21T10:56:18Z</time>
      </trkpt>
      <trkpt lat="42.87209" lon="0.18454">
        <ele>2284</ele>
        <time>2011-07-21T10:56:25Z</time>
      </trkpt>
      <trkpt lat="42.87209" lon="0.18451">
        <ele>2284</ele>
        <time>2011-07-21T10:56:27Z</time>
      </trkpt>
      <trkpt lat="42.87212" lon="0.18441">
        <ele>2284</ele>
        <time>2011-07-21T10:56:34Z</time>
      </trkpt>
      <trkpt lat="42.87212" lon="0.18438">
        <ele>2284</ele>
        <time>2011-07-21T10:56:36Z</time>
      </trkpt>
      <trkpt lat="42.8721" lon="0.18434">
        <ele>2284</ele>
        <time>2011-07-21T10:56:40Z</time>
      </trkpt>
      <trkpt lat="42.87209" lon="0.1843">
        <ele>2284</ele>
        <time>2011-07-21T10:56:43Z</time>
      </trkpt>
      <trkpt lat="42.87209" lon="0.18428">
        <ele>2284</ele>
        <time>2011-07-21T10:56:45Z</time>
      </trkpt>
      <trkpt lat="42.87209" lon="0.18423">
        <ele>2284</ele>
        <time>2011-07-21T10:56:49Z</time>
      </trkpt>
      <trkpt lat="42.87208" lon="0.1842">
        <ele>2284</ele>
        <time>2011-07-21T10:56:51Z</time>
      </trkpt>
      <trkpt lat="42.87209" lon="0.18418">
        <ele>2285</ele>
        <time>2011-07-21T10:56:53Z</time>
      </trkpt>
      <trkpt lat="42.87209" lon="0.18412">
        <ele>2285</ele>
        <time>2011-07-21T10:56:57Z</time>
      </trkpt>
      <trkpt lat="42.8721" lon="0.18408">
        <ele>2285</ele>
        <time>2011-07-21T10:57:00Z</time>
      </trkpt>
      <trkpt lat="42.8721" lon="0.18405">
        <ele>2285</ele>
        <time>2011-07-21T10:57:02Z</time>
      </trkpt>
      <trkpt lat="42.8721" lon="0.18398">
        <ele>2285</ele>
        <time>2011-07-21T10:57:07Z</time>
      </trkpt>
      <trkpt lat="42.8721" lon="0.18395">
        <ele>2285</ele>
        <time>2011-07-21T10:57:09Z</time>
      </trkpt>
      <trkpt lat="42.8721" lon="0.18392">
        <ele>2285</ele>
        <time>2011-07-21T10:57:11Z</time>
      </trkpt>
      <trkpt lat="42.87209" lon="0.18384">
        <ele>2285</ele>
        <time>2011-07-21T10:57:16Z</time>
      </trkpt>
      <trkpt lat="42.87207" lon="0.18382">
        <ele>2285</ele>
        <time>2011-07-21T10:57:18Z</time>
      </trkpt>
      <trkpt lat="42.87206" lon="0.18379">
        <ele>2285</ele>
        <time>2011-07-21T10:57:21Z</time>
      </trkpt>
      <trkpt lat="42.87199" lon="0.18362">
        <ele>2285</ele>
        <time>2011-07-21T10:57:34Z</time>
      </trkpt>
      <trkpt lat="42.87199" lon="0.18359">
        <ele>2285</ele>
        <time>2011-07-21T10:57:37Z</time>
      </trkpt>
      <trkpt lat="42.87197" lon="0.18357">
        <ele>2285</ele>
        <time>2011-07-21T10:57:39Z</time>
      </trkpt>
      <trkpt lat="42.87194" lon="0.18351">
        <ele>2285</ele>
        <time>2011-07-21T10:57:45Z</time>
      </trkpt>
      <trkpt lat="42.87193" lon="0.18349">
        <ele>2285</ele>
        <time>2011-07-21T10:57:47Z</time>
      </trkpt>
      <trkpt lat="42.87192" lon="0.18344">
        <ele>2285</ele>
        <time>2011-07-21T10:57:52Z</time>
      </trkpt>
      <trkpt lat="42.87191" lon="0.18342">
        <ele>2285</ele>
        <time>2011-07-21T10:57:54Z</time>
      </trkpt>
      <trkpt lat="42.8719" lon="0.1834">
        <ele>2286</ele>
        <time>2011-07-21T10:57:56Z</time>
      </trkpt>
      <trkpt lat="42.87187" lon="0.18338">
        <ele>2286</ele>
        <time>2011-07-21T10:58:00Z</time>
      </trkpt>
      <trkpt lat="42.87186" lon="0.18336">
        <ele>2286</ele>
        <time>2011-07-21T10:58:02Z</time>
      </trkpt>
      <trkpt lat="42.87186" lon="0.18332">
        <ele>2286</ele>
        <time>2011-07-21T10:58:05Z</time>
      </trkpt>
      <trkpt lat="42.87183" lon="0.18326">
        <ele>2286</ele>
        <time>2011-07-21T10:58:11Z</time>
      </trkpt>
      <trkpt lat="42.87183" lon="0.18324">
        <ele>2286</ele>
        <time>2011-07-21T10:58:13Z</time>
      </trkpt>
      <trkpt lat="42.87181" lon="0.1832">
        <ele>2286</ele>
        <time>2011-07-21T10:58:17Z</time>
      </trkpt>
      <trkpt lat="42.87183" lon="0.18316">
        <ele>2286</ele>
        <time>2011-07-21T10:58:21Z</time>
      </trkpt>
      <trkpt lat="42.87186" lon="0.18311">
        <ele>2286</ele>
        <time>2011-07-21T10:58:28Z</time>
      </trkpt>
      <trkpt lat="42.87186" lon="0.18309">
        <ele>2286</ele>
        <time>2011-07-21T10:58:30Z</time>
      </trkpt>
      <trkpt lat="42.87186" lon="0.18307">
        <ele>2286</ele>
        <time>2011-07-21T10:58:32Z</time>
      </trkpt>
      <trkpt lat="42.87186" lon="0.18303">
        <ele>2286</ele>
        <time>2011-07-21T10:58:36Z</time>
      </trkpt>
      <trkpt lat="42.87186" lon="0.18301">
        <ele>2286</ele>
        <time>2011-07-21T10:58:38Z</time>
      </trkpt>
      <trkpt lat="42.87188" lon="0.183">
        <ele>2286</ele>
        <time>2011-07-21T10:58:41Z</time>
      </trkpt>
      <trkpt lat="42.87188" lon="0.18295">
        <ele>2286</ele>
        <time>2011-07-21T10:58:45Z</time>
      </trkpt>
      <trkpt lat="42.87188" lon="0.18293">
        <ele>2286</ele>
        <time>2011-07-21T10:58:47Z</time>
      </trkpt>
      <trkpt lat="42.87188" lon="0.18291">
        <ele>2286</ele>
        <time>2011-07-21T10:58:49Z</time>
      </trkpt>
      <trkpt lat="42.87186" lon="0.18287">
        <ele>2286</ele>
        <time>2011-07-21T10:58:55Z</time>
      </trkpt>
      <trkpt lat="42.87187" lon="0.18286">
        <ele>2286</ele>
        <time>2011-07-21T10:58:58Z</time>
      </trkpt>
      <trkpt lat="42.87188" lon="0.18285">
        <ele>2286</ele>
        <time>2011-07-21T10:59:01Z</time>
      </trkpt>
      <trkpt lat="42.87191" lon="0.18283">
        <ele>2286</ele>
        <time>2011-07-21T10:59:07Z</time>
      </trkpt>
      <trkpt lat="42.87192" lon="0.18282">
        <ele>2287</ele>
        <time>2011-07-21T10:59:11Z</time>
      </trkpt>
      <trkpt lat="42.87193" lon="0.1828">
        <ele>2288</ele>
        <time>2011-07-21T10:59:14Z</time>
      </trkpt>
      <trkpt lat="42.87195" lon="0.18277">
        <ele>2290</ele>
        <time>2011-07-21T10:59:24Z</time>
      </trkpt>
      <trkpt lat="42.87195" lon="0.18275">
        <ele>2291</ele>
        <time>2011-07-21T10:59:27Z</time>
      </trkpt>
      <trkpt lat="42.87197" lon="0.18272">
        <ele>2293</ele>
        <time>2011-07-21T10:59:39Z</time>
      </trkpt>
      <trkpt lat="42.87198" lon="0.18271">
        <ele>2293</ele>
        <time>2011-07-21T10:59:45Z</time>
      </trkpt>
      <trkpt lat="42.87199" lon="0.1827">
        <ele>2294</ele>
        <time>2011-07-21T10:59:48Z</time>
      </trkpt>
      <trkpt lat="42.872" lon="0.18267">
        <ele>2296</ele>
        <time>2011-07-21T10:59:55Z</time>
      </trkpt>
      <trkpt lat="42.87201" lon="0.18266">
        <ele>2296</ele>
        <time>2011-07-21T10:59:59Z</time>
      </trkpt>
      <trkpt lat="42.87202" lon="0.18265">
        <ele>2297</ele>
        <time>2011-07-21T11:00:02Z</time>
      </trkpt>
      <trkpt lat="42.87204" lon="0.18262">
        <ele>2298</ele>
        <time>2011-07-21T11:00:09Z</time>
      </trkpt>
      <trkpt lat="42.87204" lon="0.18261">
        <ele>2298</ele>
        <time>2011-07-21T11:00:12Z</time>
      </trkpt>
      <trkpt lat="42.87205" lon="0.18259">
        <ele>2299</ele>
        <time>2011-07-21T11:00:15Z</time>
      </trkpt>
      <trkpt lat="42.87209" lon="0.18257">
        <ele>2300</ele>
        <time>2011-07-21T11:00:24Z</time>
      </trkpt>
      <trkpt lat="42.87209" lon="0.18255">
        <ele>2300</ele>
        <time>2011-07-21T11:00:27Z</time>
      </trkpt>
      <trkpt lat="42.87212" lon="0.18253">
        <ele>2301</ele>
        <time>2011-07-21T11:00:34Z</time>
      </trkpt>
      <trkpt lat="42.87213" lon="0.18251">
        <ele>2301</ele>
        <time>2011-07-21T11:00:37Z</time>
      </trkpt>
      <trkpt lat="42.87214" lon="0.18249">
        <ele>2302</ele>
        <time>2011-07-21T11:00:39Z</time>
      </trkpt>
      <trkpt lat="42.87218" lon="0.18246">
        <ele>2302</ele>
        <time>2011-07-21T11:00:45Z</time>
      </trkpt>
      <trkpt lat="42.8722" lon="0.18244">
        <ele>2303</ele>
        <time>2011-07-21T11:00:47Z</time>
      </trkpt>
      <trkpt lat="42.87222" lon="0.1824">
        <ele>2303</ele>
        <time>2011-07-21T11:00:51Z</time>
      </trkpt>
      <trkpt lat="42.87224" lon="0.18236">
        <ele>2303</ele>
        <time>2011-07-21T11:00:55Z</time>
      </trkpt>
      <trkpt lat="42.87225" lon="0.18232">
        <ele>2304</ele>
        <time>2011-07-21T11:00:59Z</time>
      </trkpt>
      <trkpt lat="42.87228" lon="0.18228">
        <ele>2304</ele>
        <time>2011-07-21T11:01:03Z</time>
      </trkpt>
      <trkpt lat="42.87231" lon="0.18225">
        <ele>2305</ele>
        <time>2011-07-21T11:01:07Z</time>
      </trkpt>
      <trkpt lat="42.87233" lon="0.18223">
        <ele>2305</ele>
        <time>2011-07-21T11:01:09Z</time>
      </trkpt>
      <trkpt lat="42.87234" lon="0.18217">
        <ele>2305</ele>
        <time>2011-07-21T11:01:15Z</time>
      </trkpt>
      <trkpt lat="42.87235" lon="0.18216">
        <ele>2305</ele>
        <time>2011-07-21T11:01:17Z</time>
      </trkpt>
      <trkpt lat="42.87236" lon="0.18214">
        <ele>2305</ele>
        <time>2011-07-21T11:01:19Z</time>
      </trkpt>
      <trkpt lat="42.87236" lon="0.18211">
        <ele>2306</ele>
        <time>2011-07-21T11:01:23Z</time>
      </trkpt>
      <trkpt lat="42.87237" lon="0.18209">
        <ele>2306</ele>
        <time>2011-07-21T11:01:25Z</time>
      </trkpt>
      <trkpt lat="42.87237" lon="0.18207">
        <ele>2307</ele>
        <time>2011-07-21T11:01:27Z</time>
      </trkpt>
      <trkpt lat="42.87238" lon="0.18203">
        <ele>2307</ele>
        <time>2011-07-21T11:01:32Z</time>
      </trkpt>
      <trkpt lat="42.87238" lon="0.18201">
        <ele>2308</ele>
        <time>2011-07-21T11:01:35Z</time>
      </trkpt>
      <trkpt lat="42.87239" lon="0.182">
        <ele>2308</ele>
        <time>2011-07-21T11:01:37Z</time>
      </trkpt>
      <trkpt lat="42.87239" lon="0.18197">
        <ele>2309</ele>
        <time>2011-07-21T11:01:41Z</time>
      </trkpt>
      <trkpt lat="42.8724" lon="0.18195">
        <ele>2309</ele>
        <time>2011-07-21T11:01:44Z</time>
      </trkpt>
      <trkpt lat="42.87239" lon="0.1819">
        <ele>2310</ele>
        <time>2011-07-21T11:01:50Z</time>
      </trkpt>
      <trkpt lat="42.8724" lon="0.18188">
        <ele>2310</ele>
        <time>2011-07-21T11:01:52Z</time>
      </trkpt>
      <trkpt lat="42.8724" lon="0.18183">
        <ele>2312</ele>
        <time>2011-07-21T11:01:58Z</time>
      </trkpt>
      <trkpt lat="42.87239" lon="0.18181">
        <ele>2312</ele>
        <time>2011-07-21T11:02:00Z</time>
      </trkpt>
      <trkpt lat="42.87239" lon="0.1818">
        <ele>2313</ele>
        <time>2011-07-21T11:02:02Z</time>
      </trkpt>
      <trkpt lat="42.87239" lon="0.18176">
        <ele>2313</ele>
        <time>2011-07-21T11:02:06Z</time>
      </trkpt>
      <trkpt lat="42.87238" lon="0.18174">
        <ele>2314</ele>
        <time>2011-07-21T11:02:08Z</time>
      </trkpt>
      <trkpt lat="42.87238" lon="0.18173">
        <ele>2314</ele>
        <time>2011-07-21T11:02:10Z</time>
      </trkpt>
      <trkpt lat="42.87235" lon="0.1817">
        <ele>2316</ele>
        <time>2011-07-21T11:02:27Z</time>
      </trkpt>
      <trkpt lat="42.87233" lon="0.1817">
        <ele>2317</ele>
        <time>2011-07-21T11:02:53Z</time>
      </trkpt>
      <trkpt lat="42.87232" lon="0.18169">
        <ele>2317</ele>
        <time>2011-07-21T11:02:55Z</time>
      </trkpt>
      <trkpt lat="42.87227" lon="0.18165">
        <ele>2317</ele>
        <time>2011-07-21T11:03:01Z</time>
      </trkpt>
      <trkpt lat="42.87225" lon="0.18163">
        <ele>2317</ele>
        <time>2011-07-21T11:03:03Z</time>
      </trkpt>
      <trkpt lat="42.87223" lon="0.18158">
        <ele>2317</ele>
        <time>2011-07-21T11:03:09Z</time>
      </trkpt>
      <trkpt lat="42.87222" lon="0.18156">
        <ele>2318</ele>
        <time>2011-07-21T11:03:12Z</time>
      </trkpt>
      <trkpt lat="42.8722" lon="0.18152">
        <ele>2319</ele>
        <time>2011-07-21T11:03:16Z</time>
      </trkpt>
      <trkpt lat="42.87216" lon="0.18141">
        <ele>2320</ele>
        <time>2011-07-21T11:03:25Z</time>
      </trkpt>
      <trkpt lat="42.87217" lon="0.18138">
        <ele>2320</ele>
        <time>2011-07-21T11:03:27Z</time>
      </trkpt>
      <trkpt lat="42.87218" lon="0.18134">
        <ele>2320</ele>
        <time>2011-07-21T11:03:30Z</time>
      </trkpt>
      <trkpt lat="42.87222" lon="0.18125">
        <ele>2320</ele>
        <time>2011-07-21T11:03:37Z</time>
      </trkpt>
      <trkpt lat="42.87223" lon="0.18124">
        <ele>2320</ele>
        <time>2011-07-21T11:03:39Z</time>
      </trkpt>
      <trkpt lat="42.87226" lon="0.18117">
        <ele>2320</ele>
        <time>2011-07-21T11:03:46Z</time>
      </trkpt>
      <trkpt lat="42.87227" lon="0.18114">
        <ele>2320</ele>
        <time>2011-07-21T11:03:48Z</time>
      </trkpt>
      <trkpt lat="42.87228" lon="0.18112">
        <ele>2320</ele>
        <time>2011-07-21T11:03:50Z</time>
      </trkpt>
      <trkpt lat="42.87227" lon="0.18107">
        <ele>2321</ele>
        <time>2011-07-21T11:03:54Z</time>
      </trkpt>
      <trkpt lat="42.87226" lon="0.18104">
        <ele>2321</ele>
        <time>2011-07-21T11:03:56Z</time>
      </trkpt>
      <trkpt lat="42.87226" lon="0.18102">
        <ele>2321</ele>
        <time>2011-07-21T11:03:58Z</time>
      </trkpt>
      <trkpt lat="42.87225" lon="0.18096">
        <ele>2321</ele>
        <time>2011-07-21T11:04:02Z</time>
      </trkpt>
      <trkpt lat="42.87225" lon="0.18093">
        <ele>2321</ele>
        <time>2011-07-21T11:04:04Z</time>
      </trkpt>
      <trkpt lat="42.87225" lon="0.1809">
        <ele>2321</ele>
        <time>2011-07-21T11:04:06Z</time>
      </trkpt>
      <trkpt lat="42.87225" lon="0.18086">
        <ele>2321</ele>
        <time>2011-07-21T11:04:10Z</time>
      </trkpt>
      <trkpt lat="42.87224" lon="0.18082">
        <ele>2321</ele>
        <time>2011-07-21T11:04:13Z</time>
      </trkpt>
      <trkpt lat="42.87222" lon="0.18071">
        <ele>2321</ele>
        <time>2011-07-21T11:04:20Z</time>
      </trkpt>
      <trkpt lat="42.87222" lon="0.18068">
        <ele>2321</ele>
        <time>2011-07-21T11:04:22Z</time>
      </trkpt>
      <trkpt lat="42.87223" lon="0.18065">
        <ele>2321</ele>
        <time>2011-07-21T11:04:24Z</time>
      </trkpt>
      <trkpt lat="42.87223" lon="0.18059">
        <ele>2321</ele>
        <time>2011-07-21T11:04:28Z</time>
      </trkpt>
      <trkpt lat="42.87222" lon="0.18046">
        <ele>2321</ele>
        <time>2011-07-21T11:04:40Z</time>
      </trkpt>
      <trkpt lat="42.87222" lon="0.18043">
        <ele>2321</ele>
        <time>2011-07-21T11:04:42Z</time>
      </trkpt>
      <trkpt lat="42.87221" lon="0.18038">
        <ele>2321</ele>
        <time>2011-07-21T11:04:46Z</time>
      </trkpt>
      <trkpt lat="42.87221" lon="0.18036">
        <ele>2321</ele>
        <time>2011-07-21T11:04:48Z</time>
      </trkpt>
      <trkpt lat="42.87221" lon="0.18033">
        <ele>2321</ele>
        <time>2011-07-21T11:04:50Z</time>
      </trkpt>
      <trkpt lat="42.87219" lon="0.18024">
        <ele>2321</ele>
        <time>2011-07-21T11:04:57Z</time>
      </trkpt>
      <trkpt lat="42.87217" lon="0.18019">
        <ele>2321</ele>
        <time>2011-07-21T11:05:01Z</time>
      </trkpt>
      <trkpt lat="42.87217" lon="0.18014">
        <ele>2321</ele>
        <time>2011-07-21T11:05:06Z</time>
      </trkpt>
      <trkpt lat="42.87216" lon="0.18012">
        <ele>2321</ele>
        <time>2011-07-21T11:05:09Z</time>
      </trkpt>
      <trkpt lat="42.87216" lon="0.18009">
        <ele>2321</ele>
        <time>2011-07-21T11:05:11Z</time>
      </trkpt>
      <trkpt lat="42.87216" lon="0.18005">
        <ele>2321</ele>
        <time>2011-07-21T11:05:15Z</time>
      </trkpt>
      <trkpt lat="42.87216" lon="0.18003">
        <ele>2321</ele>
        <time>2011-07-21T11:05:17Z</time>
      </trkpt>
      <trkpt lat="42.87216" lon="0.18001">
        <ele>2321</ele>
        <time>2011-07-21T11:05:19Z</time>
      </trkpt>
      <trkpt lat="42.87215" lon="0.17997">
        <ele>2321</ele>
        <time>2011-07-21T11:05:34Z</time>
      </trkpt>
      <trkpt lat="42.87215" lon="0.17992">
        <ele>2321</ele>
        <time>2011-07-21T11:05:38Z</time>
      </trkpt>
      <trkpt lat="42.87212" lon="0.17987">
        <ele>2321</ele>
        <time>2011-07-21T11:05:44Z</time>
      </trkpt>
      <trkpt lat="42.87211" lon="0.17985">
        <ele>2321</ele>
        <time>2011-07-21T11:05:46Z</time>
      </trkpt>
      <trkpt lat="42.87209" lon="0.17979">
        <ele>2321</ele>
        <time>2011-07-21T11:05:59Z</time>
      </trkpt>
      <trkpt lat="42.87209" lon="0.17976">
        <ele>2321</ele>
        <time>2011-07-21T11:06:01Z</time>
      </trkpt>
      <trkpt lat="42.8721" lon="0.1797">
        <ele>2321</ele>
        <time>2011-07-21T11:06:05Z</time>
      </trkpt>
      <trkpt lat="42.8721" lon="0.17968">
        <ele>2321</ele>
        <time>2011-07-21T11:06:07Z</time>
      </trkpt>
      <trkpt lat="42.87209" lon="0.17965">
        <ele>2321</ele>
        <time>2011-07-21T11:06:09Z</time>
      </trkpt>
      <trkpt lat="42.8721" lon="0.1796">
        <ele>2321</ele>
        <time>2011-07-21T11:06:13Z</time>
      </trkpt>
      <trkpt lat="42.8721" lon="0.17956">
        <ele>2321</ele>
        <time>2011-07-21T11:06:16Z</time>
      </trkpt>
      <trkpt lat="42.8721" lon="0.17953">
        <ele>2321</ele>
        <time>2011-07-21T11:06:18Z</time>
      </trkpt>
      <trkpt lat="42.8721" lon="0.17946">
        <ele>2321</ele>
        <time>2011-07-21T11:06:22Z</time>
      </trkpt>
      <trkpt lat="42.8721" lon="0.17943">
        <ele>2321</ele>
        <time>2011-07-21T11:06:24Z</time>
      </trkpt>
      <trkpt lat="42.8721" lon="0.17939">
        <ele>2321</ele>
        <time>2011-07-21T11:06:26Z</time>
      </trkpt>
      <trkpt lat="42.87213" lon="0.17932">
        <ele>2321</ele>
        <time>2011-07-21T11:06:31Z</time>
      </trkpt>
      <trkpt lat="42.87215" lon="0.1793">
        <ele>2321</ele>
        <time>2011-07-21T11:06:33Z</time>
      </trkpt>
      <trkpt lat="42.87216" lon="0.17928">
        <ele>2321</ele>
        <time>2011-07-21T11:06:35Z</time>
      </trkpt>
      <trkpt lat="42.87219" lon="0.17923">
        <ele>2321</ele>
        <time>2011-07-21T11:06:39Z</time>
      </trkpt>
      <trkpt lat="42.8722" lon="0.17921">
        <ele>2321</ele>
        <time>2011-07-21T11:06:41Z</time>
      </trkpt>
      <trkpt lat="42.87225" lon="0.17913">
        <ele>2321</ele>
        <time>2011-07-21T11:06:48Z</time>
      </trkpt>
      <trkpt lat="42.87229" lon="0.17909">
        <ele>2321</ele>
        <time>2011-07-21T11:06:52Z</time>
      </trkpt>
      <trkpt lat="42.87233" lon="0.17906">
        <ele>2321</ele>
        <time>2011-07-21T11:06:56Z</time>
      </trkpt>
      <trkpt lat="42.87234" lon="0.17904">
        <ele>2321</ele>
        <time>2011-07-21T11:06:58Z</time>
      </trkpt>
      <trkpt lat="42.87242" lon="0.17896">
        <ele>2321</ele>
        <time>2011-07-21T11:07:06Z</time>
      </trkpt>
      <trkpt lat="42.87243" lon="0.17894">
        <ele>2321</ele>
        <time>2011-07-21T11:07:08Z</time>
      </trkpt>
      <trkpt lat="42.87246" lon="0.17893">
        <ele>2321</ele>
        <time>2011-07-21T11:07:32Z</time>
      </trkpt>
      <trkpt lat="42.87255" lon="0.17878">
        <ele>2321</ele>
        <time>2011-07-21T11:07:44Z</time>
      </trkpt>
      <trkpt lat="42.87261" lon="0.17872">
        <ele>2321</ele>
        <time>2011-07-21T11:07:52Z</time>
      </trkpt>
      <trkpt lat="42.87263" lon="0.17871">
        <ele>2321</ele>
        <time>2011-07-21T11:07:54Z</time>
      </trkpt>
      <trkpt lat="42.87266" lon="0.17867">
        <ele>2322</ele>
        <time>2011-07-21T11:07:58Z</time>
      </trkpt>
      <trkpt lat="42.87267" lon="0.17866">
        <ele>2322</ele>
        <time>2011-07-21T11:08:00Z</time>
      </trkpt>
      <trkpt lat="42.87269" lon="0.17864">
        <ele>2322</ele>
        <time>2011-07-21T11:08:02Z</time>
      </trkpt>
      <trkpt lat="42.87272" lon="0.17862">
        <ele>2322</ele>
        <time>2011-07-21T11:08:06Z</time>
      </trkpt>
      <trkpt lat="42.87273" lon="0.17862">
        <ele>2323</ele>
        <time>2011-07-21T11:08:08Z</time>
      </trkpt>
      <trkpt lat="42.87275" lon="0.1786">
        <ele>2323</ele>
        <time>2011-07-21T11:08:10Z</time>
      </trkpt>
      <trkpt lat="42.87277" lon="0.17857">
        <ele>2323</ele>
        <time>2011-07-21T11:08:14Z</time>
      </trkpt>
      <trkpt lat="42.87278" lon="0.17855">
        <ele>2324</ele>
        <time>2011-07-21T11:08:16Z</time>
      </trkpt>
      <trkpt lat="42.87278" lon="0.17853">
        <ele>2324</ele>
        <time>2011-07-21T11:08:18Z</time>
      </trkpt>
      <trkpt lat="42.87281" lon="0.17851">
        <ele>2325</ele>
        <time>2011-07-21T11:08:28Z</time>
      </trkpt>
      <trkpt lat="42.87282" lon="0.1785">
        <ele>2325</ele>
        <time>2011-07-21T11:08:30Z</time>
      </trkpt>
      <trkpt lat="42.87283" lon="0.17849">
        <ele>2325</ele>
        <time>2011-07-21T11:08:32Z</time>
      </trkpt>
      <trkpt lat="42.87284" lon="0.17845">
        <ele>2325</ele>
        <time>2011-07-21T11:08:36Z</time>
      </trkpt>
      <trkpt lat="42.87285" lon="0.17844">
        <ele>2326</ele>
        <time>2011-07-21T11:08:38Z</time>
      </trkpt>
      <trkpt lat="42.87287" lon="0.17842">
        <ele>2326</ele>
        <time>2011-07-21T11:08:41Z</time>
      </trkpt>
      <trkpt lat="42.87288" lon="0.17838">
        <ele>2327</ele>
        <time>2011-07-21T11:08:48Z</time>
      </trkpt>
      <trkpt lat="42.87289" lon="0.17836">
        <ele>2327</ele>
        <time>2011-07-21T11:08:50Z</time>
      </trkpt>
      <trkpt lat="42.87289" lon="0.17833">
        <ele>2327</ele>
        <time>2011-07-21T11:08:52Z</time>
      </trkpt>
      <trkpt lat="42.87291" lon="0.17829">
        <ele>2327</ele>
        <time>2011-07-21T11:08:56Z</time>
      </trkpt>
      <trkpt lat="42.87292" lon="0.17827">
        <ele>2327</ele>
        <time>2011-07-21T11:08:58Z</time>
      </trkpt>
      <trkpt lat="42.87292" lon="0.17826">
        <ele>2327</ele>
        <time>2011-07-21T11:09:00Z</time>
      </trkpt>
      <trkpt lat="42.87295" lon="0.17822">
        <ele>2328</ele>
        <time>2011-07-21T11:09:05Z</time>
      </trkpt>
      <trkpt lat="42.87296" lon="0.17821">
        <ele>2328</ele>
        <time>2011-07-21T11:09:07Z</time>
      </trkpt>
      <trkpt lat="42.87297" lon="0.1782">
        <ele>2329</ele>
        <time>2011-07-21T11:09:10Z</time>
      </trkpt>
      <trkpt lat="42.87299" lon="0.17817">
        <ele>2329</ele>
        <time>2011-07-21T11:09:14Z</time>
      </trkpt>
      <trkpt lat="42.873" lon="0.17815">
        <ele>2330</ele>
        <time>2011-07-21T11:09:17Z</time>
      </trkpt>
      <trkpt lat="42.87301" lon="0.17814">
        <ele>2330</ele>
        <time>2011-07-21T11:09:19Z</time>
      </trkpt>
      <trkpt lat="42.87304" lon="0.17809">
        <ele>2331</ele>
        <time>2011-07-21T11:09:25Z</time>
      </trkpt>
      <trkpt lat="42.87305" lon="0.17807">
        <ele>2331</ele>
        <time>2011-07-21T11:09:27Z</time>
      </trkpt>
      <trkpt lat="42.87307" lon="0.17805">
        <ele>2331</ele>
        <time>2011-07-21T11:09:29Z</time>
      </trkpt>
      <trkpt lat="42.8731" lon="0.178">
        <ele>2332</ele>
        <time>2011-07-21T11:09:35Z</time>
      </trkpt>
      <trkpt lat="42.87311" lon="0.17798">
        <ele>2332</ele>
        <time>2011-07-21T11:09:37Z</time>
      </trkpt>
      <trkpt lat="42.87312" lon="0.17797">
        <ele>2333</ele>
        <time>2011-07-21T11:09:39Z</time>
      </trkpt>
      <trkpt lat="42.87313" lon="0.17794">
        <ele>2335</ele>
        <time>2011-07-21T11:09:54Z</time>
      </trkpt>
      <trkpt lat="42.87316" lon="0.17792">
        <ele>2335</ele>
        <time>2011-07-21T11:09:58Z</time>
      </trkpt>
      <trkpt lat="42.87317" lon="0.1779">
        <ele>2335</ele>
        <time>2011-07-21T11:10:01Z</time>
      </trkpt>
      <trkpt lat="42.8732" lon="0.17788">
        <ele>2335</ele>
        <time>2011-07-21T11:10:07Z</time>
      </trkpt>
      <trkpt lat="42.87323" lon="0.17784">
        <ele>2336</ele>
        <time>2011-07-21T11:10:12Z</time>
      </trkpt>
      <trkpt lat="42.87324" lon="0.1778">
        <ele>2336</ele>
        <time>2011-07-21T11:10:16Z</time>
      </trkpt>
      <trkpt lat="42.87325" lon="0.17778">
        <ele>2337</ele>
        <time>2011-07-21T11:10:19Z</time>
      </trkpt>
      <trkpt lat="42.87328" lon="0.17775">
        <ele>2338</ele>
        <time>2011-07-21T11:10:24Z</time>
      </trkpt>
      <trkpt lat="42.87329" lon="0.17772">
        <ele>2339</ele>
        <time>2011-07-21T11:10:30Z</time>
      </trkpt>
      <trkpt lat="42.8733" lon="0.17771">
        <ele>2339</ele>
        <time>2011-07-21T11:10:32Z</time>
      </trkpt>
      <trkpt lat="42.87331" lon="0.17769">
        <ele>2339</ele>
        <time>2011-07-21T11:10:35Z</time>
      </trkpt>
      <trkpt lat="42.87334" lon="0.17765">
        <ele>2341</ele>
        <time>2011-07-21T11:10:41Z</time>
      </trkpt>
      <trkpt lat="42.87334" lon="0.17763">
        <ele>2341</ele>
        <time>2011-07-21T11:10:44Z</time>
      </trkpt>
      <trkpt lat="42.87338" lon="0.1776">
        <ele>2343</ele>
        <time>2011-07-21T11:10:52Z</time>
      </trkpt>
      <trkpt lat="42.87339" lon="0.17758">
        <ele>2343</ele>
        <time>2011-07-21T11:10:56Z</time>
      </trkpt>
      <trkpt lat="42.8734" lon="0.17757">
        <ele>2344</ele>
        <time>2011-07-21T11:10:58Z</time>
      </trkpt>
      <trkpt lat="42.87342" lon="0.17753">
        <ele>2344</ele>
        <time>2011-07-21T11:11:04Z</time>
      </trkpt>
      <trkpt lat="42.87343" lon="0.17752">
        <ele>2345</ele>
        <time>2011-07-21T11:11:06Z</time>
      </trkpt>
      <trkpt lat="42.87344" lon="0.1775">
        <ele>2345</ele>
        <time>2011-07-21T11:11:09Z</time>
      </trkpt>
      <trkpt lat="42.87345" lon="0.17748">
        <ele>2346</ele>
        <time>2011-07-21T11:11:16Z</time>
      </trkpt>
      <trkpt lat="42.87346" lon="0.17744">
        <ele>2347</ele>
        <time>2011-07-21T11:11:20Z</time>
      </trkpt>
      <trkpt lat="42.87349" lon="0.17739">
        <ele>2348</ele>
        <time>2011-07-21T11:11:28Z</time>
      </trkpt>
      <trkpt lat="42.8735" lon="0.17737">
        <ele>2349</ele>
        <time>2011-07-21T11:11:31Z</time>
      </trkpt>
      <trkpt lat="42.87352" lon="0.17735">
        <ele>2349</ele>
        <time>2011-07-21T11:11:34Z</time>
      </trkpt>
      <trkpt lat="42.87356" lon="0.17729">
        <ele>2351</ele>
        <time>2011-07-21T11:11:44Z</time>
      </trkpt>
      <trkpt lat="42.87358" lon="0.17727">
        <ele>2351</ele>
        <time>2011-07-21T11:11:47Z</time>
      </trkpt>
      <trkpt lat="42.8736" lon="0.17723">
        <ele>2352</ele>
        <time>2011-07-21T11:11:53Z</time>
      </trkpt>
      <trkpt lat="42.87362" lon="0.17721">
        <ele>2352</ele>
        <time>2011-07-21T11:11:56Z</time>
      </trkpt>
      <trkpt lat="42.87363" lon="0.1772">
        <ele>2353</ele>
        <time>2011-07-21T11:11:59Z</time>
      </trkpt>
      <trkpt lat="42.87365" lon="0.17716">
        <ele>2353</ele>
        <time>2011-07-21T11:12:06Z</time>
      </trkpt>
      <trkpt lat="42.87365" lon="0.17714">
        <ele>2354</ele>
        <time>2011-07-21T11:12:08Z</time>
      </trkpt>
      <trkpt lat="42.87368" lon="0.17706">
        <ele>2356</ele>
        <time>2011-07-21T11:12:20Z</time>
      </trkpt>
      <trkpt lat="42.87369" lon="0.17704">
        <ele>2357</ele>
        <time>2011-07-21T11:12:24Z</time>
      </trkpt>
      <trkpt lat="42.8737" lon="0.17702">
        <ele>2357</ele>
        <time>2011-07-21T11:12:27Z</time>
      </trkpt>
      <trkpt lat="42.87371" lon="0.17699">
        <ele>2358</ele>
        <time>2011-07-21T11:12:32Z</time>
      </trkpt>
      <trkpt lat="42.87372" lon="0.17697">
        <ele>2359</ele>
        <time>2011-07-21T11:12:35Z</time>
      </trkpt>
      <trkpt lat="42.87373" lon="0.17696">
        <ele>2359</ele>
        <time>2011-07-21T11:12:37Z</time>
      </trkpt>
      <trkpt lat="42.87375" lon="0.17689">
        <ele>2361</ele>
        <time>2011-07-21T11:12:45Z</time>
      </trkpt>
      <trkpt lat="42.87376" lon="0.17688">
        <ele>2361</ele>
        <time>2011-07-21T11:12:48Z</time>
      </trkpt>
      <trkpt lat="42.87377" lon="0.17686">
        <ele>2362</ele>
        <time>2011-07-21T11:12:51Z</time>
      </trkpt>
      <trkpt lat="42.8738" lon="0.17684">
        <ele>2363</ele>
        <time>2011-07-21T11:12:57Z</time>
      </trkpt>
      <trkpt lat="42.87381" lon="0.17682">
        <ele>2363</ele>
        <time>2011-07-21T11:13:00Z</time>
      </trkpt>
      <trkpt lat="42.87383" lon="0.1768">
        <ele>2364</ele>
        <time>2011-07-21T11:13:03Z</time>
      </trkpt>
      <trkpt lat="42.87384" lon="0.17677">
        <ele>2364</ele>
        <time>2011-07-21T11:13:08Z</time>
      </trkpt>
      <trkpt lat="42.87385" lon="0.17675">
        <ele>2365</ele>
        <time>2011-07-21T11:13:11Z</time>
      </trkpt>
      <trkpt lat="42.87386" lon="0.17674">
        <ele>2366</ele>
        <time>2011-07-21T11:13:14Z</time>
      </trkpt>
      <trkpt lat="42.87387" lon="0.17671">
        <ele>2368</ele>
        <time>2011-07-21T11:13:41Z</time>
      </trkpt>
      <trkpt lat="42.87388" lon="0.17669">
        <ele>2369</ele>
        <time>2011-07-21T11:13:44Z</time>
      </trkpt>
      <trkpt lat="42.87388" lon="0.17668">
        <ele>2369</ele>
        <time>2011-07-21T11:13:46Z</time>
      </trkpt>
      <trkpt lat="42.8739" lon="0.17664">
        <ele>2372</ele>
        <time>2011-07-21T11:13:53Z</time>
      </trkpt>
      <trkpt lat="42.87392" lon="0.17661">
        <ele>2373</ele>
        <time>2011-07-21T11:14:01Z</time>
      </trkpt>
      <trkpt lat="42.87396" lon="0.17657">
        <ele>2374</ele>
        <time>2011-07-21T11:14:10Z</time>
      </trkpt>
      <trkpt lat="42.87397" lon="0.17655">
        <ele>2375</ele>
        <time>2011-07-21T11:14:13Z</time>
      </trkpt>
      <trkpt lat="42.874" lon="0.17653">
        <ele>2376</ele>
        <time>2011-07-21T11:14:20Z</time>
      </trkpt>
      <trkpt lat="42.87402" lon="0.17651">
        <ele>2376</ele>
        <time>2011-07-21T11:14:23Z</time>
      </trkpt>
      <trkpt lat="42.87402" lon="0.17648">
        <ele>2377</ele>
        <time>2011-07-21T11:14:27Z</time>
      </trkpt>
      <trkpt lat="42.87404" lon="0.17643">
        <ele>2378</ele>
        <time>2011-07-21T11:14:34Z</time>
      </trkpt>
      <trkpt lat="42.87404" lon="0.1764">
        <ele>2379</ele>
        <time>2011-07-21T11:14:38Z</time>
      </trkpt>
      <trkpt lat="42.87405" lon="0.17638">
        <ele>2380</ele>
        <time>2011-07-21T11:14:41Z</time>
      </trkpt>
      <trkpt lat="42.87406" lon="0.17633">
        <ele>2381</ele>
        <time>2011-07-21T11:14:50Z</time>
      </trkpt>
      <trkpt lat="42.87406" lon="0.17631">
        <ele>2382</ele>
        <time>2011-07-21T11:14:53Z</time>
      </trkpt>
      <trkpt lat="42.87406" lon="0.17627">
        <ele>2383</ele>
        <time>2011-07-21T11:14:59Z</time>
      </trkpt>
      <trkpt lat="42.87406" lon="0.17626">
        <ele>2384</ele>
        <time>2011-07-21T11:15:02Z</time>
      </trkpt>
      <trkpt lat="42.87406" lon="0.17624">
        <ele>2384</ele>
        <time>2011-07-21T11:15:05Z</time>
      </trkpt>
      <trkpt lat="42.87406" lon="0.17619">
        <ele>2385</ele>
        <time>2011-07-21T11:15:11Z</time>
      </trkpt>
      <trkpt lat="42.87406" lon="0.17617">
        <ele>2386</ele>
        <time>2011-07-21T11:15:14Z</time>
      </trkpt>
      <trkpt lat="42.87406" lon="0.17616">
        <ele>2386</ele>
        <time>2011-07-21T11:15:17Z</time>
      </trkpt>
      <trkpt lat="42.87407" lon="0.1761">
        <ele>2388</ele>
        <time>2011-07-21T11:15:23Z</time>
      </trkpt>
      <trkpt lat="42.87406" lon="0.17606">
        <ele>2388</ele>
        <time>2011-07-21T11:15:27Z</time>
      </trkpt>
      <trkpt lat="42.87406" lon="0.17604">
        <ele>2389</ele>
        <time>2011-07-21T11:15:29Z</time>
      </trkpt>
      <trkpt lat="42.87405" lon="0.17596">
        <ele>2389</ele>
        <time>2011-07-21T11:15:35Z</time>
      </trkpt>
      <trkpt lat="42.87405" lon="0.17594">
        <ele>2390</ele>
        <time>2011-07-21T11:15:37Z</time>
      </trkpt>
      <trkpt lat="42.87405" lon="0.17589">
        <ele>2390</ele>
        <time>2011-07-21T11:15:41Z</time>
      </trkpt>
      <trkpt lat="42.87403" lon="0.17581">
        <ele>2390</ele>
        <time>2011-07-21T11:15:48Z</time>
      </trkpt>
      <trkpt lat="42.87402" lon="0.17578">
        <ele>2390</ele>
        <time>2011-07-21T11:15:50Z</time>
      </trkpt>
      <trkpt lat="42.87402" lon="0.17576">
        <ele>2391</ele>
        <time>2011-07-21T11:15:52Z</time>
      </trkpt>
      <trkpt lat="42.87402" lon="0.17569">
        <ele>2391</ele>
        <time>2011-07-21T11:15:59Z</time>
      </trkpt>
      <trkpt lat="42.87405" lon="0.17567">
        <ele>2391</ele>
        <time>2011-07-21T11:16:04Z</time>
      </trkpt>
      <trkpt lat="42.87405" lon="0.17564">
        <ele>2391</ele>
        <time>2011-07-21T11:16:07Z</time>
      </trkpt>
      <trkpt lat="42.87407" lon="0.17561">
        <ele>2392</ele>
        <time>2011-07-21T11:16:13Z</time>
      </trkpt>
      <trkpt lat="42.87407" lon="0.17559">
        <ele>2392</ele>
        <time>2011-07-21T11:16:15Z</time>
      </trkpt>
      <trkpt lat="42.87408" lon="0.17558">
        <ele>2393</ele>
        <time>2011-07-21T11:16:19Z</time>
      </trkpt>
      <trkpt lat="42.87409" lon="0.17555">
        <ele>2393</ele>
        <time>2011-07-21T11:16:25Z</time>
      </trkpt>
      <trkpt lat="42.8741" lon="0.17553">
        <ele>2394</ele>
        <time>2011-07-21T11:16:29Z</time>
      </trkpt>
      <trkpt lat="42.87411" lon="0.17551">
        <ele>2394</ele>
        <time>2011-07-21T11:16:32Z</time>
      </trkpt>
      <trkpt lat="42.87412" lon="0.17548">
        <ele>2396</ele>
        <time>2011-07-21T11:16:39Z</time>
      </trkpt>
      <trkpt lat="42.87413" lon="0.17546">
        <ele>2397</ele>
        <time>2011-07-21T11:16:42Z</time>
      </trkpt>
      <trkpt lat="42.87413" lon="0.17545">
        <ele>2397</ele>
        <time>2011-07-21T11:16:45Z</time>
      </trkpt>
      <trkpt lat="42.87414" lon="0.17541">
        <ele>2398</ele>
        <time>2011-07-21T11:16:52Z</time>
      </trkpt>
      <trkpt lat="42.87414" lon="0.17539">
        <ele>2399</ele>
        <time>2011-07-21T11:16:55Z</time>
      </trkpt>
      <trkpt lat="42.87414" lon="0.17538">
        <ele>2399</ele>
        <time>2011-07-21T11:16:58Z</time>
      </trkpt>
      <trkpt lat="42.87414" lon="0.17535">
        <ele>2400</ele>
        <time>2011-07-21T11:17:02Z</time>
      </trkpt>
      <trkpt lat="42.87415" lon="0.17532">
        <ele>2401</ele>
        <time>2011-07-21T11:17:07Z</time>
      </trkpt>
      <trkpt lat="42.87416" lon="0.1753">
        <ele>2402</ele>
        <time>2011-07-21T11:17:10Z</time>
      </trkpt>
      <trkpt lat="42.87412" lon="0.17522">
        <ele>2403</ele>
        <time>2011-07-21T11:17:21Z</time>
      </trkpt>
      <trkpt lat="42.87411" lon="0.1752">
        <ele>2404</ele>
        <time>2011-07-21T11:17:25Z</time>
      </trkpt>
      <trkpt lat="42.87408" lon="0.17514">
        <ele>2404</ele>
        <time>2011-07-21T11:17:31Z</time>
      </trkpt>
      <trkpt lat="42.87406" lon="0.17508">
        <ele>2404</ele>
        <time>2011-07-21T11:17:35Z</time>
      </trkpt>
      <trkpt lat="42.87406" lon="0.17506">
        <ele>2404</ele>
        <time>2011-07-21T11:17:37Z</time>
      </trkpt>
      <trkpt lat="42.87403" lon="0.175">
        <ele>2404</ele>
        <time>2011-07-21T11:17:43Z</time>
      </trkpt>
      <trkpt lat="42.87401" lon="0.17499">
        <ele>2404</ele>
        <time>2011-07-21T11:17:45Z</time>
      </trkpt>
      <trkpt lat="42.874" lon="0.17497">
        <ele>2404</ele>
        <time>2011-07-21T11:17:47Z</time>
      </trkpt>
      <trkpt lat="42.87398" lon="0.17489">
        <ele>2404</ele>
        <time>2011-07-21T11:17:53Z</time>
      </trkpt>
      <trkpt lat="42.87397" lon="0.17485">
        <ele>2404</ele>
        <time>2011-07-21T11:17:56Z</time>
      </trkpt>
      <trkpt lat="42.87397" lon="0.17482">
        <ele>2404</ele>
        <time>2011-07-21T11:17:58Z</time>
      </trkpt>
      <trkpt lat="42.87395" lon="0.17477">
        <ele>2404</ele>
        <time>2011-07-21T11:18:02Z</time>
      </trkpt>
      <trkpt lat="42.87395" lon="0.17471">
        <ele>2404</ele>
        <time>2011-07-21T11:18:06Z</time>
      </trkpt>
      <trkpt lat="42.87394" lon="0.1747">
        <ele>2404</ele>
        <time>2011-07-21T11:18:09Z</time>
      </trkpt>
      <trkpt lat="42.87393" lon="0.17464">
        <ele>2404</ele>
        <time>2011-07-21T11:18:15Z</time>
      </trkpt>
      <trkpt lat="42.87394" lon="0.17462">
        <ele>2404</ele>
        <time>2011-07-21T11:18:37Z</time>
      </trkpt>
      <trkpt lat="42.87394" lon="0.17458">
        <ele>2404</ele>
        <time>2011-07-21T11:18:41Z</time>
      </trkpt>
      <trkpt lat="42.87394" lon="0.17454">
        <ele>2404</ele>
        <time>2011-07-21T11:18:46Z</time>
      </trkpt>
      <trkpt lat="42.87395" lon="0.17452">
        <ele>2404</ele>
        <time>2011-07-21T11:18:49Z</time>
      </trkpt>
      <trkpt lat="42.87395" lon="0.1745">
        <ele>2404</ele>
        <time>2011-07-21T11:18:52Z</time>
      </trkpt>
      <trkpt lat="42.87394" lon="0.17446">
        <ele>2404</ele>
        <time>2011-07-21T11:18:58Z</time>
      </trkpt>
      <trkpt lat="42.87394" lon="0.17444">
        <ele>2404</ele>
        <time>2011-07-21T11:19:00Z</time>
      </trkpt>
      <trkpt lat="42.87395" lon="0.17442">
        <ele>2404</ele>
        <time>2011-07-21T11:19:03Z</time>
      </trkpt>
      <trkpt lat="42.87395" lon="0.17438">
        <ele>2404</ele>
        <time>2011-07-21T11:19:09Z</time>
      </trkpt>
      <trkpt lat="42.87394" lon="0.17433">
        <ele>2405</ele>
        <time>2011-07-21T11:19:16Z</time>
      </trkpt>
      <trkpt lat="42.87395" lon="0.1743">
        <ele>2406</ele>
        <time>2011-07-21T11:19:21Z</time>
      </trkpt>
      <trkpt lat="42.87394" lon="0.17428">
        <ele>2406</ele>
        <time>2011-07-21T11:19:23Z</time>
      </trkpt>
      <trkpt lat="42.87394" lon="0.17426">
        <ele>2406</ele>
        <time>2011-07-21T11:19:25Z</time>
      </trkpt>
      <trkpt lat="42.87394" lon="0.17421">
        <ele>2407</ele>
        <time>2011-07-21T11:19:31Z</time>
      </trkpt>
      <trkpt lat="42.87395" lon="0.1742">
        <ele>2407</ele>
        <time>2011-07-21T11:19:52Z</time>
      </trkpt>
      <trkpt lat="42.87395" lon="0.17418">
        <ele>2407</ele>
        <time>2011-07-21T11:20:02Z</time>
      </trkpt>
      <trkpt lat="42.87394" lon="0.17413">
        <ele>2407</ele>
        <time>2011-07-21T11:20:07Z</time>
      </trkpt>
      <trkpt lat="42.87394" lon="0.17409">
        <ele>2407</ele>
        <time>2011-07-21T11:20:11Z</time>
      </trkpt>
      <trkpt lat="42.87394" lon="0.17407">
        <ele>2407</ele>
        <time>2011-07-21T11:20:14Z</time>
      </trkpt>
      <trkpt lat="42.87393" lon="0.17403">
        <ele>2408</ele>
        <time>2011-07-21T11:20:18Z</time>
      </trkpt>
      <trkpt lat="42.87393" lon="0.17401">
        <ele>2408</ele>
        <time>2011-07-21T11:20:20Z</time>
      </trkpt>
      <trkpt lat="42.87394" lon="0.174">
        <ele>2409</ele>
        <time>2011-07-21T11:20:22Z</time>
      </trkpt>
      <trkpt lat="42.87394" lon="0.17396">
        <ele>2411</ele>
        <time>2011-07-21T11:20:29Z</time>
      </trkpt>
      <trkpt lat="42.87394" lon="0.17394">
        <ele>2411</ele>
        <time>2011-07-21T11:20:31Z</time>
      </trkpt>
      <trkpt lat="42.87393" lon="0.17393">
        <ele>2412</ele>
        <time>2011-07-21T11:20:33Z</time>
      </trkpt>
      <trkpt lat="42.87392" lon="0.17387">
        <ele>2413</ele>
        <time>2011-07-21T11:20:41Z</time>
      </trkpt>
      <trkpt lat="42.87394" lon="0.17381">
        <ele>2414</ele>
        <time>2011-07-21T11:20:49Z</time>
      </trkpt>
      <trkpt lat="42.87394" lon="0.1738">
        <ele>2414</ele>
        <time>2011-07-21T11:20:52Z</time>
      </trkpt>
      <trkpt lat="42.87394" lon="0.17378">
        <ele>2415</ele>
        <time>2011-07-21T11:20:55Z</time>
      </trkpt>
      <trkpt lat="42.87392" lon="0.17374">
        <ele>2416</ele>
        <time>2011-07-21T11:21:00Z</time>
      </trkpt>
      <trkpt lat="42.87392" lon="0.17372">
        <ele>2416</ele>
        <time>2011-07-21T11:21:02Z</time>
      </trkpt>
      <trkpt lat="42.87391" lon="0.17369">
        <ele>2417</ele>
        <time>2011-07-21T11:21:06Z</time>
      </trkpt>
      <trkpt lat="42.8739" lon="0.17366">
        <ele>2418</ele>
        <time>2011-07-21T11:21:12Z</time>
      </trkpt>
      <trkpt lat="42.87389" lon="0.17362">
        <ele>2420</ele>
        <time>2011-07-21T11:21:18Z</time>
      </trkpt>
      <trkpt lat="42.87387" lon="0.17358">
        <ele>2420</ele>
        <time>2011-07-21T11:21:22Z</time>
      </trkpt>
      <trkpt lat="42.87385" lon="0.17355">
        <ele>2420</ele>
        <time>2011-07-21T11:21:26Z</time>
      </trkpt>
      <trkpt lat="42.87384" lon="0.17353">
        <ele>2420</ele>
        <time>2011-07-21T11:21:28Z</time>
      </trkpt>
      <trkpt lat="42.87383" lon="0.17349">
        <ele>2420</ele>
        <time>2011-07-21T11:21:32Z</time>
      </trkpt>
      <trkpt lat="42.8738" lon="0.17345">
        <ele>2421</ele>
        <time>2011-07-21T11:21:36Z</time>
      </trkpt>
      <trkpt lat="42.8738" lon="0.17343">
        <ele>2421</ele>
        <time>2011-07-21T11:21:38Z</time>
      </trkpt>
      <trkpt lat="42.87379" lon="0.1734">
        <ele>2422</ele>
        <time>2011-07-21T11:21:45Z</time>
      </trkpt>
      <trkpt lat="42.87377" lon="0.17335">
        <ele>2422</ele>
        <time>2011-07-21T11:21:49Z</time>
      </trkpt>
      <trkpt lat="42.87376" lon="0.1733">
        <ele>2423</ele>
        <time>2011-07-21T11:21:55Z</time>
      </trkpt>
      <trkpt lat="42.87375" lon="0.17328">
        <ele>2423</ele>
        <time>2011-07-21T11:21:57Z</time>
      </trkpt>
      <trkpt lat="42.87375" lon="0.17325">
        <ele>2424</ele>
        <time>2011-07-21T11:22:01Z</time>
      </trkpt>
      <trkpt lat="42.87374" lon="0.17322">
        <ele>2424</ele>
        <time>2011-07-21T11:22:05Z</time>
      </trkpt>
      <trkpt lat="42.87373" lon="0.1732">
        <ele>2425</ele>
        <time>2011-07-21T11:22:07Z</time>
      </trkpt>
      <trkpt lat="42.87371" lon="0.17317">
        <ele>2426</ele>
        <time>2011-07-21T11:22:11Z</time>
      </trkpt>
      <trkpt lat="42.8737" lon="0.17313">
        <ele>2427</ele>
        <time>2011-07-21T11:22:16Z</time>
      </trkpt>
      <trkpt lat="42.87368" lon="0.1731">
        <ele>2427</ele>
        <time>2011-07-21T11:22:20Z</time>
      </trkpt>
      <trkpt lat="42.87368" lon="0.17307">
        <ele>2427</ele>
        <time>2011-07-21T11:22:26Z</time>
      </trkpt>
      <trkpt lat="42.87367" lon="0.17305">
        <ele>2427</ele>
        <time>2011-07-21T11:22:30Z</time>
      </trkpt>
      <trkpt lat="42.87366" lon="0.17305">
        <ele>2429</ele>
        <time>2011-07-21T11:22:40Z</time>
      </trkpt>
      <trkpt lat="42.87364" lon="0.17302">
        <ele>2429</ele>
        <time>2011-07-21T11:22:45Z</time>
      </trkpt>
      <trkpt lat="42.87363" lon="0.17301">
        <ele>2429</ele>
        <time>2011-07-21T11:22:47Z</time>
      </trkpt>
      <trkpt lat="42.87363" lon="0.17299">
        <ele>2429</ele>
        <time>2011-07-21T11:22:50Z</time>
      </trkpt>
      <trkpt lat="42.87361" lon="0.17297">
        <ele>2431</ele>
        <time>2011-07-21T11:23:03Z</time>
      </trkpt>
      <trkpt lat="42.8736" lon="0.17296">
        <ele>2431</ele>
        <time>2011-07-21T11:23:18Z</time>
      </trkpt>
      <trkpt lat="42.87358" lon="0.17295">
        <ele>2431</ele>
        <time>2011-07-21T11:23:20Z</time>
      </trkpt>
      <trkpt lat="42.87353" lon="0.17286">
        <ele>2431</ele>
        <time>2011-07-21T11:23:31Z</time>
      </trkpt>
      <trkpt lat="42.87352" lon="0.17284">
        <ele>2431</ele>
        <time>2011-07-21T11:23:33Z</time>
      </trkpt>
      <trkpt lat="42.87349" lon="0.17274">
        <ele>2433</ele>
        <time>2011-07-21T11:23:41Z</time>
      </trkpt>
      <trkpt lat="42.87349" lon="0.17272">
        <ele>2433</ele>
        <time>2011-07-21T11:23:43Z</time>
      </trkpt>
      <trkpt lat="42.87347" lon="0.17264">
        <ele>2435</ele>
        <time>2011-07-21T11:23:51Z</time>
      </trkpt>
      <trkpt lat="42.87347" lon="0.17262">
        <ele>2435</ele>
        <time>2011-07-21T11:23:53Z</time>
      </trkpt>
      <trkpt lat="42.87347" lon="0.17258">
        <ele>2436</ele>
        <time>2011-07-21T11:23:57Z</time>
      </trkpt>
      <trkpt lat="42.87347" lon="0.17256">
        <ele>2437</ele>
        <time>2011-07-21T11:24:01Z</time>
      </trkpt>
      <trkpt lat="42.87346" lon="0.17249">
        <ele>2437</ele>
        <time>2011-07-21T11:24:07Z</time>
      </trkpt>
      <trkpt lat="42.87345" lon="0.17246">
        <ele>2438</ele>
        <time>2011-07-21T11:24:10Z</time>
      </trkpt>
      <trkpt lat="42.87345" lon="0.17244">
        <ele>2438</ele>
        <time>2011-07-21T11:24:12Z</time>
      </trkpt>
      <trkpt lat="42.87346" lon="0.17239">
        <ele>2439</ele>
        <time>2011-07-21T11:24:20Z</time>
      </trkpt>
      <trkpt lat="42.87347" lon="0.17237">
        <ele>2440</ele>
        <time>2011-07-21T11:24:23Z</time>
      </trkpt>
      <trkpt lat="42.87348" lon="0.17235">
        <ele>2440</ele>
        <time>2011-07-21T11:24:26Z</time>
      </trkpt>
      <trkpt lat="42.87349" lon="0.17233">
        <ele>2441</ele>
        <time>2011-07-21T11:24:31Z</time>
      </trkpt>
      <trkpt lat="42.87349" lon="0.17231">
        <ele>2441</ele>
        <time>2011-07-21T11:24:33Z</time>
      </trkpt>
      <trkpt lat="42.8735" lon="0.1723">
        <ele>2442</ele>
        <time>2011-07-21T11:24:37Z</time>
      </trkpt>
      <trkpt lat="42.87352" lon="0.17227">
        <ele>2444</ele>
        <time>2011-07-21T11:24:43Z</time>
      </trkpt>
      <trkpt lat="42.87352" lon="0.17226">
        <ele>2444</ele>
        <time>2011-07-21T11:24:48Z</time>
      </trkpt>
      <trkpt lat="42.87354" lon="0.1722">
        <ele>2446</ele>
        <time>2011-07-21T11:24:57Z</time>
      </trkpt>
      <trkpt lat="42.87354" lon="0.17219">
        <ele>2447</ele>
        <time>2011-07-21T11:25:01Z</time>
      </trkpt>
      <trkpt lat="42.87354" lon="0.17217">
        <ele>2448</ele>
        <time>2011-07-21T11:25:06Z</time>
      </trkpt>
      <trkpt lat="42.87355" lon="0.17213">
        <ele>2449</ele>
        <time>2011-07-21T11:25:12Z</time>
      </trkpt>
      <trkpt lat="42.87357" lon="0.17212">
        <ele>2449</ele>
        <time>2011-07-21T11:25:15Z</time>
      </trkpt>
      <trkpt lat="42.87358" lon="0.17212">
        <ele>2450</ele>
        <time>2011-07-21T11:25:18Z</time>
      </trkpt>
      <trkpt lat="42.8736" lon="0.17211">
        <ele>2450</ele>
        <time>2011-07-21T11:25:23Z</time>
      </trkpt>
      <trkpt lat="42.87361" lon="0.17213">
        <ele>2451</ele>
        <time>2011-07-21T11:25:28Z</time>
      </trkpt>
      <trkpt lat="42.87362" lon="0.17213">
        <ele>2452</ele>
        <time>2011-07-21T11:25:51Z</time>
      </trkpt>
      <trkpt lat="42.87364" lon="0.17213">
        <ele>2452</ele>
        <time>2011-07-21T11:25:55Z</time>
      </trkpt>
      <trkpt lat="42.87365" lon="0.17214">
        <ele>2453</ele>
        <time>2011-07-21T11:25:57Z</time>
      </trkpt>
      <trkpt lat="42.87367" lon="0.17214">
        <ele>2454</ele>
        <time>2011-07-21T11:26:03Z</time>
      </trkpt>
      <trkpt lat="42.8737" lon="0.17214">
        <ele>2455</ele>
        <time>2011-07-21T11:26:08Z</time>
      </trkpt>
      <trkpt lat="42.87371" lon="0.17214">
        <ele>2456</ele>
        <time>2011-07-21T11:26:11Z</time>
      </trkpt>
      <trkpt lat="42.87373" lon="0.17214">
        <ele>2456</ele>
        <time>2011-07-21T11:26:13Z</time>
      </trkpt>
      <trkpt lat="42.87374" lon="0.17216">
        <ele>2457</ele>
        <time>2011-07-21T11:26:48Z</time>
      </trkpt>
      <trkpt lat="42.87374" lon="0.17218">
        <ele>2457</ele>
        <time>2011-07-21T11:26:50Z</time>
      </trkpt>
      <trkpt lat="42.87374" lon="0.1722">
        <ele>2457</ele>
        <time>2011-07-21T11:26:52Z</time>
      </trkpt>
      <trkpt lat="42.87373" lon="0.17216">
        <ele>2457</ele>
        <time>2011-07-21T11:27:06Z</time>
      </trkpt>
      <trkpt lat="42.87373" lon="0.17214">
        <ele>2457</ele>
        <time>2011-07-21T11:27:08Z</time>
      </trkpt>
      <trkpt lat="42.87375" lon="0.17213">
        <ele>2457</ele>
        <time>2011-07-21T11:27:15Z</time>
      </trkpt>
      <trkpt lat="42.87381" lon="0.17213">
        <ele>2457</ele>
        <time>2011-07-21T11:27:21Z</time>
      </trkpt>
      <trkpt lat="42.87382" lon="0.17213">
        <ele>2457</ele>
        <time>2011-07-21T11:27:41Z</time>
      </trkpt>
      <trkpt lat="42.87383" lon="0.17213">
        <ele>2457</ele>
        <time>2011-07-21T11:27:43Z</time>
      </trkpt>
      <trkpt lat="42.87388" lon="0.17209">
        <ele>2457</ele>
        <time>2011-07-21T11:27:48Z</time>
      </trkpt>
      <trkpt lat="42.8739" lon="0.17209">
        <ele>2457</ele>
        <time>2011-07-21T11:27:50Z</time>
      </trkpt>
      <trkpt lat="42.87392" lon="0.17209">
        <ele>2457</ele>
        <time>2011-07-21T11:27:52Z</time>
      </trkpt>
      <trkpt lat="42.87396" lon="0.17206">
        <ele>2455</ele>
        <time>2011-07-21T11:27:58Z</time>
      </trkpt>
      <trkpt lat="42.874" lon="0.17205">
        <ele>2454</ele>
        <time>2011-07-21T11:28:02Z</time>
      </trkpt>
      <trkpt lat="42.87406" lon="0.17208">
        <ele>2452</ele>
        <time>2011-07-21T11:28:08Z</time>
      </trkpt>
      <trkpt lat="42.87407" lon="0.17207">
        <ele>2451</ele>
        <time>2011-07-21T11:28:10Z</time>
      </trkpt>
      <trkpt lat="42.87409" lon="0.17207">
        <ele>2451</ele>
        <time>2011-07-21T11:28:12Z</time>
      </trkpt>
      <trkpt lat="42.87413" lon="0.17207">
        <ele>2449</ele>
        <time>2011-07-21T11:28:18Z</time>
      </trkpt>
      <trkpt lat="42.87414" lon="0.17206">
        <ele>2448</ele>
        <time>2011-07-21T11:28:20Z</time>
      </trkpt>
      <trkpt lat="42.87416" lon="0.17205">
        <ele>2448</ele>
        <time>2011-07-21T11:28:22Z</time>
      </trkpt>
      <trkpt lat="42.8742" lon="0.17204">
        <ele>2447</ele>
        <time>2011-07-21T11:28:28Z</time>
      </trkpt>
      <trkpt lat="42.87422" lon="0.17203">
        <ele>2446</ele>
        <time>2011-07-21T11:28:30Z</time>
      </trkpt>
      <trkpt lat="42.87423" lon="0.17202">
        <ele>2445</ele>
        <time>2011-07-21T11:28:48Z</time>
      </trkpt>
      <trkpt lat="42.87426" lon="0.17197">
        <ele>2444</ele>
        <time>2011-07-21T11:29:07Z</time>
      </trkpt>
      <trkpt lat="42.87429" lon="0.17194">
        <ele>2442</ele>
        <time>2011-07-21T11:29:11Z</time>
      </trkpt>
      <trkpt lat="42.87431" lon="0.17188">
        <ele>2440</ele>
        <time>2011-07-21T11:29:17Z</time>
      </trkpt>
      <trkpt lat="42.87431" lon="0.17184">
        <ele>2439</ele>
        <time>2011-07-21T11:29:20Z</time>
      </trkpt>
      <trkpt lat="42.87433" lon="0.17178">
        <ele>2436</ele>
        <time>2011-07-21T11:29:26Z</time>
      </trkpt>
      <trkpt lat="42.87433" lon="0.17176">
        <ele>2436</ele>
        <time>2011-07-21T11:29:28Z</time>
      </trkpt>
      <trkpt lat="42.87432" lon="0.17174">
        <ele>2435</ele>
        <time>2011-07-21T11:29:30Z</time>
      </trkpt>
      <trkpt lat="42.87434" lon="0.17168">
        <ele>2432</ele>
        <time>2011-07-21T11:29:36Z</time>
      </trkpt>
      <trkpt lat="42.87435" lon="0.17166">
        <ele>2432</ele>
        <time>2011-07-21T11:29:38Z</time>
      </trkpt>
      <trkpt lat="42.87436" lon="0.17161">
        <ele>2429</ele>
        <time>2011-07-21T11:29:45Z</time>
      </trkpt>
      <trkpt lat="42.87437" lon="0.17159">
        <ele>2429</ele>
        <time>2011-07-21T11:29:47Z</time>
      </trkpt>
      <trkpt lat="42.87438" lon="0.17156">
        <ele>2428</ele>
        <time>2011-07-21T11:29:51Z</time>
      </trkpt>
      <trkpt lat="42.87439" lon="0.17152">
        <ele>2426</ele>
        <time>2011-07-21T11:29:56Z</time>
      </trkpt>
      <trkpt lat="42.87437" lon="0.1715">
        <ele>2426</ele>
        <time>2011-07-21T11:29:58Z</time>
      </trkpt>
      <trkpt lat="42.87436" lon="0.17148">
        <ele>2425</ele>
        <time>2011-07-21T11:30:00Z</time>
      </trkpt>
      <trkpt lat="42.87437" lon="0.17143">
        <ele>2424</ele>
        <time>2011-07-21T11:30:06Z</time>
      </trkpt>
      <trkpt lat="42.87439" lon="0.17143">
        <ele>2423</ele>
        <time>2011-07-21T11:30:08Z</time>
      </trkpt>
      <trkpt lat="42.87441" lon="0.17143">
        <ele>2423</ele>
        <time>2011-07-21T11:30:10Z</time>
      </trkpt>
      <trkpt lat="42.87445" lon="0.17141">
        <ele>2421</ele>
        <time>2011-07-21T11:30:17Z</time>
      </trkpt>
      <trkpt lat="42.87449" lon="0.17143">
        <ele>2420</ele>
        <time>2011-07-21T11:30:23Z</time>
      </trkpt>
      <trkpt lat="42.87452" lon="0.17141">
        <ele>2419</ele>
        <time>2011-07-21T11:30:27Z</time>
      </trkpt>
      <trkpt lat="42.87455" lon="0.17141">
        <ele>2418</ele>
        <time>2011-07-21T11:30:31Z</time>
      </trkpt>
      <trkpt lat="42.87456" lon="0.17141">
        <ele>2417</ele>
        <time>2011-07-21T11:30:33Z</time>
      </trkpt>
      <trkpt lat="42.87457" lon="0.17139">
        <ele>2416</ele>
        <time>2011-07-21T11:30:38Z</time>
      </trkpt>
      <trkpt lat="42.87456" lon="0.17137">
        <ele>2416</ele>
        <time>2011-07-21T11:30:40Z</time>
      </trkpt>
      <trkpt lat="42.87455" lon="0.17135">
        <ele>2415</ele>
        <time>2011-07-21T11:30:42Z</time>
      </trkpt>
      <trkpt lat="42.87456" lon="0.17131">
        <ele>2413</ele>
        <time>2011-07-21T11:30:48Z</time>
      </trkpt>
      <trkpt lat="42.87458" lon="0.17132">
        <ele>2412</ele>
        <time>2011-07-21T11:30:51Z</time>
      </trkpt>
      <trkpt lat="42.87458" lon="0.1713">
        <ele>2412</ele>
        <time>2011-07-21T11:30:54Z</time>
      </trkpt>
      <trkpt lat="42.87458" lon="0.17127">
        <ele>2410</ele>
        <time>2011-07-21T11:30:58Z</time>
      </trkpt>
      <trkpt lat="42.87458" lon="0.17125">
        <ele>2410</ele>
        <time>2011-07-21T11:31:00Z</time>
      </trkpt>
      <trkpt lat="42.87457" lon="0.17123">
        <ele>2410</ele>
        <time>2011-07-21T11:31:02Z</time>
      </trkpt>
      <trkpt lat="42.87459" lon="0.17119">
        <ele>2409</ele>
        <time>2011-07-21T11:31:08Z</time>
      </trkpt>
      <trkpt lat="42.87461" lon="0.1712">
        <ele>2408</ele>
        <time>2011-07-21T11:31:10Z</time>
      </trkpt>
      <trkpt lat="42.87462" lon="0.1712">
        <ele>2408</ele>
        <time>2011-07-21T11:31:12Z</time>
      </trkpt>
      <trkpt lat="42.87466" lon="0.17123">
        <ele>2406</ele>
        <time>2011-07-21T11:31:18Z</time>
      </trkpt>
      <trkpt lat="42.87468" lon="0.17123">
        <ele>2406</ele>
        <time>2011-07-21T11:31:20Z</time>
      </trkpt>
      <trkpt lat="42.87469" lon="0.17124">
        <ele>2405</ele>
        <time>2011-07-21T11:31:22Z</time>
      </trkpt>
      <trkpt lat="42.87472" lon="0.17123">
        <ele>2404</ele>
        <time>2011-07-21T11:31:27Z</time>
      </trkpt>
      <trkpt lat="42.87475" lon="0.17123">
        <ele>2403</ele>
        <time>2011-07-21T11:31:31Z</time>
      </trkpt>
      <trkpt lat="42.87476" lon="0.17124">
        <ele>2403</ele>
        <time>2011-07-21T11:31:33Z</time>
      </trkpt>
      <trkpt lat="42.87478" lon="0.17124">
        <ele>2402</ele>
        <time>2011-07-21T11:31:39Z</time>
      </trkpt>
      <trkpt lat="42.87478" lon="0.17122">
        <ele>2401</ele>
        <time>2011-07-21T11:31:41Z</time>
      </trkpt>
      <trkpt lat="42.87477" lon="0.1712">
        <ele>2401</ele>
        <time>2011-07-21T11:31:43Z</time>
      </trkpt>
      <trkpt lat="42.87477" lon="0.17117">
        <ele>2399</ele>
        <time>2011-07-21T11:31:47Z</time>
      </trkpt>
      <trkpt lat="42.87478" lon="0.17115">
        <ele>2399</ele>
        <time>2011-07-21T11:31:50Z</time>
      </trkpt>
      <trkpt lat="42.87478" lon="0.17113">
        <ele>2398</ele>
        <time>2011-07-21T11:31:52Z</time>
      </trkpt>
      <trkpt lat="42.87478" lon="0.17108">
        <ele>2396</ele>
        <time>2011-07-21T11:31:58Z</time>
      </trkpt>
      <trkpt lat="42.87477" lon="0.17106">
        <ele>2396</ele>
        <time>2011-07-21T11:32:00Z</time>
      </trkpt>
      <trkpt lat="42.87477" lon="0.17104">
        <ele>2395</ele>
        <time>2011-07-21T11:32:03Z</time>
      </trkpt>
      <trkpt lat="42.87479" lon="0.17101">
        <ele>2394</ele>
        <time>2011-07-21T11:32:08Z</time>
      </trkpt>
      <trkpt lat="42.8748" lon="0.17103">
        <ele>2394</ele>
        <time>2011-07-21T11:32:11Z</time>
      </trkpt>
      <trkpt lat="42.87483" lon="0.17104">
        <ele>2392</ele>
        <time>2011-07-21T11:32:19Z</time>
      </trkpt>
      <trkpt lat="42.87484" lon="0.17101">
        <ele>2391</ele>
        <time>2011-07-21T11:32:22Z</time>
      </trkpt>
      <trkpt lat="42.87484" lon="0.17098">
        <ele>2390</ele>
        <time>2011-07-21T11:32:26Z</time>
      </trkpt>
      <trkpt lat="42.87484" lon="0.17094">
        <ele>2390</ele>
        <time>2011-07-21T11:32:30Z</time>
      </trkpt>
      <trkpt lat="42.87486" lon="0.17094">
        <ele>2390</ele>
        <time>2011-07-21T11:32:32Z</time>
      </trkpt>
      <trkpt lat="42.87486" lon="0.17091">
        <ele>2389</ele>
        <time>2011-07-21T11:32:36Z</time>
      </trkpt>
      <trkpt lat="42.87485" lon="0.17084">
        <ele>2388</ele>
        <time>2011-07-21T11:32:42Z</time>
      </trkpt>
      <trkpt lat="42.87487" lon="0.17083">
        <ele>2387</ele>
        <time>2011-07-21T11:32:46Z</time>
      </trkpt>
      <trkpt lat="42.87489" lon="0.17084">
        <ele>2386</ele>
        <time>2011-07-21T11:32:50Z</time>
      </trkpt>
      <trkpt lat="42.8749" lon="0.17085">
        <ele>2385</ele>
        <time>2011-07-21T11:32:52Z</time>
      </trkpt>
      <trkpt lat="42.87492" lon="0.17084">
        <ele>2384</ele>
        <time>2011-07-21T11:32:55Z</time>
      </trkpt>
      <trkpt lat="42.87493" lon="0.17078">
        <ele>2383</ele>
        <time>2011-07-21T11:33:01Z</time>
      </trkpt>
      <trkpt lat="42.87495" lon="0.17077">
        <ele>2382</ele>
        <time>2011-07-21T11:33:04Z</time>
      </trkpt>
      <trkpt lat="42.87495" lon="0.17075">
        <ele>2382</ele>
        <time>2011-07-21T11:33:06Z</time>
      </trkpt>
      <trkpt lat="42.87496" lon="0.17071">
        <ele>2381</ele>
        <time>2011-07-21T11:33:10Z</time>
      </trkpt>
      <trkpt lat="42.87497" lon="0.17069">
        <ele>2381</ele>
        <time>2011-07-21T11:33:12Z</time>
      </trkpt>
      <trkpt lat="42.87498" lon="0.17066">
        <ele>2380</ele>
        <time>2011-07-21T11:33:16Z</time>
      </trkpt>
      <trkpt lat="42.875" lon="0.17062">
        <ele>2379</ele>
        <time>2011-07-21T11:33:20Z</time>
      </trkpt>
      <trkpt lat="42.875" lon="0.1706">
        <ele>2379</ele>
        <time>2011-07-21T11:33:22Z</time>
      </trkpt>
      <trkpt lat="42.87503" lon="0.17051">
        <ele>2377</ele>
        <time>2011-07-21T11:33:30Z</time>
      </trkpt>
      <trkpt lat="42.87503" lon="0.17048">
        <ele>2377</ele>
        <time>2011-07-21T11:33:32Z</time>
      </trkpt>
      <trkpt lat="42.87503" lon="0.17044">
        <ele>2376</ele>
        <time>2011-07-21T11:33:35Z</time>
      </trkpt>
      <trkpt lat="42.87505" lon="0.17036">
        <ele>2375</ele>
        <time>2011-07-21T11:33:42Z</time>
      </trkpt>
      <trkpt lat="42.87508" lon="0.17027">
        <ele>2374</ele>
        <time>2011-07-21T11:33:50Z</time>
      </trkpt>
      <trkpt lat="42.87509" lon="0.17028">
        <ele>2373</ele>
        <time>2011-07-21T11:33:52Z</time>
      </trkpt>
      <trkpt lat="42.8751" lon="0.17028">
        <ele>2372</ele>
        <time>2011-07-21T11:33:55Z</time>
      </trkpt>
      <trkpt lat="42.87513" lon="0.17022">
        <ele>2371</ele>
        <time>2011-07-21T11:34:02Z</time>
      </trkpt>
      <trkpt lat="42.87514" lon="0.17018">
        <ele>2371</ele>
        <time>2011-07-21T11:34:05Z</time>
      </trkpt>
      <trkpt lat="42.87514" lon="0.17016">
        <ele>2370</ele>
        <time>2011-07-21T11:34:07Z</time>
      </trkpt>
      <trkpt lat="42.87514" lon="0.17017">
        <ele>2367</ele>
        <time>2011-07-21T11:34:50Z</time>
      </trkpt>
      <trkpt lat="42.87516" lon="0.17016">
        <ele>2367</ele>
        <time>2011-07-21T11:35:07Z</time>
      </trkpt>
      <trkpt lat="42.87516" lon="0.17014">
        <ele>2366</ele>
        <time>2011-07-21T11:35:11Z</time>
      </trkpt>
      <trkpt lat="42.87517" lon="0.17006">
        <ele>2365</ele>
        <time>2011-07-21T11:35:17Z</time>
      </trkpt>
      <trkpt lat="42.87518" lon="0.17002">
        <ele>2365</ele>
        <time>2011-07-21T11:35:21Z</time>
      </trkpt>
      <trkpt lat="42.87518" lon="0.17">
        <ele>2364</ele>
        <time>2011-07-21T11:35:23Z</time>
      </trkpt>
      <trkpt lat="42.8752" lon="0.16998">
        <ele>2363</ele>
        <time>2011-07-21T11:35:28Z</time>
      </trkpt>
      <trkpt lat="42.87521" lon="0.16996">
        <ele>2362</ele>
        <time>2011-07-21T11:35:31Z</time>
      </trkpt>
      <trkpt lat="42.87521" lon="0.16994">
        <ele>2362</ele>
        <time>2011-07-21T11:35:34Z</time>
      </trkpt>
      <trkpt lat="42.87523" lon="0.16987">
        <ele>2360</ele>
        <time>2011-07-21T11:35:41Z</time>
      </trkpt>
      <trkpt lat="42.87523" lon="0.16985">
        <ele>2360</ele>
        <time>2011-07-21T11:35:43Z</time>
      </trkpt>
      <trkpt lat="42.87524" lon="0.16983">
        <ele>2359</ele>
        <time>2011-07-21T11:35:46Z</time>
      </trkpt>
      <trkpt lat="42.87526" lon="0.1698">
        <ele>2357</ele>
        <time>2011-07-21T11:35:52Z</time>
      </trkpt>
      <trkpt lat="42.87529" lon="0.16978">
        <ele>2356</ele>
        <time>2011-07-21T11:35:59Z</time>
      </trkpt>
      <trkpt lat="42.87531" lon="0.16973">
        <ele>2354</ele>
        <time>2011-07-21T11:36:06Z</time>
      </trkpt>
      <trkpt lat="42.8753" lon="0.16971">
        <ele>2354</ele>
        <time>2011-07-21T11:36:08Z</time>
      </trkpt>
      <trkpt lat="42.8753" lon="0.16968">
        <ele>2354</ele>
        <time>2011-07-21T11:36:10Z</time>
      </trkpt>
      <trkpt lat="42.87531" lon="0.16963">
        <ele>2352</ele>
        <time>2011-07-21T11:36:16Z</time>
      </trkpt>
      <trkpt lat="42.87532" lon="0.16962">
        <ele>2352</ele>
        <time>2011-07-21T11:36:18Z</time>
      </trkpt>
      <trkpt lat="42.87533" lon="0.1696">
        <ele>2351</ele>
        <time>2011-07-21T11:36:20Z</time>
      </trkpt>
      <trkpt lat="42.87535" lon="0.16958">
        <ele>2350</ele>
        <time>2011-07-21T11:36:25Z</time>
      </trkpt>
      <trkpt lat="42.87539" lon="0.16947">
        <ele>2349</ele>
        <time>2011-07-21T11:36:35Z</time>
      </trkpt>
      <trkpt lat="42.87538" lon="0.16945">
        <ele>2349</ele>
        <time>2011-07-21T11:36:37Z</time>
      </trkpt>
      <trkpt lat="42.87539" lon="0.16942">
        <ele>2348</ele>
        <time>2011-07-21T11:36:40Z</time>
      </trkpt>
      <trkpt lat="42.87541" lon="0.16939">
        <ele>2347</ele>
        <time>2011-07-21T11:36:45Z</time>
      </trkpt>
      <trkpt lat="42.87542" lon="0.16937">
        <ele>2347</ele>
        <time>2011-07-21T11:36:47Z</time>
      </trkpt>
      <trkpt lat="42.87542" lon="0.16933">
        <ele>2346</ele>
        <time>2011-07-21T11:36:52Z</time>
      </trkpt>
      <trkpt lat="42.87548" lon="0.16922">
        <ele>2345</ele>
        <time>2011-07-21T11:37:01Z</time>
      </trkpt>
      <trkpt lat="42.87551" lon="0.16913">
        <ele>2345</ele>
        <time>2011-07-21T11:37:07Z</time>
      </trkpt>
      <trkpt lat="42.87553" lon="0.16907">
        <ele>2344</ele>
        <time>2011-07-21T11:37:11Z</time>
      </trkpt>
      <trkpt lat="42.87554" lon="0.16904">
        <ele>2344</ele>
        <time>2011-07-21T11:37:13Z</time>
      </trkpt>
      <trkpt lat="42.87558" lon="0.16886">
        <ele>2339</ele>
        <time>2011-07-21T11:37:33Z</time>
      </trkpt>
      <trkpt lat="42.87558" lon="0.16884">
        <ele>2338</ele>
        <time>2011-07-21T11:37:35Z</time>
      </trkpt>
      <trkpt lat="42.8756" lon="0.16881">
        <ele>2335</ele>
        <time>2011-07-21T11:37:42Z</time>
      </trkpt>
      <trkpt lat="42.8756" lon="0.16877">
        <ele>2334</ele>
        <time>2011-07-21T11:37:46Z</time>
      </trkpt>
      <trkpt lat="42.8756" lon="0.16875">
        <ele>2333</ele>
        <time>2011-07-21T11:37:49Z</time>
      </trkpt>
      <trkpt lat="42.87562" lon="0.16872">
        <ele>2331</ele>
        <time>2011-07-21T11:37:55Z</time>
      </trkpt>
      <trkpt lat="42.87561" lon="0.1687">
        <ele>2331</ele>
        <time>2011-07-21T11:37:58Z</time>
      </trkpt>
      <trkpt lat="42.87561" lon="0.16868">
        <ele>2330</ele>
        <time>2011-07-21T11:38:00Z</time>
      </trkpt>
      <trkpt lat="42.87563" lon="0.16863">
        <ele>2329</ele>
        <time>2011-07-21T11:38:06Z</time>
      </trkpt>
      <trkpt lat="42.87564" lon="0.16862">
        <ele>2328</ele>
        <time>2011-07-21T11:38:10Z</time>
      </trkpt>
      <trkpt lat="42.87565" lon="0.1686">
        <ele>2327</ele>
        <time>2011-07-21T11:38:13Z</time>
      </trkpt>
      <trkpt lat="42.87567" lon="0.16857">
        <ele>2326</ele>
        <time>2011-07-21T11:38:19Z</time>
      </trkpt>
      <trkpt lat="42.87568" lon="0.16857">
        <ele>2325</ele>
        <time>2011-07-21T11:38:21Z</time>
      </trkpt>
      <trkpt lat="42.87569" lon="0.16858">
        <ele>2325</ele>
        <time>2011-07-21T11:38:23Z</time>
      </trkpt>
      <trkpt lat="42.87572" lon="0.16859">
        <ele>2324</ele>
        <time>2011-07-21T11:38:28Z</time>
      </trkpt>
      <trkpt lat="42.87574" lon="0.1686">
        <ele>2323</ele>
        <time>2011-07-21T11:38:30Z</time>
      </trkpt>
      <trkpt lat="42.87575" lon="0.1686">
        <ele>2323</ele>
        <time>2011-07-21T11:38:32Z</time>
      </trkpt>
      <trkpt lat="42.87579" lon="0.1686">
        <ele>2321</ele>
        <time>2011-07-21T11:38:40Z</time>
      </trkpt>
      <trkpt lat="42.8758" lon="0.1686">
        <ele>2321</ele>
        <time>2011-07-21T11:38:42Z</time>
      </trkpt>
      <trkpt lat="42.87581" lon="0.16858">
        <ele>2320</ele>
        <time>2011-07-21T11:38:45Z</time>
      </trkpt>
      <trkpt lat="42.87582" lon="0.16852">
        <ele>2319</ele>
        <time>2011-07-21T11:38:51Z</time>
      </trkpt>
      <trkpt lat="42.87582" lon="0.1685">
        <ele>2318</ele>
        <time>2011-07-21T11:38:53Z</time>
      </trkpt>
      <trkpt lat="42.87587" lon="0.16848">
        <ele>2316</ele>
        <time>2011-07-21T11:39:03Z</time>
      </trkpt>
      <trkpt lat="42.87588" lon="0.16846">
        <ele>2315</ele>
        <time>2011-07-21T11:39:06Z</time>
      </trkpt>
      <trkpt lat="42.87589" lon="0.16844">
        <ele>2314</ele>
        <time>2011-07-21T11:39:09Z</time>
      </trkpt>
      <trkpt lat="42.8759" lon="0.1684">
        <ele>2313</ele>
        <time>2011-07-21T11:39:13Z</time>
      </trkpt>
      <trkpt lat="42.8759" lon="0.16838">
        <ele>2313</ele>
        <time>2011-07-21T11:39:15Z</time>
      </trkpt>
      <trkpt lat="42.8759" lon="0.16835">
        <ele>2312</ele>
        <time>2011-07-21T11:39:17Z</time>
      </trkpt>
      <trkpt lat="42.8759" lon="0.16829">
        <ele>2311</ele>
        <time>2011-07-21T11:39:23Z</time>
      </trkpt>
      <trkpt lat="42.8759" lon="0.16827">
        <ele>2310</ele>
        <time>2011-07-21T11:39:25Z</time>
      </trkpt>
      <trkpt lat="42.87591" lon="0.16816">
        <ele>2309</ele>
        <time>2011-07-21T11:39:33Z</time>
      </trkpt>
      <trkpt lat="42.87591" lon="0.16812">
        <ele>2308</ele>
        <time>2011-07-21T11:39:36Z</time>
      </trkpt>
      <trkpt lat="42.87592" lon="0.16808">
        <ele>2308</ele>
        <time>2011-07-21T11:39:39Z</time>
      </trkpt>
      <trkpt lat="42.87593" lon="0.16797">
        <ele>2307</ele>
        <time>2011-07-21T11:39:46Z</time>
      </trkpt>
      <trkpt lat="42.87594" lon="0.16794">
        <ele>2307</ele>
        <time>2011-07-21T11:39:48Z</time>
      </trkpt>
      <trkpt lat="42.87596" lon="0.16788">
        <ele>2306</ele>
        <time>2011-07-21T11:39:52Z</time>
      </trkpt>
      <trkpt lat="42.87598" lon="0.16783">
        <ele>2306</ele>
        <time>2011-07-21T11:39:56Z</time>
      </trkpt>
      <trkpt lat="42.87599" lon="0.16781">
        <ele>2305</ele>
        <time>2011-07-21T11:39:58Z</time>
      </trkpt>
      <trkpt lat="42.87601" lon="0.16777">
        <ele>2305</ele>
        <time>2011-07-21T11:40:02Z</time>
      </trkpt>
      <trkpt lat="42.87603" lon="0.16773">
        <ele>2304</ele>
        <time>2011-07-21T11:40:06Z</time>
      </trkpt>
      <trkpt lat="42.87604" lon="0.16769">
        <ele>2303</ele>
        <time>2011-07-21T11:40:09Z</time>
      </trkpt>
      <trkpt lat="42.87606" lon="0.16765">
        <ele>2302</ele>
        <time>2011-07-21T11:40:14Z</time>
      </trkpt>
      <trkpt lat="42.87607" lon="0.16762">
        <ele>2301</ele>
        <time>2011-07-21T11:40:16Z</time>
      </trkpt>
      <trkpt lat="42.87608" lon="0.16759">
        <ele>2301</ele>
        <time>2011-07-21T11:40:19Z</time>
      </trkpt>
      <trkpt lat="42.8761" lon="0.16755">
        <ele>2300</ele>
        <time>2011-07-21T11:40:23Z</time>
      </trkpt>
      <trkpt lat="42.87611" lon="0.1675">
        <ele>2300</ele>
        <time>2011-07-21T11:40:27Z</time>
      </trkpt>
      <trkpt lat="42.87615" lon="0.16742">
        <ele>2299</ele>
        <time>2011-07-21T11:40:34Z</time>
      </trkpt>
      <trkpt lat="42.87616" lon="0.1674">
        <ele>2298</ele>
        <time>2011-07-21T11:40:36Z</time>
      </trkpt>
      <trkpt lat="42.87617" lon="0.16737">
        <ele>2298</ele>
        <time>2011-07-21T11:40:38Z</time>
      </trkpt>
      <trkpt lat="42.87619" lon="0.16728">
        <ele>2297</ele>
        <time>2011-07-21T11:40:46Z</time>
      </trkpt>
      <trkpt lat="42.87621" lon="0.16726">
        <ele>2296</ele>
        <time>2011-07-21T11:40:49Z</time>
      </trkpt>
      <trkpt lat="42.87622" lon="0.16721">
        <ele>2296</ele>
        <time>2011-07-21T11:40:53Z</time>
      </trkpt>
      <trkpt lat="42.87624" lon="0.16719">
        <ele>2295</ele>
        <time>2011-07-21T11:40:55Z</time>
      </trkpt>
      <trkpt lat="42.87624" lon="0.16717">
        <ele>2295</ele>
        <time>2011-07-21T11:40:57Z</time>
      </trkpt>
      <trkpt lat="42.87628" lon="0.16708">
        <ele>2294</ele>
        <time>2011-07-21T11:41:03Z</time>
      </trkpt>
      <trkpt lat="42.87629" lon="0.16705">
        <ele>2294</ele>
        <time>2011-07-21T11:41:05Z</time>
      </trkpt>
      <trkpt lat="42.87629" lon="0.16703">
        <ele>2294</ele>
        <time>2011-07-21T11:41:07Z</time>
      </trkpt>
      <trkpt lat="42.87634" lon="0.16691">
        <ele>2292</ele>
        <time>2011-07-21T11:41:16Z</time>
      </trkpt>
      <trkpt lat="42.87635" lon="0.16688">
        <ele>2292</ele>
        <time>2011-07-21T11:41:18Z</time>
      </trkpt>
      <trkpt lat="42.87636" lon="0.16683">
        <ele>2291</ele>
        <time>2011-07-21T11:41:22Z</time>
      </trkpt>
      <trkpt lat="42.87637" lon="0.16679">
        <ele>2291</ele>
        <time>2011-07-21T11:41:26Z</time>
      </trkpt>
      <trkpt lat="42.87641" lon="0.16672">
        <ele>2289</ele>
        <time>2011-07-21T11:41:33Z</time>
      </trkpt>
      <trkpt lat="42.87642" lon="0.1667">
        <ele>2289</ele>
        <time>2011-07-21T11:41:35Z</time>
      </trkpt>
      <trkpt lat="42.87643" lon="0.16668">
        <ele>2289</ele>
        <time>2011-07-21T11:41:37Z</time>
      </trkpt>
      <trkpt lat="42.87646" lon="0.16661">
        <ele>2288</ele>
        <time>2011-07-21T11:41:43Z</time>
      </trkpt>
      <trkpt lat="42.87648" lon="0.16659">
        <ele>2288</ele>
        <time>2011-07-21T11:41:45Z</time>
      </trkpt>
      <trkpt lat="42.87649" lon="0.16657">
        <ele>2287</ele>
        <time>2011-07-21T11:41:47Z</time>
      </trkpt>
      <trkpt lat="42.87652" lon="0.16651">
        <ele>2286</ele>
        <time>2011-07-21T11:41:53Z</time>
      </trkpt>
      <trkpt lat="42.87653" lon="0.16648">
        <ele>2286</ele>
        <time>2011-07-21T11:41:55Z</time>
      </trkpt>
      <trkpt lat="42.87654" lon="0.16646">
        <ele>2286</ele>
        <time>2011-07-21T11:41:57Z</time>
      </trkpt>
      <trkpt lat="42.87659" lon="0.1664">
        <ele>2284</ele>
        <time>2011-07-21T11:42:03Z</time>
      </trkpt>
      <trkpt lat="42.87663" lon="0.16631">
        <ele>2282</ele>
        <time>2011-07-21T11:42:10Z</time>
      </trkpt>
      <trkpt lat="42.87665" lon="0.16624">
        <ele>2281</ele>
        <time>2011-07-21T11:42:15Z</time>
      </trkpt>
      <trkpt lat="42.87667" lon="0.1662">
        <ele>2281</ele>
        <time>2011-07-21T11:42:18Z</time>
      </trkpt>
      <trkpt lat="42.87669" lon="0.16617">
        <ele>2280</ele>
        <time>2011-07-21T11:42:20Z</time>
      </trkpt>
      <trkpt lat="42.87668" lon="0.16609">
        <ele>2279</ele>
        <time>2011-07-21T11:42:25Z</time>
      </trkpt>
      <trkpt lat="42.87669" lon="0.16606">
        <ele>2279</ele>
        <time>2011-07-21T11:42:27Z</time>
      </trkpt>
      <trkpt lat="42.87671" lon="0.16602">
        <ele>2278</ele>
        <time>2011-07-21T11:42:30Z</time>
      </trkpt>
      <trkpt lat="42.87672" lon="0.16597">
        <ele>2277</ele>
        <time>2011-07-21T11:42:34Z</time>
      </trkpt>
      <trkpt lat="42.87673" lon="0.16589">
        <ele>2275</ele>
        <time>2011-07-21T11:42:40Z</time>
      </trkpt>
      <trkpt lat="42.87672" lon="0.16582">
        <ele>2274</ele>
        <time>2011-07-21T11:42:45Z</time>
      </trkpt>
      <trkpt lat="42.87672" lon="0.16574">
        <ele>2272</ele>
        <time>2011-07-21T11:42:51Z</time>
      </trkpt>
      <trkpt lat="42.87673" lon="0.16568">
        <ele>2272</ele>
        <time>2011-07-21T11:42:55Z</time>
      </trkpt>
      <trkpt lat="42.87674" lon="0.16565">
        <ele>2271</ele>
        <time>2011-07-21T11:42:58Z</time>
      </trkpt>
      <trkpt lat="42.87673" lon="0.16562">
        <ele>2271</ele>
        <time>2011-07-21T11:43:00Z</time>
      </trkpt>
      <trkpt lat="42.87676" lon="0.16556">
        <ele>2270</ele>
        <time>2011-07-21T11:43:06Z</time>
      </trkpt>
      <trkpt lat="42.87677" lon="0.16556">
        <ele>2270</ele>
        <time>2011-07-21T11:43:08Z</time>
      </trkpt>
      <trkpt lat="42.87679" lon="0.16554">
        <ele>2270</ele>
        <time>2011-07-21T11:43:10Z</time>
      </trkpt>
      <trkpt lat="42.87682" lon="0.16553">
        <ele>2270</ele>
        <time>2011-07-21T11:43:14Z</time>
      </trkpt>
      <trkpt lat="42.87685" lon="0.16549">
        <ele>2270</ele>
        <time>2011-07-21T11:43:18Z</time>
      </trkpt>
      <trkpt lat="42.87687" lon="0.16544">
        <ele>2270</ele>
        <time>2011-07-21T11:43:22Z</time>
      </trkpt>
      <trkpt lat="42.87688" lon="0.16535">
        <ele>2270</ele>
        <time>2011-07-21T11:43:27Z</time>
      </trkpt>
      <trkpt lat="42.87687" lon="0.16527">
        <ele>2270</ele>
        <time>2011-07-21T11:43:32Z</time>
      </trkpt>
      <trkpt lat="42.87687" lon="0.16524">
        <ele>2270</ele>
        <time>2011-07-21T11:43:34Z</time>
      </trkpt>
      <trkpt lat="42.87688" lon="0.16521">
        <ele>2269</ele>
        <time>2011-07-21T11:43:36Z</time>
      </trkpt>
      <trkpt lat="42.87691" lon="0.16514">
        <ele>2269</ele>
        <time>2011-07-21T11:43:41Z</time>
      </trkpt>
      <trkpt lat="42.87693" lon="0.16511">
        <ele>2268</ele>
        <time>2011-07-21T11:43:43Z</time>
      </trkpt>
      <trkpt lat="42.87695" lon="0.16509">
        <ele>2268</ele>
        <time>2011-07-21T11:43:45Z</time>
      </trkpt>
      <trkpt lat="42.877" lon="0.16498">
        <ele>2268</ele>
        <time>2011-07-21T11:43:53Z</time>
      </trkpt>
      <trkpt lat="42.87701" lon="0.16495">
        <ele>2268</ele>
        <time>2011-07-21T11:43:55Z</time>
      </trkpt>
      <trkpt lat="42.87704" lon="0.16487">
        <ele>2268</ele>
        <time>2011-07-21T11:44:00Z</time>
      </trkpt>
      <trkpt lat="42.87705" lon="0.16485">
        <ele>2268</ele>
        <time>2011-07-21T11:44:02Z</time>
      </trkpt>
      <trkpt lat="42.87709" lon="0.1648">
        <ele>2268</ele>
        <time>2011-07-21T11:44:06Z</time>
      </trkpt>
      <trkpt lat="42.87713" lon="0.16475">
        <ele>2268</ele>
        <time>2011-07-21T11:44:10Z</time>
      </trkpt>
      <trkpt lat="42.87714" lon="0.16472">
        <ele>2268</ele>
        <time>2011-07-21T11:44:12Z</time>
      </trkpt>
      <trkpt lat="42.87715" lon="0.16466">
        <ele>2268</ele>
        <time>2011-07-21T11:44:15Z</time>
      </trkpt>
      <trkpt lat="42.87718" lon="0.16454">
        <ele>2267</ele>
        <time>2011-07-21T11:44:22Z</time>
      </trkpt>
      <trkpt lat="42.87723" lon="0.16442">
        <ele>2266</ele>
        <time>2011-07-21T11:44:30Z</time>
      </trkpt>
      <trkpt lat="42.87724" lon="0.16439">
        <ele>2266</ele>
        <time>2011-07-21T11:44:32Z</time>
      </trkpt>
      <trkpt lat="42.87725" lon="0.16434">
        <ele>2265</ele>
        <time>2011-07-21T11:44:35Z</time>
      </trkpt>
      <trkpt lat="42.87727" lon="0.16427">
        <ele>2265</ele>
        <time>2011-07-21T11:44:40Z</time>
      </trkpt>
      <trkpt lat="42.87727" lon="0.16423">
        <ele>2265</ele>
        <time>2011-07-21T11:44:42Z</time>
      </trkpt>
      <trkpt lat="42.87728" lon="0.1642">
        <ele>2264</ele>
        <time>2011-07-21T11:44:44Z</time>
      </trkpt>
      <trkpt lat="42.8773" lon="0.16407">
        <ele>2263</ele>
        <time>2011-07-21T11:44:52Z</time>
      </trkpt>
      <trkpt lat="42.8773" lon="0.16401">
        <ele>2263</ele>
        <time>2011-07-21T11:44:55Z</time>
      </trkpt>
      <trkpt lat="42.8773" lon="0.16393">
        <ele>2263</ele>
        <time>2011-07-21T11:45:00Z</time>
      </trkpt>
      <trkpt lat="42.87729" lon="0.1639">
        <ele>2263</ele>
        <time>2011-07-21T11:45:02Z</time>
      </trkpt>
      <trkpt lat="42.87728" lon="0.16385">
        <ele>2263</ele>
        <time>2011-07-21T11:45:05Z</time>
      </trkpt>
      <trkpt lat="42.87727" lon="0.16377">
        <ele>2262</ele>
        <time>2011-07-21T11:45:10Z</time>
      </trkpt>
      <trkpt lat="42.87725" lon="0.16369">
        <ele>2262</ele>
        <time>2011-07-21T11:45:15Z</time>
      </trkpt>
      <trkpt lat="42.87725" lon="0.16362">
        <ele>2261</ele>
        <time>2011-07-21T11:45:19Z</time>
      </trkpt>
      <trkpt lat="42.87724" lon="0.16359">
        <ele>2261</ele>
        <time>2011-07-21T11:45:21Z</time>
      </trkpt>
      <trkpt lat="42.87723" lon="0.16348">
        <ele>2260</ele>
        <time>2011-07-21T11:45:27Z</time>
      </trkpt>
      <trkpt lat="42.87722" lon="0.16343">
        <ele>2260</ele>
        <time>2011-07-21T11:45:30Z</time>
      </trkpt>
      <trkpt lat="42.87722" lon="0.1634">
        <ele>2259</ele>
        <time>2011-07-21T11:45:32Z</time>
      </trkpt>
      <trkpt lat="42.8772" lon="0.16331">
        <ele>2259</ele>
        <time>2011-07-21T11:45:37Z</time>
      </trkpt>
      <trkpt lat="42.8772" lon="0.16328">
        <ele>2258</ele>
        <time>2011-07-21T11:45:39Z</time>
      </trkpt>
      <trkpt lat="42.87719" lon="0.16324">
        <ele>2258</ele>
        <time>2011-07-21T11:45:41Z</time>
      </trkpt>
      <trkpt lat="42.87719" lon="0.16313">
        <ele>2257</ele>
        <time>2011-07-21T11:45:49Z</time>
      </trkpt>
      <trkpt lat="42.8772" lon="0.1631">
        <ele>2256</ele>
        <time>2011-07-21T11:45:51Z</time>
      </trkpt>
      <trkpt lat="42.8772" lon="0.16305">
        <ele>2255</ele>
        <time>2011-07-21T11:45:55Z</time>
      </trkpt>
      <trkpt lat="42.87722" lon="0.16303">
        <ele>2255</ele>
        <time>2011-07-21T11:45:57Z</time>
      </trkpt>
      <trkpt lat="42.87725" lon="0.16302">
        <ele>2254</ele>
        <time>2011-07-21T11:46:01Z</time>
      </trkpt>
      <trkpt lat="42.87727" lon="0.16298">
        <ele>2253</ele>
        <time>2011-07-21T11:46:05Z</time>
      </trkpt>
      <trkpt lat="42.87727" lon="0.16296">
        <ele>2253</ele>
        <time>2011-07-21T11:46:07Z</time>
      </trkpt>
      <trkpt lat="42.87727" lon="0.16294">
        <ele>2253</ele>
        <time>2011-07-21T11:46:09Z</time>
      </trkpt>
      <trkpt lat="42.8773" lon="0.16283">
        <ele>2249</ele>
        <time>2011-07-21T11:46:25Z</time>
      </trkpt>
      <trkpt lat="42.87731" lon="0.16282">
        <ele>2249</ele>
        <time>2011-07-21T11:46:27Z</time>
      </trkpt>
      <trkpt lat="42.87732" lon="0.16278">
        <ele>2248</ele>
        <time>2011-07-21T11:46:31Z</time>
      </trkpt>
      <trkpt lat="42.87731" lon="0.16274">
        <ele>2247</ele>
        <time>2011-07-21T11:46:35Z</time>
      </trkpt>
      <trkpt lat="42.87732" lon="0.16272">
        <ele>2246</ele>
        <time>2011-07-21T11:46:37Z</time>
      </trkpt>
      <trkpt lat="42.87732" lon="0.16268">
        <ele>2245</ele>
        <time>2011-07-21T11:46:41Z</time>
      </trkpt>
      <trkpt lat="42.87732" lon="0.16264">
        <ele>2245</ele>
        <time>2011-07-21T11:46:45Z</time>
      </trkpt>
      <trkpt lat="42.87732" lon="0.16262">
        <ele>2244</ele>
        <time>2011-07-21T11:46:47Z</time>
      </trkpt>
      <trkpt lat="42.87733" lon="0.16259">
        <ele>2243</ele>
        <time>2011-07-21T11:46:51Z</time>
      </trkpt>
      <trkpt lat="42.87733" lon="0.16255">
        <ele>2242</ele>
        <time>2011-07-21T11:46:55Z</time>
      </trkpt>
      <trkpt lat="42.87732" lon="0.16253">
        <ele>2241</ele>
        <time>2011-07-21T11:46:57Z</time>
      </trkpt>
      <trkpt lat="42.87732" lon="0.1625">
        <ele>2241</ele>
        <time>2011-07-21T11:47:02Z</time>
      </trkpt>
      <trkpt lat="42.87734" lon="0.16246">
        <ele>2240</ele>
        <time>2011-07-21T11:47:16Z</time>
      </trkpt>
      <trkpt lat="42.87735" lon="0.16244">
        <ele>2239</ele>
        <time>2011-07-21T11:47:18Z</time>
      </trkpt>
      <trkpt lat="42.87736" lon="0.16242">
        <ele>2239</ele>
        <time>2011-07-21T11:47:20Z</time>
      </trkpt>
      <trkpt lat="42.87737" lon="0.16235">
        <ele>2238</ele>
        <time>2011-07-21T11:47:25Z</time>
      </trkpt>
      <trkpt lat="42.87738" lon="0.16232">
        <ele>2237</ele>
        <time>2011-07-21T11:47:27Z</time>
      </trkpt>
      <trkpt lat="42.87739" lon="0.16229">
        <ele>2237</ele>
        <time>2011-07-21T11:47:30Z</time>
      </trkpt>
      <trkpt lat="42.87741" lon="0.16223">
        <ele>2236</ele>
        <time>2011-07-21T11:47:35Z</time>
      </trkpt>
      <trkpt lat="42.87742" lon="0.1622">
        <ele>2235</ele>
        <time>2011-07-21T11:47:37Z</time>
      </trkpt>
      <trkpt lat="42.87743" lon="0.16218">
        <ele>2235</ele>
        <time>2011-07-21T11:47:39Z</time>
      </trkpt>
      <trkpt lat="42.87747" lon="0.16217">
        <ele>2234</ele>
        <time>2011-07-21T11:47:43Z</time>
      </trkpt>
      <trkpt lat="42.87748" lon="0.16215">
        <ele>2233</ele>
        <time>2011-07-21T11:47:45Z</time>
      </trkpt>
      <trkpt lat="42.8775" lon="0.16214">
        <ele>2233</ele>
        <time>2011-07-21T11:47:50Z</time>
      </trkpt>
      <trkpt lat="42.87754" lon="0.16211">
        <ele>2232</ele>
        <time>2011-07-21T11:47:54Z</time>
      </trkpt>
      <trkpt lat="42.87757" lon="0.16208">
        <ele>2232</ele>
        <time>2011-07-21T11:47:57Z</time>
      </trkpt>
      <trkpt lat="42.87758" lon="0.16206">
        <ele>2232</ele>
        <time>2011-07-21T11:47:59Z</time>
      </trkpt>
      <trkpt lat="42.87759" lon="0.16199">
        <ele>2232</ele>
        <time>2011-07-21T11:48:03Z</time>
      </trkpt>
      <trkpt lat="42.87762" lon="0.16177">
        <ele>2232</ele>
        <time>2011-07-21T11:48:16Z</time>
      </trkpt>
      <trkpt lat="42.87763" lon="0.16171">
        <ele>2231</ele>
        <time>2011-07-21T11:48:26Z</time>
      </trkpt>
      <trkpt lat="42.87762" lon="0.16169">
        <ele>2231</ele>
        <time>2011-07-21T11:48:34Z</time>
      </trkpt>
      <trkpt lat="42.87762" lon="0.16168">
        <ele>2231</ele>
        <time>2011-07-21T11:48:37Z</time>
      </trkpt>
      <trkpt lat="42.87762" lon="0.16163">
        <ele>2231</ele>
        <time>2011-07-21T11:48:41Z</time>
      </trkpt>
      <trkpt lat="42.87762" lon="0.16161">
        <ele>2231</ele>
        <time>2011-07-21T11:48:43Z</time>
      </trkpt>
      <trkpt lat="42.87763" lon="0.16159">
        <ele>2230</ele>
        <time>2011-07-21T11:48:45Z</time>
      </trkpt>
      <trkpt lat="42.87766" lon="0.16152">
        <ele>2230</ele>
        <time>2011-07-21T11:48:51Z</time>
      </trkpt>
      <trkpt lat="42.87767" lon="0.16149">
        <ele>2229</ele>
        <time>2011-07-21T11:48:53Z</time>
      </trkpt>
      <trkpt lat="42.87768" lon="0.16146">
        <ele>2229</ele>
        <time>2011-07-21T11:48:55Z</time>
      </trkpt>
      <trkpt lat="42.8777" lon="0.16139">
        <ele>2228</ele>
        <time>2011-07-21T11:49:00Z</time>
      </trkpt>
      <trkpt lat="42.87771" lon="0.16136">
        <ele>2228</ele>
        <time>2011-07-21T11:49:02Z</time>
      </trkpt>
      <trkpt lat="42.87771" lon="0.16133">
        <ele>2228</ele>
        <time>2011-07-21T11:49:04Z</time>
      </trkpt>
      <trkpt lat="42.87774" lon="0.16126">
        <ele>2226</ele>
        <time>2011-07-21T11:49:10Z</time>
      </trkpt>
      <trkpt lat="42.87775" lon="0.16123">
        <ele>2226</ele>
        <time>2011-07-21T11:49:12Z</time>
      </trkpt>
      <trkpt lat="42.87778" lon="0.1612">
        <ele>2226</ele>
        <time>2011-07-21T11:49:16Z</time>
      </trkpt>
      <trkpt lat="42.87778" lon="0.16116">
        <ele>2226</ele>
        <time>2011-07-21T11:49:20Z</time>
      </trkpt>
      <trkpt lat="42.87779" lon="0.16114">
        <ele>2226</ele>
        <time>2011-07-21T11:49:22Z</time>
      </trkpt>
      <trkpt lat="42.8778" lon="0.16112">
        <ele>2226</ele>
        <time>2011-07-21T11:49:26Z</time>
      </trkpt>
      <trkpt lat="42.8778" lon="0.16106">
        <ele>2226</ele>
        <time>2011-07-21T11:49:30Z</time>
      </trkpt>
      <trkpt lat="42.87782" lon="0.16104">
        <ele>2226</ele>
        <time>2011-07-21T11:49:32Z</time>
      </trkpt>
      <trkpt lat="42.87785" lon="0.161">
        <ele>2226</ele>
        <time>2011-07-21T11:49:35Z</time>
      </trkpt>
      <trkpt lat="42.87782" lon="0.16092">
        <ele>2226</ele>
        <time>2011-07-21T11:49:41Z</time>
      </trkpt>
      <trkpt lat="42.87781" lon="0.1609">
        <ele>2226</ele>
        <time>2011-07-21T11:49:43Z</time>
      </trkpt>
      <trkpt lat="42.87777" lon="0.16081">
        <ele>2226</ele>
        <time>2011-07-21T11:49:50Z</time>
      </trkpt>
      <trkpt lat="42.87777" lon="0.16078">
        <ele>2226</ele>
        <time>2011-07-21T11:49:52Z</time>
      </trkpt>
      <trkpt lat="42.87776" lon="0.16074">
        <ele>2226</ele>
        <time>2011-07-21T11:49:54Z</time>
      </trkpt>
      <trkpt lat="42.87774" lon="0.16069">
        <ele>2226</ele>
        <time>2011-07-21T11:49:58Z</time>
      </trkpt>
      <trkpt lat="42.87772" lon="0.16067">
        <ele>2226</ele>
        <time>2011-07-21T11:50:00Z</time>
      </trkpt>
      <trkpt lat="42.8777" lon="0.16062">
        <ele>2226</ele>
        <time>2011-07-21T11:50:03Z</time>
      </trkpt>
      <trkpt lat="42.87769" lon="0.16056">
        <ele>2226</ele>
        <time>2011-07-21T11:50:07Z</time>
      </trkpt>
      <trkpt lat="42.8777" lon="0.1605">
        <ele>2226</ele>
        <time>2011-07-21T11:50:11Z</time>
      </trkpt>
      <trkpt lat="42.8777" lon="0.16047">
        <ele>2225</ele>
        <time>2011-07-21T11:50:13Z</time>
      </trkpt>
      <trkpt lat="42.87769" lon="0.16039">
        <ele>2225</ele>
        <time>2011-07-21T11:50:18Z</time>
      </trkpt>
      <trkpt lat="42.8777" lon="0.16035">
        <ele>2224</ele>
        <time>2011-07-21T11:50:21Z</time>
      </trkpt>
      <trkpt lat="42.8777" lon="0.16033">
        <ele>2224</ele>
        <time>2011-07-21T11:50:23Z</time>
      </trkpt>
      <trkpt lat="42.87771" lon="0.16026">
        <ele>2223</ele>
        <time>2011-07-21T11:50:27Z</time>
      </trkpt>
      <trkpt lat="42.87771" lon="0.16023">
        <ele>2223</ele>
        <time>2011-07-21T11:50:29Z</time>
      </trkpt>
      <trkpt lat="42.87771" lon="0.1602">
        <ele>2223</ele>
        <time>2011-07-21T11:50:31Z</time>
      </trkpt>
      <trkpt lat="42.8777" lon="0.16015">
        <ele>2222</ele>
        <time>2011-07-21T11:50:35Z</time>
      </trkpt>
      <trkpt lat="42.87771" lon="0.16011">
        <ele>2221</ele>
        <time>2011-07-21T11:50:38Z</time>
      </trkpt>
      <trkpt lat="42.8777" lon="0.16008">
        <ele>2221</ele>
        <time>2011-07-21T11:50:40Z</time>
      </trkpt>
      <trkpt lat="42.8777" lon="0.16001">
        <ele>2220</ele>
        <time>2011-07-21T11:50:44Z</time>
      </trkpt>
      <trkpt lat="42.8777" lon="0.15998">
        <ele>2220</ele>
        <time>2011-07-21T11:50:46Z</time>
      </trkpt>
      <trkpt lat="42.8777" lon="0.15994">
        <ele>2220</ele>
        <time>2011-07-21T11:50:48Z</time>
      </trkpt>
      <trkpt lat="42.87771" lon="0.15989">
        <ele>2219</ele>
        <time>2011-07-21T11:50:52Z</time>
      </trkpt>
      <trkpt lat="42.8777" lon="0.15983">
        <ele>2219</ele>
        <time>2011-07-21T11:50:56Z</time>
      </trkpt>
      <trkpt lat="42.87771" lon="0.15981">
        <ele>2218</ele>
        <time>2011-07-21T11:50:58Z</time>
      </trkpt>
      <trkpt lat="42.87771" lon="0.15977">
        <ele>2218</ele>
        <time>2011-07-21T11:51:02Z</time>
      </trkpt>
      <trkpt lat="42.87771" lon="0.15974">
        <ele>2217</ele>
        <time>2011-07-21T11:51:05Z</time>
      </trkpt>
      <trkpt lat="42.87771" lon="0.15972">
        <ele>2217</ele>
        <time>2011-07-21T11:51:07Z</time>
      </trkpt>
      <trkpt lat="42.87772" lon="0.15967">
        <ele>2216</ele>
        <time>2011-07-21T11:51:11Z</time>
      </trkpt>
      <trkpt lat="42.87772" lon="0.15965">
        <ele>2215</ele>
        <time>2011-07-21T11:51:13Z</time>
      </trkpt>
      <trkpt lat="42.87772" lon="0.15963">
        <ele>2215</ele>
        <time>2011-07-21T11:51:15Z</time>
      </trkpt>
      <trkpt lat="42.87771" lon="0.15954">
        <ele>2214</ele>
        <time>2011-07-21T11:51:22Z</time>
      </trkpt>
      <trkpt lat="42.8777" lon="0.15949">
        <ele>2213</ele>
        <time>2011-07-21T11:51:26Z</time>
      </trkpt>
      <trkpt lat="42.87767" lon="0.15936">
        <ele>2211</ele>
        <time>2011-07-21T11:51:36Z</time>
      </trkpt>
      <trkpt lat="42.87766" lon="0.15934">
        <ele>2211</ele>
        <time>2011-07-21T11:51:38Z</time>
      </trkpt>
      <trkpt lat="42.87765" lon="0.15926">
        <ele>2210</ele>
        <time>2011-07-21T11:51:43Z</time>
      </trkpt>
      <trkpt lat="42.87764" lon="0.15924">
        <ele>2210</ele>
        <time>2011-07-21T11:51:45Z</time>
      </trkpt>
      <trkpt lat="42.87763" lon="0.1592">
        <ele>2210</ele>
        <time>2011-07-21T11:51:47Z</time>
      </trkpt>
      <trkpt lat="42.87761" lon="0.15914">
        <ele>2210</ele>
        <time>2011-07-21T11:51:51Z</time>
      </trkpt>
      <trkpt lat="42.8776" lon="0.15911">
        <ele>2210</ele>
        <time>2011-07-21T11:51:53Z</time>
      </trkpt>
      <trkpt lat="42.8776" lon="0.15907">
        <ele>2209</ele>
        <time>2011-07-21T11:51:55Z</time>
      </trkpt>
      <trkpt lat="42.87759" lon="0.15901">
        <ele>2209</ele>
        <time>2011-07-21T11:51:59Z</time>
      </trkpt>
      <trkpt lat="42.87759" lon="0.15898">
        <ele>2209</ele>
        <time>2011-07-21T11:52:01Z</time>
      </trkpt>
      <trkpt lat="42.87759" lon="0.15894">
        <ele>2209</ele>
        <time>2011-07-21T11:52:03Z</time>
      </trkpt>
      <trkpt lat="42.87761" lon="0.15887">
        <ele>2208</ele>
        <time>2011-07-21T11:52:08Z</time>
      </trkpt>
      <trkpt lat="42.8776" lon="0.15884">
        <ele>2208</ele>
        <time>2011-07-21T11:52:10Z</time>
      </trkpt>
      <trkpt lat="42.8776" lon="0.15881">
        <ele>2208</ele>
        <time>2011-07-21T11:52:12Z</time>
      </trkpt>
      <trkpt lat="42.87757" lon="0.15869">
        <ele>2207</ele>
        <time>2011-07-21T11:52:21Z</time>
      </trkpt>
      <trkpt lat="42.87757" lon="0.15866">
        <ele>2207</ele>
        <time>2011-07-21T11:52:23Z</time>
      </trkpt>
      <trkpt lat="42.87756" lon="0.1586">
        <ele>2207</ele>
        <time>2011-07-21T11:52:28Z</time>
      </trkpt>
      <trkpt lat="42.87756" lon="0.15857">
        <ele>2206</ele>
        <time>2011-07-21T11:52:30Z</time>
      </trkpt>
      <trkpt lat="42.87756" lon="0.15847">
        <ele>2205</ele>
        <time>2011-07-21T11:52:38Z</time>
      </trkpt>
      <trkpt lat="42.87756" lon="0.15845">
        <ele>2205</ele>
        <time>2011-07-21T11:52:40Z</time>
      </trkpt>
      <trkpt lat="42.87755" lon="0.15841">
        <ele>2205</ele>
        <time>2011-07-21T11:52:44Z</time>
      </trkpt>
      <trkpt lat="42.87754" lon="0.15839">
        <ele>2204</ele>
        <time>2011-07-21T11:52:49Z</time>
      </trkpt>
      <trkpt lat="42.87753" lon="0.15837">
        <ele>2204</ele>
        <time>2011-07-21T11:52:51Z</time>
      </trkpt>
      <trkpt lat="42.87752" lon="0.15832">
        <ele>2204</ele>
        <time>2011-07-21T11:52:55Z</time>
      </trkpt>
      <trkpt lat="42.87751" lon="0.15829">
        <ele>2204</ele>
        <time>2011-07-21T11:52:57Z</time>
      </trkpt>
      <trkpt lat="42.87748" lon="0.15826">
        <ele>2204</ele>
        <time>2011-07-21T11:53:01Z</time>
      </trkpt>
      <trkpt lat="42.87746" lon="0.15821">
        <ele>2204</ele>
        <time>2011-07-21T11:53:05Z</time>
      </trkpt>
      <trkpt lat="42.87745" lon="0.15818">
        <ele>2204</ele>
        <time>2011-07-21T11:53:07Z</time>
      </trkpt>
      <trkpt lat="42.87744" lon="0.15816">
        <ele>2204</ele>
        <time>2011-07-21T11:53:09Z</time>
      </trkpt>
      <trkpt lat="42.87741" lon="0.15809">
        <ele>2204</ele>
        <time>2011-07-21T11:53:14Z</time>
      </trkpt>
      <trkpt lat="42.87741" lon="0.15807">
        <ele>2204</ele>
        <time>2011-07-21T11:53:16Z</time>
      </trkpt>
      <trkpt lat="42.8774" lon="0.15803">
        <ele>2203</ele>
        <time>2011-07-21T11:53:19Z</time>
      </trkpt>
      <trkpt lat="42.87738" lon="0.15796">
        <ele>2203</ele>
        <time>2011-07-21T11:53:24Z</time>
      </trkpt>
      <trkpt lat="42.87738" lon="0.15792">
        <ele>2203</ele>
        <time>2011-07-21T11:53:26Z</time>
      </trkpt>
      <trkpt lat="42.87738" lon="0.15789">
        <ele>2203</ele>
        <time>2011-07-21T11:53:28Z</time>
      </trkpt>
      <trkpt lat="42.87738" lon="0.1577">
        <ele>2201</ele>
        <time>2011-07-21T11:53:40Z</time>
      </trkpt>
      <trkpt lat="42.87739" lon="0.15762">
        <ele>2201</ele>
        <time>2011-07-21T11:53:45Z</time>
      </trkpt>
      <trkpt lat="42.8774" lon="0.15755">
        <ele>2201</ele>
        <time>2011-07-21T11:53:50Z</time>
      </trkpt>
      <trkpt lat="42.8774" lon="0.15752">
        <ele>2201</ele>
        <time>2011-07-21T11:53:52Z</time>
      </trkpt>
      <trkpt lat="42.87736" lon="0.15742">
        <ele>2201</ele>
        <time>2011-07-21T11:54:00Z</time>
      </trkpt>
      <trkpt lat="42.87735" lon="0.15738">
        <ele>2201</ele>
        <time>2011-07-21T11:54:02Z</time>
      </trkpt>
      <trkpt lat="42.87734" lon="0.15728">
        <ele>2201</ele>
        <time>2011-07-21T11:54:08Z</time>
      </trkpt>
      <trkpt lat="42.87733" lon="0.15724">
        <ele>2200</ele>
        <time>2011-07-21T11:54:11Z</time>
      </trkpt>
      <trkpt lat="42.87732" lon="0.1572">
        <ele>2200</ele>
        <time>2011-07-21T11:54:14Z</time>
      </trkpt>
      <trkpt lat="42.87729" lon="0.15716">
        <ele>2200</ele>
        <time>2011-07-21T11:54:18Z</time>
      </trkpt>
      <trkpt lat="42.87728" lon="0.15712">
        <ele>2200</ele>
        <time>2011-07-21T11:54:20Z</time>
      </trkpt>
      <trkpt lat="42.87727" lon="0.15704">
        <ele>2199</ele>
        <time>2011-07-21T11:54:26Z</time>
      </trkpt>
      <trkpt lat="42.87725" lon="0.15702">
        <ele>2199</ele>
        <time>2011-07-21T11:54:28Z</time>
      </trkpt>
      <trkpt lat="42.87724" lon="0.157">
        <ele>2199</ele>
        <time>2011-07-21T11:54:30Z</time>
      </trkpt>
      <trkpt lat="42.87722" lon="0.15694">
        <ele>2199</ele>
        <time>2011-07-21T11:54:35Z</time>
      </trkpt>
      <trkpt lat="42.87721" lon="0.15693">
        <ele>2199</ele>
        <time>2011-07-21T11:54:37Z</time>
      </trkpt>
      <trkpt lat="42.8772" lon="0.15689">
        <ele>2199</ele>
        <time>2011-07-21T11:54:40Z</time>
      </trkpt>
      <trkpt lat="42.8772" lon="0.15682">
        <ele>2199</ele>
        <time>2011-07-21T11:54:45Z</time>
      </trkpt>
      <trkpt lat="42.87721" lon="0.15675">
        <ele>2199</ele>
        <time>2011-07-21T11:54:57Z</time>
      </trkpt>
      <trkpt lat="42.87725" lon="0.1566">
        <ele>2199</ele>
        <time>2011-07-21T11:55:07Z</time>
      </trkpt>
      <trkpt lat="42.87726" lon="0.15647">
        <ele>2199</ele>
        <time>2011-07-21T11:55:16Z</time>
      </trkpt>
      <trkpt lat="42.87726" lon="0.15644">
        <ele>2199</ele>
        <time>2011-07-21T11:55:18Z</time>
      </trkpt>
      <trkpt lat="42.87726" lon="0.15638">
        <ele>2199</ele>
        <time>2011-07-21T11:55:22Z</time>
      </trkpt>
      <trkpt lat="42.87726" lon="0.15633">
        <ele>2199</ele>
        <time>2011-07-21T11:55:25Z</time>
      </trkpt>
      <trkpt lat="42.87726" lon="0.15629">
        <ele>2199</ele>
        <time>2011-07-21T11:55:27Z</time>
      </trkpt>
      <trkpt lat="42.87725" lon="0.15621">
        <ele>2199</ele>
        <time>2011-07-21T11:55:32Z</time>
      </trkpt>
      <trkpt lat="42.87724" lon="0.15617">
        <ele>2199</ele>
        <time>2011-07-21T11:55:35Z</time>
      </trkpt>
      <trkpt lat="42.87724" lon="0.15613">
        <ele>2199</ele>
        <time>2011-07-21T11:55:37Z</time>
      </trkpt>
      <trkpt lat="42.87723" lon="0.15605">
        <ele>2199</ele>
        <time>2011-07-21T11:55:42Z</time>
      </trkpt>
      <trkpt lat="42.87722" lon="0.15602">
        <ele>2199</ele>
        <time>2011-07-21T11:55:44Z</time>
      </trkpt>
      <trkpt lat="42.87723" lon="0.15599">
        <ele>2199</ele>
        <time>2011-07-21T11:55:46Z</time>
      </trkpt>
      <trkpt lat="42.87718" lon="0.15581">
        <ele>2198</ele>
        <time>2011-07-21T11:55:59Z</time>
      </trkpt>
      <trkpt lat="42.87717" lon="0.15579">
        <ele>2197</ele>
        <time>2011-07-21T11:56:01Z</time>
      </trkpt>
      <trkpt lat="42.87716" lon="0.15577">
        <ele>2197</ele>
        <time>2011-07-21T11:56:03Z</time>
      </trkpt>
      <trkpt lat="42.87713" lon="0.15574">
        <ele>2196</ele>
        <time>2011-07-21T11:56:07Z</time>
      </trkpt>
      <trkpt lat="42.87711" lon="0.15573">
        <ele>2195</ele>
        <time>2011-07-21T11:56:09Z</time>
      </trkpt>
      <trkpt lat="42.8771" lon="0.15572">
        <ele>2195</ele>
        <time>2011-07-21T11:56:11Z</time>
      </trkpt>
      <trkpt lat="42.87708" lon="0.1557">
        <ele>2194</ele>
        <time>2011-07-21T11:56:15Z</time>
      </trkpt>
      <trkpt lat="42.87707" lon="0.15568">
        <ele>2193</ele>
        <time>2011-07-21T11:56:17Z</time>
      </trkpt>
      <trkpt lat="42.87705" lon="0.15567">
        <ele>2193</ele>
        <time>2011-07-21T11:56:19Z</time>
      </trkpt>
      <trkpt lat="42.87702" lon="0.15566">
        <ele>2192</ele>
        <time>2011-07-21T11:56:23Z</time>
      </trkpt>
      <trkpt lat="42.87701" lon="0.15567">
        <ele>2192</ele>
        <time>2011-07-21T11:56:25Z</time>
      </trkpt>
      <trkpt lat="42.87699" lon="0.15567">
        <ele>2191</ele>
        <time>2011-07-21T11:56:27Z</time>
      </trkpt>
      <trkpt lat="42.87697" lon="0.15566">
        <ele>2190</ele>
        <time>2011-07-21T11:56:31Z</time>
      </trkpt>
      <trkpt lat="42.87695" lon="0.15564">
        <ele>2189</ele>
        <time>2011-07-21T11:56:34Z</time>
      </trkpt>
      <trkpt lat="42.87694" lon="0.15564">
        <ele>2189</ele>
        <time>2011-07-21T11:56:36Z</time>
      </trkpt>
      <trkpt lat="42.87691" lon="0.15564">
        <ele>2188</ele>
        <time>2011-07-21T11:56:45Z</time>
      </trkpt>
      <trkpt lat="42.87689" lon="0.15563">
        <ele>2188</ele>
        <time>2011-07-21T11:56:50Z</time>
      </trkpt>
      <trkpt lat="42.87686" lon="0.15563">
        <ele>2187</ele>
        <time>2011-07-21T11:56:53Z</time>
      </trkpt>
      <trkpt lat="42.8768" lon="0.1556">
        <ele>2187</ele>
        <time>2011-07-21T11:56:58Z</time>
      </trkpt>
      <trkpt lat="42.87669" lon="0.15541">
        <ele>2186</ele>
        <time>2011-07-21T11:57:13Z</time>
      </trkpt>
      <trkpt lat="42.87665" lon="0.15536">
        <ele>2186</ele>
        <time>2011-07-21T11:57:17Z</time>
      </trkpt>
      <trkpt lat="42.87663" lon="0.15534">
        <ele>2186</ele>
        <time>2011-07-21T11:57:19Z</time>
      </trkpt>
      <trkpt lat="42.87655" lon="0.15528">
        <ele>2186</ele>
        <time>2011-07-21T11:57:27Z</time>
      </trkpt>
      <trkpt lat="42.87651" lon="0.15525">
        <ele>2186</ele>
        <time>2011-07-21T11:57:31Z</time>
      </trkpt>
      <trkpt lat="42.87648" lon="0.15521">
        <ele>2186</ele>
        <time>2011-07-21T11:57:35Z</time>
      </trkpt>
      <trkpt lat="42.87646" lon="0.1552">
        <ele>2186</ele>
        <time>2011-07-21T11:57:37Z</time>
      </trkpt>
      <trkpt lat="42.87645" lon="0.1552">
        <ele>2186</ele>
        <time>2011-07-21T11:57:39Z</time>
      </trkpt>
      <trkpt lat="42.87641" lon="0.15516">
        <ele>2186</ele>
        <time>2011-07-21T11:57:43Z</time>
      </trkpt>
      <trkpt lat="42.8764" lon="0.15515">
        <ele>2186</ele>
        <time>2011-07-21T11:57:45Z</time>
      </trkpt>
      <trkpt lat="42.87639" lon="0.15514">
        <ele>2185</ele>
        <time>2011-07-21T11:57:47Z</time>
      </trkpt>
      <trkpt lat="42.87635" lon="0.15515">
        <ele>2185</ele>
        <time>2011-07-21T11:57:52Z</time>
      </trkpt>
      <trkpt lat="42.87634" lon="0.15514">
        <ele>2185</ele>
        <time>2011-07-21T11:57:54Z</time>
      </trkpt>
      <trkpt lat="42.87632" lon="0.15513">
        <ele>2184</ele>
        <time>2011-07-21T11:57:57Z</time>
      </trkpt>
      <trkpt lat="42.8763" lon="0.15512">
        <ele>2183</ele>
        <time>2011-07-21T11:58:03Z</time>
      </trkpt>
      <trkpt lat="42.87628" lon="0.15511">
        <ele>2183</ele>
        <time>2011-07-21T11:58:07Z</time>
      </trkpt>
      <trkpt lat="42.87627" lon="0.15512">
        <ele>2181</ele>
        <time>2011-07-21T11:58:15Z</time>
      </trkpt>
      <trkpt lat="42.87626" lon="0.1551">
        <ele>2180</ele>
        <time>2011-07-21T11:58:19Z</time>
      </trkpt>
      <trkpt lat="42.87624" lon="0.1551">
        <ele>2179</ele>
        <time>2011-07-21T11:58:25Z</time>
      </trkpt>
      <trkpt lat="42.87623" lon="0.1551">
        <ele>2178</ele>
        <time>2011-07-21T11:58:28Z</time>
      </trkpt>
      <trkpt lat="42.87621" lon="0.15508">
        <ele>2177</ele>
        <time>2011-07-21T11:58:36Z</time>
      </trkpt>
      <trkpt lat="42.87619" lon="0.15506">
        <ele>2177</ele>
        <time>2011-07-21T11:58:49Z</time>
      </trkpt>
      <trkpt lat="42.87618" lon="0.15499">
        <ele>2177</ele>
        <time>2011-07-21T11:58:58Z</time>
      </trkpt>
      <trkpt lat="42.87616" lon="0.15497">
        <ele>2176</ele>
        <time>2011-07-21T11:59:02Z</time>
      </trkpt>
      <trkpt lat="42.87615" lon="0.15493">
        <ele>2175</ele>
        <time>2011-07-21T11:59:09Z</time>
      </trkpt>
      <trkpt lat="42.87615" lon="0.15491">
        <ele>2175</ele>
        <time>2011-07-21T11:59:12Z</time>
      </trkpt>
      <trkpt lat="42.87616" lon="0.1549">
        <ele>2175</ele>
        <time>2011-07-21T11:59:14Z</time>
      </trkpt>
      <trkpt lat="42.87617" lon="0.15487">
        <ele>2174</ele>
        <time>2011-07-21T11:59:18Z</time>
      </trkpt>
      <trkpt lat="42.87616" lon="0.15483">
        <ele>2174</ele>
        <time>2011-07-21T11:59:23Z</time>
      </trkpt>
      <trkpt lat="42.87616" lon="0.1548">
        <ele>2173</ele>
        <time>2011-07-21T11:59:27Z</time>
      </trkpt>
      <trkpt lat="42.87616" lon="0.15476">
        <ele>2172</ele>
        <time>2011-07-21T11:59:32Z</time>
      </trkpt>
      <trkpt lat="42.87614" lon="0.15475">
        <ele>2171</ele>
        <time>2011-07-21T11:59:42Z</time>
      </trkpt>
      <trkpt lat="42.87612" lon="0.15473">
        <ele>2171</ele>
        <time>2011-07-21T11:59:54Z</time>
      </trkpt>
      <trkpt lat="42.87612" lon="0.15471">
        <ele>2170</ele>
        <time>2011-07-21T11:59:56Z</time>
      </trkpt>
      <trkpt lat="42.87611" lon="0.15469">
        <ele>2170</ele>
        <time>2011-07-21T12:00:00Z</time>
      </trkpt>
      <trkpt lat="42.87611" lon="0.15465">
        <ele>2169</ele>
        <time>2011-07-21T12:00:06Z</time>
      </trkpt>
      <trkpt lat="42.87612" lon="0.15461">
        <ele>2169</ele>
        <time>2011-07-21T12:00:10Z</time>
      </trkpt>
      <trkpt lat="42.87615" lon="0.15459">
        <ele>2169</ele>
        <time>2011-07-21T12:00:15Z</time>
      </trkpt>
      <trkpt lat="42.87615" lon="0.15457">
        <ele>2169</ele>
        <time>2011-07-21T12:00:18Z</time>
      </trkpt>
      <trkpt lat="42.87615" lon="0.15454">
        <ele>2169</ele>
        <time>2011-07-21T12:00:20Z</time>
      </trkpt>
      <trkpt lat="42.87616" lon="0.15449">
        <ele>2169</ele>
        <time>2011-07-21T12:00:25Z</time>
      </trkpt>
      <trkpt lat="42.87616" lon="0.15447">
        <ele>2169</ele>
        <time>2011-07-21T12:00:28Z</time>
      </trkpt>
      <trkpt lat="42.87616" lon="0.15444">
        <ele>2169</ele>
        <time>2011-07-21T12:00:31Z</time>
      </trkpt>
      <trkpt lat="42.87617" lon="0.15441">
        <ele>2169</ele>
        <time>2011-07-21T12:00:51Z</time>
      </trkpt>
      <trkpt lat="42.87618" lon="0.15436">
        <ele>2169</ele>
        <time>2011-07-21T12:00:55Z</time>
      </trkpt>
      <trkpt lat="42.87622" lon="0.15431">
        <ele>2169</ele>
        <time>2011-07-21T12:01:01Z</time>
      </trkpt>
      <trkpt lat="42.87622" lon="0.15429">
        <ele>2169</ele>
        <time>2011-07-21T12:01:03Z</time>
      </trkpt>
      <trkpt lat="42.87622" lon="0.15427">
        <ele>2169</ele>
        <time>2011-07-21T12:01:05Z</time>
      </trkpt>
      <trkpt lat="42.8762" lon="0.1542">
        <ele>2169</ele>
        <time>2011-07-21T12:01:11Z</time>
      </trkpt>
      <trkpt lat="42.8762" lon="0.15417">
        <ele>2168</ele>
        <time>2011-07-21T12:01:13Z</time>
      </trkpt>
      <trkpt lat="42.87619" lon="0.15413">
        <ele>2167</ele>
        <time>2011-07-21T12:01:17Z</time>
      </trkpt>
      <trkpt lat="42.87619" lon="0.1541">
        <ele>2167</ele>
        <time>2011-07-21T12:01:19Z</time>
      </trkpt>
      <trkpt lat="42.87619" lon="0.15408">
        <ele>2166</ele>
        <time>2011-07-21T12:01:21Z</time>
      </trkpt>
      <trkpt lat="42.87619" lon="0.15404">
        <ele>2166</ele>
        <time>2011-07-21T12:01:25Z</time>
      </trkpt>
      <trkpt lat="42.87618" lon="0.15401">
        <ele>2165</ele>
        <time>2011-07-21T12:01:27Z</time>
      </trkpt>
      <trkpt lat="42.87618" lon="0.15398">
        <ele>2165</ele>
        <time>2011-07-21T12:01:29Z</time>
      </trkpt>
      <trkpt lat="42.87618" lon="0.15392">
        <ele>2165</ele>
        <time>2011-07-21T12:01:33Z</time>
      </trkpt>
      <trkpt lat="42.87617" lon="0.15388">
        <ele>2165</ele>
        <time>2011-07-21T12:01:35Z</time>
      </trkpt>
      <trkpt lat="42.87617" lon="0.15385">
        <ele>2164</ele>
        <time>2011-07-21T12:01:37Z</time>
      </trkpt>
      <trkpt lat="42.87616" lon="0.15379">
        <ele>2164</ele>
        <time>2011-07-21T12:01:41Z</time>
      </trkpt>
      <trkpt lat="42.87614" lon="0.15376">
        <ele>2164</ele>
        <time>2011-07-21T12:01:43Z</time>
      </trkpt>
      <trkpt lat="42.87613" lon="0.15374">
        <ele>2164</ele>
        <time>2011-07-21T12:01:45Z</time>
      </trkpt>
      <trkpt lat="42.8761" lon="0.15369">
        <ele>2164</ele>
        <time>2011-07-21T12:01:54Z</time>
      </trkpt>
      <trkpt lat="42.87609" lon="0.15367">
        <ele>2163</ele>
        <time>2011-07-21T12:01:56Z</time>
      </trkpt>
      <trkpt lat="42.87607" lon="0.15362">
        <ele>2163</ele>
        <time>2011-07-21T12:02:00Z</time>
      </trkpt>
      <trkpt lat="42.87606" lon="0.15361">
        <ele>2162</ele>
        <time>2011-07-21T12:02:02Z</time>
      </trkpt>
      <trkpt lat="42.87605" lon="0.15359">
        <ele>2162</ele>
        <time>2011-07-21T12:02:04Z</time>
      </trkpt>
      <trkpt lat="42.87603" lon="0.15356">
        <ele>2161</ele>
        <time>2011-07-21T12:02:10Z</time>
      </trkpt>
      <trkpt lat="42.87602" lon="0.15353">
        <ele>2160</ele>
        <time>2011-07-21T12:02:12Z</time>
      </trkpt>
      <trkpt lat="42.87601" lon="0.15351">
        <ele>2160</ele>
        <time>2011-07-21T12:02:14Z</time>
      </trkpt>
      <trkpt lat="42.87599" lon="0.15345">
        <ele>2159</ele>
        <time>2011-07-21T12:02:21Z</time>
      </trkpt>
      <trkpt lat="42.87599" lon="0.15344">
        <ele>2159</ele>
        <time>2011-07-21T12:02:24Z</time>
      </trkpt>
      <trkpt lat="42.87598" lon="0.15341">
        <ele>2158</ele>
        <time>2011-07-21T12:02:26Z</time>
      </trkpt>
      <trkpt lat="42.87597" lon="0.15335">
        <ele>2158</ele>
        <time>2011-07-21T12:02:30Z</time>
      </trkpt>
      <trkpt lat="42.87596" lon="0.15332">
        <ele>2157</ele>
        <time>2011-07-21T12:02:32Z</time>
      </trkpt>
      <trkpt lat="42.87595" lon="0.1533">
        <ele>2157</ele>
        <time>2011-07-21T12:02:34Z</time>
      </trkpt>
      <trkpt lat="42.87594" lon="0.15325">
        <ele>2156</ele>
        <time>2011-07-21T12:02:38Z</time>
      </trkpt>
      <trkpt lat="42.87593" lon="0.15323">
        <ele>2156</ele>
        <time>2011-07-21T12:02:40Z</time>
      </trkpt>
      <trkpt lat="42.87592" lon="0.15321">
        <ele>2155</ele>
        <time>2011-07-21T12:02:42Z</time>
      </trkpt>
      <trkpt lat="42.87591" lon="0.15317">
        <ele>2154</ele>
        <time>2011-07-21T12:02:46Z</time>
      </trkpt>
      <trkpt lat="42.8759" lon="0.15315">
        <ele>2154</ele>
        <time>2011-07-21T12:02:48Z</time>
      </trkpt>
      <trkpt lat="42.8759" lon="0.15312">
        <ele>2154</ele>
        <time>2011-07-21T12:02:50Z</time>
      </trkpt>
      <trkpt lat="42.87591" lon="0.15308">
        <ele>2154</ele>
        <time>2011-07-21T12:02:54Z</time>
      </trkpt>
      <trkpt lat="42.8759" lon="0.15306">
        <ele>2154</ele>
        <time>2011-07-21T12:02:56Z</time>
      </trkpt>
      <trkpt lat="42.8759" lon="0.15304">
        <ele>2154</ele>
        <time>2011-07-21T12:02:58Z</time>
      </trkpt>
      <trkpt lat="42.87588" lon="0.15299">
        <ele>2153</ele>
        <time>2011-07-21T12:03:02Z</time>
      </trkpt>
      <trkpt lat="42.87591" lon="0.15295">
        <ele>2153</ele>
        <time>2011-07-21T12:03:05Z</time>
      </trkpt>
      <trkpt lat="42.87593" lon="0.15295">
        <ele>2153</ele>
        <time>2011-07-21T12:03:07Z</time>
      </trkpt>
      <trkpt lat="42.87594" lon="0.15284">
        <ele>2153</ele>
        <time>2011-07-21T12:03:23Z</time>
      </trkpt>
      <trkpt lat="42.87597" lon="0.1528">
        <ele>2153</ele>
        <time>2011-07-21T12:03:33Z</time>
      </trkpt>
      <trkpt lat="42.87598" lon="0.15279">
        <ele>2153</ele>
        <time>2011-07-21T12:03:35Z</time>
      </trkpt>
      <trkpt lat="42.876" lon="0.15276">
        <ele>2153</ele>
        <time>2011-07-21T12:03:44Z</time>
      </trkpt>
      <trkpt lat="42.87601" lon="0.15274">
        <ele>2153</ele>
        <time>2011-07-21T12:03:48Z</time>
      </trkpt>
      <trkpt lat="42.87601" lon="0.15273">
        <ele>2153</ele>
        <time>2011-07-21T12:04:00Z</time>
      </trkpt>
      <trkpt lat="42.87602" lon="0.1527">
        <ele>2153</ele>
        <time>2011-07-21T12:04:13Z</time>
      </trkpt>
      <trkpt lat="42.87602" lon="0.15268">
        <ele>2153</ele>
        <time>2011-07-21T12:04:15Z</time>
      </trkpt>
      <trkpt lat="42.87602" lon="0.15266">
        <ele>2153</ele>
        <time>2011-07-21T12:04:17Z</time>
      </trkpt>
      <trkpt lat="42.87602" lon="0.15262">
        <ele>2153</ele>
        <time>2011-07-21T12:04:22Z</time>
      </trkpt>
      <trkpt lat="42.87602" lon="0.15259">
        <ele>2153</ele>
        <time>2011-07-21T12:04:24Z</time>
      </trkpt>
      <trkpt lat="42.87603" lon="0.15249">
        <ele>2153</ele>
        <time>2011-07-21T12:04:31Z</time>
      </trkpt>
      <trkpt lat="42.87602" lon="0.15247">
        <ele>2153</ele>
        <time>2011-07-21T12:04:33Z</time>
      </trkpt>
      <trkpt lat="42.87601" lon="0.15244">
        <ele>2153</ele>
        <time>2011-07-21T12:04:35Z</time>
      </trkpt>
      <trkpt lat="42.876" lon="0.15237">
        <ele>2153</ele>
        <time>2011-07-21T12:04:39Z</time>
      </trkpt>
      <trkpt lat="42.87599" lon="0.15231">
        <ele>2153</ele>
        <time>2011-07-21T12:04:43Z</time>
      </trkpt>
      <trkpt lat="42.876" lon="0.15224">
        <ele>2153</ele>
        <time>2011-07-21T12:04:47Z</time>
      </trkpt>
      <trkpt lat="42.876" lon="0.15219">
        <ele>2153</ele>
        <time>2011-07-21T12:04:50Z</time>
      </trkpt>
      <trkpt lat="42.87603" lon="0.15214">
        <ele>2153</ele>
        <time>2011-07-21T12:04:57Z</time>
      </trkpt>
      <trkpt lat="42.87603" lon="0.15211">
        <ele>2153</ele>
        <time>2011-07-21T12:05:00Z</time>
      </trkpt>
      <trkpt lat="42.87604" lon="0.15207">
        <ele>2153</ele>
        <time>2011-07-21T12:05:03Z</time>
      </trkpt>
      <trkpt lat="42.87603" lon="0.15204">
        <ele>2153</ele>
        <time>2011-07-21T12:05:08Z</time>
      </trkpt>
      <trkpt lat="42.876" lon="0.15202">
        <ele>2153</ele>
        <time>2011-07-21T12:05:13Z</time>
      </trkpt>
      <trkpt lat="42.87598" lon="0.15202">
        <ele>2153</ele>
        <time>2011-07-21T12:05:20Z</time>
      </trkpt>
      <trkpt lat="42.87597" lon="0.15202">
        <ele>2153</ele>
        <time>2011-07-21T12:05:24Z</time>
      </trkpt>
      <trkpt lat="42.87595" lon="0.15203">
        <ele>2153</ele>
        <time>2011-07-21T12:05:26Z</time>
      </trkpt>
      <trkpt lat="42.87591" lon="0.15201">
        <ele>2153</ele>
        <time>2011-07-21T12:05:30Z</time>
      </trkpt>
      <trkpt lat="42.8759" lon="0.15199">
        <ele>2153</ele>
        <time>2011-07-21T12:05:32Z</time>
      </trkpt>
      <trkpt lat="42.87589" lon="0.15198">
        <ele>2153</ele>
        <time>2011-07-21T12:05:34Z</time>
      </trkpt>
      <trkpt lat="42.87583" lon="0.15194">
        <ele>2153</ele>
        <time>2011-07-21T12:05:40Z</time>
      </trkpt>
      <trkpt lat="42.87582" lon="0.15193">
        <ele>2153</ele>
        <time>2011-07-21T12:05:43Z</time>
      </trkpt>
      <trkpt lat="42.87577" lon="0.15191">
        <ele>2153</ele>
        <time>2011-07-21T12:05:48Z</time>
      </trkpt>
      <trkpt lat="42.87573" lon="0.15191">
        <ele>2153</ele>
        <time>2011-07-21T12:05:51Z</time>
      </trkpt>
      <trkpt lat="42.87571" lon="0.15191">
        <ele>2153</ele>
        <time>2011-07-21T12:05:53Z</time>
      </trkpt>
      <trkpt lat="42.87566" lon="0.15191">
        <ele>2153</ele>
        <time>2011-07-21T12:05:58Z</time>
      </trkpt>
      <trkpt lat="42.87564" lon="0.15191">
        <ele>2153</ele>
        <time>2011-07-21T12:06:00Z</time>
      </trkpt>
      <trkpt lat="42.87562" lon="0.1519">
        <ele>2152</ele>
        <time>2011-07-21T12:06:02Z</time>
      </trkpt>
      <trkpt lat="42.87555" lon="0.15192">
        <ele>2151</ele>
        <time>2011-07-21T12:06:09Z</time>
      </trkpt>
      <trkpt lat="42.87553" lon="0.15193">
        <ele>2150</ele>
        <time>2011-07-21T12:06:11Z</time>
      </trkpt>
      <trkpt lat="42.87547" lon="0.15194">
        <ele>2149</ele>
        <time>2011-07-21T12:06:15Z</time>
      </trkpt>
      <trkpt lat="42.87542" lon="0.15195">
        <ele>2149</ele>
        <time>2011-07-21T12:06:18Z</time>
      </trkpt>
      <trkpt lat="42.87532" lon="0.15197">
        <ele>2156</ele>
        <time>2011-07-21T12:06:26Z</time>
      </trkpt>
      <trkpt lat="42.8753" lon="0.15197">
        <ele>2156</ele>
        <time>2011-07-21T12:06:28Z</time>
      </trkpt>
      <trkpt lat="42.87527" lon="0.15196">
        <ele>2156</ele>
        <time>2011-07-21T12:06:31Z</time>
      </trkpt>
      <trkpt lat="42.87523" lon="0.15195">
        <ele>2156</ele>
        <time>2011-07-21T12:06:35Z</time>
      </trkpt>
      <trkpt lat="42.8752" lon="0.15195">
        <ele>2156</ele>
        <time>2011-07-21T12:06:38Z</time>
      </trkpt>
      <trkpt lat="42.87518" lon="0.15194">
        <ele>2156</ele>
        <time>2011-07-21T12:06:40Z</time>
      </trkpt>
      <trkpt lat="42.87516" lon="0.15192">
        <ele>2156</ele>
        <time>2011-07-21T12:07:36Z</time>
      </trkpt>
      <trkpt lat="42.87518" lon="0.15192">
        <ele>2156</ele>
        <time>2011-07-21T12:07:54Z</time>
      </trkpt>
      <trkpt lat="42.87519" lon="0.15192">
        <ele>2156</ele>
        <time>2011-07-21T12:08:09Z</time>
      </trkpt>
      <trkpt lat="42.87516" lon="0.15191">
        <ele>2156</ele>
        <time>2011-07-21T12:08:23Z</time>
      </trkpt>
      <trkpt lat="42.87517" lon="0.15191">
        <ele>2156</ele>
        <time>2011-07-21T12:08:29Z</time>
      </trkpt>
      <trkpt lat="42.87518" lon="0.15192">
        <ele>2156</ele>
        <time>2011-07-21T12:08:37Z</time>
      </trkpt>
      <trkpt lat="42.87521" lon="0.15193">
        <ele>2155</ele>
        <time>2011-07-21T12:09:13Z</time>
      </trkpt>
      <trkpt lat="42.87519" lon="0.15192">
        <ele>2155</ele>
        <time>2011-07-21T12:09:25Z</time>
      </trkpt>
      <trkpt lat="42.87518" lon="0.15192">
        <ele>2155</ele>
        <time>2011-07-21T12:09:28Z</time>
      </trkpt>
      <trkpt lat="42.8752" lon="0.15192">
        <ele>2157</ele>
        <time>2011-07-21T12:09:42Z</time>
      </trkpt>
      <trkpt lat="42.87519" lon="0.15193">
        <ele>2156</ele>
        <time>2011-07-21T12:10:23Z</time>
      </trkpt>
      <trkpt lat="42.87517" lon="0.15194">
        <ele>2156</ele>
        <time>2011-07-21T12:10:25Z</time>
      </trkpt>
      <trkpt lat="42.87511" lon="0.15193">
        <ele>2156</ele>
        <time>2011-07-21T12:10:30Z</time>
      </trkpt>
      <trkpt lat="42.8751" lon="0.15192">
        <ele>2156</ele>
        <time>2011-07-21T12:10:32Z</time>
      </trkpt>
      <trkpt lat="42.87508" lon="0.15191">
        <ele>2156</ele>
        <time>2011-07-21T12:10:34Z</time>
      </trkpt>
      <trkpt lat="42.87502" lon="0.1519">
        <ele>2156</ele>
        <time>2011-07-21T12:10:39Z</time>
      </trkpt>
      <trkpt lat="42.875" lon="0.1519">
        <ele>2156</ele>
        <time>2011-07-21T12:10:41Z</time>
      </trkpt>
      <trkpt lat="42.87497" lon="0.15189">
        <ele>2156</ele>
        <time>2011-07-21T12:10:43Z</time>
      </trkpt>
      <trkpt lat="42.87496" lon="0.15187">
        <ele>2153</ele>
        <time>2011-07-21T12:10:57Z</time>
      </trkpt>
      <trkpt lat="42.87495" lon="0.15185">
        <ele>2153</ele>
        <time>2011-07-21T12:10:59Z</time>
      </trkpt>
      <trkpt lat="42.87494" lon="0.15183">
        <ele>2152</ele>
        <time>2011-07-21T12:11:01Z</time>
      </trkpt>
      <trkpt lat="42.87492" lon="0.15177">
        <ele>2151</ele>
        <time>2011-07-21T12:11:05Z</time>
      </trkpt>
      <trkpt lat="42.87492" lon="0.15174">
        <ele>2150</ele>
        <time>2011-07-21T12:11:07Z</time>
      </trkpt>
      <trkpt lat="42.87492" lon="0.15171">
        <ele>2150</ele>
        <time>2011-07-21T12:11:09Z</time>
      </trkpt>
      <trkpt lat="42.87493" lon="0.15162">
        <ele>2149</ele>
        <time>2011-07-21T12:11:15Z</time>
      </trkpt>
      <trkpt lat="42.87494" lon="0.15159">
        <ele>2149</ele>
        <time>2011-07-21T12:11:17Z</time>
      </trkpt>
      <trkpt lat="42.87496" lon="0.15152">
        <ele>2149</ele>
        <time>2011-07-21T12:11:22Z</time>
      </trkpt>
      <trkpt lat="42.87496" lon="0.15149">
        <ele>2149</ele>
        <time>2011-07-21T12:11:24Z</time>
      </trkpt>
      <trkpt lat="42.87495" lon="0.15146">
        <ele>2149</ele>
        <time>2011-07-21T12:11:26Z</time>
      </trkpt>
      <trkpt lat="42.87492" lon="0.15141">
        <ele>2149</ele>
        <time>2011-07-21T12:11:30Z</time>
      </trkpt>
      <trkpt lat="42.87491" lon="0.15138">
        <ele>2149</ele>
        <time>2011-07-21T12:11:32Z</time>
      </trkpt>
      <trkpt lat="42.87493" lon="0.15136">
        <ele>2149</ele>
        <time>2011-07-21T12:11:34Z</time>
      </trkpt>
      <trkpt lat="42.8749" lon="0.1513">
        <ele>2149</ele>
        <time>2011-07-21T12:11:38Z</time>
      </trkpt>
      <trkpt lat="42.87487" lon="0.15123">
        <ele>2149</ele>
        <time>2011-07-21T12:11:42Z</time>
      </trkpt>
      <trkpt lat="42.87487" lon="0.15117">
        <ele>2149</ele>
        <time>2011-07-21T12:11:46Z</time>
      </trkpt>
      <trkpt lat="42.87486" lon="0.15113">
        <ele>2149</ele>
        <time>2011-07-21T12:11:48Z</time>
      </trkpt>
      <trkpt lat="42.87486" lon="0.1511">
        <ele>2149</ele>
        <time>2011-07-21T12:11:50Z</time>
      </trkpt>
      <trkpt lat="42.87484" lon="0.15103">
        <ele>2149</ele>
        <time>2011-07-21T12:11:54Z</time>
      </trkpt>
      <trkpt lat="42.87482" lon="0.15097">
        <ele>2149</ele>
        <time>2011-07-21T12:11:59Z</time>
      </trkpt>
      <trkpt lat="42.87479" lon="0.15089">
        <ele>2149</ele>
        <time>2011-07-21T12:12:04Z</time>
      </trkpt>
      <trkpt lat="42.87476" lon="0.15085">
        <ele>2149</ele>
        <time>2011-07-21T12:12:08Z</time>
      </trkpt>
      <trkpt lat="42.87474" lon="0.15081">
        <ele>2149</ele>
        <time>2011-07-21T12:12:12Z</time>
      </trkpt>
      <trkpt lat="42.87473" lon="0.15079">
        <ele>2149</ele>
        <time>2011-07-21T12:12:15Z</time>
      </trkpt>
      <trkpt lat="42.87471" lon="0.15077">
        <ele>2149</ele>
        <time>2011-07-21T12:12:45Z</time>
      </trkpt>
      <trkpt lat="42.87469" lon="0.15076">
        <ele>2149</ele>
        <time>2011-07-21T12:12:48Z</time>
      </trkpt>
      <trkpt lat="42.87467" lon="0.15075">
        <ele>2149</ele>
        <time>2011-07-21T12:12:53Z</time>
      </trkpt>
      <trkpt lat="42.87462" lon="0.15072">
        <ele>2149</ele>
        <time>2011-07-21T12:12:59Z</time>
      </trkpt>
      <trkpt lat="42.8746" lon="0.15071">
        <ele>2149</ele>
        <time>2011-07-21T12:13:01Z</time>
      </trkpt>
      <trkpt lat="42.87455" lon="0.1507">
        <ele>2149</ele>
        <time>2011-07-21T12:13:05Z</time>
      </trkpt>
      <trkpt lat="42.8745" lon="0.15068">
        <ele>2149</ele>
        <time>2011-07-21T12:13:09Z</time>
      </trkpt>
      <trkpt lat="42.87442" lon="0.15068">
        <ele>2150</ele>
        <time>2011-07-21T12:13:14Z</time>
      </trkpt>
      <trkpt lat="42.87428" lon="0.15068">
        <ele>2157</ele>
        <time>2011-07-21T12:13:24Z</time>
      </trkpt>
      <trkpt lat="42.87426" lon="0.15067">
        <ele>2157</ele>
        <time>2011-07-21T12:13:26Z</time>
      </trkpt>
      <trkpt lat="42.87428" lon="0.15067">
        <ele>2157</ele>
        <time>2011-07-21T12:13:36Z</time>
      </trkpt>
      <trkpt lat="42.87425" lon="0.15066">
        <ele>2157</ele>
        <time>2011-07-21T12:13:52Z</time>
      </trkpt>
      <trkpt lat="42.87426" lon="0.15066">
        <ele>2157</ele>
        <time>2011-07-21T12:13:55Z</time>
      </trkpt>
      <trkpt lat="42.87429" lon="0.15067">
        <ele>2157</ele>
        <time>2011-07-21T12:13:58Z</time>
      </trkpt>
      <trkpt lat="42.87432" lon="0.15067">
        <ele>2156</ele>
        <time>2011-07-21T12:15:04Z</time>
      </trkpt>
      <trkpt lat="42.87434" lon="0.15067">
        <ele>2156</ele>
        <time>2011-07-21T12:15:09Z</time>
      </trkpt>
      <trkpt lat="42.87436" lon="0.15068">
        <ele>2156</ele>
        <time>2011-07-21T12:15:11Z</time>
      </trkpt>
      <trkpt lat="42.8744" lon="0.15067">
        <ele>2156</ele>
        <time>2011-07-21T12:15:17Z</time>
      </trkpt>
      <trkpt lat="42.87442" lon="0.15067">
        <ele>2156</ele>
        <time>2011-07-21T12:15:19Z</time>
      </trkpt>
      <trkpt lat="42.87447" lon="0.15067">
        <ele>2156</ele>
        <time>2011-07-21T12:15:23Z</time>
      </trkpt>
      <trkpt lat="42.87452" lon="0.15068">
        <ele>2156</ele>
        <time>2011-07-21T12:15:27Z</time>
      </trkpt>
      <trkpt lat="42.87456" lon="0.15071">
        <ele>2156</ele>
        <time>2011-07-21T12:15:31Z</time>
      </trkpt>
      <trkpt lat="42.87461" lon="0.15073">
        <ele>2155</ele>
        <time>2011-07-21T12:15:37Z</time>
      </trkpt>
      <trkpt lat="42.87469" lon="0.15078">
        <ele>2154</ele>
        <time>2011-07-21T12:15:45Z</time>
      </trkpt>
      <trkpt lat="42.8747" lon="0.15079">
        <ele>2154</ele>
        <time>2011-07-21T12:15:47Z</time>
      </trkpt>
      <trkpt lat="42.87471" lon="0.15081">
        <ele>2153</ele>
        <time>2011-07-21T12:15:49Z</time>
      </trkpt>
      <trkpt lat="42.87474" lon="0.15086">
        <ele>2153</ele>
        <time>2011-07-21T12:15:53Z</time>
      </trkpt>
      <trkpt lat="42.87475" lon="0.15088">
        <ele>2153</ele>
        <time>2011-07-21T12:15:55Z</time>
      </trkpt>
      <trkpt lat="42.87476" lon="0.15089">
        <ele>2153</ele>
        <time>2011-07-21T12:15:58Z</time>
      </trkpt>
      <trkpt lat="42.87478" lon="0.15087">
        <ele>2153</ele>
        <time>2011-07-21T12:16:08Z</time>
      </trkpt>
      <trkpt lat="42.8748" lon="0.15085">
        <ele>2152</ele>
        <time>2011-07-21T12:16:10Z</time>
      </trkpt>
      <trkpt lat="42.87482" lon="0.15084">
        <ele>2152</ele>
        <time>2011-07-21T12:16:12Z</time>
      </trkpt>
      <trkpt lat="42.8749" lon="0.15081">
        <ele>2150</ele>
        <time>2011-07-21T12:16:20Z</time>
      </trkpt>
      <trkpt lat="42.87491" lon="0.15079">
        <ele>2150</ele>
        <time>2011-07-21T12:16:22Z</time>
      </trkpt>
      <trkpt lat="42.87493" lon="0.15078">
        <ele>2150</ele>
        <time>2011-07-21T12:16:24Z</time>
      </trkpt>
      <trkpt lat="42.87502" lon="0.15062">
        <ele>2149</ele>
        <time>2011-07-21T12:16:36Z</time>
      </trkpt>
      <trkpt lat="42.87504" lon="0.1506">
        <ele>2149</ele>
        <time>2011-07-21T12:16:38Z</time>
      </trkpt>
      <trkpt lat="42.87513" lon="0.15049">
        <ele>2149</ele>
        <time>2011-07-21T12:16:47Z</time>
      </trkpt>
      <trkpt lat="42.87515" lon="0.15047">
        <ele>2149</ele>
        <time>2011-07-21T12:16:49Z</time>
      </trkpt>
      <trkpt lat="42.87523" lon="0.15032">
        <ele>2149</ele>
        <time>2011-07-21T12:16:59Z</time>
      </trkpt>
      <trkpt lat="42.87524" lon="0.15025">
        <ele>2148</ele>
        <time>2011-07-21T12:17:03Z</time>
      </trkpt>
      <trkpt lat="42.87525" lon="0.1502">
        <ele>2148</ele>
        <time>2011-07-21T12:17:06Z</time>
      </trkpt>
      <trkpt lat="42.87525" lon="0.15016">
        <ele>2147</ele>
        <time>2011-07-21T12:17:08Z</time>
      </trkpt>
      <trkpt lat="42.87528" lon="0.15006">
        <ele>2147</ele>
        <time>2011-07-21T12:17:14Z</time>
      </trkpt>
      <trkpt lat="42.87528" lon="0.15003">
        <ele>2146</ele>
        <time>2011-07-21T12:17:16Z</time>
      </trkpt>
      <trkpt lat="42.87529" lon="0.14994">
        <ele>2146</ele>
        <time>2011-07-21T12:17:21Z</time>
      </trkpt>
      <trkpt lat="42.8753" lon="0.14991">
        <ele>2145</ele>
        <time>2011-07-21T12:17:23Z</time>
      </trkpt>
      <trkpt lat="42.87529" lon="0.14988">
        <ele>2145</ele>
        <time>2011-07-21T12:17:25Z</time>
      </trkpt>
      <trkpt lat="42.87531" lon="0.14976">
        <ele>2144</ele>
        <time>2011-07-21T12:17:32Z</time>
      </trkpt>
      <trkpt lat="42.87532" lon="0.14972">
        <ele>2143</ele>
        <time>2011-07-21T12:17:34Z</time>
      </trkpt>
      <trkpt lat="42.87533" lon="0.14963">
        <ele>2143</ele>
        <time>2011-07-21T12:17:39Z</time>
      </trkpt>
      <trkpt lat="42.87534" lon="0.1496">
        <ele>2142</ele>
        <time>2011-07-21T12:17:41Z</time>
      </trkpt>
      <trkpt lat="42.87536" lon="0.14954">
        <ele>2142</ele>
        <time>2011-07-21T12:17:45Z</time>
      </trkpt>
      <trkpt lat="42.87537" lon="0.14942">
        <ele>2141</ele>
        <time>2011-07-21T12:17:52Z</time>
      </trkpt>
      <trkpt lat="42.87537" lon="0.14937">
        <ele>2140</ele>
        <time>2011-07-21T12:17:55Z</time>
      </trkpt>
      <trkpt lat="42.87538" lon="0.14926">
        <ele>2140</ele>
        <time>2011-07-21T12:18:02Z</time>
      </trkpt>
      <trkpt lat="42.87543" lon="0.1491">
        <ele>2138</ele>
        <time>2011-07-21T12:18:13Z</time>
      </trkpt>
      <trkpt lat="42.87543" lon="0.14908">
        <ele>2138</ele>
        <time>2011-07-21T12:18:15Z</time>
      </trkpt>
      <trkpt lat="42.87544" lon="0.14902">
        <ele>2137</ele>
        <time>2011-07-21T12:18:19Z</time>
      </trkpt>
      <trkpt lat="42.87546" lon="0.14898">
        <ele>2137</ele>
        <time>2011-07-21T12:18:23Z</time>
      </trkpt>
      <trkpt lat="42.87547" lon="0.14893">
        <ele>2136</ele>
        <time>2011-07-21T12:18:27Z</time>
      </trkpt>
      <trkpt lat="42.87552" lon="0.14889">
        <ele>2135</ele>
        <time>2011-07-21T12:18:33Z</time>
      </trkpt>
      <trkpt lat="42.87556" lon="0.14883">
        <ele>2134</ele>
        <time>2011-07-21T12:18:41Z</time>
      </trkpt>
      <trkpt lat="42.87558" lon="0.14876">
        <ele>2134</ele>
        <time>2011-07-21T12:18:47Z</time>
      </trkpt>
      <trkpt lat="42.87561" lon="0.14874">
        <ele>2133</ele>
        <time>2011-07-21T12:18:52Z</time>
      </trkpt>
      <trkpt lat="42.87561" lon="0.1487">
        <ele>2133</ele>
        <time>2011-07-21T12:18:56Z</time>
      </trkpt>
      <trkpt lat="42.87561" lon="0.14868">
        <ele>2133</ele>
        <time>2011-07-21T12:18:58Z</time>
      </trkpt>
      <trkpt lat="42.87565" lon="0.14865">
        <ele>2132</ele>
        <time>2011-07-21T12:19:04Z</time>
      </trkpt>
      <trkpt lat="42.87566" lon="0.14863">
        <ele>2132</ele>
        <time>2011-07-21T12:19:07Z</time>
      </trkpt>
      <trkpt lat="42.87566" lon="0.14861">
        <ele>2132</ele>
        <time>2011-07-21T12:19:09Z</time>
      </trkpt>
      <trkpt lat="42.87568" lon="0.14852">
        <ele>2130</ele>
        <time>2011-07-21T12:19:18Z</time>
      </trkpt>
      <trkpt lat="42.87569" lon="0.1485">
        <ele>2129</ele>
        <time>2011-07-21T12:19:20Z</time>
      </trkpt>
      <trkpt lat="42.8757" lon="0.14847">
        <ele>2129</ele>
        <time>2011-07-21T12:19:22Z</time>
      </trkpt>
      <trkpt lat="42.87574" lon="0.14838">
        <ele>2129</ele>
        <time>2011-07-21T12:19:28Z</time>
      </trkpt>
      <trkpt lat="42.87578" lon="0.14836">
        <ele>2129</ele>
        <time>2011-07-21T12:19:31Z</time>
      </trkpt>
      <trkpt lat="42.8758" lon="0.14832">
        <ele>2128</ele>
        <time>2011-07-21T12:19:35Z</time>
      </trkpt>
      <trkpt lat="42.87583" lon="0.14825">
        <ele>2128</ele>
        <time>2011-07-21T12:19:41Z</time>
      </trkpt>
      <trkpt lat="42.87585" lon="0.14823">
        <ele>2128</ele>
        <time>2011-07-21T12:19:43Z</time>
      </trkpt>
      <trkpt lat="42.87589" lon="0.14821">
        <ele>2128</ele>
        <time>2011-07-21T12:19:46Z</time>
      </trkpt>
      <trkpt lat="42.87595" lon="0.14816">
        <ele>2128</ele>
        <time>2011-07-21T12:19:52Z</time>
      </trkpt>
      <trkpt lat="42.87597" lon="0.14814">
        <ele>2128</ele>
        <time>2011-07-21T12:19:54Z</time>
      </trkpt>
      <trkpt lat="42.87598" lon="0.14802">
        <ele>2128</ele>
        <time>2011-07-21T12:20:01Z</time>
      </trkpt>
      <trkpt lat="42.87598" lon="0.14798">
        <ele>2128</ele>
        <time>2011-07-21T12:20:03Z</time>
      </trkpt>
      <trkpt lat="42.87599" lon="0.14794">
        <ele>2128</ele>
        <time>2011-07-21T12:20:06Z</time>
      </trkpt>
      <trkpt lat="42.87604" lon="0.14787">
        <ele>2128</ele>
        <time>2011-07-21T12:20:12Z</time>
      </trkpt>
      <trkpt lat="42.87608" lon="0.14784">
        <ele>2128</ele>
        <time>2011-07-21T12:20:16Z</time>
      </trkpt>
      <trkpt lat="42.8761" lon="0.14782">
        <ele>2127</ele>
        <time>2011-07-21T12:20:18Z</time>
      </trkpt>
      <trkpt lat="42.87616" lon="0.14775">
        <ele>2127</ele>
        <time>2011-07-21T12:20:26Z</time>
      </trkpt>
      <trkpt lat="42.87617" lon="0.14772">
        <ele>2126</ele>
        <time>2011-07-21T12:20:28Z</time>
      </trkpt>
      <trkpt lat="42.87618" lon="0.14772">
        <ele>2126</ele>
        <time>2011-07-21T12:20:31Z</time>
      </trkpt>
      <trkpt lat="42.87621" lon="0.14766">
        <ele>2126</ele>
        <time>2011-07-21T12:20:45Z</time>
      </trkpt>
      <trkpt lat="42.87622" lon="0.14764">
        <ele>2125</ele>
        <time>2011-07-21T12:20:47Z</time>
      </trkpt>
      <trkpt lat="42.87624" lon="0.14759">
        <ele>2125</ele>
        <time>2011-07-21T12:20:51Z</time>
      </trkpt>
      <trkpt lat="42.87624" lon="0.14754">
        <ele>2124</ele>
        <time>2011-07-21T12:20:55Z</time>
      </trkpt>
      <trkpt lat="42.87626" lon="0.14747">
        <ele>2123</ele>
        <time>2011-07-21T12:21:02Z</time>
      </trkpt>
      <trkpt lat="42.87628" lon="0.1474">
        <ele>2123</ele>
        <time>2011-07-21T12:21:07Z</time>
      </trkpt>
      <trkpt lat="42.8763" lon="0.14736">
        <ele>2123</ele>
        <time>2011-07-21T12:21:10Z</time>
      </trkpt>
      <trkpt lat="42.87631" lon="0.14732">
        <ele>2122</ele>
        <time>2011-07-21T12:21:13Z</time>
      </trkpt>
      <trkpt lat="42.87634" lon="0.14726">
        <ele>2122</ele>
        <time>2011-07-21T12:21:18Z</time>
      </trkpt>
      <trkpt lat="42.87637" lon="0.14723">
        <ele>2122</ele>
        <time>2011-07-21T12:21:21Z</time>
      </trkpt>
      <trkpt lat="42.87638" lon="0.14721">
        <ele>2122</ele>
        <time>2011-07-21T12:21:23Z</time>
      </trkpt>
      <trkpt lat="42.87641" lon="0.14718">
        <ele>2122</ele>
        <time>2011-07-21T12:21:27Z</time>
      </trkpt>
      <trkpt lat="42.87641" lon="0.14713">
        <ele>2121</ele>
        <time>2011-07-21T12:21:31Z</time>
      </trkpt>
      <trkpt lat="42.87642" lon="0.14712">
        <ele>2121</ele>
        <time>2011-07-21T12:21:33Z</time>
      </trkpt>
      <trkpt lat="42.87644" lon="0.14708">
        <ele>2120</ele>
        <time>2011-07-21T12:21:38Z</time>
      </trkpt>
      <trkpt lat="42.87644" lon="0.14704">
        <ele>2120</ele>
        <time>2011-07-21T12:21:41Z</time>
      </trkpt>
      <trkpt lat="42.87645" lon="0.14701">
        <ele>2120</ele>
        <time>2011-07-21T12:21:43Z</time>
      </trkpt>
      <trkpt lat="42.8765" lon="0.14691">
        <ele>2118</ele>
        <time>2011-07-21T12:21:51Z</time>
      </trkpt>
      <trkpt lat="42.87651" lon="0.14688">
        <ele>2118</ele>
        <time>2011-07-21T12:21:53Z</time>
      </trkpt>
      <trkpt lat="42.87652" lon="0.14685">
        <ele>2118</ele>
        <time>2011-07-21T12:21:55Z</time>
      </trkpt>
      <trkpt lat="42.87656" lon="0.14676">
        <ele>2118</ele>
        <time>2011-07-21T12:22:01Z</time>
      </trkpt>
      <trkpt lat="42.87657" lon="0.14674">
        <ele>2118</ele>
        <time>2011-07-21T12:22:03Z</time>
      </trkpt>
      <trkpt lat="42.87659" lon="0.14672">
        <ele>2118</ele>
        <time>2011-07-21T12:22:05Z</time>
      </trkpt>
      <trkpt lat="42.87664" lon="0.14657">
        <ele>2118</ele>
        <time>2011-07-21T12:22:14Z</time>
      </trkpt>
      <trkpt lat="42.87667" lon="0.1465">
        <ele>2118</ele>
        <time>2011-07-21T12:22:19Z</time>
      </trkpt>
      <trkpt lat="42.87671" lon="0.14635">
        <ele>2118</ele>
        <time>2011-07-21T12:22:29Z</time>
      </trkpt>
      <trkpt lat="42.87673" lon="0.14632">
        <ele>2118</ele>
        <time>2011-07-21T12:22:31Z</time>
      </trkpt>
      <trkpt lat="42.87683" lon="0.14622">
        <ele>2118</ele>
        <time>2011-07-21T12:22:41Z</time>
      </trkpt>
      <trkpt lat="42.87684" lon="0.14619">
        <ele>2118</ele>
        <time>2011-07-21T12:22:43Z</time>
      </trkpt>
      <trkpt lat="42.87686" lon="0.14614">
        <ele>2118</ele>
        <time>2011-07-21T12:22:47Z</time>
      </trkpt>
      <trkpt lat="42.87688" lon="0.14612">
        <ele>2118</ele>
        <time>2011-07-21T12:22:49Z</time>
      </trkpt>
      <trkpt lat="42.8769" lon="0.1461">
        <ele>2118</ele>
        <time>2011-07-21T12:22:51Z</time>
      </trkpt>
      <trkpt lat="42.87695" lon="0.1461">
        <ele>2118</ele>
        <time>2011-07-21T12:22:56Z</time>
      </trkpt>
      <trkpt lat="42.877" lon="0.14608">
        <ele>2118</ele>
        <time>2011-07-21T12:23:00Z</time>
      </trkpt>
      <trkpt lat="42.87705" lon="0.14604">
        <ele>2118</ele>
        <time>2011-07-21T12:23:06Z</time>
      </trkpt>
      <trkpt lat="42.87707" lon="0.146">
        <ele>2117</ele>
        <time>2011-07-21T12:23:10Z</time>
      </trkpt>
      <trkpt lat="42.87708" lon="0.14601">
        <ele>2116</ele>
        <time>2011-07-21T12:23:12Z</time>
      </trkpt>
      <trkpt lat="42.87709" lon="0.14605">
        <ele>2112</ele>
        <time>2011-07-21T12:23:20Z</time>
      </trkpt>
      <trkpt lat="42.87709" lon="0.14603">
        <ele>2109</ele>
        <time>2011-07-21T12:23:27Z</time>
      </trkpt>
      <trkpt lat="42.87711" lon="0.14602">
        <ele>2109</ele>
        <time>2011-07-21T12:23:30Z</time>
      </trkpt>
      <trkpt lat="42.87715" lon="0.146">
        <ele>2109</ele>
        <time>2011-07-21T12:23:37Z</time>
      </trkpt>
      <trkpt lat="42.87717" lon="0.146">
        <ele>2109</ele>
        <time>2011-07-21T12:23:41Z</time>
      </trkpt>
      <trkpt lat="42.87719" lon="0.14599">
        <ele>2109</ele>
        <time>2011-07-21T12:23:43Z</time>
      </trkpt>
      <trkpt lat="42.87722" lon="0.14597">
        <ele>2109</ele>
        <time>2011-07-21T12:23:52Z</time>
      </trkpt>
      <trkpt lat="42.87724" lon="0.14595">
        <ele>2109</ele>
        <time>2011-07-21T12:23:55Z</time>
      </trkpt>
      <trkpt lat="42.87725" lon="0.14594">
        <ele>2108</ele>
        <time>2011-07-21T12:23:58Z</time>
      </trkpt>
      <trkpt lat="42.87729" lon="0.14592">
        <ele>2107</ele>
        <time>2011-07-21T12:24:06Z</time>
      </trkpt>
      <trkpt lat="42.8773" lon="0.14591">
        <ele>2106</ele>
        <time>2011-07-21T12:24:08Z</time>
      </trkpt>
      <trkpt lat="42.87731" lon="0.14593">
        <ele>2106</ele>
        <time>2011-07-21T12:24:10Z</time>
      </trkpt>
      <trkpt lat="42.87736" lon="0.14594">
        <ele>2104</ele>
        <time>2011-07-21T12:24:17Z</time>
      </trkpt>
      <trkpt lat="42.87737" lon="0.14593">
        <ele>2104</ele>
        <time>2011-07-21T12:24:19Z</time>
      </trkpt>
      <trkpt lat="42.87739" lon="0.14591">
        <ele>2104</ele>
        <time>2011-07-21T12:24:23Z</time>
      </trkpt>
      <trkpt lat="42.87742" lon="0.14591">
        <ele>2104</ele>
        <time>2011-07-21T12:24:28Z</time>
      </trkpt>
      <trkpt lat="42.87742" lon="0.14593">
        <ele>2104</ele>
        <time>2011-07-21T12:24:30Z</time>
      </trkpt>
      <trkpt lat="42.87744" lon="0.14594">
        <ele>2103</ele>
        <time>2011-07-21T12:24:32Z</time>
      </trkpt>
      <trkpt lat="42.87748" lon="0.14594">
        <ele>2102</ele>
        <time>2011-07-21T12:24:39Z</time>
      </trkpt>
      <trkpt lat="42.8775" lon="0.14593">
        <ele>2102</ele>
        <time>2011-07-21T12:24:41Z</time>
      </trkpt>
      <trkpt lat="42.87752" lon="0.14593">
        <ele>2101</ele>
        <time>2011-07-21T12:24:43Z</time>
      </trkpt>
      <trkpt lat="42.87755" lon="0.14595">
        <ele>2099</ele>
        <time>2011-07-21T12:24:47Z</time>
      </trkpt>
      <trkpt lat="42.87758" lon="0.14597">
        <ele>2098</ele>
        <time>2011-07-21T12:24:51Z</time>
      </trkpt>
      <trkpt lat="42.87761" lon="0.14598">
        <ele>2097</ele>
        <time>2011-07-21T12:24:55Z</time>
      </trkpt>
      <trkpt lat="42.87765" lon="0.14597">
        <ele>2097</ele>
        <time>2011-07-21T12:25:01Z</time>
      </trkpt>
      <trkpt lat="42.87766" lon="0.146">
        <ele>2097</ele>
        <time>2011-07-21T12:25:03Z</time>
      </trkpt>
      <trkpt lat="42.87767" lon="0.146">
        <ele>2097</ele>
        <time>2011-07-21T12:25:05Z</time>
      </trkpt>
      <trkpt lat="42.87772" lon="0.14598">
        <ele>2097</ele>
        <time>2011-07-21T12:25:09Z</time>
      </trkpt>
      <trkpt lat="42.87775" lon="0.14598">
        <ele>2097</ele>
        <time>2011-07-21T12:25:12Z</time>
      </trkpt>
      <trkpt lat="42.87779" lon="0.14598">
        <ele>2097</ele>
        <time>2011-07-21T12:25:15Z</time>
      </trkpt>
      <trkpt lat="42.87785" lon="0.14599">
        <ele>2097</ele>
        <time>2011-07-21T12:25:20Z</time>
      </trkpt>
      <trkpt lat="42.8779" lon="0.14598">
        <ele>2097</ele>
        <time>2011-07-21T12:25:25Z</time>
      </trkpt>
      <trkpt lat="42.87793" lon="0.14594">
        <ele>2097</ele>
        <time>2011-07-21T12:25:31Z</time>
      </trkpt>
      <trkpt lat="42.87794" lon="0.14592">
        <ele>2097</ele>
        <time>2011-07-21T12:25:33Z</time>
      </trkpt>
      <trkpt lat="42.87795" lon="0.14591">
        <ele>2097</ele>
        <time>2011-07-21T12:25:36Z</time>
      </trkpt>
      <trkpt lat="42.87798" lon="0.14585">
        <ele>2097</ele>
        <time>2011-07-21T12:25:43Z</time>
      </trkpt>
      <trkpt lat="42.87801" lon="0.14583">
        <ele>2097</ele>
        <time>2011-07-21T12:25:47Z</time>
      </trkpt>
      <trkpt lat="42.87802" lon="0.14582">
        <ele>2097</ele>
        <time>2011-07-21T12:25:52Z</time>
      </trkpt>
      <trkpt lat="42.87804" lon="0.14579">
        <ele>2096</ele>
        <time>2011-07-21T12:25:58Z</time>
      </trkpt>
      <trkpt lat="42.87804" lon="0.14575">
        <ele>2095</ele>
        <time>2011-07-21T12:26:02Z</time>
      </trkpt>
      <trkpt lat="42.87805" lon="0.14573">
        <ele>2095</ele>
        <time>2011-07-21T12:26:04Z</time>
      </trkpt>
      <trkpt lat="42.87807" lon="0.14566">
        <ele>2095</ele>
        <time>2011-07-21T12:26:10Z</time>
      </trkpt>
      <trkpt lat="42.87807" lon="0.14561">
        <ele>2093</ele>
        <time>2011-07-21T12:26:16Z</time>
      </trkpt>
      <trkpt lat="42.87809" lon="0.14557">
        <ele>2092</ele>
        <time>2011-07-21T12:26:21Z</time>
      </trkpt>
      <trkpt lat="42.87809" lon="0.14556">
        <ele>2092</ele>
        <time>2011-07-21T12:26:23Z</time>
      </trkpt>
      <trkpt lat="42.8781" lon="0.1455">
        <ele>2091</ele>
        <time>2011-07-21T12:26:30Z</time>
      </trkpt>
      <trkpt lat="42.87811" lon="0.14548">
        <ele>2091</ele>
        <time>2011-07-21T12:26:32Z</time>
      </trkpt>
      <trkpt lat="42.87812" lon="0.14544">
        <ele>2091</ele>
        <time>2011-07-21T12:26:35Z</time>
      </trkpt>
      <trkpt lat="42.87814" lon="0.14536">
        <ele>2090</ele>
        <time>2011-07-21T12:26:43Z</time>
      </trkpt>
      <trkpt lat="42.87814" lon="0.14534">
        <ele>2089</ele>
        <time>2011-07-21T12:26:49Z</time>
      </trkpt>
      <trkpt lat="42.87813" lon="0.1453">
        <ele>2089</ele>
        <time>2011-07-21T12:26:54Z</time>
      </trkpt>
      <trkpt lat="42.87812" lon="0.14528">
        <ele>2089</ele>
        <time>2011-07-21T12:27:06Z</time>
      </trkpt>
      <trkpt lat="42.87814" lon="0.14515">
        <ele>2088</ele>
        <time>2011-07-21T12:27:16Z</time>
      </trkpt>
      <trkpt lat="42.87814" lon="0.14512">
        <ele>2088</ele>
        <time>2011-07-21T12:27:18Z</time>
      </trkpt>
      <trkpt lat="42.87815" lon="0.14509">
        <ele>2088</ele>
        <time>2011-07-21T12:27:20Z</time>
      </trkpt>
      <trkpt lat="42.87815" lon="0.14501">
        <ele>2088</ele>
        <time>2011-07-21T12:27:25Z</time>
      </trkpt>
      <trkpt lat="42.87817" lon="0.14497">
        <ele>2088</ele>
        <time>2011-07-21T12:27:28Z</time>
      </trkpt>
      <trkpt lat="42.8782" lon="0.14492">
        <ele>2088</ele>
        <time>2011-07-21T12:27:32Z</time>
      </trkpt>
      <trkpt lat="42.87819" lon="0.14486">
        <ele>2087</ele>
        <time>2011-07-21T12:27:38Z</time>
      </trkpt>
      <trkpt lat="42.87819" lon="0.14483">
        <ele>2087</ele>
        <time>2011-07-21T12:27:40Z</time>
      </trkpt>
      <trkpt lat="42.8782" lon="0.14481">
        <ele>2087</ele>
        <time>2011-07-21T12:27:42Z</time>
      </trkpt>
      <trkpt lat="42.87821" lon="0.14476">
        <ele>2087</ele>
        <time>2011-07-21T12:27:47Z</time>
      </trkpt>
      <trkpt lat="42.8782" lon="0.14472">
        <ele>2087</ele>
        <time>2011-07-21T12:27:51Z</time>
      </trkpt>
      <trkpt lat="42.8782" lon="0.1447">
        <ele>2087</ele>
        <time>2011-07-21T12:27:53Z</time>
      </trkpt>
      <trkpt lat="42.87819" lon="0.14467">
        <ele>2087</ele>
        <time>2011-07-21T12:27:57Z</time>
      </trkpt>
      <trkpt lat="42.8782" lon="0.14464">
        <ele>2087</ele>
        <time>2011-07-21T12:28:01Z</time>
      </trkpt>
      <trkpt lat="42.8782" lon="0.14462">
        <ele>2086</ele>
        <time>2011-07-21T12:28:03Z</time>
      </trkpt>
      <trkpt lat="42.87819" lon="0.14458">
        <ele>2084</ele>
        <time>2011-07-21T12:28:07Z</time>
      </trkpt>
      <trkpt lat="42.8782" lon="0.14454">
        <ele>2082</ele>
        <time>2011-07-21T12:28:10Z</time>
      </trkpt>
      <trkpt lat="42.87821" lon="0.14453">
        <ele>2081</ele>
        <time>2011-07-21T12:28:12Z</time>
      </trkpt>
      <trkpt lat="42.8782" lon="0.14446">
        <ele>2080</ele>
        <time>2011-07-21T12:28:17Z</time>
      </trkpt>
      <trkpt lat="42.8782" lon="0.14443">
        <ele>2080</ele>
        <time>2011-07-21T12:28:19Z</time>
      </trkpt>
      <trkpt lat="42.87821" lon="0.14438">
        <ele>2079</ele>
        <time>2011-07-21T12:28:23Z</time>
      </trkpt>
      <trkpt lat="42.87819" lon="0.14431">
        <ele>2078</ele>
        <time>2011-07-21T12:28:28Z</time>
      </trkpt>
      <trkpt lat="42.87819" lon="0.14428">
        <ele>2078</ele>
        <time>2011-07-21T12:28:30Z</time>
      </trkpt>
      <trkpt lat="42.87819" lon="0.14425">
        <ele>2078</ele>
        <time>2011-07-21T12:28:32Z</time>
      </trkpt>
      <trkpt lat="42.87822" lon="0.14417">
        <ele>2077</ele>
        <time>2011-07-21T12:28:37Z</time>
      </trkpt>
      <trkpt lat="42.87825" lon="0.14411">
        <ele>2077</ele>
        <time>2011-07-21T12:28:41Z</time>
      </trkpt>
      <trkpt lat="42.87825" lon="0.14408">
        <ele>2076</ele>
        <time>2011-07-21T12:28:43Z</time>
      </trkpt>
      <trkpt lat="42.87828" lon="0.144">
        <ele>2075</ele>
        <time>2011-07-21T12:28:50Z</time>
      </trkpt>
      <trkpt lat="42.8783" lon="0.14397">
        <ele>2074</ele>
        <time>2011-07-21T12:28:52Z</time>
      </trkpt>
      <trkpt lat="42.87834" lon="0.14385">
        <ele>2073</ele>
        <time>2011-07-21T12:29:01Z</time>
      </trkpt>
      <trkpt lat="42.87835" lon="0.14382">
        <ele>2073</ele>
        <time>2011-07-21T12:29:03Z</time>
      </trkpt>
      <trkpt lat="42.87838" lon="0.14377">
        <ele>2073</ele>
        <time>2011-07-21T12:29:07Z</time>
      </trkpt>
      <trkpt lat="42.87838" lon="0.14373">
        <ele>2073</ele>
        <time>2011-07-21T12:29:11Z</time>
      </trkpt>
      <trkpt lat="42.87839" lon="0.1437">
        <ele>2073</ele>
        <time>2011-07-21T12:29:14Z</time>
      </trkpt>
      <trkpt lat="42.87839" lon="0.14363">
        <ele>2073</ele>
        <time>2011-07-21T12:29:18Z</time>
      </trkpt>
      <trkpt lat="42.87841" lon="0.14358">
        <ele>2072</ele>
        <time>2011-07-21T12:29:23Z</time>
      </trkpt>
      <trkpt lat="42.87843" lon="0.14353">
        <ele>2072</ele>
        <time>2011-07-21T12:29:27Z</time>
      </trkpt>
      <trkpt lat="42.87843" lon="0.14351">
        <ele>2072</ele>
        <time>2011-07-21T12:29:29Z</time>
      </trkpt>
      <trkpt lat="42.87848" lon="0.1434">
        <ele>2072</ele>
        <time>2011-07-21T12:29:37Z</time>
      </trkpt>
      <trkpt lat="42.87849" lon="0.14338">
        <ele>2072</ele>
        <time>2011-07-21T12:29:39Z</time>
      </trkpt>
      <trkpt lat="42.87852" lon="0.14334">
        <ele>2072</ele>
        <time>2011-07-21T12:29:42Z</time>
      </trkpt>
      <trkpt lat="42.87856" lon="0.14328">
        <ele>2071</ele>
        <time>2011-07-21T12:29:47Z</time>
      </trkpt>
      <trkpt lat="42.87858" lon="0.1432">
        <ele>2071</ele>
        <time>2011-07-21T12:29:52Z</time>
      </trkpt>
      <trkpt lat="42.87859" lon="0.14311">
        <ele>2071</ele>
        <time>2011-07-21T12:29:57Z</time>
      </trkpt>
      <trkpt lat="42.8786" lon="0.14307">
        <ele>2071</ele>
        <time>2011-07-21T12:30:00Z</time>
      </trkpt>
      <trkpt lat="42.87863" lon="0.14303">
        <ele>2070</ele>
        <time>2011-07-21T12:30:03Z</time>
      </trkpt>
      <trkpt lat="42.87867" lon="0.143">
        <ele>2070</ele>
        <time>2011-07-21T12:30:07Z</time>
      </trkpt>
      <trkpt lat="42.87869" lon="0.14296">
        <ele>2070</ele>
        <time>2011-07-21T12:30:10Z</time>
      </trkpt>
      <trkpt lat="42.8787" lon="0.14293">
        <ele>2070</ele>
        <time>2011-07-21T12:30:12Z</time>
      </trkpt>
      <trkpt lat="42.87875" lon="0.14287">
        <ele>2070</ele>
        <time>2011-07-21T12:30:17Z</time>
      </trkpt>
      <trkpt lat="42.87878" lon="0.14284">
        <ele>2070</ele>
        <time>2011-07-21T12:30:21Z</time>
      </trkpt>
      <trkpt lat="42.8788" lon="0.14282">
        <ele>2070</ele>
        <time>2011-07-21T12:30:23Z</time>
      </trkpt>
      <trkpt lat="42.87882" lon="0.1428">
        <ele>2070</ele>
        <time>2011-07-21T12:30:27Z</time>
      </trkpt>
      <trkpt lat="42.87883" lon="0.14276">
        <ele>2070</ele>
        <time>2011-07-21T12:30:31Z</time>
      </trkpt>
      <trkpt lat="42.87883" lon="0.14273">
        <ele>2070</ele>
        <time>2011-07-21T12:30:33Z</time>
      </trkpt>
      <trkpt lat="42.87885" lon="0.14268">
        <ele>2070</ele>
        <time>2011-07-21T12:30:37Z</time>
      </trkpt>
      <trkpt lat="42.87886" lon="0.14265">
        <ele>2070</ele>
        <time>2011-07-21T12:30:41Z</time>
      </trkpt>
      <trkpt lat="42.87886" lon="0.14262">
        <ele>2070</ele>
        <time>2011-07-21T12:30:43Z</time>
      </trkpt>
      <trkpt lat="42.87888" lon="0.14257">
        <ele>2070</ele>
        <time>2011-07-21T12:30:47Z</time>
      </trkpt>
      <trkpt lat="42.8789" lon="0.14253">
        <ele>2070</ele>
        <time>2011-07-21T12:30:51Z</time>
      </trkpt>
      <trkpt lat="42.87891" lon="0.14251">
        <ele>2070</ele>
        <time>2011-07-21T12:30:53Z</time>
      </trkpt>
      <trkpt lat="42.87894" lon="0.14247">
        <ele>2070</ele>
        <time>2011-07-21T12:30:57Z</time>
      </trkpt>
      <trkpt lat="42.87895" lon="0.14244">
        <ele>2070</ele>
        <time>2011-07-21T12:30:59Z</time>
      </trkpt>
      <trkpt lat="42.87896" lon="0.14241">
        <ele>2070</ele>
        <time>2011-07-21T12:31:01Z</time>
      </trkpt>
      <trkpt lat="42.87897" lon="0.14232">
        <ele>2070</ele>
        <time>2011-07-21T12:31:06Z</time>
      </trkpt>
      <trkpt lat="42.87899" lon="0.14223">
        <ele>2070</ele>
        <time>2011-07-21T12:31:11Z</time>
      </trkpt>
      <trkpt lat="42.87899" lon="0.14217">
        <ele>2070</ele>
        <time>2011-07-21T12:31:15Z</time>
      </trkpt>
      <trkpt lat="42.87901" lon="0.14209">
        <ele>2070</ele>
        <time>2011-07-21T12:31:20Z</time>
      </trkpt>
      <trkpt lat="42.87901" lon="0.14201">
        <ele>2070</ele>
        <time>2011-07-21T12:31:25Z</time>
      </trkpt>
      <trkpt lat="42.879" lon="0.14196">
        <ele>2070</ele>
        <time>2011-07-21T12:31:28Z</time>
      </trkpt>
      <trkpt lat="42.87901" lon="0.14193">
        <ele>2070</ele>
        <time>2011-07-21T12:31:30Z</time>
      </trkpt>
      <trkpt lat="42.87901" lon="0.14186">
        <ele>2069</ele>
        <time>2011-07-21T12:31:35Z</time>
      </trkpt>
      <trkpt lat="42.87901" lon="0.14182">
        <ele>2069</ele>
        <time>2011-07-21T12:31:37Z</time>
      </trkpt>
      <trkpt lat="42.87901" lon="0.14178">
        <ele>2069</ele>
        <time>2011-07-21T12:31:40Z</time>
      </trkpt>
      <trkpt lat="42.87903" lon="0.14172">
        <ele>2067</ele>
        <time>2011-07-21T12:31:46Z</time>
      </trkpt>
      <trkpt lat="42.87903" lon="0.1417">
        <ele>2067</ele>
        <time>2011-07-21T12:31:48Z</time>
      </trkpt>
      <trkpt lat="42.87903" lon="0.14168">
        <ele>2067</ele>
        <time>2011-07-21T12:31:50Z</time>
      </trkpt>
      <trkpt lat="42.87904" lon="0.14164">
        <ele>2065</ele>
        <time>2011-07-21T12:31:56Z</time>
      </trkpt>
      <trkpt lat="42.87904" lon="0.14163">
        <ele>2064</ele>
        <time>2011-07-21T12:32:00Z</time>
      </trkpt>
      <trkpt lat="42.87904" lon="0.1416">
        <ele>2063</ele>
        <time>2011-07-21T12:32:02Z</time>
      </trkpt>
      <trkpt lat="42.87907" lon="0.14153">
        <ele>2062</ele>
        <time>2011-07-21T12:32:07Z</time>
      </trkpt>
      <trkpt lat="42.8791" lon="0.14149">
        <ele>2062</ele>
        <time>2011-07-21T12:32:11Z</time>
      </trkpt>
      <trkpt lat="42.87912" lon="0.14148">
        <ele>2062</ele>
        <time>2011-07-21T12:32:13Z</time>
      </trkpt>
      <trkpt lat="42.87915" lon="0.14146">
        <ele>2062</ele>
        <time>2011-07-21T12:32:17Z</time>
      </trkpt>
      <trkpt lat="42.87916" lon="0.14144">
        <ele>2062</ele>
        <time>2011-07-21T12:32:19Z</time>
      </trkpt>
      <trkpt lat="42.87917" lon="0.14141">
        <ele>2062</ele>
        <time>2011-07-21T12:32:21Z</time>
      </trkpt>
      <trkpt lat="42.87919" lon="0.14136">
        <ele>2062</ele>
        <time>2011-07-21T12:32:27Z</time>
      </trkpt>
      <trkpt lat="42.8792" lon="0.14134">
        <ele>2062</ele>
        <time>2011-07-21T12:32:33Z</time>
      </trkpt>
      <trkpt lat="42.87922" lon="0.14133">
        <ele>2062</ele>
        <time>2011-07-21T12:32:37Z</time>
      </trkpt>
      <trkpt lat="42.87922" lon="0.14129">
        <ele>2062</ele>
        <time>2011-07-21T12:32:43Z</time>
      </trkpt>
      <trkpt lat="42.87923" lon="0.14126">
        <ele>2062</ele>
        <time>2011-07-21T12:32:45Z</time>
      </trkpt>
      <trkpt lat="42.87924" lon="0.14124">
        <ele>2062</ele>
        <time>2011-07-21T12:32:47Z</time>
      </trkpt>
      <trkpt lat="42.87927" lon="0.14118">
        <ele>2062</ele>
        <time>2011-07-21T12:32:52Z</time>
      </trkpt>
      <trkpt lat="42.87927" lon="0.14115">
        <ele>2062</ele>
        <time>2011-07-21T12:33:03Z</time>
      </trkpt>
      <trkpt lat="42.87925" lon="0.14116">
        <ele>2064</ele>
        <time>2011-07-21T12:33:09Z</time>
      </trkpt>
      <trkpt lat="42.87927" lon="0.14114">
        <ele>2064</ele>
        <time>2011-07-21T12:33:15Z</time>
      </trkpt>
      <trkpt lat="42.87928" lon="0.1411">
        <ele>2064</ele>
        <time>2011-07-21T12:33:18Z</time>
      </trkpt>
      <trkpt lat="42.87928" lon="0.14108">
        <ele>2064</ele>
        <time>2011-07-21T12:33:20Z</time>
      </trkpt>
      <trkpt lat="42.87932" lon="0.14107">
        <ele>2064</ele>
        <time>2011-07-21T12:33:25Z</time>
      </trkpt>
      <trkpt lat="42.87933" lon="0.14108">
        <ele>2064</ele>
        <time>2011-07-21T12:33:27Z</time>
      </trkpt>
      <trkpt lat="42.87936" lon="0.14103">
        <ele>2064</ele>
        <time>2011-07-21T12:33:41Z</time>
      </trkpt>
      <trkpt lat="42.87936" lon="0.14101">
        <ele>2064</ele>
        <time>2011-07-21T12:33:44Z</time>
      </trkpt>
      <trkpt lat="42.87936" lon="0.14097">
        <ele>2064</ele>
        <time>2011-07-21T12:33:46Z</time>
      </trkpt>
      <trkpt lat="42.87938" lon="0.14092">
        <ele>2064</ele>
        <time>2011-07-21T12:33:51Z</time>
      </trkpt>
      <trkpt lat="42.87939" lon="0.1409">
        <ele>2064</ele>
        <time>2011-07-21T12:33:53Z</time>
      </trkpt>
      <trkpt lat="42.8794" lon="0.14089">
        <ele>2064</ele>
        <time>2011-07-21T12:33:55Z</time>
      </trkpt>
      <trkpt lat="42.87941" lon="0.14084">
        <ele>2064</ele>
        <time>2011-07-21T12:34:02Z</time>
      </trkpt>
      <trkpt lat="42.8794" lon="0.14082">
        <ele>2064</ele>
        <time>2011-07-21T12:34:05Z</time>
      </trkpt>
      <trkpt lat="42.8794" lon="0.1408">
        <ele>2064</ele>
        <time>2011-07-21T12:34:08Z</time>
      </trkpt>
      <trkpt lat="42.87941" lon="0.14076">
        <ele>2061</ele>
        <time>2011-07-21T12:34:14Z</time>
      </trkpt>
      <trkpt lat="42.87941" lon="0.14075">
        <ele>2060</ele>
        <time>2011-07-21T12:34:17Z</time>
      </trkpt>
      <trkpt lat="42.87941" lon="0.14073">
        <ele>2058</ele>
        <time>2011-07-21T12:34:20Z</time>
      </trkpt>
      <trkpt lat="42.87942" lon="0.14068">
        <ele>2056</ele>
        <time>2011-07-21T12:34:25Z</time>
      </trkpt>
      <trkpt lat="42.87944" lon="0.14061">
        <ele>2054</ele>
        <time>2011-07-21T12:34:31Z</time>
      </trkpt>
      <trkpt lat="42.87946" lon="0.14058">
        <ele>2052</ele>
        <time>2011-07-21T12:34:35Z</time>
      </trkpt>
      <trkpt lat="42.87947" lon="0.14056">
        <ele>2052</ele>
        <time>2011-07-21T12:34:38Z</time>
      </trkpt>
      <trkpt lat="42.87946" lon="0.14054">
        <ele>2052</ele>
        <time>2011-07-21T12:34:40Z</time>
      </trkpt>
      <trkpt lat="42.87946" lon="0.14046">
        <ele>2052</ele>
        <time>2011-07-21T12:34:46Z</time>
      </trkpt>
      <trkpt lat="42.87947" lon="0.14043">
        <ele>2051</ele>
        <time>2011-07-21T12:34:48Z</time>
      </trkpt>
      <trkpt lat="42.87949" lon="0.14039">
        <ele>2049</ele>
        <time>2011-07-21T12:34:51Z</time>
      </trkpt>
      <trkpt lat="42.87949" lon="0.14034">
        <ele>2047</ele>
        <time>2011-07-21T12:34:55Z</time>
      </trkpt>
      <trkpt lat="42.87948" lon="0.14027">
        <ele>2047</ele>
        <time>2011-07-21T12:35:00Z</time>
      </trkpt>
      <trkpt lat="42.87942" lon="0.14025">
        <ele>2052</ele>
        <time>2011-07-21T12:35:11Z</time>
      </trkpt>
      <trkpt lat="42.87939" lon="0.14022">
        <ele>2055</ele>
        <time>2011-07-21T12:35:14Z</time>
      </trkpt>
      <trkpt lat="42.87939" lon="0.14015">
        <ele>2059</ele>
        <time>2011-07-21T12:35:18Z</time>
      </trkpt>
      <trkpt lat="42.87941" lon="0.14011">
        <ele>2061</ele>
        <time>2011-07-21T12:35:20Z</time>
      </trkpt>
      <trkpt lat="42.87942" lon="0.14008">
        <ele>2061</ele>
        <time>2011-07-21T12:35:23Z</time>
      </trkpt>
      <trkpt lat="42.87941" lon="0.14005">
        <ele>2061</ele>
        <time>2011-07-21T12:35:27Z</time>
      </trkpt>
      <trkpt lat="42.87942" lon="0.13999">
        <ele>2059</ele>
        <time>2011-07-21T12:35:33Z</time>
      </trkpt>
      <trkpt lat="42.87944" lon="0.13991">
        <ele>2056</ele>
        <time>2011-07-21T12:35:41Z</time>
      </trkpt>
      <trkpt lat="42.87944" lon="0.13988">
        <ele>2056</ele>
        <time>2011-07-21T12:35:43Z</time>
      </trkpt>
      <trkpt lat="42.87944" lon="0.13985">
        <ele>2054</ele>
        <time>2011-07-21T12:35:47Z</time>
      </trkpt>
      <trkpt lat="42.87943" lon="0.13982">
        <ele>2054</ele>
        <time>2011-07-21T12:35:51Z</time>
      </trkpt>
      <trkpt lat="42.87943" lon="0.13979">
        <ele>2054</ele>
        <time>2011-07-21T12:35:53Z</time>
      </trkpt>
      <trkpt lat="42.87944" lon="0.13975">
        <ele>2054</ele>
        <time>2011-07-21T12:35:57Z</time>
      </trkpt>
      <trkpt lat="42.87946" lon="0.13974">
        <ele>2054</ele>
        <time>2011-07-21T12:36:00Z</time>
      </trkpt>
      <trkpt lat="42.87946" lon="0.13972">
        <ele>2054</ele>
        <time>2011-07-21T12:36:03Z</time>
      </trkpt>
      <trkpt lat="42.87949" lon="0.13964">
        <ele>2050</ele>
        <time>2011-07-21T12:36:11Z</time>
      </trkpt>
      <trkpt lat="42.87952" lon="0.13959">
        <ele>2045</ele>
        <time>2011-07-21T12:36:20Z</time>
      </trkpt>
      <trkpt lat="42.8795" lon="0.1396">
        <ele>2045</ele>
        <time>2011-07-21T12:36:22Z</time>
      </trkpt>
      <trkpt lat="42.87948" lon="0.13962">
        <ele>2045</ele>
        <time>2011-07-21T12:36:27Z</time>
      </trkpt>
      <trkpt lat="42.87946" lon="0.13961">
        <ele>2049</ele>
        <time>2011-07-21T12:36:39Z</time>
      </trkpt>
      <trkpt lat="42.87945" lon="0.1396">
        <ele>2051</ele>
        <time>2011-07-21T12:36:47Z</time>
      </trkpt>
      <trkpt lat="42.87946" lon="0.13958">
        <ele>2051</ele>
        <time>2011-07-21T12:36:50Z</time>
      </trkpt>
      <trkpt lat="42.87948" lon="0.13952">
        <ele>2051</ele>
        <time>2011-07-21T12:36:56Z</time>
      </trkpt>
      <trkpt lat="42.87949" lon="0.1395">
        <ele>2051</ele>
        <time>2011-07-21T12:36:58Z</time>
      </trkpt>
      <trkpt lat="42.87949" lon="0.13947">
        <ele>2051</ele>
        <time>2011-07-21T12:37:00Z</time>
      </trkpt>
      <trkpt lat="42.8795" lon="0.13941">
        <ele>2051</ele>
        <time>2011-07-21T12:37:05Z</time>
      </trkpt>
      <trkpt lat="42.87951" lon="0.13939">
        <ele>2051</ele>
        <time>2011-07-21T12:37:07Z</time>
      </trkpt>
      <trkpt lat="42.87952" lon="0.13936">
        <ele>2051</ele>
        <time>2011-07-21T12:37:11Z</time>
      </trkpt>
      <trkpt lat="42.87954" lon="0.13931">
        <ele>2051</ele>
        <time>2011-07-21T12:37:16Z</time>
      </trkpt>
      <trkpt lat="42.87956" lon="0.13928">
        <ele>2051</ele>
        <time>2011-07-21T12:37:18Z</time>
      </trkpt>
      <trkpt lat="42.87957" lon="0.13926">
        <ele>2051</ele>
        <time>2011-07-21T12:37:20Z</time>
      </trkpt>
      <trkpt lat="42.8796" lon="0.1392">
        <ele>2047</ele>
        <time>2011-07-21T12:37:27Z</time>
      </trkpt>
      <trkpt lat="42.87961" lon="0.13916">
        <ele>2044</ele>
        <time>2011-07-21T12:37:31Z</time>
      </trkpt>
      <trkpt lat="42.87966" lon="0.1391">
        <ele>2038</ele>
        <time>2011-07-21T12:37:38Z</time>
      </trkpt>
      <trkpt lat="42.87968" lon="0.13908">
        <ele>2036</ele>
        <time>2011-07-21T12:37:41Z</time>
      </trkpt>
      <trkpt lat="42.8797" lon="0.13906">
        <ele>2035</ele>
        <time>2011-07-21T12:37:43Z</time>
      </trkpt>
      <trkpt lat="42.87971" lon="0.13902">
        <ele>2035</ele>
        <time>2011-07-21T12:37:47Z</time>
      </trkpt>
      <trkpt lat="42.87973" lon="0.13898">
        <ele>2035</ele>
        <time>2011-07-21T12:37:51Z</time>
      </trkpt>
      <trkpt lat="42.87973" lon="0.13897">
        <ele>2035</ele>
        <time>2011-07-21T12:37:53Z</time>
      </trkpt>
      <trkpt lat="42.87976" lon="0.13889">
        <ele>2035</ele>
        <time>2011-07-21T12:38:01Z</time>
      </trkpt>
      <trkpt lat="42.87976" lon="0.13888">
        <ele>2035</ele>
        <time>2011-07-21T12:38:03Z</time>
      </trkpt>
      <trkpt lat="42.87976" lon="0.13884">
        <ele>2032</ele>
        <time>2011-07-21T12:38:07Z</time>
      </trkpt>
      <trkpt lat="42.87977" lon="0.13879">
        <ele>2031</ele>
        <time>2011-07-21T12:38:10Z</time>
      </trkpt>
      <trkpt lat="42.87977" lon="0.13876">
        <ele>2031</ele>
        <time>2011-07-21T12:38:12Z</time>
      </trkpt>
      <trkpt lat="42.87978" lon="0.13868">
        <ele>2030</ele>
        <time>2011-07-21T12:38:17Z</time>
      </trkpt>
      <trkpt lat="42.87978" lon="0.13863">
        <ele>2029</ele>
        <time>2011-07-21T12:38:20Z</time>
      </trkpt>
      <trkpt lat="42.8798" lon="0.13861">
        <ele>2028</ele>
        <time>2011-07-21T12:38:22Z</time>
      </trkpt>
      <trkpt lat="42.87982" lon="0.13853">
        <ele>2028</ele>
        <time>2011-07-21T12:38:28Z</time>
      </trkpt>
      <trkpt lat="42.87984" lon="0.13849">
        <ele>2027</ele>
        <time>2011-07-21T12:38:31Z</time>
      </trkpt>
      <trkpt lat="42.87986" lon="0.13848">
        <ele>2026</ele>
        <time>2011-07-21T12:38:33Z</time>
      </trkpt>
      <trkpt lat="42.87987" lon="0.1384">
        <ele>2024</ele>
        <time>2011-07-21T12:38:41Z</time>
      </trkpt>
      <trkpt lat="42.87986" lon="0.13836">
        <ele>2023</ele>
        <time>2011-07-21T12:38:44Z</time>
      </trkpt>
      <trkpt lat="42.87987" lon="0.13826">
        <ele>2022</ele>
        <time>2011-07-21T12:38:51Z</time>
      </trkpt>
      <trkpt lat="42.87989" lon="0.13824">
        <ele>2021</ele>
        <time>2011-07-21T12:38:53Z</time>
      </trkpt>
      <trkpt lat="42.87992" lon="0.1382">
        <ele>2021</ele>
        <time>2011-07-21T12:38:57Z</time>
      </trkpt>
      <trkpt lat="42.87995" lon="0.13815">
        <ele>2021</ele>
        <time>2011-07-21T12:39:01Z</time>
      </trkpt>
      <trkpt lat="42.87996" lon="0.13813">
        <ele>2021</ele>
        <time>2011-07-21T12:39:03Z</time>
      </trkpt>
      <trkpt lat="42.87998" lon="0.13811">
        <ele>2021</ele>
        <time>2011-07-21T12:39:10Z</time>
      </trkpt>
      <trkpt lat="42.87999" lon="0.13808">
        <ele>2021</ele>
        <time>2011-07-21T12:39:12Z</time>
      </trkpt>
      <trkpt lat="42.88002" lon="0.13805">
        <ele>2020</ele>
        <time>2011-07-21T12:39:16Z</time>
      </trkpt>
      <trkpt lat="42.88003" lon="0.13801">
        <ele>2020</ele>
        <time>2011-07-21T12:39:20Z</time>
      </trkpt>
      <trkpt lat="42.88004" lon="0.138">
        <ele>2020</ele>
        <time>2011-07-21T12:39:22Z</time>
      </trkpt>
      <trkpt lat="42.88007" lon="0.13798">
        <ele>2020</ele>
        <time>2011-07-21T12:39:26Z</time>
      </trkpt>
      <trkpt lat="42.8801" lon="0.13796">
        <ele>2020</ele>
        <time>2011-07-21T12:39:30Z</time>
      </trkpt>
      <trkpt lat="42.88012" lon="0.13795">
        <ele>2020</ele>
        <time>2011-07-21T12:39:32Z</time>
      </trkpt>
      <trkpt lat="42.88016" lon="0.13794">
        <ele>2019</ele>
        <time>2011-07-21T12:39:36Z</time>
      </trkpt>
      <trkpt lat="42.8802" lon="0.13789">
        <ele>2015</ele>
        <time>2011-07-21T12:39:43Z</time>
      </trkpt>
      <trkpt lat="42.88023" lon="0.13787">
        <ele>2013</ele>
        <time>2011-07-21T12:39:45Z</time>
      </trkpt>
      <trkpt lat="42.88031" lon="0.13788">
        <ele>2009</ele>
        <time>2011-07-21T12:39:52Z</time>
      </trkpt>
      <trkpt lat="42.88035" lon="0.13787">
        <ele>2007</ele>
        <time>2011-07-21T12:39:55Z</time>
      </trkpt>
      <trkpt lat="42.88036" lon="0.13787">
        <ele>2006</ele>
        <time>2011-07-21T12:39:57Z</time>
      </trkpt>
      <trkpt lat="42.88041" lon="0.13784">
        <ele>2006</ele>
        <time>2011-07-21T12:40:03Z</time>
      </trkpt>
      <trkpt lat="42.88044" lon="0.13786">
        <ele>2006</ele>
        <time>2011-07-21T12:40:05Z</time>
      </trkpt>
      <trkpt lat="42.88047" lon="0.1379">
        <ele>2006</ele>
        <time>2011-07-21T12:40:08Z</time>
      </trkpt>
      <trkpt lat="42.88049" lon="0.13794">
        <ele>2006</ele>
        <time>2011-07-21T12:40:12Z</time>
      </trkpt>
      <trkpt lat="42.88057" lon="0.13798">
        <ele>2006</ele>
        <time>2011-07-21T12:40:21Z</time>
      </trkpt>
      <trkpt lat="42.88059" lon="0.13802">
        <ele>2007</ele>
        <time>2011-07-21T12:40:25Z</time>
      </trkpt>
      <trkpt lat="42.8806" lon="0.13803">
        <ele>2008</ele>
        <time>2011-07-21T12:40:27Z</time>
      </trkpt>
      <trkpt lat="42.88063" lon="0.13806">
        <ele>2008</ele>
        <time>2011-07-21T12:40:30Z</time>
      </trkpt>
      <trkpt lat="42.88068" lon="0.13808">
        <ele>2008</ele>
        <time>2011-07-21T12:40:36Z</time>
      </trkpt>
      <trkpt lat="42.88071" lon="0.1381">
        <ele>2008</ele>
        <time>2011-07-21T12:40:38Z</time>
      </trkpt>
      <trkpt lat="42.88073" lon="0.13811">
        <ele>2008</ele>
        <time>2011-07-21T12:40:40Z</time>
      </trkpt>
      <trkpt lat="42.88079" lon="0.13813">
        <ele>2008</ele>
        <time>2011-07-21T12:40:46Z</time>
      </trkpt>
      <trkpt lat="42.8808" lon="0.13814">
        <ele>2008</ele>
        <time>2011-07-21T12:40:48Z</time>
      </trkpt>
      <trkpt lat="42.88081" lon="0.13814">
        <ele>2008</ele>
        <time>2011-07-21T12:40:50Z</time>
      </trkpt>
      <trkpt lat="42.88086" lon="0.13814">
        <ele>2008</ele>
        <time>2011-07-21T12:40:56Z</time>
      </trkpt>
      <trkpt lat="42.88087" lon="0.13812">
        <ele>2008</ele>
        <time>2011-07-21T12:40:58Z</time>
      </trkpt>
      <trkpt lat="42.88088" lon="0.13811">
        <ele>2008</ele>
        <time>2011-07-21T12:41:00Z</time>
      </trkpt>
      <trkpt lat="42.88089" lon="0.13804">
        <ele>2008</ele>
        <time>2011-07-21T12:41:05Z</time>
      </trkpt>
      <trkpt lat="42.88089" lon="0.13802">
        <ele>2010</ele>
        <time>2011-07-21T12:41:07Z</time>
      </trkpt>
      <trkpt lat="42.88091" lon="0.13796">
        <ele>2011</ele>
        <time>2011-07-21T12:41:11Z</time>
      </trkpt>
      <trkpt lat="42.88092" lon="0.13791">
        <ele>2011</ele>
        <time>2011-07-21T12:41:16Z</time>
      </trkpt>
      <trkpt lat="42.88092" lon="0.13789">
        <ele>2011</ele>
        <time>2011-07-21T12:41:18Z</time>
      </trkpt>
      <trkpt lat="42.88093" lon="0.13787">
        <ele>2011</ele>
        <time>2011-07-21T12:41:20Z</time>
      </trkpt>
      <trkpt lat="42.88093" lon="0.13781">
        <ele>2010</ele>
        <time>2011-07-21T12:41:25Z</time>
      </trkpt>
      <trkpt lat="42.88094" lon="0.13773">
        <ele>2010</ele>
        <time>2011-07-21T12:41:30Z</time>
      </trkpt>
      <trkpt lat="42.88096" lon="0.13766">
        <ele>2009</ele>
        <time>2011-07-21T12:41:35Z</time>
      </trkpt>
      <trkpt lat="42.88097" lon="0.13763">
        <ele>2009</ele>
        <time>2011-07-21T12:41:37Z</time>
      </trkpt>
      <trkpt lat="42.88097" lon="0.13758">
        <ele>2009</ele>
        <time>2011-07-21T12:41:40Z</time>
      </trkpt>
      <trkpt lat="42.88099" lon="0.13751">
        <ele>2008</ele>
        <time>2011-07-21T12:41:45Z</time>
      </trkpt>
      <trkpt lat="42.88101" lon="0.13744">
        <ele>2008</ele>
        <time>2011-07-21T12:41:50Z</time>
      </trkpt>
      <trkpt lat="42.88103" lon="0.13737">
        <ele>2008</ele>
        <time>2011-07-21T12:41:55Z</time>
      </trkpt>
      <trkpt lat="42.88102" lon="0.13729">
        <ele>2008</ele>
        <time>2011-07-21T12:42:00Z</time>
      </trkpt>
      <trkpt lat="42.88102" lon="0.13722">
        <ele>2006</ele>
        <time>2011-07-21T12:42:06Z</time>
      </trkpt>
      <trkpt lat="42.88103" lon="0.1372">
        <ele>2006</ele>
        <time>2011-07-21T12:42:08Z</time>
      </trkpt>
      <trkpt lat="42.88103" lon="0.13718">
        <ele>2005</ele>
        <time>2011-07-21T12:42:10Z</time>
      </trkpt>
      <trkpt lat="42.88104" lon="0.1371">
        <ele>2003</ele>
        <time>2011-07-21T12:42:16Z</time>
      </trkpt>
      <trkpt lat="42.88107" lon="0.13707">
        <ele>2002</ele>
        <time>2011-07-21T12:42:21Z</time>
      </trkpt>
      <trkpt lat="42.88108" lon="0.13701">
        <ele>2001</ele>
        <time>2011-07-21T12:42:25Z</time>
      </trkpt>
      <trkpt lat="42.88108" lon="0.13693">
        <ele>2000</ele>
        <time>2011-07-21T12:42:30Z</time>
      </trkpt>
      <trkpt lat="42.88109" lon="0.13686">
        <ele>1999</ele>
        <time>2011-07-21T12:42:36Z</time>
      </trkpt>
      <trkpt lat="42.88108" lon="0.13684">
        <ele>1998</ele>
        <time>2011-07-21T12:42:40Z</time>
      </trkpt>
      <trkpt lat="42.88108" lon="0.13682">
        <ele>1998</ele>
        <time>2011-07-21T12:42:42Z</time>
      </trkpt>
      <trkpt lat="42.88109" lon="0.13676">
        <ele>1995</ele>
        <time>2011-07-21T12:42:48Z</time>
      </trkpt>
      <trkpt lat="42.88108" lon="0.13675">
        <ele>1995</ele>
        <time>2011-07-21T12:42:50Z</time>
      </trkpt>
      <trkpt lat="42.88106" lon="0.13674">
        <ele>1994</ele>
        <time>2011-07-21T12:42:52Z</time>
      </trkpt>
      <trkpt lat="42.88107" lon="0.13668">
        <ele>1992</ele>
        <time>2011-07-21T12:42:58Z</time>
      </trkpt>
      <trkpt lat="42.88108" lon="0.13665">
        <ele>1992</ele>
        <time>2011-07-21T12:43:00Z</time>
      </trkpt>
      <trkpt lat="42.88109" lon="0.13663">
        <ele>1992</ele>
        <time>2011-07-21T12:43:02Z</time>
      </trkpt>
      <trkpt lat="42.88106" lon="0.13656">
        <ele>1991</ele>
        <time>2011-07-21T12:43:10Z</time>
      </trkpt>
      <trkpt lat="42.88104" lon="0.13655">
        <ele>1991</ele>
        <time>2011-07-21T12:43:12Z</time>
      </trkpt>
      <trkpt lat="42.88101" lon="0.13652">
        <ele>1989</ele>
        <time>2011-07-21T12:43:18Z</time>
      </trkpt>
      <trkpt lat="42.88102" lon="0.13647">
        <ele>1988</ele>
        <time>2011-07-21T12:43:22Z</time>
      </trkpt>
      <trkpt lat="42.88102" lon="0.13643">
        <ele>1987</ele>
        <time>2011-07-21T12:43:26Z</time>
      </trkpt>
      <trkpt lat="42.88102" lon="0.13639">
        <ele>1984</ele>
        <time>2011-07-21T12:43:34Z</time>
      </trkpt>
      <trkpt lat="42.88102" lon="0.13637">
        <ele>1983</ele>
        <time>2011-07-21T12:43:36Z</time>
      </trkpt>
      <trkpt lat="42.88101" lon="0.13635">
        <ele>1982</ele>
        <time>2011-07-21T12:43:38Z</time>
      </trkpt>
      <trkpt lat="42.88103" lon="0.13631">
        <ele>1981</ele>
        <time>2011-07-21T12:43:42Z</time>
      </trkpt>
      <trkpt lat="42.88104" lon="0.13627">
        <ele>1980</ele>
        <time>2011-07-21T12:43:46Z</time>
      </trkpt>
      <trkpt lat="42.88105" lon="0.13626">
        <ele>1978</ele>
        <time>2011-07-21T12:43:49Z</time>
      </trkpt>
      <trkpt lat="42.88105" lon="0.13623">
        <ele>1976</ele>
        <time>2011-07-21T12:43:53Z</time>
      </trkpt>
      <trkpt lat="42.88105" lon="0.13619">
        <ele>1975</ele>
        <time>2011-07-21T12:43:59Z</time>
      </trkpt>
      <trkpt lat="42.88107" lon="0.13615">
        <ele>1975</ele>
        <time>2011-07-21T12:44:09Z</time>
      </trkpt>
      <trkpt lat="42.88106" lon="0.13613">
        <ele>1975</ele>
        <time>2011-07-21T12:44:12Z</time>
      </trkpt>
      <trkpt lat="42.88104" lon="0.1361">
        <ele>1975</ele>
        <time>2011-07-21T12:44:22Z</time>
      </trkpt>
      <trkpt lat="42.88104" lon="0.13606">
        <ele>1975</ele>
        <time>2011-07-21T12:44:26Z</time>
      </trkpt>
      <trkpt lat="42.88104" lon="0.13604">
        <ele>1975</ele>
        <time>2011-07-21T12:44:28Z</time>
      </trkpt>
      <trkpt lat="42.88105" lon="0.13601">
        <ele>1975</ele>
        <time>2011-07-21T12:44:32Z</time>
      </trkpt>
      <trkpt lat="42.88104" lon="0.13597">
        <ele>1973</ele>
        <time>2011-07-21T12:44:37Z</time>
      </trkpt>
      <trkpt lat="42.88105" lon="0.13595">
        <ele>1973</ele>
        <time>2011-07-21T12:44:39Z</time>
      </trkpt>
      <trkpt lat="42.88105" lon="0.1359">
        <ele>1969</ele>
        <time>2011-07-21T12:44:47Z</time>
      </trkpt>
      <trkpt lat="42.88105" lon="0.13589">
        <ele>1967</ele>
        <time>2011-07-21T12:44:52Z</time>
      </trkpt>
      <trkpt lat="42.88103" lon="0.13587">
        <ele>1965</ele>
        <time>2011-07-21T12:44:56Z</time>
      </trkpt>
      <trkpt lat="42.88102" lon="0.13589">
        <ele>1964</ele>
        <time>2011-07-21T12:45:01Z</time>
      </trkpt>
      <trkpt lat="42.88101" lon="0.13591">
        <ele>1963</ele>
        <time>2011-07-21T12:45:03Z</time>
      </trkpt>
      <trkpt lat="42.88099" lon="0.13591">
        <ele>1963</ele>
        <time>2011-07-21T12:45:07Z</time>
      </trkpt>
      <trkpt lat="42.88098" lon="0.13588">
        <ele>1961</ele>
        <time>2011-07-21T12:45:16Z</time>
      </trkpt>
      <trkpt lat="42.88098" lon="0.13586">
        <ele>1960</ele>
        <time>2011-07-21T12:45:18Z</time>
      </trkpt>
      <trkpt lat="42.881" lon="0.13582">
        <ele>1959</ele>
        <time>2011-07-21T12:45:21Z</time>
      </trkpt>
      <trkpt lat="42.88102" lon="0.13578">
        <ele>1957</ele>
        <time>2011-07-21T12:45:25Z</time>
      </trkpt>
      <trkpt lat="42.88103" lon="0.13577">
        <ele>1955</ele>
        <time>2011-07-21T12:45:27Z</time>
      </trkpt>
      <trkpt lat="42.88103" lon="0.13571">
        <ele>1952</ele>
        <time>2011-07-21T12:45:30Z</time>
      </trkpt>
      <trkpt lat="42.88106" lon="0.13563">
        <ele>1950</ele>
        <time>2011-07-21T12:45:35Z</time>
      </trkpt>
      <trkpt lat="42.88106" lon="0.13559">
        <ele>1950</ele>
        <time>2011-07-21T12:45:37Z</time>
      </trkpt>
      <trkpt lat="42.88108" lon="0.13554">
        <ele>1950</ele>
        <time>2011-07-21T12:45:41Z</time>
      </trkpt>
      <trkpt lat="42.8811" lon="0.13549">
        <ele>1950</ele>
        <time>2011-07-21T12:45:45Z</time>
      </trkpt>
      <trkpt lat="42.88111" lon="0.13547">
        <ele>1950</ele>
        <time>2011-07-21T12:45:47Z</time>
      </trkpt>
      <trkpt lat="42.88113" lon="0.13544">
        <ele>1950</ele>
        <time>2011-07-21T12:45:50Z</time>
      </trkpt>
      <trkpt lat="42.88111" lon="0.13535">
        <ele>1950</ele>
        <time>2011-07-21T12:45:55Z</time>
      </trkpt>
      <trkpt lat="42.88112" lon="0.13532">
        <ele>1950</ele>
        <time>2011-07-21T12:45:57Z</time>
      </trkpt>
      <trkpt lat="42.88113" lon="0.13529">
        <ele>1950</ele>
        <time>2011-07-21T12:45:59Z</time>
      </trkpt>
      <trkpt lat="42.88119" lon="0.13523">
        <ele>1950</ele>
        <time>2011-07-21T12:46:05Z</time>
      </trkpt>
      <trkpt lat="42.8812" lon="0.13521">
        <ele>1950</ele>
        <time>2011-07-21T12:46:07Z</time>
      </trkpt>
      <trkpt lat="42.88123" lon="0.13517">
        <ele>1950</ele>
        <time>2011-07-21T12:46:10Z</time>
      </trkpt>
      <trkpt lat="42.88134" lon="0.13516">
        <ele>1950</ele>
        <time>2011-07-21T12:46:18Z</time>
      </trkpt>
      <trkpt lat="42.88136" lon="0.13515">
        <ele>1950</ele>
        <time>2011-07-21T12:46:20Z</time>
      </trkpt>
      <trkpt lat="42.88142" lon="0.13509">
        <ele>1951</ele>
        <time>2011-07-21T12:46:32Z</time>
      </trkpt>
      <trkpt lat="42.88143" lon="0.13505">
        <ele>1956</ele>
        <time>2011-07-21T12:46:41Z</time>
      </trkpt>
      <trkpt lat="42.88144" lon="0.13502">
        <ele>1957</ele>
        <time>2011-07-21T12:46:44Z</time>
      </trkpt>
      <trkpt lat="42.88143" lon="0.135">
        <ele>1957</ele>
        <time>2011-07-21T12:46:46Z</time>
      </trkpt>
      <trkpt lat="42.88144" lon="0.13496">
        <ele>1957</ele>
        <time>2011-07-21T12:46:50Z</time>
      </trkpt>
      <trkpt lat="42.88144" lon="0.13494">
        <ele>1957</ele>
        <time>2011-07-21T12:46:52Z</time>
      </trkpt>
      <trkpt lat="42.88144" lon="0.13492">
        <ele>1957</ele>
        <time>2011-07-21T12:46:55Z</time>
      </trkpt>
      <trkpt lat="42.88144" lon="0.13489">
        <ele>1957</ele>
        <time>2011-07-21T12:47:01Z</time>
      </trkpt>
      <trkpt lat="42.88144" lon="0.13488">
        <ele>1957</ele>
        <time>2011-07-21T12:47:03Z</time>
      </trkpt>
      <trkpt lat="42.88147" lon="0.13486">
        <ele>1956</ele>
        <time>2011-07-21T12:47:05Z</time>
      </trkpt>
      <trkpt lat="42.88153" lon="0.13483">
        <ele>1951</ele>
        <time>2011-07-21T12:47:15Z</time>
      </trkpt>
      <trkpt lat="42.88155" lon="0.13481">
        <ele>1950</ele>
        <time>2011-07-21T12:47:19Z</time>
      </trkpt>
      <trkpt lat="42.88159" lon="0.1348">
        <ele>1947</ele>
        <time>2011-07-21T12:47:24Z</time>
      </trkpt>
      <trkpt lat="42.88162" lon="0.13478">
        <ele>1943</ele>
        <time>2011-07-21T12:47:28Z</time>
      </trkpt>
      <trkpt lat="42.88161" lon="0.13475">
        <ele>1941</ele>
        <time>2011-07-21T12:47:30Z</time>
      </trkpt>
      <trkpt lat="42.8816" lon="0.13469">
        <ele>1941</ele>
        <time>2011-07-21T12:47:36Z</time>
      </trkpt>
      <trkpt lat="42.8816" lon="0.13466">
        <ele>1941</ele>
        <time>2011-07-21T12:47:38Z</time>
      </trkpt>
      <trkpt lat="42.8816" lon="0.13463">
        <ele>1941</ele>
        <time>2011-07-21T12:47:40Z</time>
      </trkpt>
      <trkpt lat="42.88163" lon="0.13458">
        <ele>1941</ele>
        <time>2011-07-21T12:47:45Z</time>
      </trkpt>
      <trkpt lat="42.88163" lon="0.13455">
        <ele>1941</ele>
        <time>2011-07-21T12:47:47Z</time>
      </trkpt>
      <trkpt lat="42.88163" lon="0.13451">
        <ele>1941</ele>
        <time>2011-07-21T12:47:50Z</time>
      </trkpt>
      <trkpt lat="42.88162" lon="0.13444">
        <ele>1942</ele>
        <time>2011-07-21T12:47:55Z</time>
      </trkpt>
      <trkpt lat="42.88162" lon="0.1344">
        <ele>1944</ele>
        <time>2011-07-21T12:47:57Z</time>
      </trkpt>
      <trkpt lat="42.88163" lon="0.13437">
        <ele>1947</ele>
        <time>2011-07-21T12:48:00Z</time>
      </trkpt>
      <trkpt lat="42.88163" lon="0.13432">
        <ele>1947</ele>
        <time>2011-07-21T12:48:05Z</time>
      </trkpt>
      <trkpt lat="42.88163" lon="0.13429">
        <ele>1947</ele>
        <time>2011-07-21T12:48:07Z</time>
      </trkpt>
      <trkpt lat="42.88163" lon="0.13424">
        <ele>1947</ele>
        <time>2011-07-21T12:48:11Z</time>
      </trkpt>
      <trkpt lat="42.88165" lon="0.13422">
        <ele>1947</ele>
        <time>2011-07-21T12:48:24Z</time>
      </trkpt>
      <trkpt lat="42.88166" lon="0.1342">
        <ele>1945</ele>
        <time>2011-07-21T12:48:29Z</time>
      </trkpt>
      <trkpt lat="42.88167" lon="0.13418">
        <ele>1945</ele>
        <time>2011-07-21T12:48:31Z</time>
      </trkpt>
      <trkpt lat="42.88169" lon="0.13411">
        <ele>1945</ele>
        <time>2011-07-21T12:48:36Z</time>
      </trkpt>
      <trkpt lat="42.88168" lon="0.13409">
        <ele>1945</ele>
        <time>2011-07-21T12:48:38Z</time>
      </trkpt>
      <trkpt lat="42.88167" lon="0.13407">
        <ele>1945</ele>
        <time>2011-07-21T12:48:40Z</time>
      </trkpt>
      <trkpt lat="42.88162" lon="0.134">
        <ele>1945</ele>
        <time>2011-07-21T12:48:45Z</time>
      </trkpt>
      <trkpt lat="42.88161" lon="0.13398">
        <ele>1945</ele>
        <time>2011-07-21T12:48:47Z</time>
      </trkpt>
      <trkpt lat="42.88159" lon="0.13393">
        <ele>1945</ele>
        <time>2011-07-21T12:48:50Z</time>
      </trkpt>
      <trkpt lat="42.88156" lon="0.13384">
        <ele>1945</ele>
        <time>2011-07-21T12:48:55Z</time>
      </trkpt>
      <trkpt lat="42.88155" lon="0.13381">
        <ele>1945</ele>
        <time>2011-07-21T12:48:57Z</time>
      </trkpt>
      <trkpt lat="42.88148" lon="0.13374">
        <ele>1944</ele>
        <time>2011-07-21T12:49:05Z</time>
      </trkpt>
      <trkpt lat="42.88148" lon="0.13372">
        <ele>1944</ele>
        <time>2011-07-21T12:49:07Z</time>
      </trkpt>
      <trkpt lat="42.88145" lon="0.13362">
        <ele>1942</ele>
        <time>2011-07-21T12:49:15Z</time>
      </trkpt>
      <trkpt lat="42.88145" lon="0.13359">
        <ele>1942</ele>
        <time>2011-07-21T12:49:17Z</time>
      </trkpt>
      <trkpt lat="42.88142" lon="0.13354">
        <ele>1941</ele>
        <time>2011-07-21T12:49:21Z</time>
      </trkpt>
      <trkpt lat="42.88142" lon="0.13349">
        <ele>1941</ele>
        <time>2011-07-21T12:49:25Z</time>
      </trkpt>
      <trkpt lat="42.88143" lon="0.13336">
        <ele>1941</ele>
        <time>2011-07-21T12:49:36Z</time>
      </trkpt>
      <trkpt lat="42.88143" lon="0.13334">
        <ele>1941</ele>
        <time>2011-07-21T12:49:39Z</time>
      </trkpt>
      <trkpt lat="42.88143" lon="0.13332">
        <ele>1941</ele>
        <time>2011-07-21T12:49:41Z</time>
      </trkpt>
      <trkpt lat="42.88144" lon="0.13329">
        <ele>1941</ele>
        <time>2011-07-21T12:49:45Z</time>
      </trkpt>
      <trkpt lat="42.88144" lon="0.13327">
        <ele>1942</ele>
        <time>2011-07-21T12:49:47Z</time>
      </trkpt>
      <trkpt lat="42.88144" lon="0.13323">
        <ele>1944</ele>
        <time>2011-07-21T12:49:51Z</time>
      </trkpt>
      <trkpt lat="42.88145" lon="0.13315">
        <ele>1946</ele>
        <time>2011-07-21T12:50:00Z</time>
      </trkpt>
      <trkpt lat="42.88144" lon="0.13309">
        <ele>1949</ele>
        <time>2011-07-21T12:50:05Z</time>
      </trkpt>
      <trkpt lat="42.88143" lon="0.13305">
        <ele>1950</ele>
        <time>2011-07-21T12:50:07Z</time>
      </trkpt>
      <trkpt lat="42.88143" lon="0.13303">
        <ele>1951</ele>
        <time>2011-07-21T12:50:09Z</time>
      </trkpt>
      <trkpt lat="42.88142" lon="0.13294">
        <ele>1951</ele>
        <time>2011-07-21T12:50:15Z</time>
      </trkpt>
      <trkpt lat="42.88144" lon="0.13285">
        <ele>1951</ele>
        <time>2011-07-21T12:50:21Z</time>
      </trkpt>
      <trkpt lat="42.88147" lon="0.13283">
        <ele>1951</ele>
        <time>2011-07-21T12:50:26Z</time>
      </trkpt>
      <trkpt lat="42.88148" lon="0.13281">
        <ele>1950</ele>
        <time>2011-07-21T12:50:28Z</time>
      </trkpt>
      <trkpt lat="42.88148" lon="0.13279">
        <ele>1949</ele>
        <time>2011-07-21T12:50:30Z</time>
      </trkpt>
      <trkpt lat="42.8815" lon="0.13271">
        <ele>1949</ele>
        <time>2011-07-21T12:50:37Z</time>
      </trkpt>
      <trkpt lat="42.88153" lon="0.13262">
        <ele>1947</ele>
        <time>2011-07-21T12:50:45Z</time>
      </trkpt>
      <trkpt lat="42.88153" lon="0.1326">
        <ele>1947</ele>
        <time>2011-07-21T12:50:47Z</time>
      </trkpt>
      <trkpt lat="42.88153" lon="0.13255">
        <ele>1947</ele>
        <time>2011-07-21T12:50:50Z</time>
      </trkpt>
      <trkpt lat="42.88155" lon="0.13244">
        <ele>1947</ele>
        <time>2011-07-21T12:50:57Z</time>
      </trkpt>
      <trkpt lat="42.88155" lon="0.13239">
        <ele>1947</ele>
        <time>2011-07-21T12:51:00Z</time>
      </trkpt>
      <trkpt lat="42.88157" lon="0.13231">
        <ele>1947</ele>
        <time>2011-07-21T12:51:05Z</time>
      </trkpt>
      <trkpt lat="42.88156" lon="0.13228">
        <ele>1947</ele>
        <time>2011-07-21T12:51:07Z</time>
      </trkpt>
      <trkpt lat="42.88156" lon="0.13223">
        <ele>1947</ele>
        <time>2011-07-21T12:51:10Z</time>
      </trkpt>
      <trkpt lat="42.88158" lon="0.13217">
        <ele>1947</ele>
        <time>2011-07-21T12:51:15Z</time>
      </trkpt>
      <trkpt lat="42.88157" lon="0.13215">
        <ele>1947</ele>
        <time>2011-07-21T12:51:17Z</time>
      </trkpt>
      <trkpt lat="42.88158" lon="0.1321">
        <ele>1948</ele>
        <time>2011-07-21T12:51:21Z</time>
      </trkpt>
      <trkpt lat="42.88159" lon="0.13206">
        <ele>1950</ele>
        <time>2011-07-21T12:51:25Z</time>
      </trkpt>
      <trkpt lat="42.8816" lon="0.13202">
        <ele>1952</ele>
        <time>2011-07-21T12:51:29Z</time>
      </trkpt>
      <trkpt lat="42.88161" lon="0.13196">
        <ele>1952</ele>
        <time>2011-07-21T12:51:35Z</time>
      </trkpt>
      <trkpt lat="42.8816" lon="0.13194">
        <ele>1952</ele>
        <time>2011-07-21T12:51:37Z</time>
      </trkpt>
      <trkpt lat="42.8816" lon="0.13189">
        <ele>1952</ele>
        <time>2011-07-21T12:51:41Z</time>
      </trkpt>
      <trkpt lat="42.88161" lon="0.13184">
        <ele>1952</ele>
        <time>2011-07-21T12:51:45Z</time>
      </trkpt>
      <trkpt lat="42.88161" lon="0.1318">
        <ele>1949</ele>
        <time>2011-07-21T12:51:48Z</time>
      </trkpt>
      <trkpt lat="42.88163" lon="0.13177">
        <ele>1948</ele>
        <time>2011-07-21T12:51:50Z</time>
      </trkpt>
      <trkpt lat="42.88166" lon="0.13171">
        <ele>1948</ele>
        <time>2011-07-21T12:51:55Z</time>
      </trkpt>
      <trkpt lat="42.88167" lon="0.13169">
        <ele>1948</ele>
        <time>2011-07-21T12:51:57Z</time>
      </trkpt>
      <trkpt lat="42.88169" lon="0.13165">
        <ele>1948</ele>
        <time>2011-07-21T12:52:00Z</time>
      </trkpt>
      <trkpt lat="42.88169" lon="0.13158">
        <ele>1948</ele>
        <time>2011-07-21T12:52:05Z</time>
      </trkpt>
      <trkpt lat="42.8817" lon="0.13156">
        <ele>1948</ele>
        <time>2011-07-21T12:52:07Z</time>
      </trkpt>
      <trkpt lat="42.88171" lon="0.13153">
        <ele>1948</ele>
        <time>2011-07-21T12:52:11Z</time>
      </trkpt>
      <trkpt lat="42.88173" lon="0.13149">
        <ele>1948</ele>
        <time>2011-07-21T12:52:15Z</time>
      </trkpt>
      <trkpt lat="42.88174" lon="0.13148">
        <ele>1948</ele>
        <time>2011-07-21T12:52:17Z</time>
      </trkpt>
      <trkpt lat="42.88175" lon="0.13144">
        <ele>1948</ele>
        <time>2011-07-21T12:52:21Z</time>
      </trkpt>
      <trkpt lat="42.88176" lon="0.13139">
        <ele>1948</ele>
        <time>2011-07-21T12:52:25Z</time>
      </trkpt>
      <trkpt lat="42.88177" lon="0.13137">
        <ele>1948</ele>
        <time>2011-07-21T12:52:27Z</time>
      </trkpt>
      <trkpt lat="42.88178" lon="0.13134">
        <ele>1948</ele>
        <time>2011-07-21T12:52:30Z</time>
      </trkpt>
      <trkpt lat="42.88179" lon="0.13131">
        <ele>1948</ele>
        <time>2011-07-21T12:52:35Z</time>
      </trkpt>
      <trkpt lat="42.8818" lon="0.13129">
        <ele>1948</ele>
        <time>2011-07-21T12:52:38Z</time>
      </trkpt>
      <trkpt lat="42.8818" lon="0.13127">
        <ele>1947</ele>
        <time>2011-07-21T12:52:40Z</time>
      </trkpt>
      <trkpt lat="42.88179" lon="0.13124">
        <ele>1946</ele>
        <time>2011-07-21T12:52:45Z</time>
      </trkpt>
      <trkpt lat="42.88179" lon="0.13121">
        <ele>1946</ele>
        <time>2011-07-21T12:52:47Z</time>
      </trkpt>
      <trkpt lat="42.88181" lon="0.13112">
        <ele>1945</ele>
        <time>2011-07-21T12:52:55Z</time>
      </trkpt>
      <trkpt lat="42.88181" lon="0.13107">
        <ele>1945</ele>
        <time>2011-07-21T12:52:58Z</time>
      </trkpt>
      <trkpt lat="42.88181" lon="0.13103">
        <ele>1945</ele>
        <time>2011-07-21T12:53:01Z</time>
      </trkpt>
      <trkpt lat="42.88181" lon="0.13099">
        <ele>1945</ele>
        <time>2011-07-21T12:53:05Z</time>
      </trkpt>
      <trkpt lat="42.88181" lon="0.13096">
        <ele>1945</ele>
        <time>2011-07-21T12:53:07Z</time>
      </trkpt>
      <trkpt lat="42.88183" lon="0.13091">
        <ele>1945</ele>
        <time>2011-07-21T12:53:11Z</time>
      </trkpt>
      <trkpt lat="42.88186" lon="0.13087">
        <ele>1943</ele>
        <time>2011-07-21T12:53:15Z</time>
      </trkpt>
      <trkpt lat="42.88187" lon="0.13084">
        <ele>1942</ele>
        <time>2011-07-21T12:53:17Z</time>
      </trkpt>
      <trkpt lat="42.88189" lon="0.1308">
        <ele>1939</ele>
        <time>2011-07-21T12:53:21Z</time>
      </trkpt>
      <trkpt lat="42.8819" lon="0.13075">
        <ele>1939</ele>
        <time>2011-07-21T12:53:25Z</time>
      </trkpt>
      <trkpt lat="42.88192" lon="0.13072">
        <ele>1939</ele>
        <time>2011-07-21T12:53:28Z</time>
      </trkpt>
      <trkpt lat="42.88194" lon="0.1307">
        <ele>1939</ele>
        <time>2011-07-21T12:53:30Z</time>
      </trkpt>
      <trkpt lat="42.88195" lon="0.1306">
        <ele>1939</ele>
        <time>2011-07-21T12:53:36Z</time>
      </trkpt>
      <trkpt lat="42.88196" lon="0.13058">
        <ele>1939</ele>
        <time>2011-07-21T12:53:38Z</time>
      </trkpt>
      <trkpt lat="42.88197" lon="0.13052">
        <ele>1939</ele>
        <time>2011-07-21T12:53:43Z</time>
      </trkpt>
      <trkpt lat="42.88198" lon="0.1305">
        <ele>1939</ele>
        <time>2011-07-21T12:53:45Z</time>
      </trkpt>
      <trkpt lat="42.88199" lon="0.13049">
        <ele>1939</ele>
        <time>2011-07-21T12:53:48Z</time>
      </trkpt>
      <trkpt lat="42.88201" lon="0.13046">
        <ele>1940</ele>
        <time>2011-07-21T12:54:11Z</time>
      </trkpt>
      <trkpt lat="42.88201" lon="0.13043">
        <ele>1940</ele>
        <time>2011-07-21T12:54:13Z</time>
      </trkpt>
      <trkpt lat="42.88201" lon="0.13039">
        <ele>1941</ele>
        <time>2011-07-21T12:54:15Z</time>
      </trkpt>
      <trkpt lat="42.88201" lon="0.13031">
        <ele>1945</ele>
        <time>2011-07-21T12:54:20Z</time>
      </trkpt>
      <trkpt lat="42.88203" lon="0.13026">
        <ele>1947</ele>
        <time>2011-07-21T12:54:23Z</time>
      </trkpt>
      <trkpt lat="42.88202" lon="0.13024">
        <ele>1948</ele>
        <time>2011-07-21T12:54:25Z</time>
      </trkpt>
      <trkpt lat="42.88203" lon="0.13015">
        <ele>1948</ele>
        <time>2011-07-21T12:54:30Z</time>
      </trkpt>
      <trkpt lat="42.88204" lon="0.13012">
        <ele>1948</ele>
        <time>2011-07-21T12:54:32Z</time>
      </trkpt>
      <trkpt lat="42.88206" lon="0.13008">
        <ele>1948</ele>
        <time>2011-07-21T12:54:35Z</time>
      </trkpt>
      <trkpt lat="42.88208" lon="0.12997">
        <ele>1948</ele>
        <time>2011-07-21T12:54:43Z</time>
      </trkpt>
      <trkpt lat="42.88208" lon="0.12993">
        <ele>1948</ele>
        <time>2011-07-21T12:54:45Z</time>
      </trkpt>
      <trkpt lat="42.88209" lon="0.12983">
        <ele>1948</ele>
        <time>2011-07-21T12:54:52Z</time>
      </trkpt>
      <trkpt lat="42.88212" lon="0.12972">
        <ele>1948</ele>
        <time>2011-07-21T12:55:01Z</time>
      </trkpt>
      <trkpt lat="42.88213" lon="0.1297">
        <ele>1948</ele>
        <time>2011-07-21T12:55:03Z</time>
      </trkpt>
      <trkpt lat="42.88213" lon="0.12968">
        <ele>1948</ele>
        <time>2011-07-21T12:55:05Z</time>
      </trkpt>
      <trkpt lat="42.88214" lon="0.12961">
        <ele>1946</ele>
        <time>2011-07-21T12:55:12Z</time>
      </trkpt>
      <trkpt lat="42.88215" lon="0.12958">
        <ele>1944</ele>
        <time>2011-07-21T12:55:16Z</time>
      </trkpt>
      <trkpt lat="42.88214" lon="0.12953">
        <ele>1944</ele>
        <time>2011-07-21T12:55:21Z</time>
      </trkpt>
      <trkpt lat="42.88214" lon="0.1295">
        <ele>1944</ele>
        <time>2011-07-21T12:55:23Z</time>
      </trkpt>
      <trkpt lat="42.88217" lon="0.12942">
        <ele>1943</ele>
        <time>2011-07-21T12:55:30Z</time>
      </trkpt>
      <trkpt lat="42.88217" lon="0.12939">
        <ele>1943</ele>
        <time>2011-07-21T12:55:32Z</time>
      </trkpt>
      <trkpt lat="42.88217" lon="0.12938">
        <ele>1942</ele>
        <time>2011-07-21T12:55:35Z</time>
      </trkpt>
      <trkpt lat="42.88219" lon="0.12932">
        <ele>1941</ele>
        <time>2011-07-21T12:55:40Z</time>
      </trkpt>
      <trkpt lat="42.88221" lon="0.1293">
        <ele>1941</ele>
        <time>2011-07-21T12:55:42Z</time>
      </trkpt>
      <trkpt lat="42.88222" lon="0.12925">
        <ele>1941</ele>
        <time>2011-07-21T12:55:46Z</time>
      </trkpt>
      <trkpt lat="42.88226" lon="0.12916">
        <ele>1938</ele>
        <time>2011-07-21T12:55:55Z</time>
      </trkpt>
      <trkpt lat="42.88228" lon="0.12915">
        <ele>1937</ele>
        <time>2011-07-21T12:55:57Z</time>
      </trkpt>
      <trkpt lat="42.88228" lon="0.1291">
        <ele>1933</ele>
        <time>2011-07-21T12:56:05Z</time>
      </trkpt>
      <trkpt lat="42.88227" lon="0.12908">
        <ele>1930</ele>
        <time>2011-07-21T12:56:08Z</time>
      </trkpt>
      <trkpt lat="42.88227" lon="0.12905">
        <ele>1928</ele>
        <time>2011-07-21T12:56:10Z</time>
      </trkpt>
      <trkpt lat="42.88227" lon="0.12902">
        <ele>1927</ele>
        <time>2011-07-21T12:56:14Z</time>
      </trkpt>
      <trkpt lat="42.88226" lon="0.12902">
        <ele>1927</ele>
        <time>2011-07-21T12:56:16Z</time>
      </trkpt>
      <trkpt lat="42.88224" lon="0.12904">
        <ele>1927</ele>
        <time>2011-07-21T12:56:19Z</time>
      </trkpt>
      <trkpt lat="42.88221" lon="0.12903">
        <ele>1926</ele>
        <time>2011-07-21T12:56:26Z</time>
      </trkpt>
      <trkpt lat="42.88219" lon="0.12899">
        <ele>1926</ele>
        <time>2011-07-21T12:56:30Z</time>
      </trkpt>
      <trkpt lat="42.88217" lon="0.12895">
        <ele>1929</ele>
        <time>2011-07-21T12:56:34Z</time>
      </trkpt>
      <trkpt lat="42.88218" lon="0.12893">
        <ele>1931</ele>
        <time>2011-07-21T12:56:49Z</time>
      </trkpt>
      <trkpt lat="42.88217" lon="0.12891">
        <ele>1925</ele>
        <time>2011-07-21T12:57:07Z</time>
      </trkpt>
      <trkpt lat="42.88219" lon="0.12886">
        <ele>1923</ele>
        <time>2011-07-21T12:57:13Z</time>
      </trkpt>
      <trkpt lat="42.88219" lon="0.12884">
        <ele>1922</ele>
        <time>2011-07-21T12:57:15Z</time>
      </trkpt>
      <trkpt lat="42.88221" lon="0.12882">
        <ele>1922</ele>
        <time>2011-07-21T12:57:17Z</time>
      </trkpt>
      <trkpt lat="42.88225" lon="0.12874">
        <ele>1920</ele>
        <time>2011-07-21T12:57:23Z</time>
      </trkpt>
      <trkpt lat="42.88226" lon="0.12871">
        <ele>1920</ele>
        <time>2011-07-21T12:57:25Z</time>
      </trkpt>
      <trkpt lat="42.88226" lon="0.12869">
        <ele>1920</ele>
        <time>2011-07-21T12:57:27Z</time>
      </trkpt>
      <trkpt lat="42.88227" lon="0.12861">
        <ele>1920</ele>
        <time>2011-07-21T12:57:33Z</time>
      </trkpt>
      <trkpt lat="42.88227" lon="0.12858">
        <ele>1920</ele>
        <time>2011-07-21T12:57:35Z</time>
      </trkpt>
      <trkpt lat="42.88227" lon="0.12857">
        <ele>1920</ele>
        <time>2011-07-21T12:57:37Z</time>
      </trkpt>
      <trkpt lat="42.88229" lon="0.1285">
        <ele>1919</ele>
        <time>2011-07-21T12:57:43Z</time>
      </trkpt>
      <trkpt lat="42.88229" lon="0.12847">
        <ele>1918</ele>
        <time>2011-07-21T12:57:45Z</time>
      </trkpt>
      <trkpt lat="42.8823" lon="0.12846">
        <ele>1918</ele>
        <time>2011-07-21T12:57:47Z</time>
      </trkpt>
      <trkpt lat="42.88227" lon="0.12842">
        <ele>1916</ele>
        <time>2011-07-21T12:57:54Z</time>
      </trkpt>
      <trkpt lat="42.88228" lon="0.1284">
        <ele>1915</ele>
        <time>2011-07-21T12:57:56Z</time>
      </trkpt>
      <trkpt lat="42.88231" lon="0.12829">
        <ele>1915</ele>
        <time>2011-07-21T12:58:05Z</time>
      </trkpt>
      <trkpt lat="42.88232" lon="0.12825">
        <ele>1915</ele>
        <time>2011-07-21T12:58:07Z</time>
      </trkpt>
      <trkpt lat="42.88232" lon="0.12822">
        <ele>1915</ele>
        <time>2011-07-21T12:58:09Z</time>
      </trkpt>
      <trkpt lat="42.88235" lon="0.12817">
        <ele>1915</ele>
        <time>2011-07-21T12:58:13Z</time>
      </trkpt>
      <trkpt lat="42.88235" lon="0.12815">
        <ele>1915</ele>
        <time>2011-07-21T12:58:16Z</time>
      </trkpt>
      <trkpt lat="42.88237" lon="0.1281">
        <ele>1915</ele>
        <time>2011-07-21T12:58:22Z</time>
      </trkpt>
      <trkpt lat="42.88238" lon="0.12807">
        <ele>1914</ele>
        <time>2011-07-21T12:58:25Z</time>
      </trkpt>
      <trkpt lat="42.88238" lon="0.12806">
        <ele>1914</ele>
        <time>2011-07-21T12:58:29Z</time>
      </trkpt>
      <trkpt lat="42.88238" lon="0.12802">
        <ele>1913</ele>
        <time>2011-07-21T12:58:35Z</time>
      </trkpt>
      <trkpt lat="42.88238" lon="0.12801">
        <ele>1913</ele>
        <time>2011-07-21T12:58:39Z</time>
      </trkpt>
      <trkpt lat="42.88238" lon="0.12799">
        <ele>1913</ele>
        <time>2011-07-21T12:58:41Z</time>
      </trkpt>
      <trkpt lat="42.88235" lon="0.12796">
        <ele>1912</ele>
        <time>2011-07-21T12:58:45Z</time>
      </trkpt>
      <trkpt lat="42.88233" lon="0.12796">
        <ele>1911</ele>
        <time>2011-07-21T12:58:47Z</time>
      </trkpt>
      <trkpt lat="42.88229" lon="0.12798">
        <ele>1911</ele>
        <time>2011-07-21T12:58:50Z</time>
      </trkpt>
      <trkpt lat="42.88219" lon="0.12797">
        <ele>1911</ele>
        <time>2011-07-21T12:58:57Z</time>
      </trkpt>
      <trkpt lat="42.88215" lon="0.12797">
        <ele>1911</ele>
        <time>2011-07-21T12:59:00Z</time>
      </trkpt>
      <trkpt lat="42.88209" lon="0.12794">
        <ele>1911</ele>
        <time>2011-07-21T12:59:05Z</time>
      </trkpt>
      <trkpt lat="42.88203" lon="0.12789">
        <ele>1911</ele>
        <time>2011-07-21T12:59:11Z</time>
      </trkpt>
      <trkpt lat="42.882" lon="0.1279">
        <ele>1911</ele>
        <time>2011-07-21T12:59:15Z</time>
      </trkpt>
      <trkpt lat="42.88199" lon="0.12791">
        <ele>1911</ele>
        <time>2011-07-21T12:59:17Z</time>
      </trkpt>
      <trkpt lat="42.88198" lon="0.12792">
        <ele>1911</ele>
        <time>2011-07-21T12:59:22Z</time>
      </trkpt>
      <trkpt lat="42.88195" lon="0.12801">
        <ele>1911</ele>
        <time>2011-07-21T12:59:28Z</time>
      </trkpt>
      <trkpt lat="42.88194" lon="0.128">
        <ele>1911</ele>
        <time>2011-07-21T12:59:30Z</time>
      </trkpt>
      <trkpt lat="42.88192" lon="0.12799">
        <ele>1911</ele>
        <time>2011-07-21T12:59:33Z</time>
      </trkpt>
      <trkpt lat="42.88189" lon="0.12798">
        <ele>1911</ele>
        <time>2011-07-21T12:59:38Z</time>
      </trkpt>
      <trkpt lat="42.88189" lon="0.12795">
        <ele>1911</ele>
        <time>2011-07-21T12:59:40Z</time>
      </trkpt>
      <trkpt lat="42.8819" lon="0.12791">
        <ele>1911</ele>
        <time>2011-07-21T12:59:43Z</time>
      </trkpt>
      <trkpt lat="42.88193" lon="0.12782">
        <ele>1911</ele>
        <time>2011-07-21T12:59:49Z</time>
      </trkpt>
      <trkpt lat="42.88194" lon="0.1278">
        <ele>1911</ele>
        <time>2011-07-21T12:59:51Z</time>
      </trkpt>
      <trkpt lat="42.88196" lon="0.12777">
        <ele>1911</ele>
        <time>2011-07-21T12:59:53Z</time>
      </trkpt>
      <trkpt lat="42.88198" lon="0.12771">
        <ele>1911</ele>
        <time>2011-07-21T12:59:57Z</time>
      </trkpt>
      <trkpt lat="42.88198" lon="0.12766">
        <ele>1911</ele>
        <time>2011-07-21T13:00:00Z</time>
      </trkpt>
      <trkpt lat="42.88198" lon="0.12763">
        <ele>1911</ele>
        <time>2011-07-21T13:00:02Z</time>
      </trkpt>
      <trkpt lat="42.88201" lon="0.12756">
        <ele>1911</ele>
        <time>2011-07-21T13:00:06Z</time>
      </trkpt>
      <trkpt lat="42.88202" lon="0.12753">
        <ele>1911</ele>
        <time>2011-07-21T13:00:08Z</time>
      </trkpt>
      <trkpt lat="42.88203" lon="0.12749">
        <ele>1911</ele>
        <time>2011-07-21T13:00:11Z</time>
      </trkpt>
      <trkpt lat="42.88204" lon="0.12743">
        <ele>1911</ele>
        <time>2011-07-21T13:00:15Z</time>
      </trkpt>
      <trkpt lat="42.88204" lon="0.12741">
        <ele>1911</ele>
        <time>2011-07-21T13:00:17Z</time>
      </trkpt>
      <trkpt lat="42.88204" lon="0.12736">
        <ele>1911</ele>
        <time>2011-07-21T13:00:20Z</time>
      </trkpt>
      <trkpt lat="42.88201" lon="0.12724">
        <ele>1911</ele>
        <time>2011-07-21T13:00:31Z</time>
      </trkpt>
      <trkpt lat="42.882" lon="0.12722">
        <ele>1911</ele>
        <time>2011-07-21T13:00:33Z</time>
      </trkpt>
      <trkpt lat="42.882" lon="0.12716">
        <ele>1911</ele>
        <time>2011-07-21T13:00:37Z</time>
      </trkpt>
      <trkpt lat="42.882" lon="0.12714">
        <ele>1911</ele>
        <time>2011-07-21T13:00:39Z</time>
      </trkpt>
      <trkpt lat="42.88199" lon="0.12712">
        <ele>1911</ele>
        <time>2011-07-21T13:00:41Z</time>
      </trkpt>
      <trkpt lat="42.88199" lon="0.12708">
        <ele>1911</ele>
        <time>2011-07-21T13:00:45Z</time>
      </trkpt>
      <trkpt lat="42.88199" lon="0.12705">
        <ele>1911</ele>
        <time>2011-07-21T13:00:47Z</time>
      </trkpt>
      <trkpt lat="42.882" lon="0.12701">
        <ele>1910</ele>
        <time>2011-07-21T13:00:51Z</time>
      </trkpt>
      <trkpt lat="42.88201" lon="0.12696">
        <ele>1910</ele>
        <time>2011-07-21T13:00:58Z</time>
      </trkpt>
      <trkpt lat="42.882" lon="0.12694">
        <ele>1910</ele>
        <time>2011-07-21T13:01:00Z</time>
      </trkpt>
      <trkpt lat="42.882" lon="0.1269">
        <ele>1909</ele>
        <time>2011-07-21T13:01:04Z</time>
      </trkpt>
      <trkpt lat="42.88202" lon="0.12689">
        <ele>1909</ele>
        <time>2011-07-21T13:01:06Z</time>
      </trkpt>
      <trkpt lat="42.88202" lon="0.12687">
        <ele>1909</ele>
        <time>2011-07-21T13:01:08Z</time>
      </trkpt>
      <trkpt lat="42.88203" lon="0.12684">
        <ele>1909</ele>
        <time>2011-07-21T13:01:12Z</time>
      </trkpt>
      <trkpt lat="42.88203" lon="0.12682">
        <ele>1909</ele>
        <time>2011-07-21T13:01:14Z</time>
      </trkpt>
      <trkpt lat="42.88204" lon="0.1268">
        <ele>1908</ele>
        <time>2011-07-21T13:01:17Z</time>
      </trkpt>
      <trkpt lat="42.88205" lon="0.12673">
        <ele>1906</ele>
        <time>2011-07-21T13:01:25Z</time>
      </trkpt>
      <trkpt lat="42.88205" lon="0.12671">
        <ele>1906</ele>
        <time>2011-07-21T13:01:27Z</time>
      </trkpt>
      <trkpt lat="42.88205" lon="0.12668">
        <ele>1905</ele>
        <time>2011-07-21T13:01:31Z</time>
      </trkpt>
      <trkpt lat="42.88205" lon="0.12666">
        <ele>1905</ele>
        <time>2011-07-21T13:01:33Z</time>
      </trkpt>
      <trkpt lat="42.88204" lon="0.12665">
        <ele>1905</ele>
        <time>2011-07-21T13:01:35Z</time>
      </trkpt>
      <trkpt lat="42.88203" lon="0.12661">
        <ele>1905</ele>
        <time>2011-07-21T13:01:39Z</time>
      </trkpt>
      <trkpt lat="42.88203" lon="0.12659">
        <ele>1905</ele>
        <time>2011-07-21T13:01:41Z</time>
      </trkpt>
      <trkpt lat="42.88203" lon="0.12657">
        <ele>1905</ele>
        <time>2011-07-21T13:01:43Z</time>
      </trkpt>
      <trkpt lat="42.88203" lon="0.12653">
        <ele>1904</ele>
        <time>2011-07-21T13:01:47Z</time>
      </trkpt>
      <trkpt lat="42.88203" lon="0.12649">
        <ele>1904</ele>
        <time>2011-07-21T13:01:51Z</time>
      </trkpt>
      <trkpt lat="42.88203" lon="0.12647">
        <ele>1904</ele>
        <time>2011-07-21T13:01:53Z</time>
      </trkpt>
      <trkpt lat="42.88202" lon="0.12643">
        <ele>1903</ele>
        <time>2011-07-21T13:01:57Z</time>
      </trkpt>
      <trkpt lat="42.88202" lon="0.12641">
        <ele>1902</ele>
        <time>2011-07-21T13:01:59Z</time>
      </trkpt>
      <trkpt lat="42.88202" lon="0.12639">
        <ele>1902</ele>
        <time>2011-07-21T13:02:01Z</time>
      </trkpt>
      <trkpt lat="42.88202" lon="0.12636">
        <ele>1901</ele>
        <time>2011-07-21T13:02:05Z</time>
      </trkpt>
      <trkpt lat="42.882" lon="0.12634">
        <ele>1901</ele>
        <time>2011-07-21T13:02:07Z</time>
      </trkpt>
      <trkpt lat="42.882" lon="0.12632">
        <ele>1901</ele>
        <time>2011-07-21T13:02:09Z</time>
      </trkpt>
      <trkpt lat="42.88199" lon="0.12624">
        <ele>1901</ele>
        <time>2011-07-21T13:02:17Z</time>
      </trkpt>
      <trkpt lat="42.88201" lon="0.12613">
        <ele>1901</ele>
        <time>2011-07-21T13:02:33Z</time>
      </trkpt>
      <trkpt lat="42.88201" lon="0.12608">
        <ele>1901</ele>
        <time>2011-07-21T13:02:38Z</time>
      </trkpt>
      <trkpt lat="42.88199" lon="0.12603">
        <ele>1901</ele>
        <time>2011-07-21T13:02:42Z</time>
      </trkpt>
      <trkpt lat="42.88198" lon="0.12594">
        <ele>1901</ele>
        <time>2011-07-21T13:02:51Z</time>
      </trkpt>
      <trkpt lat="42.88197" lon="0.12592">
        <ele>1901</ele>
        <time>2011-07-21T13:02:53Z</time>
      </trkpt>
      <trkpt lat="42.88199" lon="0.12585">
        <ele>1901</ele>
        <time>2011-07-21T13:02:59Z</time>
      </trkpt>
      <trkpt lat="42.88199" lon="0.12583">
        <ele>1901</ele>
        <time>2011-07-21T13:03:01Z</time>
      </trkpt>
      <trkpt lat="42.88198" lon="0.12577">
        <ele>1901</ele>
        <time>2011-07-21T13:03:05Z</time>
      </trkpt>
      <trkpt lat="42.88199" lon="0.12571">
        <ele>1901</ele>
        <time>2011-07-21T13:03:09Z</time>
      </trkpt>
      <trkpt lat="42.88199" lon="0.12563">
        <ele>1901</ele>
        <time>2011-07-21T13:03:15Z</time>
      </trkpt>
      <trkpt lat="42.88199" lon="0.12559">
        <ele>1901</ele>
        <time>2011-07-21T13:03:18Z</time>
      </trkpt>
      <trkpt lat="42.882" lon="0.12557">
        <ele>1901</ele>
        <time>2011-07-21T13:03:20Z</time>
      </trkpt>
      <trkpt lat="42.88203" lon="0.1255">
        <ele>1901</ele>
        <time>2011-07-21T13:03:25Z</time>
      </trkpt>
      <trkpt lat="42.88205" lon="0.12546">
        <ele>1901</ele>
        <time>2011-07-21T13:03:29Z</time>
      </trkpt>
      <trkpt lat="42.88207" lon="0.12543">
        <ele>1901</ele>
        <time>2011-07-21T13:03:33Z</time>
      </trkpt>
      <trkpt lat="42.88211" lon="0.12545">
        <ele>1901</ele>
        <time>2011-07-21T13:03:36Z</time>
      </trkpt>
      <trkpt lat="42.88213" lon="0.12548">
        <ele>1901</ele>
        <time>2011-07-21T13:03:38Z</time>
      </trkpt>
      <trkpt lat="42.88215" lon="0.12554">
        <ele>1900</ele>
        <time>2011-07-21T13:03:42Z</time>
      </trkpt>
      <trkpt lat="42.88216" lon="0.12556">
        <ele>1900</ele>
        <time>2011-07-21T13:03:44Z</time>
      </trkpt>
      <trkpt lat="42.88217" lon="0.12558">
        <ele>1899</ele>
        <time>2011-07-21T13:03:46Z</time>
      </trkpt>
      <trkpt lat="42.88219" lon="0.12562">
        <ele>1898</ele>
        <time>2011-07-21T13:03:52Z</time>
      </trkpt>
      <trkpt lat="42.88223" lon="0.12561">
        <ele>1898</ele>
        <time>2011-07-21T13:03:55Z</time>
      </trkpt>
      <trkpt lat="42.88224" lon="0.12559">
        <ele>1898</ele>
        <time>2011-07-21T13:03:58Z</time>
      </trkpt>
      <trkpt lat="42.88226" lon="0.12557">
        <ele>1898</ele>
        <time>2011-07-21T13:04:02Z</time>
      </trkpt>
      <trkpt lat="42.88228" lon="0.12556">
        <ele>1897</ele>
        <time>2011-07-21T13:04:05Z</time>
      </trkpt>
      <trkpt lat="42.88229" lon="0.12555">
        <ele>1897</ele>
        <time>2011-07-21T13:04:08Z</time>
      </trkpt>
      <trkpt lat="42.8823" lon="0.12551">
        <ele>1897</ele>
        <time>2011-07-21T13:04:14Z</time>
      </trkpt>
      <trkpt lat="42.8823" lon="0.12549">
        <ele>1897</ele>
        <time>2011-07-21T13:04:16Z</time>
      </trkpt>
      <trkpt lat="42.88229" lon="0.12547">
        <ele>1897</ele>
        <time>2011-07-21T13:04:18Z</time>
      </trkpt>
      <trkpt lat="42.88229" lon="0.12542">
        <ele>1897</ele>
        <time>2011-07-21T13:04:22Z</time>
      </trkpt>
      <trkpt lat="42.88231" lon="0.12537">
        <ele>1897</ele>
        <time>2011-07-21T13:04:26Z</time>
      </trkpt>
      <trkpt lat="42.88232" lon="0.12534">
        <ele>1896</ele>
        <time>2011-07-21T13:04:28Z</time>
      </trkpt>
      <trkpt lat="42.88235" lon="0.1253">
        <ele>1895</ele>
        <time>2011-07-21T13:04:32Z</time>
      </trkpt>
      <trkpt lat="42.88235" lon="0.12525">
        <ele>1895</ele>
        <time>2011-07-21T13:04:35Z</time>
      </trkpt>
      <trkpt lat="42.88236" lon="0.12521">
        <ele>1894</ele>
        <time>2011-07-21T13:04:38Z</time>
      </trkpt>
      <trkpt lat="42.88239" lon="0.12516">
        <ele>1894</ele>
        <time>2011-07-21T13:04:42Z</time>
      </trkpt>
      <trkpt lat="42.88241" lon="0.12513">
        <ele>1894</ele>
        <time>2011-07-21T13:04:44Z</time>
      </trkpt>
      <trkpt lat="42.88242" lon="0.1251">
        <ele>1894</ele>
        <time>2011-07-21T13:04:46Z</time>
      </trkpt>
      <trkpt lat="42.88245" lon="0.125">
        <ele>1894</ele>
        <time>2011-07-21T13:04:52Z</time>
      </trkpt>
      <trkpt lat="42.8825" lon="0.12489">
        <ele>1894</ele>
        <time>2011-07-21T13:05:00Z</time>
      </trkpt>
      <trkpt lat="42.88251" lon="0.12488">
        <ele>1894</ele>
        <time>2011-07-21T13:05:02Z</time>
      </trkpt>
      <trkpt lat="42.88254" lon="0.12489">
        <ele>1894</ele>
        <time>2011-07-21T13:05:04Z</time>
      </trkpt>
      <trkpt lat="42.88258" lon="0.12488">
        <ele>1894</ele>
        <time>2011-07-21T13:05:09Z</time>
      </trkpt>
      <trkpt lat="42.8826" lon="0.12487">
        <ele>1894</ele>
        <time>2011-07-21T13:05:11Z</time>
      </trkpt>
      <trkpt lat="42.88262" lon="0.12485">
        <ele>1894</ele>
        <time>2011-07-21T13:05:13Z</time>
      </trkpt>
      <trkpt lat="42.88264" lon="0.12482">
        <ele>1894</ele>
        <time>2011-07-21T13:05:17Z</time>
      </trkpt>
      <trkpt lat="42.88266" lon="0.12478">
        <ele>1894</ele>
        <time>2011-07-21T13:05:20Z</time>
      </trkpt>
      <trkpt lat="42.88266" lon="0.12476">
        <ele>1894</ele>
        <time>2011-07-21T13:05:22Z</time>
      </trkpt>
      <trkpt lat="42.88266" lon="0.12472">
        <ele>1894</ele>
        <time>2011-07-21T13:05:26Z</time>
      </trkpt>
      <trkpt lat="42.88266" lon="0.1247">
        <ele>1894</ele>
        <time>2011-07-21T13:05:28Z</time>
      </trkpt>
      <trkpt lat="42.88266" lon="0.12468">
        <ele>1894</ele>
        <time>2011-07-21T13:05:30Z</time>
      </trkpt>
      <trkpt lat="42.88264" lon="0.12462">
        <ele>1894</ele>
        <time>2011-07-21T13:05:35Z</time>
      </trkpt>
      <trkpt lat="42.88263" lon="0.12458">
        <ele>1894</ele>
        <time>2011-07-21T13:05:38Z</time>
      </trkpt>
      <trkpt lat="42.88261" lon="0.12455">
        <ele>1894</ele>
        <time>2011-07-21T13:05:40Z</time>
      </trkpt>
      <trkpt lat="42.88259" lon="0.12449">
        <ele>1894</ele>
        <time>2011-07-21T13:05:44Z</time>
      </trkpt>
      <trkpt lat="42.88258" lon="0.12446">
        <ele>1894</ele>
        <time>2011-07-21T13:05:46Z</time>
      </trkpt>
      <trkpt lat="42.88257" lon="0.12443">
        <ele>1894</ele>
        <time>2011-07-21T13:05:48Z</time>
      </trkpt>
      <trkpt lat="42.88255" lon="0.12437">
        <ele>1894</ele>
        <time>2011-07-21T13:05:52Z</time>
      </trkpt>
      <trkpt lat="42.88252" lon="0.12428">
        <ele>1894</ele>
        <time>2011-07-21T13:05:58Z</time>
      </trkpt>
      <trkpt lat="42.8825" lon="0.12409">
        <ele>1894</ele>
        <time>2011-07-21T13:06:10Z</time>
      </trkpt>
      <trkpt lat="42.88249" lon="0.12405">
        <ele>1894</ele>
        <time>2011-07-21T13:06:12Z</time>
      </trkpt>
      <trkpt lat="42.88248" lon="0.12396">
        <ele>1894</ele>
        <time>2011-07-21T13:06:18Z</time>
      </trkpt>
      <trkpt lat="42.88248" lon="0.12392">
        <ele>1894</ele>
        <time>2011-07-21T13:06:20Z</time>
      </trkpt>
      <trkpt lat="42.88247" lon="0.12388">
        <ele>1894</ele>
        <time>2011-07-21T13:06:22Z</time>
      </trkpt>
      <trkpt lat="42.88246" lon="0.12377">
        <ele>1894</ele>
        <time>2011-07-21T13:06:29Z</time>
      </trkpt>
      <trkpt lat="42.88245" lon="0.12374">
        <ele>1894</ele>
        <time>2011-07-21T13:06:31Z</time>
      </trkpt>
      <trkpt lat="42.88244" lon="0.12364">
        <ele>1894</ele>
        <time>2011-07-21T13:06:37Z</time>
      </trkpt>
      <trkpt lat="42.88244" lon="0.12361">
        <ele>1894</ele>
        <time>2011-07-21T13:06:39Z</time>
      </trkpt>
      <trkpt lat="42.88244" lon="0.12355">
        <ele>1894</ele>
        <time>2011-07-21T13:06:43Z</time>
      </trkpt>
      <trkpt lat="42.88243" lon="0.12351">
        <ele>1894</ele>
        <time>2011-07-21T13:06:46Z</time>
      </trkpt>
      <trkpt lat="42.88243" lon="0.12349">
        <ele>1894</ele>
        <time>2011-07-21T13:06:48Z</time>
      </trkpt>
      <trkpt lat="42.88243" lon="0.12343">
        <ele>1894</ele>
        <time>2011-07-21T13:06:52Z</time>
      </trkpt>
      <trkpt lat="42.88243" lon="0.1234">
        <ele>1894</ele>
        <time>2011-07-21T13:06:54Z</time>
      </trkpt>
      <trkpt lat="42.88243" lon="0.12336">
        <ele>1894</ele>
        <time>2011-07-21T13:06:56Z</time>
      </trkpt>
      <trkpt lat="42.88243" lon="0.1233">
        <ele>1894</ele>
        <time>2011-07-21T13:07:00Z</time>
      </trkpt>
      <trkpt lat="42.88243" lon="0.12326">
        <ele>1894</ele>
        <time>2011-07-21T13:07:02Z</time>
      </trkpt>
      <trkpt lat="42.88243" lon="0.12323">
        <ele>1894</ele>
        <time>2011-07-21T13:07:04Z</time>
      </trkpt>
      <trkpt lat="42.88244" lon="0.12319">
        <ele>1894</ele>
        <time>2011-07-21T13:07:08Z</time>
      </trkpt>
      <trkpt lat="42.88244" lon="0.12316">
        <ele>1894</ele>
        <time>2011-07-21T13:07:10Z</time>
      </trkpt>
      <trkpt lat="42.88244" lon="0.12313">
        <ele>1894</ele>
        <time>2011-07-21T13:07:12Z</time>
      </trkpt>
      <trkpt lat="42.88242" lon="0.12306">
        <ele>1894</ele>
        <time>2011-07-21T13:07:18Z</time>
      </trkpt>
      <trkpt lat="42.88242" lon="0.12303">
        <ele>1894</ele>
        <time>2011-07-21T13:07:20Z</time>
      </trkpt>
      <trkpt lat="42.88242" lon="0.12301">
        <ele>1894</ele>
        <time>2011-07-21T13:07:22Z</time>
      </trkpt>
      <trkpt lat="42.88242" lon="0.12297">
        <ele>1894</ele>
        <time>2011-07-21T13:07:26Z</time>
      </trkpt>
      <trkpt lat="42.88242" lon="0.12295">
        <ele>1894</ele>
        <time>2011-07-21T13:07:28Z</time>
      </trkpt>
      <trkpt lat="42.88241" lon="0.12293">
        <ele>1894</ele>
        <time>2011-07-21T13:07:30Z</time>
      </trkpt>
      <trkpt lat="42.88241" lon="0.12289">
        <ele>1894</ele>
        <time>2011-07-21T13:07:36Z</time>
      </trkpt>
      <trkpt lat="42.88241" lon="0.12287">
        <ele>1894</ele>
        <time>2011-07-21T13:07:38Z</time>
      </trkpt>
      <trkpt lat="42.88242" lon="0.12285">
        <ele>1894</ele>
        <time>2011-07-21T13:07:40Z</time>
      </trkpt>
      <trkpt lat="42.88242" lon="0.1228">
        <ele>1894</ele>
        <time>2011-07-21T13:07:44Z</time>
      </trkpt>
      <trkpt lat="42.88243" lon="0.12276">
        <ele>1894</ele>
        <time>2011-07-21T13:07:47Z</time>
      </trkpt>
      <trkpt lat="42.88243" lon="0.12272">
        <ele>1894</ele>
        <time>2011-07-21T13:07:50Z</time>
      </trkpt>
      <trkpt lat="42.88242" lon="0.12265">
        <ele>1894</ele>
        <time>2011-07-21T13:07:55Z</time>
      </trkpt>
      <trkpt lat="42.88242" lon="0.12263">
        <ele>1894</ele>
        <time>2011-07-21T13:07:57Z</time>
      </trkpt>
      <trkpt lat="42.88241" lon="0.12261">
        <ele>1894</ele>
        <time>2011-07-21T13:07:59Z</time>
      </trkpt>
      <trkpt lat="42.88239" lon="0.12254">
        <ele>1894</ele>
        <time>2011-07-21T13:08:04Z</time>
      </trkpt>
      <trkpt lat="42.88239" lon="0.12252">
        <ele>1894</ele>
        <time>2011-07-21T13:08:06Z</time>
      </trkpt>
      <trkpt lat="42.88239" lon="0.1225">
        <ele>1894</ele>
        <time>2011-07-21T13:08:08Z</time>
      </trkpt>
      <trkpt lat="42.88238" lon="0.12244">
        <ele>1894</ele>
        <time>2011-07-21T13:08:13Z</time>
      </trkpt>
      <trkpt lat="42.88238" lon="0.12242">
        <ele>1894</ele>
        <time>2011-07-21T13:08:15Z</time>
      </trkpt>
      <trkpt lat="42.88238" lon="0.1224">
        <ele>1894</ele>
        <time>2011-07-21T13:08:17Z</time>
      </trkpt>
      <trkpt lat="42.88238" lon="0.12234">
        <ele>1894</ele>
        <time>2011-07-21T13:08:21Z</time>
      </trkpt>
      <trkpt lat="42.88238" lon="0.12231">
        <ele>1894</ele>
        <time>2011-07-21T13:08:23Z</time>
      </trkpt>
      <trkpt lat="42.88238" lon="0.12229">
        <ele>1894</ele>
        <time>2011-07-21T13:08:25Z</time>
      </trkpt>
      <trkpt lat="42.88238" lon="0.12222">
        <ele>1894</ele>
        <time>2011-07-21T13:08:30Z</time>
      </trkpt>
      <trkpt lat="42.88238" lon="0.1222">
        <ele>1894</ele>
        <time>2011-07-21T13:08:32Z</time>
      </trkpt>
      <trkpt lat="42.88238" lon="0.12215">
        <ele>1894</ele>
        <time>2011-07-21T13:08:35Z</time>
      </trkpt>
      <trkpt lat="42.88238" lon="0.12209">
        <ele>1894</ele>
        <time>2011-07-21T13:08:39Z</time>
      </trkpt>
      <trkpt lat="42.88237" lon="0.12201">
        <ele>1894</ele>
        <time>2011-07-21T13:08:46Z</time>
      </trkpt>
      <trkpt lat="42.8824" lon="0.12197">
        <ele>1894</ele>
        <time>2011-07-21T13:08:50Z</time>
      </trkpt>
      <trkpt lat="42.8824" lon="0.12195">
        <ele>1895</ele>
        <time>2011-07-21T13:08:52Z</time>
      </trkpt>
      <trkpt lat="42.8824" lon="0.12194">
        <ele>1895</ele>
        <time>2011-07-21T13:08:54Z</time>
      </trkpt>
      <trkpt lat="42.8824" lon="0.12189">
        <ele>1896</ele>
        <time>2011-07-21T13:08:58Z</time>
      </trkpt>
      <trkpt lat="42.88241" lon="0.12188">
        <ele>1897</ele>
        <time>2011-07-21T13:09:02Z</time>
      </trkpt>
      <trkpt lat="42.88241" lon="0.12186">
        <ele>1897</ele>
        <time>2011-07-21T13:09:05Z</time>
      </trkpt>
      <trkpt lat="42.88242" lon="0.12176">
        <ele>1898</ele>
        <time>2011-07-21T13:09:13Z</time>
      </trkpt>
      <trkpt lat="42.88242" lon="0.12173">
        <ele>1898</ele>
        <time>2011-07-21T13:09:15Z</time>
      </trkpt>
      <trkpt lat="42.88245" lon="0.12154">
        <ele>1898</ele>
        <time>2011-07-21T13:09:30Z</time>
      </trkpt>
      <trkpt lat="42.88245" lon="0.12151">
        <ele>1898</ele>
        <time>2011-07-21T13:09:32Z</time>
      </trkpt>
      <trkpt lat="42.88245" lon="0.12145">
        <ele>1898</ele>
        <time>2011-07-21T13:09:45Z</time>
      </trkpt>
      <trkpt lat="42.88244" lon="0.12143">
        <ele>1898</ele>
        <time>2011-07-21T13:09:47Z</time>
      </trkpt>
      <trkpt lat="42.88243" lon="0.12141">
        <ele>1898</ele>
        <time>2011-07-21T13:09:49Z</time>
      </trkpt>
      <trkpt lat="42.88242" lon="0.12136">
        <ele>1898</ele>
        <time>2011-07-21T13:09:53Z</time>
      </trkpt>
      <trkpt lat="42.88243" lon="0.12133">
        <ele>1898</ele>
        <time>2011-07-21T13:09:55Z</time>
      </trkpt>
      <trkpt lat="42.88242" lon="0.1213">
        <ele>1898</ele>
        <time>2011-07-21T13:09:57Z</time>
      </trkpt>
      <trkpt lat="42.88241" lon="0.12124">
        <ele>1898</ele>
        <time>2011-07-21T13:10:01Z</time>
      </trkpt>
      <trkpt lat="42.88242" lon="0.12122">
        <ele>1898</ele>
        <time>2011-07-21T13:10:03Z</time>
      </trkpt>
      <trkpt lat="42.88241" lon="0.12119">
        <ele>1898</ele>
        <time>2011-07-21T13:10:05Z</time>
      </trkpt>
      <trkpt lat="42.8824" lon="0.12115">
        <ele>1898</ele>
        <time>2011-07-21T13:10:09Z</time>
      </trkpt>
      <trkpt lat="42.8824" lon="0.12113">
        <ele>1898</ele>
        <time>2011-07-21T13:10:11Z</time>
      </trkpt>
      <trkpt lat="42.88239" lon="0.12111">
        <ele>1898</ele>
        <time>2011-07-21T13:10:13Z</time>
      </trkpt>
      <trkpt lat="42.88237" lon="0.12107">
        <ele>1898</ele>
        <time>2011-07-21T13:10:17Z</time>
      </trkpt>
      <trkpt lat="42.88236" lon="0.12106">
        <ele>1898</ele>
        <time>2011-07-21T13:10:19Z</time>
      </trkpt>
      <trkpt lat="42.88234" lon="0.12105">
        <ele>1897</ele>
        <time>2011-07-21T13:10:21Z</time>
      </trkpt>
      <trkpt lat="42.88231" lon="0.121">
        <ele>1895</ele>
        <time>2011-07-21T13:10:27Z</time>
      </trkpt>
      <trkpt lat="42.88229" lon="0.12099">
        <ele>1895</ele>
        <time>2011-07-21T13:10:29Z</time>
      </trkpt>
      <trkpt lat="42.88226" lon="0.12094">
        <ele>1893</ele>
        <time>2011-07-21T13:10:36Z</time>
      </trkpt>
      <trkpt lat="42.88224" lon="0.12092">
        <ele>1893</ele>
        <time>2011-07-21T13:10:38Z</time>
      </trkpt>
      <trkpt lat="42.88223" lon="0.1209">
        <ele>1892</ele>
        <time>2011-07-21T13:10:40Z</time>
      </trkpt>
      <trkpt lat="42.88221" lon="0.12084">
        <ele>1892</ele>
        <time>2011-07-21T13:10:46Z</time>
      </trkpt>
      <trkpt lat="42.88219" lon="0.1208">
        <ele>1891</ele>
        <time>2011-07-21T13:10:49Z</time>
      </trkpt>
      <trkpt lat="42.88216" lon="0.12076">
        <ele>1891</ele>
        <time>2011-07-21T13:10:53Z</time>
      </trkpt>
      <trkpt lat="42.88215" lon="0.12073">
        <ele>1891</ele>
        <time>2011-07-21T13:10:55Z</time>
      </trkpt>
      <trkpt lat="42.88214" lon="0.12071">
        <ele>1890</ele>
        <time>2011-07-21T13:10:57Z</time>
      </trkpt>
      <trkpt lat="42.88211" lon="0.12068">
        <ele>1890</ele>
        <time>2011-07-21T13:11:01Z</time>
      </trkpt>
      <trkpt lat="42.88203" lon="0.12063">
        <ele>1890</ele>
        <time>2011-07-21T13:11:09Z</time>
      </trkpt>
      <trkpt lat="42.88201" lon="0.12061">
        <ele>1890</ele>
        <time>2011-07-21T13:11:11Z</time>
      </trkpt>
      <trkpt lat="42.882" lon="0.1206">
        <ele>1889</ele>
        <time>2011-07-21T13:11:13Z</time>
      </trkpt>
      <trkpt lat="42.88198" lon="0.12055">
        <ele>1889</ele>
        <time>2011-07-21T13:11:17Z</time>
      </trkpt>
      <trkpt lat="42.88196" lon="0.12054">
        <ele>1889</ele>
        <time>2011-07-21T13:11:19Z</time>
      </trkpt>
      <trkpt lat="42.88193" lon="0.12048">
        <ele>1889</ele>
        <time>2011-07-21T13:11:25Z</time>
      </trkpt>
      <trkpt lat="42.88192" lon="0.12046">
        <ele>1889</ele>
        <time>2011-07-21T13:11:27Z</time>
      </trkpt>
      <trkpt lat="42.88191" lon="0.12044">
        <ele>1889</ele>
        <time>2011-07-21T13:11:30Z</time>
      </trkpt>
      <trkpt lat="42.88188" lon="0.12042">
        <ele>1889</ele>
        <time>2011-07-21T13:11:34Z</time>
      </trkpt>
      <trkpt lat="42.88187" lon="0.1204">
        <ele>1888</ele>
        <time>2011-07-21T13:11:36Z</time>
      </trkpt>
      <trkpt lat="42.88182" lon="0.1203">
        <ele>1888</ele>
        <time>2011-07-21T13:11:52Z</time>
      </trkpt>
      <trkpt lat="42.88181" lon="0.12027">
        <ele>1888</ele>
        <time>2011-07-21T13:11:54Z</time>
      </trkpt>
      <trkpt lat="42.8818" lon="0.12023">
        <ele>1888</ele>
        <time>2011-07-21T13:11:58Z</time>
      </trkpt>
      <trkpt lat="42.88179" lon="0.1202">
        <ele>1888</ele>
        <time>2011-07-21T13:12:00Z</time>
      </trkpt>
      <trkpt lat="42.88177" lon="0.12016">
        <ele>1888</ele>
        <time>2011-07-21T13:12:03Z</time>
      </trkpt>
      <trkpt lat="42.88175" lon="0.12009">
        <ele>1888</ele>
        <time>2011-07-21T13:12:08Z</time>
      </trkpt>
      <trkpt lat="42.88176" lon="0.11998">
        <ele>1887</ele>
        <time>2011-07-21T13:12:19Z</time>
      </trkpt>
      <trkpt lat="42.88176" lon="0.11995">
        <ele>1887</ele>
        <time>2011-07-21T13:12:21Z</time>
      </trkpt>
      <trkpt lat="42.88176" lon="0.11993">
        <ele>1887</ele>
        <time>2011-07-21T13:12:23Z</time>
      </trkpt>
      <trkpt lat="42.88176" lon="0.11989">
        <ele>1887</ele>
        <time>2011-07-21T13:12:27Z</time>
      </trkpt>
      <trkpt lat="42.88176" lon="0.11987">
        <ele>1886</ele>
        <time>2011-07-21T13:12:29Z</time>
      </trkpt>
      <trkpt lat="42.88177" lon="0.11985">
        <ele>1886</ele>
        <time>2011-07-21T13:12:31Z</time>
      </trkpt>
      <trkpt lat="42.88179" lon="0.11982">
        <ele>1886</ele>
        <time>2011-07-21T13:12:35Z</time>
      </trkpt>
      <trkpt lat="42.88181" lon="0.11982">
        <ele>1886</ele>
        <time>2011-07-21T13:12:37Z</time>
      </trkpt>
      <trkpt lat="42.88182" lon="0.11981">
        <ele>1886</ele>
        <time>2011-07-21T13:12:40Z</time>
      </trkpt>
      <trkpt lat="42.88185" lon="0.11979">
        <ele>1884</ele>
        <time>2011-07-21T13:12:45Z</time>
      </trkpt>
      <trkpt lat="42.88189" lon="0.11962">
        <ele>1884</ele>
        <time>2011-07-21T13:12:56Z</time>
      </trkpt>
      <trkpt lat="42.8819" lon="0.1196">
        <ele>1884</ele>
        <time>2011-07-21T13:12:58Z</time>
      </trkpt>
      <trkpt lat="42.88191" lon="0.11957">
        <ele>1883</ele>
        <time>2011-07-21T13:13:03Z</time>
      </trkpt>
      <trkpt lat="42.88193" lon="0.11953">
        <ele>1882</ele>
        <time>2011-07-21T13:13:09Z</time>
      </trkpt>
      <trkpt lat="42.88194" lon="0.11947">
        <ele>1882</ele>
        <time>2011-07-21T13:13:15Z</time>
      </trkpt>
      <trkpt lat="42.88194" lon="0.11945">
        <ele>1881</ele>
        <time>2011-07-21T13:13:17Z</time>
      </trkpt>
      <trkpt lat="42.88195" lon="0.11943">
        <ele>1881</ele>
        <time>2011-07-21T13:13:19Z</time>
      </trkpt>
      <trkpt lat="42.88196" lon="0.1194">
        <ele>1880</ele>
        <time>2011-07-21T13:13:24Z</time>
      </trkpt>
      <trkpt lat="42.88198" lon="0.11941">
        <ele>1879</ele>
        <time>2011-07-21T13:13:26Z</time>
      </trkpt>
      <trkpt lat="42.88199" lon="0.11943">
        <ele>1879</ele>
        <time>2011-07-21T13:13:28Z</time>
      </trkpt>
      <trkpt lat="42.882" lon="0.11947">
        <ele>1877</ele>
        <time>2011-07-21T13:13:32Z</time>
      </trkpt>
      <trkpt lat="42.882" lon="0.11949">
        <ele>1877</ele>
        <time>2011-07-21T13:13:34Z</time>
      </trkpt>
      <trkpt lat="42.88201" lon="0.1195">
        <ele>1876</ele>
        <time>2011-07-21T13:13:36Z</time>
      </trkpt>
      <trkpt lat="42.88203" lon="0.1195">
        <ele>1875</ele>
        <time>2011-07-21T13:13:40Z</time>
      </trkpt>
      <trkpt lat="42.88205" lon="0.11949">
        <ele>1875</ele>
        <time>2011-07-21T13:13:43Z</time>
      </trkpt>
      <trkpt lat="42.88206" lon="0.11947">
        <ele>1874</ele>
        <time>2011-07-21T13:13:45Z</time>
      </trkpt>
      <trkpt lat="42.88206" lon="0.11944">
        <ele>1874</ele>
        <time>2011-07-21T13:13:49Z</time>
      </trkpt>
      <trkpt lat="42.88207" lon="0.11942">
        <ele>1874</ele>
        <time>2011-07-21T13:13:51Z</time>
      </trkpt>
      <trkpt lat="42.88207" lon="0.11941">
        <ele>1874</ele>
        <time>2011-07-21T13:13:53Z</time>
      </trkpt>
      <trkpt lat="42.88207" lon="0.11938">
        <ele>1873</ele>
        <time>2011-07-21T13:13:57Z</time>
      </trkpt>
      <trkpt lat="42.88208" lon="0.11937">
        <ele>1873</ele>
        <time>2011-07-21T13:13:59Z</time>
      </trkpt>
      <trkpt lat="42.8821" lon="0.11939">
        <ele>1873</ele>
        <time>2011-07-21T13:14:02Z</time>
      </trkpt>
      <trkpt lat="42.88212" lon="0.1194">
        <ele>1872</ele>
        <time>2011-07-21T13:14:08Z</time>
      </trkpt>
      <trkpt lat="42.88213" lon="0.1194">
        <ele>1871</ele>
        <time>2011-07-21T13:14:10Z</time>
      </trkpt>
      <trkpt lat="42.88214" lon="0.11938">
        <ele>1871</ele>
        <time>2011-07-21T13:14:13Z</time>
      </trkpt>
      <trkpt lat="42.88215" lon="0.11934">
        <ele>1870</ele>
        <time>2011-07-21T13:14:17Z</time>
      </trkpt>
      <trkpt lat="42.88215" lon="0.11932">
        <ele>1870</ele>
        <time>2011-07-21T13:14:19Z</time>
      </trkpt>
      <trkpt lat="42.88215" lon="0.1193">
        <ele>1869</ele>
        <time>2011-07-21T13:14:21Z</time>
      </trkpt>
      <trkpt lat="42.88214" lon="0.11926">
        <ele>1868</ele>
        <time>2011-07-21T13:14:25Z</time>
      </trkpt>
      <trkpt lat="42.88214" lon="0.11925">
        <ele>1868</ele>
        <time>2011-07-21T13:14:27Z</time>
      </trkpt>
      <trkpt lat="42.88216" lon="0.11923">
        <ele>1867</ele>
        <time>2011-07-21T13:14:29Z</time>
      </trkpt>
      <trkpt lat="42.88218" lon="0.11921">
        <ele>1866</ele>
        <time>2011-07-21T13:14:33Z</time>
      </trkpt>
      <trkpt lat="42.88219" lon="0.1192">
        <ele>1866</ele>
        <time>2011-07-21T13:14:35Z</time>
      </trkpt>
      <trkpt lat="42.88221" lon="0.1192">
        <ele>1866</ele>
        <time>2011-07-21T13:14:37Z</time>
      </trkpt>
      <trkpt lat="42.88224" lon="0.11912">
        <ele>1865</ele>
        <time>2011-07-21T13:14:44Z</time>
      </trkpt>
      <trkpt lat="42.88225" lon="0.1191">
        <ele>1865</ele>
        <time>2011-07-21T13:14:46Z</time>
      </trkpt>
      <trkpt lat="42.88225" lon="0.11908">
        <ele>1865</ele>
        <time>2011-07-21T13:14:48Z</time>
      </trkpt>
      <trkpt lat="42.88225" lon="0.11902">
        <ele>1864</ele>
        <time>2011-07-21T13:14:53Z</time>
      </trkpt>
      <trkpt lat="42.88225" lon="0.119">
        <ele>1864</ele>
        <time>2011-07-21T13:14:55Z</time>
      </trkpt>
      <trkpt lat="42.88224" lon="0.11899">
        <ele>1863</ele>
        <time>2011-07-21T13:14:58Z</time>
      </trkpt>
      <trkpt lat="42.88224" lon="0.11895">
        <ele>1862</ele>
        <time>2011-07-21T13:15:02Z</time>
      </trkpt>
      <trkpt lat="42.88224" lon="0.11893">
        <ele>1862</ele>
        <time>2011-07-21T13:15:04Z</time>
      </trkpt>
      <trkpt lat="42.88222" lon="0.11891">
        <ele>1861</ele>
        <time>2011-07-21T13:15:07Z</time>
      </trkpt>
      <trkpt lat="42.88221" lon="0.11888">
        <ele>1859</ele>
        <time>2011-07-21T13:15:11Z</time>
      </trkpt>
      <trkpt lat="42.88221" lon="0.11886">
        <ele>1859</ele>
        <time>2011-07-21T13:15:13Z</time>
      </trkpt>
      <trkpt lat="42.88221" lon="0.11885">
        <ele>1858</ele>
        <time>2011-07-21T13:15:15Z</time>
      </trkpt>
      <trkpt lat="42.88222" lon="0.11878">
        <ele>1857</ele>
        <time>2011-07-21T13:15:22Z</time>
      </trkpt>
      <trkpt lat="42.88223" lon="0.11875">
        <ele>1857</ele>
        <time>2011-07-21T13:15:24Z</time>
      </trkpt>
      <trkpt lat="42.88224" lon="0.11872">
        <ele>1856</ele>
        <time>2011-07-21T13:15:28Z</time>
      </trkpt>
      <trkpt lat="42.88223" lon="0.1187">
        <ele>1855</ele>
        <time>2011-07-21T13:15:31Z</time>
      </trkpt>
      <trkpt lat="42.88223" lon="0.11868">
        <ele>1855</ele>
        <time>2011-07-21T13:15:33Z</time>
      </trkpt>
      <trkpt lat="42.88223" lon="0.11865">
        <ele>1853</ele>
        <time>2011-07-21T13:15:38Z</time>
      </trkpt>
      <trkpt lat="42.88223" lon="0.11864">
        <ele>1853</ele>
        <time>2011-07-21T13:15:40Z</time>
      </trkpt>
      <trkpt lat="42.88222" lon="0.11862">
        <ele>1852</ele>
        <time>2011-07-21T13:15:42Z</time>
      </trkpt>
      <trkpt lat="42.88222" lon="0.11857">
        <ele>1852</ele>
        <time>2011-07-21T13:15:46Z</time>
      </trkpt>
      <trkpt lat="42.88223" lon="0.11855">
        <ele>1852</ele>
        <time>2011-07-21T13:15:48Z</time>
      </trkpt>
      <trkpt lat="42.88224" lon="0.11854">
        <ele>1851</ele>
        <time>2011-07-21T13:15:51Z</time>
      </trkpt>
      <trkpt lat="42.88226" lon="0.11851">
        <ele>1851</ele>
        <time>2011-07-21T13:15:56Z</time>
      </trkpt>
      <trkpt lat="42.88226" lon="0.11849">
        <ele>1850</ele>
        <time>2011-07-21T13:15:58Z</time>
      </trkpt>
      <trkpt lat="42.88225" lon="0.11846">
        <ele>1849</ele>
        <time>2011-07-21T13:16:04Z</time>
      </trkpt>
      <trkpt lat="42.88223" lon="0.11842">
        <ele>1848</ele>
        <time>2011-07-21T13:16:10Z</time>
      </trkpt>
      <trkpt lat="42.88224" lon="0.1184">
        <ele>1848</ele>
        <time>2011-07-21T13:16:12Z</time>
      </trkpt>
      <trkpt lat="42.88223" lon="0.11839">
        <ele>1848</ele>
        <time>2011-07-21T13:16:14Z</time>
      </trkpt>
      <trkpt lat="42.88223" lon="0.11835">
        <ele>1847</ele>
        <time>2011-07-21T13:16:19Z</time>
      </trkpt>
      <trkpt lat="42.88223" lon="0.11833">
        <ele>1847</ele>
        <time>2011-07-21T13:16:21Z</time>
      </trkpt>
      <trkpt lat="42.88223" lon="0.11831">
        <ele>1847</ele>
        <time>2011-07-21T13:16:23Z</time>
      </trkpt>
      <trkpt lat="42.88224" lon="0.11826">
        <ele>1846</ele>
        <time>2011-07-21T13:16:27Z</time>
      </trkpt>
      <trkpt lat="42.88225" lon="0.11823">
        <ele>1846</ele>
        <time>2011-07-21T13:16:29Z</time>
      </trkpt>
      <trkpt lat="42.88226" lon="0.11819">
        <ele>1846</ele>
        <time>2011-07-21T13:16:32Z</time>
      </trkpt>
      <trkpt lat="42.88229" lon="0.11815">
        <ele>1846</ele>
        <time>2011-07-21T13:16:36Z</time>
      </trkpt>
      <trkpt lat="42.88229" lon="0.11812">
        <ele>1845</ele>
        <time>2011-07-21T13:16:38Z</time>
      </trkpt>
      <trkpt lat="42.8823" lon="0.11809">
        <ele>1845</ele>
        <time>2011-07-21T13:16:40Z</time>
      </trkpt>
      <trkpt lat="42.88232" lon="0.11806">
        <ele>1845</ele>
        <time>2011-07-21T13:16:44Z</time>
      </trkpt>
      <trkpt lat="42.88231" lon="0.11804">
        <ele>1844</ele>
        <time>2011-07-21T13:16:46Z</time>
      </trkpt>
      <trkpt lat="42.88231" lon="0.11802">
        <ele>1844</ele>
        <time>2011-07-21T13:16:48Z</time>
      </trkpt>
      <trkpt lat="42.88231" lon="0.11798">
        <ele>1842</ele>
        <time>2011-07-21T13:16:54Z</time>
      </trkpt>
      <trkpt lat="42.88231" lon="0.11797">
        <ele>1842</ele>
        <time>2011-07-21T13:16:56Z</time>
      </trkpt>
      <trkpt lat="42.8823" lon="0.11795">
        <ele>1840</ele>
        <time>2011-07-21T13:17:00Z</time>
      </trkpt>
      <trkpt lat="42.8823" lon="0.11791">
        <ele>1838</ele>
        <time>2011-07-21T13:17:07Z</time>
      </trkpt>
      <trkpt lat="42.8823" lon="0.11789">
        <ele>1838</ele>
        <time>2011-07-21T13:17:09Z</time>
      </trkpt>
      <trkpt lat="42.8823" lon="0.11788">
        <ele>1837</ele>
        <time>2011-07-21T13:17:11Z</time>
      </trkpt>
      <trkpt lat="42.88231" lon="0.11783">
        <ele>1837</ele>
        <time>2011-07-21T13:17:15Z</time>
      </trkpt>
      <trkpt lat="42.88231" lon="0.11781">
        <ele>1836</ele>
        <time>2011-07-21T13:17:17Z</time>
      </trkpt>
      <trkpt lat="42.88232" lon="0.11779">
        <ele>1836</ele>
        <time>2011-07-21T13:17:19Z</time>
      </trkpt>
      <trkpt lat="42.88236" lon="0.11774">
        <ele>1835</ele>
        <time>2011-07-21T13:17:26Z</time>
      </trkpt>
      <trkpt lat="42.88237" lon="0.11773">
        <ele>1835</ele>
        <time>2011-07-21T13:17:28Z</time>
      </trkpt>
      <trkpt lat="42.88239" lon="0.11771">
        <ele>1835</ele>
        <time>2011-07-21T13:17:30Z</time>
      </trkpt>
      <trkpt lat="42.88241" lon="0.11767">
        <ele>1835</ele>
        <time>2011-07-21T13:17:34Z</time>
      </trkpt>
      <trkpt lat="42.88242" lon="0.11766">
        <ele>1835</ele>
        <time>2011-07-21T13:17:36Z</time>
      </trkpt>
      <trkpt lat="42.88242" lon="0.11764">
        <ele>1834</ele>
        <time>2011-07-21T13:17:38Z</time>
      </trkpt>
      <trkpt lat="42.88245" lon="0.11761">
        <ele>1834</ele>
        <time>2011-07-21T13:17:42Z</time>
      </trkpt>
      <trkpt lat="42.88245" lon="0.1176">
        <ele>1834</ele>
        <time>2011-07-21T13:17:44Z</time>
      </trkpt>
      <trkpt lat="42.88246" lon="0.11758">
        <ele>1833</ele>
        <time>2011-07-21T13:17:46Z</time>
      </trkpt>
      <trkpt lat="42.8825" lon="0.11752">
        <ele>1833</ele>
        <time>2011-07-21T13:17:51Z</time>
      </trkpt>
      <trkpt lat="42.88251" lon="0.11751">
        <ele>1832</ele>
        <time>2011-07-21T13:17:53Z</time>
      </trkpt>
      <trkpt lat="42.88252" lon="0.11748">
        <ele>1832</ele>
        <time>2011-07-21T13:17:55Z</time>
      </trkpt>
      <trkpt lat="42.88254" lon="0.11743">
        <ele>1831</ele>
        <time>2011-07-21T13:18:00Z</time>
      </trkpt>
      <trkpt lat="42.88254" lon="0.1174">
        <ele>1831</ele>
        <time>2011-07-21T13:18:02Z</time>
      </trkpt>
      <trkpt lat="42.88254" lon="0.11737">
        <ele>1830</ele>
        <time>2011-07-21T13:18:04Z</time>
      </trkpt>
      <trkpt lat="42.88257" lon="0.11733">
        <ele>1829</ele>
        <time>2011-07-21T13:18:09Z</time>
      </trkpt>
      <trkpt lat="42.88257" lon="0.11732">
        <ele>1829</ele>
        <time>2011-07-21T13:18:11Z</time>
      </trkpt>
      <trkpt lat="42.88257" lon="0.1173">
        <ele>1828</ele>
        <time>2011-07-21T13:18:13Z</time>
      </trkpt>
      <trkpt lat="42.88256" lon="0.11727">
        <ele>1827</ele>
        <time>2011-07-21T13:18:18Z</time>
      </trkpt>
      <trkpt lat="42.88255" lon="0.11724">
        <ele>1826</ele>
        <time>2011-07-21T13:18:20Z</time>
      </trkpt>
      <trkpt lat="42.88255" lon="0.11722">
        <ele>1826</ele>
        <time>2011-07-21T13:18:22Z</time>
      </trkpt>
      <trkpt lat="42.88256" lon="0.11714">
        <ele>1824</ele>
        <time>2011-07-21T13:18:27Z</time>
      </trkpt>
      <trkpt lat="42.88257" lon="0.11711">
        <ele>1823</ele>
        <time>2011-07-21T13:18:29Z</time>
      </trkpt>
      <trkpt lat="42.88257" lon="0.11705">
        <ele>1822</ele>
        <time>2011-07-21T13:18:35Z</time>
      </trkpt>
      <trkpt lat="42.88257" lon="0.11702">
        <ele>1821</ele>
        <time>2011-07-21T13:18:37Z</time>
      </trkpt>
      <trkpt lat="42.88258" lon="0.11698">
        <ele>1821</ele>
        <time>2011-07-21T13:18:40Z</time>
      </trkpt>
      <trkpt lat="42.88258" lon="0.11691">
        <ele>1820</ele>
        <time>2011-07-21T13:18:44Z</time>
      </trkpt>
      <trkpt lat="42.88263" lon="0.11681">
        <ele>1819</ele>
        <time>2011-07-21T13:18:53Z</time>
      </trkpt>
      <trkpt lat="42.88263" lon="0.11678">
        <ele>1819</ele>
        <time>2011-07-21T13:18:56Z</time>
      </trkpt>
      <trkpt lat="42.88263" lon="0.11676">
        <ele>1819</ele>
        <time>2011-07-21T13:18:58Z</time>
      </trkpt>
      <trkpt lat="42.88261" lon="0.11672">
        <ele>1818</ele>
        <time>2011-07-21T13:19:02Z</time>
      </trkpt>
      <trkpt lat="42.88261" lon="0.1167">
        <ele>1817</ele>
        <time>2011-07-21T13:19:04Z</time>
      </trkpt>
      <trkpt lat="42.88261" lon="0.11667">
        <ele>1817</ele>
        <time>2011-07-21T13:19:07Z</time>
      </trkpt>
      <trkpt lat="42.88258" lon="0.11667">
        <ele>1813</ele>
        <time>2011-07-21T13:19:13Z</time>
      </trkpt>
      <trkpt lat="42.88257" lon="0.11666">
        <ele>1812</ele>
        <time>2011-07-21T13:19:15Z</time>
      </trkpt>
      <trkpt lat="42.88256" lon="0.1166">
        <ele>1811</ele>
        <time>2011-07-21T13:19:21Z</time>
      </trkpt>
      <trkpt lat="42.88256" lon="0.11657">
        <ele>1811</ele>
        <time>2011-07-21T13:19:23Z</time>
      </trkpt>
      <trkpt lat="42.88258" lon="0.11654">
        <ele>1810</ele>
        <time>2011-07-21T13:19:26Z</time>
      </trkpt>
      <trkpt lat="42.88257" lon="0.11647">
        <ele>1808</ele>
        <time>2011-07-21T13:19:31Z</time>
      </trkpt>
      <trkpt lat="42.88257" lon="0.11644">
        <ele>1808</ele>
        <time>2011-07-21T13:19:33Z</time>
      </trkpt>
      <trkpt lat="42.88257" lon="0.11641">
        <ele>1807</ele>
        <time>2011-07-21T13:19:35Z</time>
      </trkpt>
      <trkpt lat="42.88259" lon="0.11635">
        <ele>1807</ele>
        <time>2011-07-21T13:19:39Z</time>
      </trkpt>
      <trkpt lat="42.8826" lon="0.11632">
        <ele>1807</ele>
        <time>2011-07-21T13:19:41Z</time>
      </trkpt>
      <trkpt lat="42.88261" lon="0.1163">
        <ele>1806</ele>
        <time>2011-07-21T13:19:43Z</time>
      </trkpt>
      <trkpt lat="42.88262" lon="0.11625">
        <ele>1806</ele>
        <time>2011-07-21T13:19:47Z</time>
      </trkpt>
      <trkpt lat="42.88262" lon="0.11622">
        <ele>1806</ele>
        <time>2011-07-21T13:19:49Z</time>
      </trkpt>
      <trkpt lat="42.88262" lon="0.11619">
        <ele>1805</ele>
        <time>2011-07-21T13:19:51Z</time>
      </trkpt>
      <trkpt lat="42.88262" lon="0.11612">
        <ele>1805</ele>
        <time>2011-07-21T13:19:56Z</time>
      </trkpt>
      <trkpt lat="42.88263" lon="0.11608">
        <ele>1804</ele>
        <time>2011-07-21T13:19:59Z</time>
      </trkpt>
      <trkpt lat="42.88262" lon="0.11603">
        <ele>1804</ele>
        <time>2011-07-21T13:20:02Z</time>
      </trkpt>
      <trkpt lat="42.88263" lon="0.11596">
        <ele>1803</ele>
        <time>2011-07-21T13:20:08Z</time>
      </trkpt>
      <trkpt lat="42.88263" lon="0.11594">
        <ele>1802</ele>
        <time>2011-07-21T13:20:10Z</time>
      </trkpt>
      <trkpt lat="42.88266" lon="0.11591">
        <ele>1802</ele>
        <time>2011-07-21T13:20:14Z</time>
      </trkpt>
      <trkpt lat="42.88267" lon="0.1159">
        <ele>1801</ele>
        <time>2011-07-21T13:20:16Z</time>
      </trkpt>
      <trkpt lat="42.88266" lon="0.11584">
        <ele>1801</ele>
        <time>2011-07-21T13:20:22Z</time>
      </trkpt>
      <trkpt lat="42.88265" lon="0.11581">
        <ele>1800</ele>
        <time>2011-07-21T13:20:24Z</time>
      </trkpt>
      <trkpt lat="42.88264" lon="0.1158">
        <ele>1800</ele>
        <time>2011-07-21T13:20:26Z</time>
      </trkpt>
      <trkpt lat="42.88261" lon="0.11578">
        <ele>1799</ele>
        <time>2011-07-21T13:20:30Z</time>
      </trkpt>
      <trkpt lat="42.88258" lon="0.11576">
        <ele>1799</ele>
        <time>2011-07-21T13:20:33Z</time>
      </trkpt>
      <trkpt lat="42.88258" lon="0.11573">
        <ele>1799</ele>
        <time>2011-07-21T13:20:35Z</time>
      </trkpt>
      <trkpt lat="42.88258" lon="0.11566">
        <ele>1799</ele>
        <time>2011-07-21T13:20:40Z</time>
      </trkpt>
      <trkpt lat="42.88259" lon="0.11564">
        <ele>1799</ele>
        <time>2011-07-21T13:20:42Z</time>
      </trkpt>
      <trkpt lat="42.8826" lon="0.11562">
        <ele>1799</ele>
        <time>2011-07-21T13:20:44Z</time>
      </trkpt>
      <trkpt lat="42.8826" lon="0.11556">
        <ele>1799</ele>
        <time>2011-07-21T13:20:49Z</time>
      </trkpt>
      <trkpt lat="42.88261" lon="0.11554">
        <ele>1799</ele>
        <time>2011-07-21T13:20:51Z</time>
      </trkpt>
      <trkpt lat="42.88261" lon="0.11552">
        <ele>1799</ele>
        <time>2011-07-21T13:20:53Z</time>
      </trkpt>
      <trkpt lat="42.88261" lon="0.11547">
        <ele>1799</ele>
        <time>2011-07-21T13:20:57Z</time>
      </trkpt>
      <trkpt lat="42.88261" lon="0.11544">
        <ele>1799</ele>
        <time>2011-07-21T13:20:59Z</time>
      </trkpt>
      <trkpt lat="42.88261" lon="0.11542">
        <ele>1799</ele>
        <time>2011-07-21T13:21:01Z</time>
      </trkpt>
      <trkpt lat="42.8826" lon="0.11534">
        <ele>1799</ele>
        <time>2011-07-21T13:21:07Z</time>
      </trkpt>
      <trkpt lat="42.8826" lon="0.1153">
        <ele>1799</ele>
        <time>2011-07-21T13:21:10Z</time>
      </trkpt>
      <trkpt lat="42.8826" lon="0.11525">
        <ele>1799</ele>
        <time>2011-07-21T13:21:14Z</time>
      </trkpt>
      <trkpt lat="42.88261" lon="0.11524">
        <ele>1799</ele>
        <time>2011-07-21T13:21:16Z</time>
      </trkpt>
      <trkpt lat="42.88261" lon="0.11522">
        <ele>1799</ele>
        <time>2011-07-21T13:21:18Z</time>
      </trkpt>
      <trkpt lat="42.88263" lon="0.11519">
        <ele>1798</ele>
        <time>2011-07-21T13:21:22Z</time>
      </trkpt>
      <trkpt lat="42.88264" lon="0.11518">
        <ele>1798</ele>
        <time>2011-07-21T13:21:24Z</time>
      </trkpt>
      <trkpt lat="42.88265" lon="0.11516">
        <ele>1798</ele>
        <time>2011-07-21T13:21:27Z</time>
      </trkpt>
      <trkpt lat="42.88266" lon="0.11512">
        <ele>1798</ele>
        <time>2011-07-21T13:21:32Z</time>
      </trkpt>
      <trkpt lat="42.88263" lon="0.11505">
        <ele>1795</ele>
        <time>2011-07-21T13:21:43Z</time>
      </trkpt>
      <trkpt lat="42.88262" lon="0.11504">
        <ele>1794</ele>
        <time>2011-07-21T13:21:45Z</time>
      </trkpt>
      <trkpt lat="42.88262" lon="0.11502">
        <ele>1793</ele>
        <time>2011-07-21T13:21:47Z</time>
      </trkpt>
      <trkpt lat="42.88261" lon="0.11499">
        <ele>1792</ele>
        <time>2011-07-21T13:21:51Z</time>
      </trkpt>
      <trkpt lat="42.88262" lon="0.11495">
        <ele>1791</ele>
        <time>2011-07-21T13:21:54Z</time>
      </trkpt>
      <trkpt lat="42.8826" lon="0.1149">
        <ele>1789</ele>
        <time>2011-07-21T13:22:00Z</time>
      </trkpt>
      <trkpt lat="42.88259" lon="0.11489">
        <ele>1789</ele>
        <time>2011-07-21T13:22:02Z</time>
      </trkpt>
      <trkpt lat="42.88258" lon="0.11487">
        <ele>1788</ele>
        <time>2011-07-21T13:22:04Z</time>
      </trkpt>
      <trkpt lat="42.88257" lon="0.11482">
        <ele>1787</ele>
        <time>2011-07-21T13:22:08Z</time>
      </trkpt>
      <trkpt lat="42.88258" lon="0.11479">
        <ele>1787</ele>
        <time>2011-07-21T13:22:10Z</time>
      </trkpt>
      <trkpt lat="42.88259" lon="0.11477">
        <ele>1787</ele>
        <time>2011-07-21T13:22:12Z</time>
      </trkpt>
      <trkpt lat="42.88262" lon="0.11473">
        <ele>1786</ele>
        <time>2011-07-21T13:22:16Z</time>
      </trkpt>
      <trkpt lat="42.88261" lon="0.11471">
        <ele>1786</ele>
        <time>2011-07-21T13:22:18Z</time>
      </trkpt>
      <trkpt lat="42.88261" lon="0.11468">
        <ele>1786</ele>
        <time>2011-07-21T13:22:20Z</time>
      </trkpt>
      <trkpt lat="42.88266" lon="0.11464">
        <ele>1785</ele>
        <time>2011-07-21T13:22:26Z</time>
      </trkpt>
      <trkpt lat="42.88266" lon="0.11462">
        <ele>1785</ele>
        <time>2011-07-21T13:22:28Z</time>
      </trkpt>
      <trkpt lat="42.88266" lon="0.11457">
        <ele>1784</ele>
        <time>2011-07-21T13:22:32Z</time>
      </trkpt>
      <trkpt lat="42.88268" lon="0.11453">
        <ele>1784</ele>
        <time>2011-07-21T13:22:36Z</time>
      </trkpt>
      <trkpt lat="42.88268" lon="0.11449">
        <ele>1784</ele>
        <time>2011-07-21T13:22:40Z</time>
      </trkpt>
      <trkpt lat="42.88268" lon="0.11447">
        <ele>1784</ele>
        <time>2011-07-21T13:22:42Z</time>
      </trkpt>
      <trkpt lat="42.88268" lon="0.11445">
        <ele>1783</ele>
        <time>2011-07-21T13:22:45Z</time>
      </trkpt>
      <trkpt lat="42.88268" lon="0.11441">
        <ele>1782</ele>
        <time>2011-07-21T13:22:50Z</time>
      </trkpt>
      <trkpt lat="42.88269" lon="0.11439">
        <ele>1782</ele>
        <time>2011-07-21T13:22:53Z</time>
      </trkpt>
      <trkpt lat="42.8827" lon="0.11437">
        <ele>1782</ele>
        <time>2011-07-21T13:22:55Z</time>
      </trkpt>
      <trkpt lat="42.8827" lon="0.11433">
        <ele>1782</ele>
        <time>2011-07-21T13:22:59Z</time>
      </trkpt>
      <trkpt lat="42.88271" lon="0.11431">
        <ele>1781</ele>
        <time>2011-07-21T13:23:01Z</time>
      </trkpt>
      <trkpt lat="42.88271" lon="0.11429">
        <ele>1781</ele>
        <time>2011-07-21T13:23:04Z</time>
      </trkpt>
      <trkpt lat="42.8827" lon="0.11426">
        <ele>1780</ele>
        <time>2011-07-21T13:23:14Z</time>
      </trkpt>
      <trkpt lat="42.88271" lon="0.11425">
        <ele>1779</ele>
        <time>2011-07-21T13:23:16Z</time>
      </trkpt>
      <trkpt lat="42.88273" lon="0.11424">
        <ele>1779</ele>
        <time>2011-07-21T13:23:19Z</time>
      </trkpt>
      <trkpt lat="42.88274" lon="0.11421">
        <ele>1779</ele>
        <time>2011-07-21T13:23:23Z</time>
      </trkpt>
      <trkpt lat="42.88275" lon="0.1142">
        <ele>1778</ele>
        <time>2011-07-21T13:23:27Z</time>
      </trkpt>
      <trkpt lat="42.88274" lon="0.11418">
        <ele>1778</ele>
        <time>2011-07-21T13:23:29Z</time>
      </trkpt>
      <trkpt lat="42.88274" lon="0.11415">
        <ele>1777</ele>
        <time>2011-07-21T13:23:33Z</time>
      </trkpt>
      <trkpt lat="42.88274" lon="0.11412">
        <ele>1777</ele>
        <time>2011-07-21T13:23:35Z</time>
      </trkpt>
      <trkpt lat="42.88276" lon="0.11411">
        <ele>1777</ele>
        <time>2011-07-21T13:23:38Z</time>
      </trkpt>
      <trkpt lat="42.88276" lon="0.11407">
        <ele>1777</ele>
        <time>2011-07-21T13:23:44Z</time>
      </trkpt>
      <trkpt lat="42.88278" lon="0.11402">
        <ele>1776</ele>
        <time>2011-07-21T13:23:48Z</time>
      </trkpt>
      <trkpt lat="42.8828" lon="0.11396">
        <ele>1776</ele>
        <time>2011-07-21T13:23:52Z</time>
      </trkpt>
      <trkpt lat="42.8828" lon="0.1139">
        <ele>1775</ele>
        <time>2011-07-21T13:23:56Z</time>
      </trkpt>
      <trkpt lat="42.88278" lon="0.11382">
        <ele>1774</ele>
        <time>2011-07-21T13:24:02Z</time>
      </trkpt>
      <trkpt lat="42.88277" lon="0.11379">
        <ele>1773</ele>
        <time>2011-07-21T13:24:06Z</time>
      </trkpt>
      <trkpt lat="42.88277" lon="0.11377">
        <ele>1773</ele>
        <time>2011-07-21T13:24:08Z</time>
      </trkpt>
      <trkpt lat="42.88279" lon="0.11373">
        <ele>1772</ele>
        <time>2011-07-21T13:24:12Z</time>
      </trkpt>
      <trkpt lat="42.88278" lon="0.11372">
        <ele>1772</ele>
        <time>2011-07-21T13:24:15Z</time>
      </trkpt>
      <trkpt lat="42.88277" lon="0.11364">
        <ele>1771</ele>
        <time>2011-07-21T13:24:21Z</time>
      </trkpt>
      <trkpt lat="42.88276" lon="0.11361">
        <ele>1771</ele>
        <time>2011-07-21T13:24:23Z</time>
      </trkpt>
      <trkpt lat="42.88276" lon="0.11358">
        <ele>1771</ele>
        <time>2011-07-21T13:24:25Z</time>
      </trkpt>
      <trkpt lat="42.88279" lon="0.11352">
        <ele>1771</ele>
        <time>2011-07-21T13:24:30Z</time>
      </trkpt>
      <trkpt lat="42.8828" lon="0.1135">
        <ele>1771</ele>
        <time>2011-07-21T13:24:32Z</time>
      </trkpt>
      <trkpt lat="42.88284" lon="0.11344">
        <ele>1771</ele>
        <time>2011-07-21T13:24:38Z</time>
      </trkpt>
      <trkpt lat="42.88285" lon="0.11342">
        <ele>1771</ele>
        <time>2011-07-21T13:24:40Z</time>
      </trkpt>
      <trkpt lat="42.88286" lon="0.1134">
        <ele>1770</ele>
        <time>2011-07-21T13:24:42Z</time>
      </trkpt>
      <trkpt lat="42.88291" lon="0.11336">
        <ele>1770</ele>
        <time>2011-07-21T13:24:47Z</time>
      </trkpt>
      <trkpt lat="42.88292" lon="0.11332">
        <ele>1770</ele>
        <time>2011-07-21T13:24:50Z</time>
      </trkpt>
      <trkpt lat="42.88291" lon="0.1133">
        <ele>1770</ele>
        <time>2011-07-21T13:24:52Z</time>
      </trkpt>
      <trkpt lat="42.88291" lon="0.11325">
        <ele>1769</ele>
        <time>2011-07-21T13:24:57Z</time>
      </trkpt>
      <trkpt lat="42.88292" lon="0.11323">
        <ele>1769</ele>
        <time>2011-07-21T13:24:59Z</time>
      </trkpt>
      <trkpt lat="42.88292" lon="0.11321">
        <ele>1769</ele>
        <time>2011-07-21T13:25:01Z</time>
      </trkpt>
      <trkpt lat="42.88292" lon="0.11316">
        <ele>1768</ele>
        <time>2011-07-21T13:25:06Z</time>
      </trkpt>
      <trkpt lat="42.8829" lon="0.11314">
        <ele>1768</ele>
        <time>2011-07-21T13:25:08Z</time>
      </trkpt>
      <trkpt lat="42.8829" lon="0.11312">
        <ele>1768</ele>
        <time>2011-07-21T13:25:10Z</time>
      </trkpt>
      <trkpt lat="42.8829" lon="0.11304">
        <ele>1766</ele>
        <time>2011-07-21T13:25:17Z</time>
      </trkpt>
      <trkpt lat="42.88291" lon="0.11302">
        <ele>1766</ele>
        <time>2011-07-21T13:25:19Z</time>
      </trkpt>
      <trkpt lat="42.88292" lon="0.11295">
        <ele>1766</ele>
        <time>2011-07-21T13:25:25Z</time>
      </trkpt>
      <trkpt lat="42.88292" lon="0.11294">
        <ele>1765</ele>
        <time>2011-07-21T13:25:27Z</time>
      </trkpt>
      <trkpt lat="42.88296" lon="0.11291">
        <ele>1765</ele>
        <time>2011-07-21T13:25:34Z</time>
      </trkpt>
      <trkpt lat="42.88296" lon="0.11289">
        <ele>1764</ele>
        <time>2011-07-21T13:25:36Z</time>
      </trkpt>
      <trkpt lat="42.88297" lon="0.11287">
        <ele>1764</ele>
        <time>2011-07-21T13:25:38Z</time>
      </trkpt>
      <trkpt lat="42.88298" lon="0.11283">
        <ele>1764</ele>
        <time>2011-07-21T13:25:43Z</time>
      </trkpt>
      <trkpt lat="42.88297" lon="0.11282">
        <ele>1764</ele>
        <time>2011-07-21T13:25:54Z</time>
      </trkpt>
      <trkpt lat="42.88297" lon="0.1128">
        <ele>1764</ele>
        <time>2011-07-21T13:25:58Z</time>
      </trkpt>
      <trkpt lat="42.88296" lon="0.11277">
        <ele>1763</ele>
        <time>2011-07-21T13:26:05Z</time>
      </trkpt>
      <trkpt lat="42.88295" lon="0.11275">
        <ele>1763</ele>
        <time>2011-07-21T13:26:07Z</time>
      </trkpt>
      <trkpt lat="42.88295" lon="0.11274">
        <ele>1763</ele>
        <time>2011-07-21T13:26:09Z</time>
      </trkpt>
      <trkpt lat="42.88298" lon="0.1127">
        <ele>1762</ele>
        <time>2011-07-21T13:26:14Z</time>
      </trkpt>
      <trkpt lat="42.883" lon="0.11269">
        <ele>1762</ele>
        <time>2011-07-21T13:26:16Z</time>
      </trkpt>
      <trkpt lat="42.88301" lon="0.11269">
        <ele>1761</ele>
        <time>2011-07-21T13:26:18Z</time>
      </trkpt>
      <trkpt lat="42.88305" lon="0.11267">
        <ele>1761</ele>
        <time>2011-07-21T13:26:22Z</time>
      </trkpt>
      <trkpt lat="42.88306" lon="0.11265">
        <ele>1761</ele>
        <time>2011-07-21T13:26:24Z</time>
      </trkpt>
      <trkpt lat="42.88307" lon="0.11263">
        <ele>1761</ele>
        <time>2011-07-21T13:26:26Z</time>
      </trkpt>
      <trkpt lat="42.88307" lon="0.11255">
        <ele>1761</ele>
        <time>2011-07-21T13:26:31Z</time>
      </trkpt>
      <trkpt lat="42.88306" lon="0.11253">
        <ele>1760</ele>
        <time>2011-07-21T13:26:33Z</time>
      </trkpt>
      <trkpt lat="42.88306" lon="0.11251">
        <ele>1760</ele>
        <time>2011-07-21T13:26:35Z</time>
      </trkpt>
      <trkpt lat="42.88306" lon="0.11247">
        <ele>1760</ele>
        <time>2011-07-21T13:26:39Z</time>
      </trkpt>
      <trkpt lat="42.88306" lon="0.11245">
        <ele>1759</ele>
        <time>2011-07-21T13:26:41Z</time>
      </trkpt>
      <trkpt lat="42.88306" lon="0.11241">
        <ele>1759</ele>
        <time>2011-07-21T13:26:44Z</time>
      </trkpt>
      <trkpt lat="42.88308" lon="0.11236">
        <ele>1758</ele>
        <time>2011-07-21T13:26:48Z</time>
      </trkpt>
      <trkpt lat="42.88308" lon="0.11233">
        <ele>1758</ele>
        <time>2011-07-21T13:26:50Z</time>
      </trkpt>
      <trkpt lat="42.88309" lon="0.1123">
        <ele>1758</ele>
        <time>2011-07-21T13:26:52Z</time>
      </trkpt>
      <trkpt lat="42.88311" lon="0.11225">
        <ele>1758</ele>
        <time>2011-07-21T13:26:56Z</time>
      </trkpt>
      <trkpt lat="42.88312" lon="0.11223">
        <ele>1757</ele>
        <time>2011-07-21T13:26:58Z</time>
      </trkpt>
      <trkpt lat="42.88314" lon="0.11221">
        <ele>1757</ele>
        <time>2011-07-21T13:27:00Z</time>
      </trkpt>
      <trkpt lat="42.88315" lon="0.11215">
        <ele>1757</ele>
        <time>2011-07-21T13:27:04Z</time>
      </trkpt>
      <trkpt lat="42.88315" lon="0.11213">
        <ele>1757</ele>
        <time>2011-07-21T13:27:06Z</time>
      </trkpt>
      <trkpt lat="42.88316" lon="0.1121">
        <ele>1757</ele>
        <time>2011-07-21T13:27:08Z</time>
      </trkpt>
      <trkpt lat="42.88316" lon="0.11205">
        <ele>1757</ele>
        <time>2011-07-21T13:27:12Z</time>
      </trkpt>
      <trkpt lat="42.88316" lon="0.11203">
        <ele>1757</ele>
        <time>2011-07-21T13:27:20Z</time>
      </trkpt>
      <trkpt lat="42.88315" lon="0.11202">
        <ele>1756</ele>
        <time>2011-07-21T13:27:22Z</time>
      </trkpt>
      <trkpt lat="42.88313" lon="0.112">
        <ele>1756</ele>
        <time>2011-07-21T13:27:26Z</time>
      </trkpt>
      <trkpt lat="42.88311" lon="0.11197">
        <ele>1756</ele>
        <time>2011-07-21T13:27:28Z</time>
      </trkpt>
      <trkpt lat="42.88311" lon="0.11194">
        <ele>1755</ele>
        <time>2011-07-21T13:27:30Z</time>
      </trkpt>
      <trkpt lat="42.88315" lon="0.1119">
        <ele>1755</ele>
        <time>2011-07-21T13:27:34Z</time>
      </trkpt>
      <trkpt lat="42.88319" lon="0.11184">
        <ele>1755</ele>
        <time>2011-07-21T13:27:39Z</time>
      </trkpt>
      <trkpt lat="42.88322" lon="0.11178">
        <ele>1754</ele>
        <time>2011-07-21T13:27:43Z</time>
      </trkpt>
      <trkpt lat="42.88323" lon="0.11177">
        <ele>1754</ele>
        <time>2011-07-21T13:27:45Z</time>
      </trkpt>
      <trkpt lat="42.88325" lon="0.11175">
        <ele>1754</ele>
        <time>2011-07-21T13:27:47Z</time>
      </trkpt>
      <trkpt lat="42.88328" lon="0.1117">
        <ele>1753</ele>
        <time>2011-07-21T13:27:51Z</time>
      </trkpt>
      <trkpt lat="42.8833" lon="0.11169">
        <ele>1753</ele>
        <time>2011-07-21T13:27:53Z</time>
      </trkpt>
      <trkpt lat="42.88332" lon="0.11167">
        <ele>1753</ele>
        <time>2011-07-21T13:27:55Z</time>
      </trkpt>
      <trkpt lat="42.88337" lon="0.11159">
        <ele>1752</ele>
        <time>2011-07-21T13:28:01Z</time>
      </trkpt>
      <trkpt lat="42.88338" lon="0.11157">
        <ele>1752</ele>
        <time>2011-07-21T13:28:03Z</time>
      </trkpt>
      <trkpt lat="42.88343" lon="0.11154">
        <ele>1751</ele>
        <time>2011-07-21T13:28:07Z</time>
      </trkpt>
      <trkpt lat="42.88345" lon="0.11153">
        <ele>1751</ele>
        <time>2011-07-21T13:28:09Z</time>
      </trkpt>
      <trkpt lat="42.88348" lon="0.11152">
        <ele>1750</ele>
        <time>2011-07-21T13:28:11Z</time>
      </trkpt>
      <trkpt lat="42.88356" lon="0.11153">
        <ele>1749</ele>
        <time>2011-07-21T13:28:17Z</time>
      </trkpt>
      <trkpt lat="42.88358" lon="0.11153">
        <ele>1748</ele>
        <time>2011-07-21T13:28:19Z</time>
      </trkpt>
      <trkpt lat="42.88364" lon="0.11155">
        <ele>1747</ele>
        <time>2011-07-21T13:28:23Z</time>
      </trkpt>
      <trkpt lat="42.88369" lon="0.11158">
        <ele>1747</ele>
        <time>2011-07-21T13:28:27Z</time>
      </trkpt>
      <trkpt lat="42.88374" lon="0.1116">
        <ele>1746</ele>
        <time>2011-07-21T13:28:31Z</time>
      </trkpt>
      <trkpt lat="42.88376" lon="0.11159">
        <ele>1746</ele>
        <time>2011-07-21T13:28:33Z</time>
      </trkpt>
      <trkpt lat="42.88379" lon="0.11157">
        <ele>1746</ele>
        <time>2011-07-21T13:28:35Z</time>
      </trkpt>
      <trkpt lat="42.88382" lon="0.11153">
        <ele>1746</ele>
        <time>2011-07-21T13:28:39Z</time>
      </trkpt>
      <trkpt lat="42.88386" lon="0.11146">
        <ele>1746</ele>
        <time>2011-07-21T13:28:44Z</time>
      </trkpt>
      <trkpt lat="42.88392" lon="0.11138">
        <ele>1746</ele>
        <time>2011-07-21T13:28:50Z</time>
      </trkpt>
      <trkpt lat="42.88393" lon="0.11135">
        <ele>1746</ele>
        <time>2011-07-21T13:28:52Z</time>
      </trkpt>
      <trkpt lat="42.88395" lon="0.11132">
        <ele>1745</ele>
        <time>2011-07-21T13:28:54Z</time>
      </trkpt>
      <trkpt lat="42.88401" lon="0.11122">
        <ele>1745</ele>
        <time>2011-07-21T13:29:01Z</time>
      </trkpt>
      <trkpt lat="42.88406" lon="0.11113">
        <ele>1745</ele>
        <time>2011-07-21T13:29:07Z</time>
      </trkpt>
      <trkpt lat="42.8841" lon="0.1111">
        <ele>1745</ele>
        <time>2011-07-21T13:29:10Z</time>
      </trkpt>
      <trkpt lat="42.88411" lon="0.11107">
        <ele>1745</ele>
        <time>2011-07-21T13:29:12Z</time>
      </trkpt>
      <trkpt lat="42.88418" lon="0.11101">
        <ele>1744</ele>
        <time>2011-07-21T13:29:18Z</time>
      </trkpt>
      <trkpt lat="42.88422" lon="0.11096">
        <ele>1744</ele>
        <time>2011-07-21T13:29:22Z</time>
      </trkpt>
      <trkpt lat="42.88426" lon="0.11091">
        <ele>1744</ele>
        <time>2011-07-21T13:29:26Z</time>
      </trkpt>
      <trkpt lat="42.8843" lon="0.11086">
        <ele>1744</ele>
        <time>2011-07-21T13:29:30Z</time>
      </trkpt>
      <trkpt lat="42.88435" lon="0.1108">
        <ele>1743</ele>
        <time>2011-07-21T13:29:35Z</time>
      </trkpt>
      <trkpt lat="42.88437" lon="0.11077">
        <ele>1743</ele>
        <time>2011-07-21T13:29:37Z</time>
      </trkpt>
      <trkpt lat="42.88438" lon="0.11073">
        <ele>1743</ele>
        <time>2011-07-21T13:29:39Z</time>
      </trkpt>
      <trkpt lat="42.88441" lon="0.11068">
        <ele>1743</ele>
        <time>2011-07-21T13:29:43Z</time>
      </trkpt>
      <trkpt lat="42.88444" lon="0.11063">
        <ele>1743</ele>
        <time>2011-07-21T13:29:46Z</time>
      </trkpt>
      <trkpt lat="42.8845" lon="0.11052">
        <ele>1742</ele>
        <time>2011-07-21T13:29:54Z</time>
      </trkpt>
      <trkpt lat="42.88451" lon="0.11049">
        <ele>1742</ele>
        <time>2011-07-21T13:29:56Z</time>
      </trkpt>
      <trkpt lat="42.88456" lon="0.11044">
        <ele>1742</ele>
        <time>2011-07-21T13:30:00Z</time>
      </trkpt>
      <trkpt lat="42.88461" lon="0.11039">
        <ele>1741</ele>
        <time>2011-07-21T13:30:05Z</time>
      </trkpt>
      <trkpt lat="42.88465" lon="0.11034">
        <ele>1741</ele>
        <time>2011-07-21T13:30:09Z</time>
      </trkpt>
      <trkpt lat="42.88467" lon="0.11032">
        <ele>1740</ele>
        <time>2011-07-21T13:30:11Z</time>
      </trkpt>
      <trkpt lat="42.88471" lon="0.11029">
        <ele>1740</ele>
        <time>2011-07-21T13:30:14Z</time>
      </trkpt>
      <trkpt lat="42.88477" lon="0.11023">
        <ele>1740</ele>
        <time>2011-07-21T13:30:20Z</time>
      </trkpt>
      <trkpt lat="42.88478" lon="0.11021">
        <ele>1739</ele>
        <time>2011-07-21T13:30:22Z</time>
      </trkpt>
      <trkpt lat="42.8848" lon="0.11018">
        <ele>1739</ele>
        <time>2011-07-21T13:30:24Z</time>
      </trkpt>
      <trkpt lat="42.88485" lon="0.11015">
        <ele>1739</ele>
        <time>2011-07-21T13:30:28Z</time>
      </trkpt>
      <trkpt lat="42.8849" lon="0.11012">
        <ele>1738</ele>
        <time>2011-07-21T13:30:32Z</time>
      </trkpt>
      <trkpt lat="42.88498" lon="0.11005">
        <ele>1737</ele>
        <time>2011-07-21T13:30:40Z</time>
      </trkpt>
      <trkpt lat="42.885" lon="0.11003">
        <ele>1737</ele>
        <time>2011-07-21T13:30:42Z</time>
      </trkpt>
      <trkpt lat="42.88504" lon="0.10997">
        <ele>1737</ele>
        <time>2011-07-21T13:30:47Z</time>
      </trkpt>
      <trkpt lat="42.88509" lon="0.10992">
        <ele>1735</ele>
        <time>2011-07-21T13:30:52Z</time>
      </trkpt>
      <trkpt lat="42.88516" lon="0.10985">
        <ele>1735</ele>
        <time>2011-07-21T13:30:58Z</time>
      </trkpt>
      <trkpt lat="42.88517" lon="0.10983">
        <ele>1735</ele>
        <time>2011-07-21T13:31:00Z</time>
      </trkpt>
      <trkpt lat="42.8852" lon="0.10981">
        <ele>1734</ele>
        <time>2011-07-21T13:31:02Z</time>
      </trkpt>
      <trkpt lat="42.88527" lon="0.10972">
        <ele>1733</ele>
        <time>2011-07-21T13:31:09Z</time>
      </trkpt>
      <trkpt lat="42.88532" lon="0.10965">
        <ele>1732</ele>
        <time>2011-07-21T13:31:15Z</time>
      </trkpt>
      <trkpt lat="42.88537" lon="0.1096">
        <ele>1731</ele>
        <time>2011-07-21T13:31:20Z</time>
      </trkpt>
      <trkpt lat="42.88541" lon="0.10955">
        <ele>1731</ele>
        <time>2011-07-21T13:31:24Z</time>
      </trkpt>
      <trkpt lat="42.88546" lon="0.10949">
        <ele>1730</ele>
        <time>2011-07-21T13:31:29Z</time>
      </trkpt>
      <trkpt lat="42.88549" lon="0.10945">
        <ele>1730</ele>
        <time>2011-07-21T13:31:33Z</time>
      </trkpt>
      <trkpt lat="42.88551" lon="0.10943">
        <ele>1729</ele>
        <time>2011-07-21T13:31:35Z</time>
      </trkpt>
      <trkpt lat="42.88557" lon="0.10937">
        <ele>1728</ele>
        <time>2011-07-21T13:31:41Z</time>
      </trkpt>
      <trkpt lat="42.88561" lon="0.10934">
        <ele>1727</ele>
        <time>2011-07-21T13:31:44Z</time>
      </trkpt>
      <trkpt lat="42.88563" lon="0.10933">
        <ele>1727</ele>
        <time>2011-07-21T13:31:46Z</time>
      </trkpt>
      <trkpt lat="42.8857" lon="0.10926">
        <ele>1726</ele>
        <time>2011-07-21T13:31:53Z</time>
      </trkpt>
      <trkpt lat="42.88572" lon="0.10924">
        <ele>1725</ele>
        <time>2011-07-21T13:31:55Z</time>
      </trkpt>
      <trkpt lat="42.88576" lon="0.1092">
        <ele>1724</ele>
        <time>2011-07-21T13:31:59Z</time>
      </trkpt>
      <trkpt lat="42.88578" lon="0.10918">
        <ele>1724</ele>
        <time>2011-07-21T13:32:01Z</time>
      </trkpt>
      <trkpt lat="42.88581" lon="0.10917">
        <ele>1724</ele>
        <time>2011-07-21T13:32:03Z</time>
      </trkpt>
      <trkpt lat="42.8859" lon="0.1091">
        <ele>1722</ele>
        <time>2011-07-21T13:32:12Z</time>
      </trkpt>
      <trkpt lat="42.88596" lon="0.10908">
        <ele>1721</ele>
        <time>2011-07-21T13:32:17Z</time>
      </trkpt>
      <trkpt lat="42.88598" lon="0.10906">
        <ele>1721</ele>
        <time>2011-07-21T13:32:19Z</time>
      </trkpt>
      <trkpt lat="42.88607" lon="0.10899">
        <ele>1721</ele>
        <time>2011-07-21T13:32:27Z</time>
      </trkpt>
      <trkpt lat="42.88609" lon="0.10897">
        <ele>1721</ele>
        <time>2011-07-21T13:32:29Z</time>
      </trkpt>
      <trkpt lat="42.8861" lon="0.10895">
        <ele>1720</ele>
        <time>2011-07-21T13:32:31Z</time>
      </trkpt>
      <trkpt lat="42.88615" lon="0.10894">
        <ele>1719</ele>
        <time>2011-07-21T13:32:35Z</time>
      </trkpt>
      <trkpt lat="42.88618" lon="0.10894">
        <ele>1719</ele>
        <time>2011-07-21T13:32:37Z</time>
      </trkpt>
      <trkpt lat="42.88625" lon="0.10894">
        <ele>1718</ele>
        <time>2011-07-21T13:32:43Z</time>
      </trkpt>
      <trkpt lat="42.88628" lon="0.10895">
        <ele>1717</ele>
        <time>2011-07-21T13:32:45Z</time>
      </trkpt>
      <trkpt lat="42.8863" lon="0.10897">
        <ele>1717</ele>
        <time>2011-07-21T13:32:47Z</time>
      </trkpt>
      <trkpt lat="42.88634" lon="0.10898">
        <ele>1716</ele>
        <time>2011-07-21T13:32:51Z</time>
      </trkpt>
      <trkpt lat="42.88636" lon="0.10897">
        <ele>1715</ele>
        <time>2011-07-21T13:32:53Z</time>
      </trkpt>
      <trkpt lat="42.88638" lon="0.10895">
        <ele>1715</ele>
        <time>2011-07-21T13:32:55Z</time>
      </trkpt>
      <trkpt lat="42.88639" lon="0.10889">
        <ele>1714</ele>
        <time>2011-07-21T13:32:59Z</time>
      </trkpt>
      <trkpt lat="42.88638" lon="0.10885">
        <ele>1714</ele>
        <time>2011-07-21T13:33:02Z</time>
      </trkpt>
      <trkpt lat="42.88635" lon="0.10882">
        <ele>1713</ele>
        <time>2011-07-21T13:33:05Z</time>
      </trkpt>
      <trkpt lat="42.88632" lon="0.10876">
        <ele>1711</ele>
        <time>2011-07-21T13:33:09Z</time>
      </trkpt>
      <trkpt lat="42.88631" lon="0.10874">
        <ele>1711</ele>
        <time>2011-07-21T13:33:11Z</time>
      </trkpt>
      <trkpt lat="42.88628" lon="0.10864">
        <ele>1710</ele>
        <time>2011-07-21T13:33:18Z</time>
      </trkpt>
      <trkpt lat="42.88627" lon="0.1086">
        <ele>1709</ele>
        <time>2011-07-21T13:33:20Z</time>
      </trkpt>
      <trkpt lat="42.88626" lon="0.10857">
        <ele>1709</ele>
        <time>2011-07-21T13:33:22Z</time>
      </trkpt>
      <trkpt lat="42.88626" lon="0.1085">
        <ele>1708</ele>
        <time>2011-07-21T13:33:26Z</time>
      </trkpt>
      <trkpt lat="42.88623" lon="0.10844">
        <ele>1707</ele>
        <time>2011-07-21T13:33:31Z</time>
      </trkpt>
      <trkpt lat="42.88621" lon="0.10837">
        <ele>1706</ele>
        <time>2011-07-21T13:33:35Z</time>
      </trkpt>
      <trkpt lat="42.88621" lon="0.10834">
        <ele>1706</ele>
        <time>2011-07-21T13:33:37Z</time>
      </trkpt>
      <trkpt lat="42.8862" lon="0.1083">
        <ele>1706</ele>
        <time>2011-07-21T13:33:39Z</time>
      </trkpt>
      <trkpt lat="42.88618" lon="0.10821">
        <ele>1704</ele>
        <time>2011-07-21T13:33:45Z</time>
      </trkpt>
      <trkpt lat="42.88618" lon="0.10818">
        <ele>1704</ele>
        <time>2011-07-21T13:33:47Z</time>
      </trkpt>
      <trkpt lat="42.88622" lon="0.10814">
        <ele>1704</ele>
        <time>2011-07-21T13:33:51Z</time>
      </trkpt>
      <trkpt lat="42.88625" lon="0.10815">
        <ele>1703</ele>
        <time>2011-07-21T13:33:53Z</time>
      </trkpt>
      <trkpt lat="42.88628" lon="0.10816">
        <ele>1703</ele>
        <time>2011-07-21T13:33:55Z</time>
      </trkpt>
      <trkpt lat="42.88631" lon="0.10821">
        <ele>1702</ele>
        <time>2011-07-21T13:33:59Z</time>
      </trkpt>
      <trkpt lat="42.88634" lon="0.10826">
        <ele>1702</ele>
        <time>2011-07-21T13:34:03Z</time>
      </trkpt>
      <trkpt lat="42.88637" lon="0.1083">
        <ele>1701</ele>
        <time>2011-07-21T13:34:06Z</time>
      </trkpt>
      <trkpt lat="42.88641" lon="0.10835">
        <ele>1700</ele>
        <time>2011-07-21T13:34:11Z</time>
      </trkpt>
      <trkpt lat="42.88643" lon="0.10837">
        <ele>1700</ele>
        <time>2011-07-21T13:34:13Z</time>
      </trkpt>
      <trkpt lat="42.88645" lon="0.10838">
        <ele>1700</ele>
        <time>2011-07-21T13:34:15Z</time>
      </trkpt>
      <trkpt lat="42.88651" lon="0.1084">
        <ele>1699</ele>
        <time>2011-07-21T13:34:20Z</time>
      </trkpt>
      <trkpt lat="42.88653" lon="0.10841">
        <ele>1699</ele>
        <time>2011-07-21T13:34:22Z</time>
      </trkpt>
      <trkpt lat="42.88655" lon="0.10841">
        <ele>1698</ele>
        <time>2011-07-21T13:34:24Z</time>
      </trkpt>
      <trkpt lat="42.88663" lon="0.10843">
        <ele>1697</ele>
        <time>2011-07-21T13:34:32Z</time>
      </trkpt>
      <trkpt lat="42.88667" lon="0.10845">
        <ele>1697</ele>
        <time>2011-07-21T13:34:35Z</time>
      </trkpt>
      <trkpt lat="42.88671" lon="0.10844">
        <ele>1696</ele>
        <time>2011-07-21T13:34:39Z</time>
      </trkpt>
      <trkpt lat="42.88675" lon="0.10845">
        <ele>1695</ele>
        <time>2011-07-21T13:34:42Z</time>
      </trkpt>
      <trkpt lat="42.88677" lon="0.10844">
        <ele>1695</ele>
        <time>2011-07-21T13:34:44Z</time>
      </trkpt>
      <trkpt lat="42.88682" lon="0.10843">
        <ele>1695</ele>
        <time>2011-07-21T13:34:48Z</time>
      </trkpt>
      <trkpt lat="42.88684" lon="0.10842">
        <ele>1694</ele>
        <time>2011-07-21T13:34:50Z</time>
      </trkpt>
      <trkpt lat="42.88686" lon="0.10841">
        <ele>1694</ele>
        <time>2011-07-21T13:34:52Z</time>
      </trkpt>
      <trkpt lat="42.88692" lon="0.10842">
        <ele>1694</ele>
        <time>2011-07-21T13:34:57Z</time>
      </trkpt>
      <trkpt lat="42.88694" lon="0.10841">
        <ele>1694</ele>
        <time>2011-07-21T13:34:59Z</time>
      </trkpt>
      <trkpt lat="42.88697" lon="0.1084">
        <ele>1694</ele>
        <time>2011-07-21T13:35:01Z</time>
      </trkpt>
      <trkpt lat="42.88702" lon="0.1084">
        <ele>1694</ele>
        <time>2011-07-21T13:35:05Z</time>
      </trkpt>
      <trkpt lat="42.88704" lon="0.10838">
        <ele>1694</ele>
        <time>2011-07-21T13:35:07Z</time>
      </trkpt>
      <trkpt lat="42.88706" lon="0.10836">
        <ele>1694</ele>
        <time>2011-07-21T13:35:09Z</time>
      </trkpt>
      <trkpt lat="42.8871" lon="0.10835">
        <ele>1693</ele>
        <time>2011-07-21T13:35:13Z</time>
      </trkpt>
      <trkpt lat="42.88713" lon="0.10835">
        <ele>1693</ele>
        <time>2011-07-21T13:35:15Z</time>
      </trkpt>
      <trkpt lat="42.88715" lon="0.10836">
        <ele>1693</ele>
        <time>2011-07-21T13:35:17Z</time>
      </trkpt>
      <trkpt lat="42.88719" lon="0.10838">
        <ele>1692</ele>
        <time>2011-07-21T13:35:21Z</time>
      </trkpt>
      <trkpt lat="42.88721" lon="0.10836">
        <ele>1692</ele>
        <time>2011-07-21T13:35:23Z</time>
      </trkpt>
      <trkpt lat="42.88723" lon="0.10835">
        <ele>1692</ele>
        <time>2011-07-21T13:35:25Z</time>
      </trkpt>
      <trkpt lat="42.88728" lon="0.10834">
        <ele>1691</ele>
        <time>2011-07-21T13:35:29Z</time>
      </trkpt>
      <trkpt lat="42.8873" lon="0.10834">
        <ele>1691</ele>
        <time>2011-07-21T13:35:31Z</time>
      </trkpt>
      <trkpt lat="42.88732" lon="0.10835">
        <ele>1690</ele>
        <time>2011-07-21T13:35:34Z</time>
      </trkpt>
      <trkpt lat="42.88737" lon="0.10837">
        <ele>1689</ele>
        <time>2011-07-21T13:35:39Z</time>
      </trkpt>
      <trkpt lat="42.88739" lon="0.10836">
        <ele>1688</ele>
        <time>2011-07-21T13:35:41Z</time>
      </trkpt>
      <trkpt lat="42.88743" lon="0.10835">
        <ele>1688</ele>
        <time>2011-07-21T13:35:44Z</time>
      </trkpt>
      <trkpt lat="42.88749" lon="0.10833">
        <ele>1686</ele>
        <time>2011-07-21T13:35:50Z</time>
      </trkpt>
      <trkpt lat="42.88752" lon="0.10833">
        <ele>1686</ele>
        <time>2011-07-21T13:35:52Z</time>
      </trkpt>
      <trkpt lat="42.88754" lon="0.10835">
        <ele>1685</ele>
        <time>2011-07-21T13:35:54Z</time>
      </trkpt>
      <trkpt lat="42.88758" lon="0.10836">
        <ele>1684</ele>
        <time>2011-07-21T13:35:58Z</time>
      </trkpt>
      <trkpt lat="42.88764" lon="0.10836">
        <ele>1684</ele>
        <time>2011-07-21T13:36:02Z</time>
      </trkpt>
      <trkpt lat="42.88768" lon="0.10835">
        <ele>1683</ele>
        <time>2011-07-21T13:36:06Z</time>
      </trkpt>
      <trkpt lat="42.88773" lon="0.10833">
        <ele>1683</ele>
        <time>2011-07-21T13:36:10Z</time>
      </trkpt>
      <trkpt lat="42.88778" lon="0.10831">
        <ele>1682</ele>
        <time>2011-07-21T13:36:14Z</time>
      </trkpt>
      <trkpt lat="42.88781" lon="0.10831">
        <ele>1682</ele>
        <time>2011-07-21T13:36:16Z</time>
      </trkpt>
      <trkpt lat="42.88784" lon="0.10831">
        <ele>1681</ele>
        <time>2011-07-21T13:36:18Z</time>
      </trkpt>
      <trkpt lat="42.88789" lon="0.1083">
        <ele>1681</ele>
        <time>2011-07-21T13:36:22Z</time>
      </trkpt>
      <trkpt lat="42.88791" lon="0.10829">
        <ele>1681</ele>
        <time>2011-07-21T13:36:24Z</time>
      </trkpt>
      <trkpt lat="42.88794" lon="0.10827">
        <ele>1681</ele>
        <time>2011-07-21T13:36:26Z</time>
      </trkpt>
      <trkpt lat="42.88801" lon="0.10824">
        <ele>1680</ele>
        <time>2011-07-21T13:36:32Z</time>
      </trkpt>
      <trkpt lat="42.88803" lon="0.10824">
        <ele>1680</ele>
        <time>2011-07-21T13:36:34Z</time>
      </trkpt>
      <trkpt lat="42.88808" lon="0.10821">
        <ele>1679</ele>
        <time>2011-07-21T13:36:38Z</time>
      </trkpt>
      <trkpt lat="42.8881" lon="0.10821">
        <ele>1678</ele>
        <time>2011-07-21T13:36:40Z</time>
      </trkpt>
      <trkpt lat="42.88823" lon="0.10817">
        <ele>1677</ele>
        <time>2011-07-21T13:36:50Z</time>
      </trkpt>
      <trkpt lat="42.88828" lon="0.10814">
        <ele>1677</ele>
        <time>2011-07-21T13:36:54Z</time>
      </trkpt>
      <trkpt lat="42.88839" lon="0.10807">
        <ele>1677</ele>
        <time>2011-07-21T13:37:04Z</time>
      </trkpt>
      <trkpt lat="42.88842" lon="0.10805">
        <ele>1677</ele>
        <time>2011-07-21T13:37:06Z</time>
      </trkpt>
      <trkpt lat="42.88846" lon="0.10802">
        <ele>1677</ele>
        <time>2011-07-21T13:37:10Z</time>
      </trkpt>
      <trkpt lat="42.88848" lon="0.108">
        <ele>1677</ele>
        <time>2011-07-21T13:37:12Z</time>
      </trkpt>
      <trkpt lat="42.8885" lon="0.10799">
        <ele>1677</ele>
        <time>2011-07-21T13:37:14Z</time>
      </trkpt>
      <trkpt lat="42.88855" lon="0.10797">
        <ele>1677</ele>
        <time>2011-07-21T13:37:18Z</time>
      </trkpt>
      <trkpt lat="42.88858" lon="0.10797">
        <ele>1676</ele>
        <time>2011-07-21T13:37:21Z</time>
      </trkpt>
      <trkpt lat="42.88869" lon="0.10794">
        <ele>1674</ele>
        <time>2011-07-21T13:37:30Z</time>
      </trkpt>
      <trkpt lat="42.88872" lon="0.10793">
        <ele>1674</ele>
        <time>2011-07-21T13:37:32Z</time>
      </trkpt>
      <trkpt lat="42.88877" lon="0.10793">
        <ele>1673</ele>
        <time>2011-07-21T13:37:36Z</time>
      </trkpt>
      <trkpt lat="42.88879" lon="0.10792">
        <ele>1672</ele>
        <time>2011-07-21T13:37:38Z</time>
      </trkpt>
      <trkpt lat="42.88881" lon="0.10791">
        <ele>1672</ele>
        <time>2011-07-21T13:37:40Z</time>
      </trkpt>
      <trkpt lat="42.88886" lon="0.10789">
        <ele>1671</ele>
        <time>2011-07-21T13:37:44Z</time>
      </trkpt>
      <trkpt lat="42.88891" lon="0.10787">
        <ele>1670</ele>
        <time>2011-07-21T13:37:48Z</time>
      </trkpt>
      <trkpt lat="42.88896" lon="0.10785">
        <ele>1669</ele>
        <time>2011-07-21T13:37:53Z</time>
      </trkpt>
      <trkpt lat="42.88898" lon="0.10783">
        <ele>1668</ele>
        <time>2011-07-21T13:37:55Z</time>
      </trkpt>
      <trkpt lat="42.889" lon="0.10781">
        <ele>1668</ele>
        <time>2011-07-21T13:37:57Z</time>
      </trkpt>
      <trkpt lat="42.88904" lon="0.10777">
        <ele>1668</ele>
        <time>2011-07-21T13:38:01Z</time>
      </trkpt>
      <trkpt lat="42.88906" lon="0.10774">
        <ele>1667</ele>
        <time>2011-07-21T13:38:03Z</time>
      </trkpt>
      <trkpt lat="42.88908" lon="0.10772">
        <ele>1667</ele>
        <time>2011-07-21T13:38:05Z</time>
      </trkpt>
      <trkpt lat="42.88912" lon="0.10768">
        <ele>1667</ele>
        <time>2011-07-21T13:38:09Z</time>
      </trkpt>
      <trkpt lat="42.88914" lon="0.10766">
        <ele>1667</ele>
        <time>2011-07-21T13:38:11Z</time>
      </trkpt>
      <trkpt lat="42.88916" lon="0.10764">
        <ele>1666</ele>
        <time>2011-07-21T13:38:13Z</time>
      </trkpt>
      <trkpt lat="42.88927" lon="0.10756">
        <ele>1666</ele>
        <time>2011-07-21T13:38:23Z</time>
      </trkpt>
      <trkpt lat="42.88932" lon="0.10753">
        <ele>1666</ele>
        <time>2011-07-21T13:38:27Z</time>
      </trkpt>
      <trkpt lat="42.88935" lon="0.10751">
        <ele>1666</ele>
        <time>2011-07-21T13:38:30Z</time>
      </trkpt>
      <trkpt lat="42.88939" lon="0.10749">
        <ele>1666</ele>
        <time>2011-07-21T13:38:33Z</time>
      </trkpt>
      <trkpt lat="42.88944" lon="0.10746">
        <ele>1666</ele>
        <time>2011-07-21T13:38:37Z</time>
      </trkpt>
      <trkpt lat="42.88947" lon="0.10745">
        <ele>1666</ele>
        <time>2011-07-21T13:38:40Z</time>
      </trkpt>
      <trkpt lat="42.8895" lon="0.10744">
        <ele>1666</ele>
        <time>2011-07-21T13:38:42Z</time>
      </trkpt>
      <trkpt lat="42.8896" lon="0.10743">
        <ele>1665</ele>
        <time>2011-07-21T13:38:50Z</time>
      </trkpt>
      <trkpt lat="42.88962" lon="0.10744">
        <ele>1664</ele>
        <time>2011-07-21T13:38:52Z</time>
      </trkpt>
      <trkpt lat="42.88968" lon="0.10744">
        <ele>1664</ele>
        <time>2011-07-21T13:38:57Z</time>
      </trkpt>
      <trkpt lat="42.8898" lon="0.10744">
        <ele>1662</ele>
        <time>2011-07-21T13:39:07Z</time>
      </trkpt>
      <trkpt lat="42.88982" lon="0.10745">
        <ele>1662</ele>
        <time>2011-07-21T13:39:09Z</time>
      </trkpt>
      <trkpt lat="42.88992" lon="0.10746">
        <ele>1661</ele>
        <time>2011-07-21T13:39:16Z</time>
      </trkpt>
      <trkpt lat="42.89003" lon="0.10748">
        <ele>1661</ele>
        <time>2011-07-21T13:39:25Z</time>
      </trkpt>
      <trkpt lat="42.89006" lon="0.10748">
        <ele>1661</ele>
        <time>2011-07-21T13:39:27Z</time>
      </trkpt>
      <trkpt lat="42.89014" lon="0.10748">
        <ele>1659</ele>
        <time>2011-07-21T13:39:34Z</time>
      </trkpt>
      <trkpt lat="42.89016" lon="0.10748">
        <ele>1659</ele>
        <time>2011-07-21T13:39:36Z</time>
      </trkpt>
      <trkpt lat="42.89019" lon="0.10748">
        <ele>1659</ele>
        <time>2011-07-21T13:39:38Z</time>
      </trkpt>
      <trkpt lat="42.89024" lon="0.10747">
        <ele>1658</ele>
        <time>2011-07-21T13:39:42Z</time>
      </trkpt>
      <trkpt lat="42.89026" lon="0.10747">
        <ele>1657</ele>
        <time>2011-07-21T13:39:44Z</time>
      </trkpt>
      <trkpt lat="42.89041" lon="0.10746">
        <ele>1655</ele>
        <time>2011-07-21T13:39:56Z</time>
      </trkpt>
      <trkpt lat="42.89047" lon="0.10744">
        <ele>1655</ele>
        <time>2011-07-21T13:40:06Z</time>
      </trkpt>
      <trkpt lat="42.89049" lon="0.10742">
        <ele>1655</ele>
        <time>2011-07-21T13:40:08Z</time>
      </trkpt>
      <trkpt lat="42.89052" lon="0.10741">
        <ele>1654</ele>
        <time>2011-07-21T13:40:10Z</time>
      </trkpt>
      <trkpt lat="42.89057" lon="0.10738">
        <ele>1654</ele>
        <time>2011-07-21T13:40:14Z</time>
      </trkpt>
      <trkpt lat="42.89059" lon="0.10736">
        <ele>1653</ele>
        <time>2011-07-21T13:40:16Z</time>
      </trkpt>
      <trkpt lat="42.89063" lon="0.10734">
        <ele>1653</ele>
        <time>2011-07-21T13:40:19Z</time>
      </trkpt>
      <trkpt lat="42.89066" lon="0.10731">
        <ele>1651</ele>
        <time>2011-07-21T13:40:29Z</time>
      </trkpt>
      <trkpt lat="42.89069" lon="0.10727">
        <ele>1651</ele>
        <time>2011-07-21T13:40:32Z</time>
      </trkpt>
      <trkpt lat="42.89071" lon="0.10725">
        <ele>1651</ele>
        <time>2011-07-21T13:40:34Z</time>
      </trkpt>
      <trkpt lat="42.89078" lon="0.10721">
        <ele>1650</ele>
        <time>2011-07-21T13:40:39Z</time>
      </trkpt>
      <trkpt lat="42.89082" lon="0.1072">
        <ele>1649</ele>
        <time>2011-07-21T13:40:42Z</time>
      </trkpt>
      <trkpt lat="42.89086" lon="0.10721">
        <ele>1649</ele>
        <time>2011-07-21T13:40:45Z</time>
      </trkpt>
      <trkpt lat="42.89098" lon="0.10726">
        <ele>1646</ele>
        <time>2011-07-21T13:40:55Z</time>
      </trkpt>
      <trkpt lat="42.89105" lon="0.10728">
        <ele>1646</ele>
        <time>2011-07-21T13:41:00Z</time>
      </trkpt>
      <trkpt lat="42.89107" lon="0.10728">
        <ele>1645</ele>
        <time>2011-07-21T13:41:02Z</time>
      </trkpt>
      <trkpt lat="42.89111" lon="0.10728">
        <ele>1645</ele>
        <time>2011-07-21T13:41:05Z</time>
      </trkpt>
      <trkpt lat="42.89118" lon="0.10727">
        <ele>1643</ele>
        <time>2011-07-21T13:41:10Z</time>
      </trkpt>
      <trkpt lat="42.89124" lon="0.10724">
        <ele>1642</ele>
        <time>2011-07-21T13:41:15Z</time>
      </trkpt>
      <trkpt lat="42.89134" lon="0.10718">
        <ele>1642</ele>
        <time>2011-07-21T13:41:23Z</time>
      </trkpt>
      <trkpt lat="42.89145" lon="0.10713">
        <ele>1640</ele>
        <time>2011-07-21T13:41:31Z</time>
      </trkpt>
      <trkpt lat="42.89147" lon="0.10712">
        <ele>1640</ele>
        <time>2011-07-21T13:41:33Z</time>
      </trkpt>
      <trkpt lat="42.89151" lon="0.1071">
        <ele>1639</ele>
        <time>2011-07-21T13:41:36Z</time>
      </trkpt>
      <trkpt lat="42.89157" lon="0.10709">
        <ele>1639</ele>
        <time>2011-07-21T13:41:41Z</time>
      </trkpt>
      <trkpt lat="42.8917" lon="0.1071">
        <ele>1637</ele>
        <time>2011-07-21T13:41:51Z</time>
      </trkpt>
      <trkpt lat="42.89172" lon="0.10711">
        <ele>1636</ele>
        <time>2011-07-21T13:41:53Z</time>
      </trkpt>
      <trkpt lat="42.89175" lon="0.10711">
        <ele>1636</ele>
        <time>2011-07-21T13:41:55Z</time>
      </trkpt>
      <trkpt lat="42.89185" lon="0.10712">
        <ele>1635</ele>
        <time>2011-07-21T13:42:03Z</time>
      </trkpt>
      <trkpt lat="42.89191" lon="0.10714">
        <ele>1634</ele>
        <time>2011-07-21T13:42:08Z</time>
      </trkpt>
      <trkpt lat="42.89193" lon="0.10715">
        <ele>1634</ele>
        <time>2011-07-21T13:42:10Z</time>
      </trkpt>
      <trkpt lat="42.89195" lon="0.10715">
        <ele>1634</ele>
        <time>2011-07-21T13:42:12Z</time>
      </trkpt>
      <trkpt lat="42.89201" lon="0.10717">
        <ele>1633</ele>
        <time>2011-07-21T13:42:17Z</time>
      </trkpt>
      <trkpt lat="42.89208" lon="0.10718">
        <ele>1632</ele>
        <time>2011-07-21T13:42:22Z</time>
      </trkpt>
      <trkpt lat="42.89217" lon="0.1072">
        <ele>1631</ele>
        <time>2011-07-21T13:42:29Z</time>
      </trkpt>
      <trkpt lat="42.89221" lon="0.10721">
        <ele>1631</ele>
        <time>2011-07-21T13:42:32Z</time>
      </trkpt>
      <trkpt lat="42.89227" lon="0.1072">
        <ele>1630</ele>
        <time>2011-07-21T13:42:37Z</time>
      </trkpt>
      <trkpt lat="42.8923" lon="0.1072">
        <ele>1630</ele>
        <time>2011-07-21T13:42:39Z</time>
      </trkpt>
      <trkpt lat="42.89234" lon="0.1072">
        <ele>1629</ele>
        <time>2011-07-21T13:42:42Z</time>
      </trkpt>
      <trkpt lat="42.89241" lon="0.10719">
        <ele>1629</ele>
        <time>2011-07-21T13:42:47Z</time>
      </trkpt>
      <trkpt lat="42.89245" lon="0.10719">
        <ele>1628</ele>
        <time>2011-07-21T13:42:50Z</time>
      </trkpt>
      <trkpt lat="42.89247" lon="0.1072">
        <ele>1628</ele>
        <time>2011-07-21T13:42:52Z</time>
      </trkpt>
      <trkpt lat="42.8926" lon="0.10725">
        <ele>1625</ele>
        <time>2011-07-21T13:43:02Z</time>
      </trkpt>
      <trkpt lat="42.89272" lon="0.10728">
        <ele>1624</ele>
        <time>2011-07-21T13:43:12Z</time>
      </trkpt>
      <trkpt lat="42.89282" lon="0.10729">
        <ele>1623</ele>
        <time>2011-07-21T13:43:19Z</time>
      </trkpt>
      <trkpt lat="42.89284" lon="0.10729">
        <ele>1622</ele>
        <time>2011-07-21T13:43:21Z</time>
      </trkpt>
      <trkpt lat="42.89289" lon="0.10731">
        <ele>1621</ele>
        <time>2011-07-21T13:43:25Z</time>
      </trkpt>
      <trkpt lat="42.89292" lon="0.10732">
        <ele>1621</ele>
        <time>2011-07-21T13:43:27Z</time>
      </trkpt>
      <trkpt lat="42.89296" lon="0.10732">
        <ele>1620</ele>
        <time>2011-07-21T13:43:30Z</time>
      </trkpt>
      <trkpt lat="42.89304" lon="0.10735">
        <ele>1619</ele>
        <time>2011-07-21T13:43:37Z</time>
      </trkpt>
      <trkpt lat="42.89308" lon="0.10736">
        <ele>1618</ele>
        <time>2011-07-21T13:43:40Z</time>
      </trkpt>
      <trkpt lat="42.89315" lon="0.10738">
        <ele>1617</ele>
        <time>2011-07-21T13:43:46Z</time>
      </trkpt>
      <trkpt lat="42.89321" lon="0.10741">
        <ele>1616</ele>
        <time>2011-07-21T13:43:51Z</time>
      </trkpt>
      <trkpt lat="42.89326" lon="0.10747">
        <ele>1615</ele>
        <time>2011-07-21T13:43:56Z</time>
      </trkpt>
      <trkpt lat="42.8933" lon="0.10749">
        <ele>1615</ele>
        <time>2011-07-21T13:43:59Z</time>
      </trkpt>
      <trkpt lat="42.89331" lon="0.10752">
        <ele>1615</ele>
        <time>2011-07-21T13:44:01Z</time>
      </trkpt>
      <trkpt lat="42.89337" lon="0.10759">
        <ele>1614</ele>
        <time>2011-07-21T13:44:07Z</time>
      </trkpt>
      <trkpt lat="42.89341" lon="0.10763">
        <ele>1614</ele>
        <time>2011-07-21T13:44:11Z</time>
      </trkpt>
      <trkpt lat="42.89344" lon="0.10764">
        <ele>1613</ele>
        <time>2011-07-21T13:44:13Z</time>
      </trkpt>
      <trkpt lat="42.89349" lon="0.10766">
        <ele>1613</ele>
        <time>2011-07-21T13:44:17Z</time>
      </trkpt>
      <trkpt lat="42.89352" lon="0.10766">
        <ele>1612</ele>
        <time>2011-07-21T13:44:20Z</time>
      </trkpt>
      <trkpt lat="42.89355" lon="0.10765">
        <ele>1612</ele>
        <time>2011-07-21T13:44:22Z</time>
      </trkpt>
      <trkpt lat="42.89362" lon="0.10762">
        <ele>1612</ele>
        <time>2011-07-21T13:44:27Z</time>
      </trkpt>
      <trkpt lat="42.89368" lon="0.1076">
        <ele>1611</ele>
        <time>2011-07-21T13:44:32Z</time>
      </trkpt>
      <trkpt lat="42.89374" lon="0.10759">
        <ele>1610</ele>
        <time>2011-07-21T13:44:37Z</time>
      </trkpt>
      <trkpt lat="42.89381" lon="0.10759">
        <ele>1608</ele>
        <time>2011-07-21T13:44:42Z</time>
      </trkpt>
      <trkpt lat="42.89388" lon="0.10759">
        <ele>1607</ele>
        <time>2011-07-21T13:44:48Z</time>
      </trkpt>
      <trkpt lat="42.89397" lon="0.10761">
        <ele>1606</ele>
        <time>2011-07-21T13:44:55Z</time>
      </trkpt>
      <trkpt lat="42.89409" lon="0.10761">
        <ele>1603</ele>
        <time>2011-07-21T13:45:05Z</time>
      </trkpt>
      <trkpt lat="42.89412" lon="0.10761">
        <ele>1603</ele>
        <time>2011-07-21T13:45:07Z</time>
      </trkpt>
      <trkpt lat="42.89415" lon="0.1076">
        <ele>1603</ele>
        <time>2011-07-21T13:45:10Z</time>
      </trkpt>
      <trkpt lat="42.89422" lon="0.10757">
        <ele>1602</ele>
        <time>2011-07-21T13:45:15Z</time>
      </trkpt>
      <trkpt lat="42.89424" lon="0.10757">
        <ele>1602</ele>
        <time>2011-07-21T13:45:17Z</time>
      </trkpt>
      <trkpt lat="42.89428" lon="0.10756">
        <ele>1601</ele>
        <time>2011-07-21T13:45:20Z</time>
      </trkpt>
      <trkpt lat="42.89434" lon="0.10755">
        <ele>1600</ele>
        <time>2011-07-21T13:45:25Z</time>
      </trkpt>
      <trkpt lat="42.89437" lon="0.10755">
        <ele>1599</ele>
        <time>2011-07-21T13:45:27Z</time>
      </trkpt>
      <trkpt lat="42.8945" lon="0.10752">
        <ele>1597</ele>
        <time>2011-07-21T13:45:37Z</time>
      </trkpt>
      <trkpt lat="42.89454" lon="0.10752">
        <ele>1597</ele>
        <time>2011-07-21T13:45:40Z</time>
      </trkpt>
      <trkpt lat="42.89463" lon="0.10753">
        <ele>1596</ele>
        <time>2011-07-21T13:45:47Z</time>
      </trkpt>
      <trkpt lat="42.89466" lon="0.10753">
        <ele>1595</ele>
        <time>2011-07-21T13:45:50Z</time>
      </trkpt>
      <trkpt lat="42.89488" lon="0.10757">
        <ele>1592</ele>
        <time>2011-07-21T13:46:07Z</time>
      </trkpt>
      <trkpt lat="42.89522" lon="0.10769">
        <ele>1587</ele>
        <time>2011-07-21T13:46:35Z</time>
      </trkpt>
      <trkpt lat="42.89524" lon="0.1077">
        <ele>1587</ele>
        <time>2011-07-21T13:46:37Z</time>
      </trkpt>
      <trkpt lat="42.89531" lon="0.10772">
        <ele>1586</ele>
        <time>2011-07-21T13:46:51Z</time>
      </trkpt>
      <trkpt lat="42.89533" lon="0.10773">
        <ele>1586</ele>
        <time>2011-07-21T13:46:53Z</time>
      </trkpt>
      <trkpt lat="42.89541" lon="0.10778">
        <ele>1584</ele>
        <time>2011-07-21T13:47:00Z</time>
      </trkpt>
      <trkpt lat="42.89547" lon="0.10781">
        <ele>1584</ele>
        <time>2011-07-21T13:47:05Z</time>
      </trkpt>
      <trkpt lat="42.89553" lon="0.10783">
        <ele>1583</ele>
        <time>2011-07-21T13:47:10Z</time>
      </trkpt>
      <trkpt lat="42.89572" lon="0.10788">
        <ele>1580</ele>
        <time>2011-07-21T13:47:25Z</time>
      </trkpt>
      <trkpt lat="42.89579" lon="0.10789">
        <ele>1579</ele>
        <time>2011-07-21T13:47:31Z</time>
      </trkpt>
      <trkpt lat="42.89582" lon="0.10789">
        <ele>1579</ele>
        <time>2011-07-21T13:47:33Z</time>
      </trkpt>
      <trkpt lat="42.89587" lon="0.10789">
        <ele>1578</ele>
        <time>2011-07-21T13:47:37Z</time>
      </trkpt>
      <trkpt lat="42.89593" lon="0.10789">
        <ele>1577</ele>
        <time>2011-07-21T13:47:42Z</time>
      </trkpt>
      <trkpt lat="42.89606" lon="0.10785">
        <ele>1576</ele>
        <time>2011-07-21T13:47:52Z</time>
      </trkpt>
      <trkpt lat="42.89614" lon="0.10782">
        <ele>1574</ele>
        <time>2011-07-21T13:47:59Z</time>
      </trkpt>
      <trkpt lat="42.89617" lon="0.1078">
        <ele>1574</ele>
        <time>2011-07-21T13:48:02Z</time>
      </trkpt>
      <trkpt lat="42.89626" lon="0.10774">
        <ele>1573</ele>
        <time>2011-07-21T13:48:10Z</time>
      </trkpt>
      <trkpt lat="42.89628" lon="0.10774">
        <ele>1573</ele>
        <time>2011-07-21T13:48:12Z</time>
      </trkpt>
      <trkpt lat="42.89634" lon="0.10773">
        <ele>1572</ele>
        <time>2011-07-21T13:48:17Z</time>
      </trkpt>
      <trkpt lat="42.89638" lon="0.10773">
        <ele>1571</ele>
        <time>2011-07-21T13:48:20Z</time>
      </trkpt>
      <trkpt lat="42.8964" lon="0.10773">
        <ele>1571</ele>
        <time>2011-07-21T13:48:22Z</time>
      </trkpt>
      <trkpt lat="42.89646" lon="0.10773">
        <ele>1570</ele>
        <time>2011-07-21T13:48:27Z</time>
      </trkpt>
      <trkpt lat="42.89653" lon="0.10773">
        <ele>1569</ele>
        <time>2011-07-21T13:48:32Z</time>
      </trkpt>
      <trkpt lat="42.89658" lon="0.10773">
        <ele>1568</ele>
        <time>2011-07-21T13:48:37Z</time>
      </trkpt>
      <trkpt lat="42.89659" lon="0.10769">
        <ele>1568</ele>
        <time>2011-07-21T13:48:41Z</time>
      </trkpt>
      <trkpt lat="42.89649" lon="0.10761">
        <ele>1567</ele>
        <time>2011-07-21T13:48:50Z</time>
      </trkpt>
      <trkpt lat="42.89645" lon="0.10757">
        <ele>1566</ele>
        <time>2011-07-21T13:48:54Z</time>
      </trkpt>
      <trkpt lat="42.89638" lon="0.10753">
        <ele>1565</ele>
        <time>2011-07-21T13:48:59Z</time>
      </trkpt>
      <trkpt lat="42.89636" lon="0.10752">
        <ele>1565</ele>
        <time>2011-07-21T13:49:01Z</time>
      </trkpt>
      <trkpt lat="42.89633" lon="0.10752">
        <ele>1565</ele>
        <time>2011-07-21T13:49:03Z</time>
      </trkpt>
      <trkpt lat="42.89628" lon="0.10751">
        <ele>1564</ele>
        <time>2011-07-21T13:49:07Z</time>
      </trkpt>
      <trkpt lat="42.89624" lon="0.1075">
        <ele>1564</ele>
        <time>2011-07-21T13:49:10Z</time>
      </trkpt>
      <trkpt lat="42.89621" lon="0.1075">
        <ele>1563</ele>
        <time>2011-07-21T13:49:12Z</time>
      </trkpt>
      <trkpt lat="42.89614" lon="0.1075">
        <ele>1562</ele>
        <time>2011-07-21T13:49:17Z</time>
      </trkpt>
      <trkpt lat="42.8961" lon="0.10749">
        <ele>1562</ele>
        <time>2011-07-21T13:49:20Z</time>
      </trkpt>
      <trkpt lat="42.89607" lon="0.1075">
        <ele>1562</ele>
        <time>2011-07-21T13:49:22Z</time>
      </trkpt>
      <trkpt lat="42.896" lon="0.10749">
        <ele>1561</ele>
        <time>2011-07-21T13:49:27Z</time>
      </trkpt>
      <trkpt lat="42.89595" lon="0.10748">
        <ele>1560</ele>
        <time>2011-07-21T13:49:31Z</time>
      </trkpt>
      <trkpt lat="42.89593" lon="0.10747">
        <ele>1560</ele>
        <time>2011-07-21T13:49:33Z</time>
      </trkpt>
      <trkpt lat="42.89588" lon="0.10744">
        <ele>1559</ele>
        <time>2011-07-21T13:49:37Z</time>
      </trkpt>
      <trkpt lat="42.89581" lon="0.10739">
        <ele>1559</ele>
        <time>2011-07-21T13:49:43Z</time>
      </trkpt>
      <trkpt lat="42.89576" lon="0.10733">
        <ele>1558</ele>
        <time>2011-07-21T13:49:48Z</time>
      </trkpt>
      <trkpt lat="42.89573" lon="0.10729">
        <ele>1558</ele>
        <time>2011-07-21T13:49:51Z</time>
      </trkpt>
      <trkpt lat="42.89571" lon="0.10727">
        <ele>1558</ele>
        <time>2011-07-21T13:49:53Z</time>
      </trkpt>
      <trkpt lat="42.89567" lon="0.10722">
        <ele>1557</ele>
        <time>2011-07-21T13:49:57Z</time>
      </trkpt>
      <trkpt lat="42.89564" lon="0.10717">
        <ele>1556</ele>
        <time>2011-07-21T13:50:01Z</time>
      </trkpt>
      <trkpt lat="42.89559" lon="0.10708">
        <ele>1556</ele>
        <time>2011-07-21T13:50:07Z</time>
      </trkpt>
      <trkpt lat="42.89553" lon="0.10701">
        <ele>1555</ele>
        <time>2011-07-21T13:50:13Z</time>
      </trkpt>
      <trkpt lat="42.89549" lon="0.10697">
        <ele>1555</ele>
        <time>2011-07-21T13:50:17Z</time>
      </trkpt>
      <trkpt lat="42.89545" lon="0.10694">
        <ele>1555</ele>
        <time>2011-07-21T13:50:20Z</time>
      </trkpt>
      <trkpt lat="42.89542" lon="0.10691">
        <ele>1554</ele>
        <time>2011-07-21T13:50:23Z</time>
      </trkpt>
      <trkpt lat="42.89537" lon="0.10688">
        <ele>1554</ele>
        <time>2011-07-21T13:50:27Z</time>
      </trkpt>
      <trkpt lat="42.89533" lon="0.10685">
        <ele>1554</ele>
        <time>2011-07-21T13:50:30Z</time>
      </trkpt>
      <trkpt lat="42.89531" lon="0.10683">
        <ele>1554</ele>
        <time>2011-07-21T13:50:32Z</time>
      </trkpt>
      <trkpt lat="42.89524" lon="0.10674">
        <ele>1553</ele>
        <time>2011-07-21T13:50:39Z</time>
      </trkpt>
      <trkpt lat="42.89522" lon="0.1067">
        <ele>1552</ele>
        <time>2011-07-21T13:50:42Z</time>
      </trkpt>
      <trkpt lat="42.89519" lon="0.10666">
        <ele>1552</ele>
        <time>2011-07-21T13:50:45Z</time>
      </trkpt>
      <trkpt lat="42.89514" lon="0.1066">
        <ele>1551</ele>
        <time>2011-07-21T13:50:50Z</time>
      </trkpt>
      <trkpt lat="42.89513" lon="0.10658">
        <ele>1551</ele>
        <time>2011-07-21T13:50:52Z</time>
      </trkpt>
      <trkpt lat="42.8951" lon="0.10654">
        <ele>1551</ele>
        <time>2011-07-21T13:50:55Z</time>
      </trkpt>
      <trkpt lat="42.89507" lon="0.10642">
        <ele>1550</ele>
        <time>2011-07-21T13:51:02Z</time>
      </trkpt>
      <trkpt lat="42.89506" lon="0.10636">
        <ele>1550</ele>
        <time>2011-07-21T13:51:05Z</time>
      </trkpt>
      <trkpt lat="42.89506" lon="0.10623">
        <ele>1550</ele>
        <time>2011-07-21T13:51:12Z</time>
      </trkpt>
      <trkpt lat="42.89506" lon="0.10618">
        <ele>1549</ele>
        <time>2011-07-21T13:51:15Z</time>
      </trkpt>
      <trkpt lat="42.89508" lon="0.10606">
        <ele>1549</ele>
        <time>2011-07-21T13:51:22Z</time>
      </trkpt>
      <trkpt lat="42.89509" lon="0.106">
        <ele>1548</ele>
        <time>2011-07-21T13:51:25Z</time>
      </trkpt>
      <trkpt lat="42.89514" lon="0.10578">
        <ele>1548</ele>
        <time>2011-07-21T13:51:38Z</time>
      </trkpt>
      <trkpt lat="42.89514" lon="0.10575">
        <ele>1548</ele>
        <time>2011-07-21T13:51:40Z</time>
      </trkpt>
      <trkpt lat="42.89515" lon="0.10572">
        <ele>1548</ele>
        <time>2011-07-21T13:51:42Z</time>
      </trkpt>
      <trkpt lat="42.89516" lon="0.10564">
        <ele>1546</ele>
        <time>2011-07-21T13:51:47Z</time>
      </trkpt>
      <trkpt lat="42.89518" lon="0.10559">
        <ele>1546</ele>
        <time>2011-07-21T13:51:50Z</time>
      </trkpt>
      <trkpt lat="42.89518" lon="0.10556">
        <ele>1545</ele>
        <time>2011-07-21T13:51:52Z</time>
      </trkpt>
      <trkpt lat="42.89516" lon="0.10529">
        <ele>1545</ele>
        <time>2011-07-21T13:52:07Z</time>
      </trkpt>
      <trkpt lat="42.89515" lon="0.10524">
        <ele>1544</ele>
        <time>2011-07-21T13:52:10Z</time>
      </trkpt>
      <trkpt lat="42.89513" lon="0.10512">
        <ele>1544</ele>
        <time>2011-07-21T13:52:17Z</time>
      </trkpt>
      <trkpt lat="42.89512" lon="0.10508">
        <ele>1544</ele>
        <time>2011-07-21T13:52:20Z</time>
      </trkpt>
      <trkpt lat="42.89513" lon="0.10506">
        <ele>1544</ele>
        <time>2011-07-21T13:52:31Z</time>
      </trkpt>
      <trkpt lat="42.89511" lon="0.10508">
        <ele>1544</ele>
        <time>2011-07-21T13:53:11Z</time>
      </trkpt>
      <trkpt lat="42.89509" lon="0.10509">
        <ele>1539</ele>
        <time>2011-07-21T13:53:38Z</time>
      </trkpt>
      <trkpt lat="42.89508" lon="0.1051">
        <ele>1535</ele>
        <time>2011-07-21T13:53:59Z</time>
      </trkpt>
      <trkpt lat="42.8951" lon="0.10507">
        <ele>1539</ele>
        <time>2011-07-21T13:54:13Z</time>
      </trkpt>
      <trkpt lat="42.89511" lon="0.10505">
        <ele>1542</ele>
        <time>2011-07-21T13:54:16Z</time>
      </trkpt>
      <trkpt lat="42.89512" lon="0.10504">
        <ele>1542</ele>
        <time>2011-07-21T13:54:18Z</time>
      </trkpt>
      <trkpt lat="42.89512" lon="0.10504">
        <ele>1543</ele>
        <time>2011-07-21T13:54:25Z</time>
      </trkpt>
      <trkpt lat="42.89513" lon="0.10505">
        <ele>1543</ele>
        <time>2011-07-21T13:54:27Z</time>
      </trkpt>
      <trkpt lat="42.89513" lon="0.10506">
        <ele>1543</ele>
        <time>2011-07-21T13:54:31Z</time>
      </trkpt>
      <trkpt lat="42.89512" lon="0.10506">
        <ele>1543</ele>
        <time>2011-07-21T13:54:44Z</time>
      </trkpt>
    </trkseg>
  </trk>
</gpx>